<?xml version="1.0" encoding="UTF-8"?>
<gpx version="1.1" creator="https://www.youtrack.es" xsi:schemaLocation="http://www.topografix.com/GPX/1/1 http://www.topografix.com/GPX/1/1/gpx.xsd http://www.garmin.com/xmlschemas/GpxExtensions/v3 http://www.garmin.com/xmlschemas/GpxExtensionsv3.xsd http://www.garmin.com/xmlschemas/TrackPointExtension/v1 http://www.garmin.com/xmlschemas/TrackPointExtensionv1.xsd" xmlns:gpxtpx="http://www.garmin.com/xmlschemas/TrackPointExtension/v1" xmlns:gpxx="http://www.garmin.com/xmlschemas/GpxExtensions/v3" xmlns:xsi="http://www.w3.org/2001/XMLSchema-instance">
  <metadata>
    <link href="https://www.youtrack.es">
      <text>YouTrack.es</text>
    </link>
    <time>2026-05-09T01:46:25Z</time>
  </metadata>
  <trk>
    <src>https://www.youtrack.es</src>
    <link href="https://www.youtrack.es/ruta/26383-iguana">
      <text>YouTrack.es</text>
    </link>
    <trkseg>
      <trkpt lat="5.354375" lon="-72.403891">
        <ele>355.10</ele>
        <time>2021-10-07T16:00:00Z</time>
      </trkpt>
      <trkpt lat="5.354375" lon="-72.403893">
        <ele>355.10</ele>
        <time>2021-10-07T16:00:01Z</time>
      </trkpt>
      <trkpt lat="5.354371" lon="-72.403893">
        <ele>355.10</ele>
        <time>2021-10-07T16:00:03Z</time>
      </trkpt>
      <trkpt lat="5.354357" lon="-72.403891">
        <ele>355.10</ele>
        <time>2021-10-07T16:00:04Z</time>
      </trkpt>
      <trkpt lat="5.354331" lon="-72.403861">
        <ele>355.40</ele>
        <time>2021-10-07T16:00:05Z</time>
      </trkpt>
      <trkpt lat="5.354270" lon="-72.403802">
        <ele>355.30</ele>
        <time>2021-10-07T16:00:07Z</time>
      </trkpt>
      <trkpt lat="5.354225" lon="-72.403767">
        <ele>355.70</ele>
        <time>2021-10-07T16:00:08Z</time>
      </trkpt>
      <trkpt lat="5.354184" lon="-72.403729">
        <ele>355.70</ele>
        <time>2021-10-07T16:00:09Z</time>
      </trkpt>
      <trkpt lat="5.354139" lon="-72.403679">
        <ele>356.00</ele>
        <time>2021-10-07T16:00:10Z</time>
      </trkpt>
      <trkpt lat="5.354103" lon="-72.403646">
        <ele>356.60</ele>
        <time>2021-10-07T16:00:12Z</time>
      </trkpt>
      <trkpt lat="5.354073" lon="-72.403623">
        <ele>357.60</ele>
        <time>2021-10-07T16:00:13Z</time>
      </trkpt>
      <trkpt lat="5.354036" lon="-72.403589">
        <ele>357.60</ele>
        <time>2021-10-07T16:00:14Z</time>
      </trkpt>
      <trkpt lat="5.354007" lon="-72.403558">
        <ele>358.90</ele>
        <time>2021-10-07T16:00:16Z</time>
      </trkpt>
      <trkpt lat="5.353986" lon="-72.403528">
        <ele>360.00</ele>
        <time>2021-10-07T16:00:17Z</time>
      </trkpt>
      <trkpt lat="5.353968" lon="-72.403493">
        <ele>359.70</ele>
        <time>2021-10-07T16:00:18Z</time>
      </trkpt>
      <trkpt lat="5.353944" lon="-72.403451">
        <ele>360.40</ele>
        <time>2021-10-07T16:00:19Z</time>
      </trkpt>
      <trkpt lat="5.353918" lon="-72.403414">
        <ele>360.10</ele>
        <time>2021-10-07T16:00:21Z</time>
      </trkpt>
      <trkpt lat="5.353899" lon="-72.403383">
        <ele>361.00</ele>
        <time>2021-10-07T16:00:22Z</time>
      </trkpt>
      <trkpt lat="5.353894" lon="-72.403375">
        <ele>360.80</ele>
        <time>2021-10-07T16:00:23Z</time>
      </trkpt>
      <trkpt lat="5.353875" lon="-72.403350">
        <ele>360.80</ele>
        <time>2021-10-07T16:00:24Z</time>
      </trkpt>
      <trkpt lat="5.353859" lon="-72.403330">
        <ele>361.40</ele>
        <time>2021-10-07T16:00:25Z</time>
      </trkpt>
      <trkpt lat="5.353831" lon="-72.403290">
        <ele>361.10</ele>
        <time>2021-10-07T16:00:27Z</time>
      </trkpt>
      <trkpt lat="5.353795" lon="-72.403236">
        <ele>361.30</ele>
        <time>2021-10-07T16:00:29Z</time>
      </trkpt>
      <trkpt lat="5.353776" lon="-72.403197">
        <ele>361.10</ele>
        <time>2021-10-07T16:00:30Z</time>
      </trkpt>
      <trkpt lat="5.353764" lon="-72.403158">
        <ele>360.30</ele>
        <time>2021-10-07T16:00:31Z</time>
      </trkpt>
      <trkpt lat="5.353755" lon="-72.403064">
        <ele>358.90</ele>
        <time>2021-10-07T16:00:33Z</time>
      </trkpt>
      <trkpt lat="5.353725" lon="-72.402953">
        <ele>359.00</ele>
        <time>2021-10-07T16:00:35Z</time>
      </trkpt>
      <trkpt lat="5.353707" lon="-72.402897">
        <ele>358.90</ele>
        <time>2021-10-07T16:00:36Z</time>
      </trkpt>
      <trkpt lat="5.353665" lon="-72.402789">
        <ele>359.40</ele>
        <time>2021-10-07T16:00:38Z</time>
      </trkpt>
      <trkpt lat="5.353639" lon="-72.402734">
        <ele>359.30</ele>
        <time>2021-10-07T16:00:39Z</time>
      </trkpt>
      <trkpt lat="5.353598" lon="-72.402627">
        <ele>358.40</ele>
        <time>2021-10-07T16:00:41Z</time>
      </trkpt>
      <trkpt lat="5.353577" lon="-72.402560">
        <ele>356.80</ele>
        <time>2021-10-07T16:00:42Z</time>
      </trkpt>
      <trkpt lat="5.353564" lon="-72.402515">
        <ele>356.50</ele>
        <time>2021-10-07T16:00:44Z</time>
      </trkpt>
      <trkpt lat="5.353546" lon="-72.402468">
        <ele>355.90</ele>
        <time>2021-10-07T16:00:45Z</time>
      </trkpt>
      <trkpt lat="5.353536" lon="-72.402440">
        <ele>355.90</ele>
        <time>2021-10-07T16:00:46Z</time>
      </trkpt>
      <trkpt lat="5.353529" lon="-72.402418">
        <ele>355.50</ele>
        <time>2021-10-07T16:00:47Z</time>
      </trkpt>
      <trkpt lat="5.353531" lon="-72.402416">
        <ele>355.50</ele>
        <time>2021-10-07T16:00:48Z</time>
      </trkpt>
      <trkpt lat="5.353531" lon="-72.402403">
        <ele>355.50</ele>
        <time>2021-10-07T16:00:50Z</time>
      </trkpt>
      <trkpt lat="5.353532" lon="-72.402385">
        <ele>355.20</ele>
        <time>2021-10-07T16:00:51Z</time>
      </trkpt>
      <trkpt lat="5.353534" lon="-72.402368">
        <ele>355.20</ele>
        <time>2021-10-07T16:00:52Z</time>
      </trkpt>
      <trkpt lat="5.353529" lon="-72.402339">
        <ele>354.90</ele>
        <time>2021-10-07T16:00:54Z</time>
      </trkpt>
      <trkpt lat="5.353511" lon="-72.402300">
        <ele>355.40</ele>
        <time>2021-10-07T16:00:56Z</time>
      </trkpt>
      <trkpt lat="5.353481" lon="-72.402259">
        <ele>355.40</ele>
        <time>2021-10-07T16:00:57Z</time>
      </trkpt>
      <trkpt lat="5.353462" lon="-72.402228">
        <ele>355.90</ele>
        <time>2021-10-07T16:00:58Z</time>
      </trkpt>
      <trkpt lat="5.353440" lon="-72.402195">
        <ele>355.90</ele>
        <time>2021-10-07T16:01:00Z</time>
      </trkpt>
      <trkpt lat="5.353426" lon="-72.402165">
        <ele>356.20</ele>
        <time>2021-10-07T16:01:01Z</time>
      </trkpt>
      <trkpt lat="5.353409" lon="-72.402132">
        <ele>356.00</ele>
        <time>2021-10-07T16:01:02Z</time>
      </trkpt>
      <trkpt lat="5.353372" lon="-72.402069">
        <ele>356.10</ele>
        <time>2021-10-07T16:01:04Z</time>
      </trkpt>
      <trkpt lat="5.353337" lon="-72.401995">
        <ele>356.10</ele>
        <time>2021-10-07T16:01:06Z</time>
      </trkpt>
      <trkpt lat="5.353313" lon="-72.401962">
        <ele>356.00</ele>
        <time>2021-10-07T16:01:07Z</time>
      </trkpt>
      <trkpt lat="5.353274" lon="-72.401902">
        <ele>356.80</ele>
        <time>2021-10-07T16:01:09Z</time>
      </trkpt>
      <trkpt lat="5.353255" lon="-72.401858">
        <ele>357.60</ele>
        <time>2021-10-07T16:01:10Z</time>
      </trkpt>
      <trkpt lat="5.353176" lon="-72.401699">
        <ele>359.00</ele>
        <time>2021-10-07T16:01:12Z</time>
      </trkpt>
      <trkpt lat="5.353140" lon="-72.401637">
        <ele>359.10</ele>
        <time>2021-10-07T16:01:13Z</time>
      </trkpt>
      <trkpt lat="5.353101" lon="-72.401582">
        <ele>359.90</ele>
        <time>2021-10-07T16:01:14Z</time>
      </trkpt>
      <trkpt lat="5.353041" lon="-72.401492">
        <ele>360.40</ele>
        <time>2021-10-07T16:01:16Z</time>
      </trkpt>
      <trkpt lat="5.353014" lon="-72.401459">
        <ele>360.10</ele>
        <time>2021-10-07T16:01:17Z</time>
      </trkpt>
      <trkpt lat="5.352978" lon="-72.401408">
        <ele>359.70</ele>
        <time>2021-10-07T16:01:19Z</time>
      </trkpt>
      <trkpt lat="5.352935" lon="-72.401343">
        <ele>358.80</ele>
        <time>2021-10-07T16:01:21Z</time>
      </trkpt>
      <trkpt lat="5.352916" lon="-72.401308">
        <ele>358.50</ele>
        <time>2021-10-07T16:01:22Z</time>
      </trkpt>
      <trkpt lat="5.352885" lon="-72.401251">
        <ele>358.00</ele>
        <time>2021-10-07T16:01:24Z</time>
      </trkpt>
      <trkpt lat="5.352858" lon="-72.401209">
        <ele>357.70</ele>
        <time>2021-10-07T16:01:25Z</time>
      </trkpt>
      <trkpt lat="5.352828" lon="-72.401157">
        <ele>357.60</ele>
        <time>2021-10-07T16:01:27Z</time>
      </trkpt>
      <trkpt lat="5.352814" lon="-72.401120">
        <ele>357.20</ele>
        <time>2021-10-07T16:01:28Z</time>
      </trkpt>
      <trkpt lat="5.352810" lon="-72.401088">
        <ele>356.90</ele>
        <time>2021-10-07T16:01:29Z</time>
      </trkpt>
      <trkpt lat="5.352812" lon="-72.401046">
        <ele>356.60</ele>
        <time>2021-10-07T16:01:31Z</time>
      </trkpt>
      <trkpt lat="5.352819" lon="-72.401025">
        <ele>356.60</ele>
        <time>2021-10-07T16:01:32Z</time>
      </trkpt>
      <trkpt lat="5.352827" lon="-72.401006">
        <ele>356.20</ele>
        <time>2021-10-07T16:01:34Z</time>
      </trkpt>
      <trkpt lat="5.352830" lon="-72.400989">
        <ele>356.20</ele>
        <time>2021-10-07T16:01:35Z</time>
      </trkpt>
      <trkpt lat="5.352829" lon="-72.400979">
        <ele>356.20</ele>
        <time>2021-10-07T16:01:36Z</time>
      </trkpt>
      <trkpt lat="5.352829" lon="-72.400973">
        <ele>355.80</ele>
        <time>2021-10-07T16:01:37Z</time>
      </trkpt>
      <trkpt lat="5.352829" lon="-72.400968">
        <ele>355.80</ele>
        <time>2021-10-07T16:01:38Z</time>
      </trkpt>
      <trkpt lat="5.352825" lon="-72.400950">
        <ele>355.80</ele>
        <time>2021-10-07T16:01:40Z</time>
      </trkpt>
      <trkpt lat="5.352813" lon="-72.400923">
        <ele>355.40</ele>
        <time>2021-10-07T16:01:42Z</time>
      </trkpt>
      <trkpt lat="5.352799" lon="-72.400892">
        <ele>355.40</ele>
        <time>2021-10-07T16:01:43Z</time>
      </trkpt>
      <trkpt lat="5.352787" lon="-72.400866">
        <ele>355.80</ele>
        <time>2021-10-07T16:01:44Z</time>
      </trkpt>
      <trkpt lat="5.352759" lon="-72.400834">
        <ele>355.90</ele>
        <time>2021-10-07T16:01:46Z</time>
      </trkpt>
      <trkpt lat="5.352747" lon="-72.400806">
        <ele>356.60</ele>
        <time>2021-10-07T16:01:47Z</time>
      </trkpt>
      <trkpt lat="5.352730" lon="-72.400782">
        <ele>357.00</ele>
        <time>2021-10-07T16:01:48Z</time>
      </trkpt>
      <trkpt lat="5.352724" lon="-72.400775">
        <ele>357.00</ele>
        <time>2021-10-07T16:01:49Z</time>
      </trkpt>
      <trkpt lat="5.352707" lon="-72.400758">
        <ele>358.30</ele>
        <time>2021-10-07T16:01:50Z</time>
      </trkpt>
      <trkpt lat="5.352680" lon="-72.400724">
        <ele>358.30</ele>
        <time>2021-10-07T16:01:52Z</time>
      </trkpt>
      <trkpt lat="5.352661" lon="-72.400692">
        <ele>359.30</ele>
        <time>2021-10-07T16:01:53Z</time>
      </trkpt>
      <trkpt lat="5.352656" lon="-72.400683">
        <ele>359.30</ele>
        <time>2021-10-07T16:01:54Z</time>
      </trkpt>
      <trkpt lat="5.352649" lon="-72.400655">
        <ele>359.50</ele>
        <time>2021-10-07T16:01:56Z</time>
      </trkpt>
      <trkpt lat="5.352651" lon="-72.400632">
        <ele>359.50</ele>
        <time>2021-10-07T16:01:57Z</time>
      </trkpt>
      <trkpt lat="5.352654" lon="-72.400599">
        <ele>359.50</ele>
        <time>2021-10-07T16:01:59Z</time>
      </trkpt>
      <trkpt lat="5.352654" lon="-72.400582">
        <ele>359.30</ele>
        <time>2021-10-07T16:02:00Z</time>
      </trkpt>
      <trkpt lat="5.352655" lon="-72.400569">
        <ele>359.30</ele>
        <time>2021-10-07T16:02:01Z</time>
      </trkpt>
      <trkpt lat="5.352653" lon="-72.400563">
        <ele>359.30</ele>
        <time>2021-10-07T16:02:02Z</time>
      </trkpt>
      <trkpt lat="5.352653" lon="-72.400544">
        <ele>359.00</ele>
        <time>2021-10-07T16:02:04Z</time>
      </trkpt>
      <trkpt lat="5.352651" lon="-72.400505">
        <ele>359.00</ele>
        <time>2021-10-07T16:02:06Z</time>
      </trkpt>
      <trkpt lat="5.352633" lon="-72.400482">
        <ele>358.70</ele>
        <time>2021-10-07T16:02:08Z</time>
      </trkpt>
      <trkpt lat="5.352629" lon="-72.400475">
        <ele>358.70</ele>
        <time>2021-10-07T16:02:09Z</time>
      </trkpt>
      <trkpt lat="5.352618" lon="-72.400456">
        <ele>358.60</ele>
        <time>2021-10-07T16:02:10Z</time>
      </trkpt>
      <trkpt lat="5.352594" lon="-72.400411">
        <ele>358.30</ele>
        <time>2021-10-07T16:02:12Z</time>
      </trkpt>
      <trkpt lat="5.352560" lon="-72.400368">
        <ele>358.40</ele>
        <time>2021-10-07T16:02:13Z</time>
      </trkpt>
      <trkpt lat="5.352532" lon="-72.400329">
        <ele>358.50</ele>
        <time>2021-10-07T16:02:15Z</time>
      </trkpt>
      <trkpt lat="5.352510" lon="-72.400297">
        <ele>358.50</ele>
        <time>2021-10-07T16:02:16Z</time>
      </trkpt>
      <trkpt lat="5.352479" lon="-72.400252">
        <ele>358.30</ele>
        <time>2021-10-07T16:02:18Z</time>
      </trkpt>
      <trkpt lat="5.352464" lon="-72.400229">
        <ele>357.80</ele>
        <time>2021-10-07T16:02:19Z</time>
      </trkpt>
      <trkpt lat="5.352444" lon="-72.400201">
        <ele>357.30</ele>
        <time>2021-10-07T16:02:20Z</time>
      </trkpt>
      <trkpt lat="5.352417" lon="-72.400158">
        <ele>356.90</ele>
        <time>2021-10-07T16:02:21Z</time>
      </trkpt>
      <trkpt lat="5.352395" lon="-72.400125">
        <ele>357.00</ele>
        <time>2021-10-07T16:02:22Z</time>
      </trkpt>
      <trkpt lat="5.352363" lon="-72.400082">
        <ele>357.10</ele>
        <time>2021-10-07T16:02:24Z</time>
      </trkpt>
      <trkpt lat="5.352333" lon="-72.400041">
        <ele>356.90</ele>
        <time>2021-10-07T16:02:25Z</time>
      </trkpt>
      <trkpt lat="5.352290" lon="-72.399983">
        <ele>356.70</ele>
        <time>2021-10-07T16:02:27Z</time>
      </trkpt>
      <trkpt lat="5.352260" lon="-72.399937">
        <ele>356.60</ele>
        <time>2021-10-07T16:02:28Z</time>
      </trkpt>
      <trkpt lat="5.352241" lon="-72.399906">
        <ele>356.60</ele>
        <time>2021-10-07T16:02:29Z</time>
      </trkpt>
      <trkpt lat="5.352207" lon="-72.399857">
        <ele>356.30</ele>
        <time>2021-10-07T16:02:31Z</time>
      </trkpt>
      <trkpt lat="5.352194" lon="-72.399819">
        <ele>356.60</ele>
        <time>2021-10-07T16:02:32Z</time>
      </trkpt>
      <trkpt lat="5.352178" lon="-72.399785">
        <ele>356.60</ele>
        <time>2021-10-07T16:02:34Z</time>
      </trkpt>
      <trkpt lat="5.352169" lon="-72.399735">
        <ele>356.60</ele>
        <time>2021-10-07T16:02:36Z</time>
      </trkpt>
      <trkpt lat="5.352165" lon="-72.399694">
        <ele>356.60</ele>
        <time>2021-10-07T16:02:37Z</time>
      </trkpt>
      <trkpt lat="5.352156" lon="-72.399637">
        <ele>356.60</ele>
        <time>2021-10-07T16:02:38Z</time>
      </trkpt>
      <trkpt lat="5.352145" lon="-72.399586">
        <ele>356.80</ele>
        <time>2021-10-07T16:02:39Z</time>
      </trkpt>
      <trkpt lat="5.352136" lon="-72.399537">
        <ele>356.80</ele>
        <time>2021-10-07T16:02:41Z</time>
      </trkpt>
      <trkpt lat="5.352127" lon="-72.399490">
        <ele>356.70</ele>
        <time>2021-10-07T16:02:42Z</time>
      </trkpt>
      <trkpt lat="5.352116" lon="-72.399448">
        <ele>356.60</ele>
        <time>2021-10-07T16:02:43Z</time>
      </trkpt>
      <trkpt lat="5.352105" lon="-72.399413">
        <ele>356.90</ele>
        <time>2021-10-07T16:02:44Z</time>
      </trkpt>
      <trkpt lat="5.352095" lon="-72.399373">
        <ele>356.90</ele>
        <time>2021-10-07T16:02:45Z</time>
      </trkpt>
      <trkpt lat="5.352081" lon="-72.399312">
        <ele>356.90</ele>
        <time>2021-10-07T16:02:47Z</time>
      </trkpt>
      <trkpt lat="5.352070" lon="-72.399265">
        <ele>356.90</ele>
        <time>2021-10-07T16:02:48Z</time>
      </trkpt>
      <trkpt lat="5.352059" lon="-72.399220">
        <ele>357.30</ele>
        <time>2021-10-07T16:02:49Z</time>
      </trkpt>
      <trkpt lat="5.352050" lon="-72.399180">
        <ele>357.30</ele>
        <time>2021-10-07T16:02:50Z</time>
      </trkpt>
      <trkpt lat="5.352034" lon="-72.399105">
        <ele>357.10</ele>
        <time>2021-10-07T16:02:52Z</time>
      </trkpt>
      <trkpt lat="5.352025" lon="-72.399043">
        <ele>357.30</ele>
        <time>2021-10-07T16:02:54Z</time>
      </trkpt>
      <trkpt lat="5.352031" lon="-72.399002">
        <ele>356.80</ele>
        <time>2021-10-07T16:02:55Z</time>
      </trkpt>
      <trkpt lat="5.352037" lon="-72.398962">
        <ele>356.60</ele>
        <time>2021-10-07T16:02:56Z</time>
      </trkpt>
      <trkpt lat="5.352047" lon="-72.398888">
        <ele>356.10</ele>
        <time>2021-10-07T16:02:58Z</time>
      </trkpt>
      <trkpt lat="5.352052" lon="-72.398825">
        <ele>355.40</ele>
        <time>2021-10-07T16:02:59Z</time>
      </trkpt>
      <trkpt lat="5.352049" lon="-72.398766">
        <ele>355.00</ele>
        <time>2021-10-07T16:03:00Z</time>
      </trkpt>
      <trkpt lat="5.352015" lon="-72.398611">
        <ele>353.00</ele>
        <time>2021-10-07T16:03:02Z</time>
      </trkpt>
      <trkpt lat="5.352005" lon="-72.398566">
        <ele>352.60</ele>
        <time>2021-10-07T16:03:03Z</time>
      </trkpt>
      <trkpt lat="5.352021" lon="-72.398484">
        <ele>351.80</ele>
        <time>2021-10-07T16:03:05Z</time>
      </trkpt>
      <trkpt lat="5.352003" lon="-72.398389">
        <ele>351.30</ele>
        <time>2021-10-07T16:03:07Z</time>
      </trkpt>
      <trkpt lat="5.351991" lon="-72.398339">
        <ele>351.00</ele>
        <time>2021-10-07T16:03:08Z</time>
      </trkpt>
      <trkpt lat="5.351969" lon="-72.398257">
        <ele>351.20</ele>
        <time>2021-10-07T16:03:10Z</time>
      </trkpt>
      <trkpt lat="5.351949" lon="-72.398197">
        <ele>351.20</ele>
        <time>2021-10-07T16:03:12Z</time>
      </trkpt>
      <trkpt lat="5.351934" lon="-72.398152">
        <ele>351.90</ele>
        <time>2021-10-07T16:03:13Z</time>
      </trkpt>
      <trkpt lat="5.351924" lon="-72.398103">
        <ele>351.80</ele>
        <time>2021-10-07T16:03:14Z</time>
      </trkpt>
      <trkpt lat="5.351916" lon="-72.398057">
        <ele>351.70</ele>
        <time>2021-10-07T16:03:16Z</time>
      </trkpt>
      <trkpt lat="5.351911" lon="-72.398005">
        <ele>351.20</ele>
        <time>2021-10-07T16:03:17Z</time>
      </trkpt>
      <trkpt lat="5.351898" lon="-72.397925">
        <ele>350.90</ele>
        <time>2021-10-07T16:03:18Z</time>
      </trkpt>
      <trkpt lat="5.351888" lon="-72.397855">
        <ele>351.10</ele>
        <time>2021-10-07T16:03:20Z</time>
      </trkpt>
      <trkpt lat="5.351882" lon="-72.397790">
        <ele>351.20</ele>
        <time>2021-10-07T16:03:21Z</time>
      </trkpt>
      <trkpt lat="5.351883" lon="-72.397733">
        <ele>351.30</ele>
        <time>2021-10-07T16:03:22Z</time>
      </trkpt>
      <trkpt lat="5.351885" lon="-72.397683">
        <ele>351.30</ele>
        <time>2021-10-07T16:03:23Z</time>
      </trkpt>
      <trkpt lat="5.351885" lon="-72.397637">
        <ele>351.30</ele>
        <time>2021-10-07T16:03:24Z</time>
      </trkpt>
      <trkpt lat="5.351884" lon="-72.397574">
        <ele>351.10</ele>
        <time>2021-10-07T16:03:25Z</time>
      </trkpt>
      <trkpt lat="5.351880" lon="-72.397500">
        <ele>351.10</ele>
        <time>2021-10-07T16:03:27Z</time>
      </trkpt>
      <trkpt lat="5.351867" lon="-72.397383">
        <ele>351.30</ele>
        <time>2021-10-07T16:03:29Z</time>
      </trkpt>
      <trkpt lat="5.351859" lon="-72.397194">
        <ele>352.10</ele>
        <time>2021-10-07T16:03:31Z</time>
      </trkpt>
      <trkpt lat="5.351869" lon="-72.397118">
        <ele>351.80</ele>
        <time>2021-10-07T16:03:33Z</time>
      </trkpt>
      <trkpt lat="5.351876" lon="-72.397083">
        <ele>351.50</ele>
        <time>2021-10-07T16:03:34Z</time>
      </trkpt>
      <trkpt lat="5.351884" lon="-72.397035">
        <ele>351.30</ele>
        <time>2021-10-07T16:03:35Z</time>
      </trkpt>
      <trkpt lat="5.351898" lon="-72.396999">
        <ele>350.60</ele>
        <time>2021-10-07T16:03:37Z</time>
      </trkpt>
      <trkpt lat="5.351905" lon="-72.396968">
        <ele>350.60</ele>
        <time>2021-10-07T16:03:38Z</time>
      </trkpt>
      <trkpt lat="5.351910" lon="-72.396938">
        <ele>350.70</ele>
        <time>2021-10-07T16:03:39Z</time>
      </trkpt>
      <trkpt lat="5.351908" lon="-72.396896">
        <ele>350.80</ele>
        <time>2021-10-07T16:03:40Z</time>
      </trkpt>
      <trkpt lat="5.351906" lon="-72.396864">
        <ele>350.80</ele>
        <time>2021-10-07T16:03:41Z</time>
      </trkpt>
      <trkpt lat="5.351904" lon="-72.396827">
        <ele>351.00</ele>
        <time>2021-10-07T16:03:42Z</time>
      </trkpt>
      <trkpt lat="5.351902" lon="-72.396776">
        <ele>351.20</ele>
        <time>2021-10-07T16:03:44Z</time>
      </trkpt>
      <trkpt lat="5.351911" lon="-72.396733">
        <ele>351.50</ele>
        <time>2021-10-07T16:03:46Z</time>
      </trkpt>
      <trkpt lat="5.351920" lon="-72.396699">
        <ele>351.80</ele>
        <time>2021-10-07T16:03:48Z</time>
      </trkpt>
      <trkpt lat="5.351923" lon="-72.396685">
        <ele>351.80</ele>
        <time>2021-10-07T16:03:49Z</time>
      </trkpt>
      <trkpt lat="5.351926" lon="-72.396676">
        <ele>352.10</ele>
        <time>2021-10-07T16:03:50Z</time>
      </trkpt>
      <trkpt lat="5.351929" lon="-72.396670">
        <ele>352.10</ele>
        <time>2021-10-07T16:03:51Z</time>
      </trkpt>
      <trkpt lat="5.351925" lon="-72.396654">
        <ele>352.10</ele>
        <time>2021-10-07T16:03:54Z</time>
      </trkpt>
      <trkpt lat="5.351922" lon="-72.396645">
        <ele>352.10</ele>
        <time>2021-10-07T16:03:55Z</time>
      </trkpt>
      <trkpt lat="5.351919" lon="-72.396637">
        <ele>352.40</ele>
        <time>2021-10-07T16:03:57Z</time>
      </trkpt>
      <trkpt lat="5.351916" lon="-72.396629">
        <ele>352.40</ele>
        <time>2021-10-07T16:03:58Z</time>
      </trkpt>
      <trkpt lat="5.351900" lon="-72.396600">
        <ele>352.40</ele>
        <time>2021-10-07T16:03:59Z</time>
      </trkpt>
      <trkpt lat="5.351879" lon="-72.396560">
        <ele>354.00</ele>
        <time>2021-10-07T16:04:01Z</time>
      </trkpt>
      <trkpt lat="5.351853" lon="-72.396515">
        <ele>355.10</ele>
        <time>2021-10-07T16:04:02Z</time>
      </trkpt>
      <trkpt lat="5.351828" lon="-72.396468">
        <ele>354.30</ele>
        <time>2021-10-07T16:04:03Z</time>
      </trkpt>
      <trkpt lat="5.351795" lon="-72.396412">
        <ele>354.50</ele>
        <time>2021-10-07T16:04:05Z</time>
      </trkpt>
      <trkpt lat="5.351765" lon="-72.396367">
        <ele>354.60</ele>
        <time>2021-10-07T16:04:06Z</time>
      </trkpt>
      <trkpt lat="5.351744" lon="-72.396338">
        <ele>354.30</ele>
        <time>2021-10-07T16:04:07Z</time>
      </trkpt>
      <trkpt lat="5.351735" lon="-72.396317">
        <ele>354.30</ele>
        <time>2021-10-07T16:04:08Z</time>
      </trkpt>
      <trkpt lat="5.351719" lon="-72.396278">
        <ele>354.60</ele>
        <time>2021-10-07T16:04:10Z</time>
      </trkpt>
      <trkpt lat="5.351712" lon="-72.396246">
        <ele>354.40</ele>
        <time>2021-10-07T16:04:11Z</time>
      </trkpt>
      <trkpt lat="5.351704" lon="-72.396219">
        <ele>354.40</ele>
        <time>2021-10-07T16:04:13Z</time>
      </trkpt>
      <trkpt lat="5.351700" lon="-72.396191">
        <ele>354.20</ele>
        <time>2021-10-07T16:04:14Z</time>
      </trkpt>
      <trkpt lat="5.351693" lon="-72.396162">
        <ele>354.00</ele>
        <time>2021-10-07T16:04:15Z</time>
      </trkpt>
      <trkpt lat="5.351679" lon="-72.396118">
        <ele>353.80</ele>
        <time>2021-10-07T16:04:17Z</time>
      </trkpt>
      <trkpt lat="5.351676" lon="-72.396090">
        <ele>353.80</ele>
        <time>2021-10-07T16:04:18Z</time>
      </trkpt>
      <trkpt lat="5.351676" lon="-72.396069">
        <ele>353.40</ele>
        <time>2021-10-07T16:04:19Z</time>
      </trkpt>
      <trkpt lat="5.351683" lon="-72.396036">
        <ele>353.00</ele>
        <time>2021-10-07T16:04:21Z</time>
      </trkpt>
      <trkpt lat="5.351687" lon="-72.396010">
        <ele>353.00</ele>
        <time>2021-10-07T16:04:23Z</time>
      </trkpt>
      <trkpt lat="5.351687" lon="-72.396003">
        <ele>353.00</ele>
        <time>2021-10-07T16:04:24Z</time>
      </trkpt>
      <trkpt lat="5.351688" lon="-72.395999">
        <ele>353.00</ele>
        <time>2021-10-07T16:04:26Z</time>
      </trkpt>
      <trkpt lat="5.351691" lon="-72.395999">
        <ele>353.00</ele>
        <time>2021-10-07T16:04:28Z</time>
      </trkpt>
      <trkpt lat="5.351692" lon="-72.395999">
        <ele>353.00</ele>
        <time>2021-10-07T16:04:29Z</time>
      </trkpt>
      <trkpt lat="5.351694" lon="-72.395999">
        <ele>353.00</ele>
        <time>2021-10-07T16:04:31Z</time>
      </trkpt>
      <trkpt lat="5.351695" lon="-72.395998">
        <ele>353.00</ele>
        <time>2021-10-07T16:04:32Z</time>
      </trkpt>
      <trkpt lat="5.351697" lon="-72.395996">
        <ele>352.60</ele>
        <time>2021-10-07T16:04:34Z</time>
      </trkpt>
      <trkpt lat="5.351697" lon="-72.395992">
        <ele>352.60</ele>
        <time>2021-10-07T16:04:35Z</time>
      </trkpt>
      <trkpt lat="5.351698" lon="-72.395986">
        <ele>352.60</ele>
        <time>2021-10-07T16:04:37Z</time>
      </trkpt>
      <trkpt lat="5.351700" lon="-72.395983">
        <ele>352.60</ele>
        <time>2021-10-07T16:04:38Z</time>
      </trkpt>
      <trkpt lat="5.351706" lon="-72.395975">
        <ele>352.60</ele>
        <time>2021-10-07T16:04:40Z</time>
      </trkpt>
      <trkpt lat="5.351710" lon="-72.395970">
        <ele>352.60</ele>
        <time>2021-10-07T16:04:41Z</time>
      </trkpt>
      <trkpt lat="5.351713" lon="-72.395967">
        <ele>352.60</ele>
        <time>2021-10-07T16:04:42Z</time>
      </trkpt>
      <trkpt lat="5.351718" lon="-72.395963">
        <ele>352.60</ele>
        <time>2021-10-07T16:04:43Z</time>
      </trkpt>
      <trkpt lat="5.351721" lon="-72.395960">
        <ele>352.60</ele>
        <time>2021-10-07T16:04:45Z</time>
      </trkpt>
      <trkpt lat="5.351724" lon="-72.395958">
        <ele>352.60</ele>
        <time>2021-10-07T16:04:46Z</time>
      </trkpt>
      <trkpt lat="5.351728" lon="-72.395956">
        <ele>352.40</ele>
        <time>2021-10-07T16:04:48Z</time>
      </trkpt>
      <trkpt lat="5.351729" lon="-72.395955">
        <ele>352.40</ele>
        <time>2021-10-07T16:04:49Z</time>
      </trkpt>
      <trkpt lat="5.351729" lon="-72.395958">
        <ele>352.40</ele>
        <time>2021-10-07T16:04:50Z</time>
      </trkpt>
      <trkpt lat="5.351731" lon="-72.395968">
        <ele>352.40</ele>
        <time>2021-10-07T16:04:52Z</time>
      </trkpt>
      <trkpt lat="5.351736" lon="-72.395981">
        <ele>352.40</ele>
        <time>2021-10-07T16:04:53Z</time>
      </trkpt>
      <trkpt lat="5.351737" lon="-72.395987">
        <ele>352.40</ele>
        <time>2021-10-07T16:04:54Z</time>
      </trkpt>
      <trkpt lat="5.351741" lon="-72.395993">
        <ele>352.40</ele>
        <time>2021-10-07T16:04:55Z</time>
      </trkpt>
      <trkpt lat="5.351745" lon="-72.395996">
        <ele>352.40</ele>
        <time>2021-10-07T16:04:57Z</time>
      </trkpt>
      <trkpt lat="5.351748" lon="-72.396000">
        <ele>352.70</ele>
        <time>2021-10-07T16:04:59Z</time>
      </trkpt>
      <trkpt lat="5.351752" lon="-72.396003">
        <ele>352.70</ele>
        <time>2021-10-07T16:05:01Z</time>
      </trkpt>
      <trkpt lat="5.351756" lon="-72.396007">
        <ele>352.70</ele>
        <time>2021-10-07T16:05:02Z</time>
      </trkpt>
      <trkpt lat="5.351760" lon="-72.396010">
        <ele>352.70</ele>
        <time>2021-10-07T16:05:03Z</time>
      </trkpt>
      <trkpt lat="5.351763" lon="-72.396014">
        <ele>352.70</ele>
        <time>2021-10-07T16:05:04Z</time>
      </trkpt>
      <trkpt lat="5.351767" lon="-72.396017">
        <ele>352.70</ele>
        <time>2021-10-07T16:05:06Z</time>
      </trkpt>
      <trkpt lat="5.351771" lon="-72.396021">
        <ele>352.20</ele>
        <time>2021-10-07T16:05:07Z</time>
      </trkpt>
      <trkpt lat="5.351802" lon="-72.396038">
        <ele>352.20</ele>
        <time>2021-10-07T16:05:08Z</time>
      </trkpt>
      <trkpt lat="5.351812" lon="-72.396045">
        <ele>352.40</ele>
        <time>2021-10-07T16:05:09Z</time>
      </trkpt>
      <trkpt lat="5.351841" lon="-72.396070">
        <ele>351.60</ele>
        <time>2021-10-07T16:05:10Z</time>
      </trkpt>
      <trkpt lat="5.351850" lon="-72.396079">
        <ele>351.60</ele>
        <time>2021-10-07T16:05:11Z</time>
      </trkpt>
      <trkpt lat="5.351875" lon="-72.396104">
        <ele>350.90</ele>
        <time>2021-10-07T16:05:13Z</time>
      </trkpt>
      <trkpt lat="5.351880" lon="-72.396138">
        <ele>351.10</ele>
        <time>2021-10-07T16:05:14Z</time>
      </trkpt>
      <trkpt lat="5.351890" lon="-72.396185">
        <ele>351.40</ele>
        <time>2021-10-07T16:05:15Z</time>
      </trkpt>
      <trkpt lat="5.351899" lon="-72.396212">
        <ele>350.90</ele>
        <time>2021-10-07T16:05:16Z</time>
      </trkpt>
      <trkpt lat="5.351912" lon="-72.396246">
        <ele>350.90</ele>
        <time>2021-10-07T16:05:17Z</time>
      </trkpt>
      <trkpt lat="5.351926" lon="-72.396277">
        <ele>351.10</ele>
        <time>2021-10-07T16:05:18Z</time>
      </trkpt>
      <trkpt lat="5.351947" lon="-72.396325">
        <ele>350.40</ele>
        <time>2021-10-07T16:05:20Z</time>
      </trkpt>
      <trkpt lat="5.351959" lon="-72.396363">
        <ele>350.50</ele>
        <time>2021-10-07T16:05:22Z</time>
      </trkpt>
      <trkpt lat="5.351970" lon="-72.396393">
        <ele>350.60</ele>
        <time>2021-10-07T16:05:24Z</time>
      </trkpt>
      <trkpt lat="5.351985" lon="-72.396444">
        <ele>349.30</ele>
        <time>2021-10-07T16:05:26Z</time>
      </trkpt>
      <trkpt lat="5.351993" lon="-72.396472">
        <ele>349.30</ele>
        <time>2021-10-07T16:05:27Z</time>
      </trkpt>
      <trkpt lat="5.352004" lon="-72.396511">
        <ele>349.30</ele>
        <time>2021-10-07T16:05:29Z</time>
      </trkpt>
      <trkpt lat="5.352010" lon="-72.396545">
        <ele>349.20</ele>
        <time>2021-10-07T16:05:30Z</time>
      </trkpt>
      <trkpt lat="5.352012" lon="-72.396555">
        <ele>349.10</ele>
        <time>2021-10-07T16:05:31Z</time>
      </trkpt>
      <trkpt lat="5.352014" lon="-72.396572">
        <ele>349.10</ele>
        <time>2021-10-07T16:05:32Z</time>
      </trkpt>
      <trkpt lat="5.352010" lon="-72.396595">
        <ele>349.10</ele>
        <time>2021-10-07T16:05:34Z</time>
      </trkpt>
      <trkpt lat="5.351998" lon="-72.396609">
        <ele>349.00</ele>
        <time>2021-10-07T16:05:36Z</time>
      </trkpt>
      <trkpt lat="5.351994" lon="-72.396614">
        <ele>349.00</ele>
        <time>2021-10-07T16:05:37Z</time>
      </trkpt>
      <trkpt lat="5.351993" lon="-72.396620">
        <ele>349.00</ele>
        <time>2021-10-07T16:05:39Z</time>
      </trkpt>
      <trkpt lat="5.351993" lon="-72.396623">
        <ele>349.00</ele>
        <time>2021-10-07T16:05:40Z</time>
      </trkpt>
      <trkpt lat="5.351994" lon="-72.396631">
        <ele>349.00</ele>
        <time>2021-10-07T16:05:42Z</time>
      </trkpt>
      <trkpt lat="5.351995" lon="-72.396635">
        <ele>349.00</ele>
        <time>2021-10-07T16:05:43Z</time>
      </trkpt>
      <trkpt lat="5.352003" lon="-72.396644">
        <ele>348.90</ele>
        <time>2021-10-07T16:05:45Z</time>
      </trkpt>
      <trkpt lat="5.352022" lon="-72.396666">
        <ele>348.90</ele>
        <time>2021-10-07T16:05:47Z</time>
      </trkpt>
      <trkpt lat="5.352031" lon="-72.396679">
        <ele>347.10</ele>
        <time>2021-10-07T16:05:48Z</time>
      </trkpt>
      <trkpt lat="5.352042" lon="-72.396708">
        <ele>347.10</ele>
        <time>2021-10-07T16:05:50Z</time>
      </trkpt>
      <trkpt lat="5.352053" lon="-72.396743">
        <ele>347.10</ele>
        <time>2021-10-07T16:05:52Z</time>
      </trkpt>
      <trkpt lat="5.352076" lon="-72.396775">
        <ele>345.90</ele>
        <time>2021-10-07T16:05:54Z</time>
      </trkpt>
      <trkpt lat="5.352113" lon="-72.396820">
        <ele>345.00</ele>
        <time>2021-10-07T16:05:56Z</time>
      </trkpt>
      <trkpt lat="5.352126" lon="-72.396831">
        <ele>345.00</ele>
        <time>2021-10-07T16:05:57Z</time>
      </trkpt>
      <trkpt lat="5.352158" lon="-72.396855">
        <ele>343.90</ele>
        <time>2021-10-07T16:05:59Z</time>
      </trkpt>
      <trkpt lat="5.352177" lon="-72.396872">
        <ele>344.30</ele>
        <time>2021-10-07T16:06:00Z</time>
      </trkpt>
      <trkpt lat="5.352213" lon="-72.396907">
        <ele>343.80</ele>
        <time>2021-10-07T16:06:02Z</time>
      </trkpt>
      <trkpt lat="5.352259" lon="-72.396947">
        <ele>343.50</ele>
        <time>2021-10-07T16:06:04Z</time>
      </trkpt>
      <trkpt lat="5.352292" lon="-72.396981">
        <ele>342.80</ele>
        <time>2021-10-07T16:06:05Z</time>
      </trkpt>
      <trkpt lat="5.352329" lon="-72.397032">
        <ele>343.80</ele>
        <time>2021-10-07T16:06:07Z</time>
      </trkpt>
      <trkpt lat="5.352356" lon="-72.397087">
        <ele>344.40</ele>
        <time>2021-10-07T16:06:09Z</time>
      </trkpt>
      <trkpt lat="5.352363" lon="-72.397117">
        <ele>345.10</ele>
        <time>2021-10-07T16:06:10Z</time>
      </trkpt>
      <trkpt lat="5.352365" lon="-72.397145">
        <ele>345.10</ele>
        <time>2021-10-07T16:06:11Z</time>
      </trkpt>
      <trkpt lat="5.352371" lon="-72.397221">
        <ele>345.90</ele>
        <time>2021-10-07T16:06:13Z</time>
      </trkpt>
      <trkpt lat="5.352374" lon="-72.397313">
        <ele>346.40</ele>
        <time>2021-10-07T16:06:15Z</time>
      </trkpt>
      <trkpt lat="5.352375" lon="-72.397363">
        <ele>346.70</ele>
        <time>2021-10-07T16:06:16Z</time>
      </trkpt>
      <trkpt lat="5.352376" lon="-72.397460">
        <ele>347.50</ele>
        <time>2021-10-07T16:06:18Z</time>
      </trkpt>
      <trkpt lat="5.352403" lon="-72.397561">
        <ele>348.10</ele>
        <time>2021-10-07T16:06:20Z</time>
      </trkpt>
      <trkpt lat="5.352421" lon="-72.397614">
        <ele>348.00</ele>
        <time>2021-10-07T16:06:21Z</time>
      </trkpt>
      <trkpt lat="5.352438" lon="-72.397651">
        <ele>348.00</ele>
        <time>2021-10-07T16:06:22Z</time>
      </trkpt>
      <trkpt lat="5.352458" lon="-72.397693">
        <ele>347.70</ele>
        <time>2021-10-07T16:06:23Z</time>
      </trkpt>
      <trkpt lat="5.352506" lon="-72.397788">
        <ele>347.50</ele>
        <time>2021-10-07T16:06:25Z</time>
      </trkpt>
      <trkpt lat="5.352540" lon="-72.397892">
        <ele>348.00</ele>
        <time>2021-10-07T16:06:27Z</time>
      </trkpt>
      <trkpt lat="5.352553" lon="-72.397962">
        <ele>348.10</ele>
        <time>2021-10-07T16:06:28Z</time>
      </trkpt>
      <trkpt lat="5.352559" lon="-72.398037">
        <ele>348.20</ele>
        <time>2021-10-07T16:06:29Z</time>
      </trkpt>
      <trkpt lat="5.352558" lon="-72.398164">
        <ele>348.00</ele>
        <time>2021-10-07T16:06:31Z</time>
      </trkpt>
      <trkpt lat="5.352545" lon="-72.398269">
        <ele>348.00</ele>
        <time>2021-10-07T16:06:33Z</time>
      </trkpt>
      <trkpt lat="5.352552" lon="-72.398340">
        <ele>347.90</ele>
        <time>2021-10-07T16:06:35Z</time>
      </trkpt>
      <trkpt lat="5.352567" lon="-72.398391">
        <ele>347.90</ele>
        <time>2021-10-07T16:06:36Z</time>
      </trkpt>
      <trkpt lat="5.352584" lon="-72.398431">
        <ele>348.00</ele>
        <time>2021-10-07T16:06:37Z</time>
      </trkpt>
      <trkpt lat="5.352619" lon="-72.398512">
        <ele>348.00</ele>
        <time>2021-10-07T16:06:39Z</time>
      </trkpt>
      <trkpt lat="5.352629" lon="-72.398592">
        <ele>347.70</ele>
        <time>2021-10-07T16:06:41Z</time>
      </trkpt>
      <trkpt lat="5.352626" lon="-72.398639">
        <ele>347.60</ele>
        <time>2021-10-07T16:06:42Z</time>
      </trkpt>
      <trkpt lat="5.352625" lon="-72.398692">
        <ele>347.60</ele>
        <time>2021-10-07T16:06:43Z</time>
      </trkpt>
      <trkpt lat="5.352633" lon="-72.398805">
        <ele>347.80</ele>
        <time>2021-10-07T16:06:45Z</time>
      </trkpt>
      <trkpt lat="5.352654" lon="-72.398905">
        <ele>348.30</ele>
        <time>2021-10-07T16:06:47Z</time>
      </trkpt>
      <trkpt lat="5.352659" lon="-72.398947">
        <ele>348.50</ele>
        <time>2021-10-07T16:06:48Z</time>
      </trkpt>
      <trkpt lat="5.352669" lon="-72.399033">
        <ele>348.90</ele>
        <time>2021-10-07T16:06:50Z</time>
      </trkpt>
      <trkpt lat="5.352698" lon="-72.399101">
        <ele>349.60</ele>
        <time>2021-10-07T16:06:52Z</time>
      </trkpt>
      <trkpt lat="5.352737" lon="-72.399162">
        <ele>350.10</ele>
        <time>2021-10-07T16:06:54Z</time>
      </trkpt>
      <trkpt lat="5.352770" lon="-72.399216">
        <ele>350.70</ele>
        <time>2021-10-07T16:06:56Z</time>
      </trkpt>
      <trkpt lat="5.352784" lon="-72.399248">
        <ele>350.70</ele>
        <time>2021-10-07T16:06:57Z</time>
      </trkpt>
      <trkpt lat="5.352801" lon="-72.399332">
        <ele>350.70</ele>
        <time>2021-10-07T16:06:59Z</time>
      </trkpt>
      <trkpt lat="5.352807" lon="-72.399430">
        <ele>350.60</ele>
        <time>2021-10-07T16:07:01Z</time>
      </trkpt>
      <trkpt lat="5.352820" lon="-72.399514">
        <ele>350.70</ele>
        <time>2021-10-07T16:07:03Z</time>
      </trkpt>
      <trkpt lat="5.352844" lon="-72.399575">
        <ele>351.00</ele>
        <time>2021-10-07T16:07:05Z</time>
      </trkpt>
      <trkpt lat="5.352859" lon="-72.399607">
        <ele>351.40</ele>
        <time>2021-10-07T16:07:06Z</time>
      </trkpt>
      <trkpt lat="5.352877" lon="-72.399666">
        <ele>351.70</ele>
        <time>2021-10-07T16:07:08Z</time>
      </trkpt>
      <trkpt lat="5.352878" lon="-72.399697">
        <ele>351.80</ele>
        <time>2021-10-07T16:07:09Z</time>
      </trkpt>
      <trkpt lat="5.352863" lon="-72.399752">
        <ele>351.80</ele>
        <time>2021-10-07T16:07:11Z</time>
      </trkpt>
      <trkpt lat="5.352848" lon="-72.399801">
        <ele>351.90</ele>
        <time>2021-10-07T16:07:13Z</time>
      </trkpt>
      <trkpt lat="5.352854" lon="-72.399835">
        <ele>352.10</ele>
        <time>2021-10-07T16:07:15Z</time>
      </trkpt>
      <trkpt lat="5.352878" lon="-72.399872">
        <ele>352.40</ele>
        <time>2021-10-07T16:07:17Z</time>
      </trkpt>
      <trkpt lat="5.352894" lon="-72.399889">
        <ele>351.80</ele>
        <time>2021-10-07T16:07:18Z</time>
      </trkpt>
      <trkpt lat="5.352931" lon="-72.399946">
        <ele>352.80</ele>
        <time>2021-10-07T16:07:20Z</time>
      </trkpt>
      <trkpt lat="5.352952" lon="-72.399984">
        <ele>352.80</ele>
        <time>2021-10-07T16:07:21Z</time>
      </trkpt>
      <trkpt lat="5.352994" lon="-72.400077">
        <ele>354.20</ele>
        <time>2021-10-07T16:07:23Z</time>
      </trkpt>
      <trkpt lat="5.353007" lon="-72.400117">
        <ele>354.60</ele>
        <time>2021-10-07T16:07:24Z</time>
      </trkpt>
      <trkpt lat="5.353033" lon="-72.400200">
        <ele>354.70</ele>
        <time>2021-10-07T16:07:26Z</time>
      </trkpt>
      <trkpt lat="5.353043" lon="-72.400237">
        <ele>355.00</ele>
        <time>2021-10-07T16:07:27Z</time>
      </trkpt>
      <trkpt lat="5.353058" lon="-72.400290">
        <ele>355.20</ele>
        <time>2021-10-07T16:07:29Z</time>
      </trkpt>
      <trkpt lat="5.353080" lon="-72.400327">
        <ele>355.20</ele>
        <time>2021-10-07T16:07:31Z</time>
      </trkpt>
      <trkpt lat="5.353101" lon="-72.400355">
        <ele>354.90</ele>
        <time>2021-10-07T16:07:33Z</time>
      </trkpt>
      <trkpt lat="5.353124" lon="-72.400392">
        <ele>354.70</ele>
        <time>2021-10-07T16:07:35Z</time>
      </trkpt>
      <trkpt lat="5.353171" lon="-72.400442">
        <ele>354.20</ele>
        <time>2021-10-07T16:07:37Z</time>
      </trkpt>
      <trkpt lat="5.353232" lon="-72.400525">
        <ele>353.90</ele>
        <time>2021-10-07T16:07:39Z</time>
      </trkpt>
      <trkpt lat="5.353304" lon="-72.400629">
        <ele>354.10</ele>
        <time>2021-10-07T16:07:41Z</time>
      </trkpt>
      <trkpt lat="5.353397" lon="-72.400752">
        <ele>354.10</ele>
        <time>2021-10-07T16:07:43Z</time>
      </trkpt>
      <trkpt lat="5.353476" lon="-72.400861">
        <ele>354.10</ele>
        <time>2021-10-07T16:07:45Z</time>
      </trkpt>
      <trkpt lat="5.353506" lon="-72.400925">
        <ele>354.10</ele>
        <time>2021-10-07T16:07:46Z</time>
      </trkpt>
      <trkpt lat="5.353537" lon="-72.400988">
        <ele>353.60</ele>
        <time>2021-10-07T16:07:47Z</time>
      </trkpt>
      <trkpt lat="5.353566" lon="-72.401049">
        <ele>353.10</ele>
        <time>2021-10-07T16:07:48Z</time>
      </trkpt>
      <trkpt lat="5.353640" lon="-72.401137">
        <ele>352.60</ele>
        <time>2021-10-07T16:07:50Z</time>
      </trkpt>
      <trkpt lat="5.353669" lon="-72.401166">
        <ele>352.40</ele>
        <time>2021-10-07T16:07:51Z</time>
      </trkpt>
      <trkpt lat="5.353732" lon="-72.401241">
        <ele>352.20</ele>
        <time>2021-10-07T16:07:53Z</time>
      </trkpt>
      <trkpt lat="5.353775" lon="-72.401276">
        <ele>351.90</ele>
        <time>2021-10-07T16:07:55Z</time>
      </trkpt>
      <trkpt lat="5.353802" lon="-72.401284">
        <ele>351.80</ele>
        <time>2021-10-07T16:07:56Z</time>
      </trkpt>
      <trkpt lat="5.353854" lon="-72.401295">
        <ele>351.80</ele>
        <time>2021-10-07T16:07:58Z</time>
      </trkpt>
      <trkpt lat="5.353887" lon="-72.401300">
        <ele>351.80</ele>
        <time>2021-10-07T16:07:59Z</time>
      </trkpt>
      <trkpt lat="5.353910" lon="-72.401307">
        <ele>351.80</ele>
        <time>2021-10-07T16:08:00Z</time>
      </trkpt>
      <trkpt lat="5.353934" lon="-72.401324">
        <ele>352.00</ele>
        <time>2021-10-07T16:08:02Z</time>
      </trkpt>
      <trkpt lat="5.353955" lon="-72.401334">
        <ele>351.80</ele>
        <time>2021-10-07T16:08:03Z</time>
      </trkpt>
      <trkpt lat="5.353988" lon="-72.401359">
        <ele>351.80</ele>
        <time>2021-10-07T16:08:05Z</time>
      </trkpt>
      <trkpt lat="5.353994" lon="-72.401374">
        <ele>351.60</ele>
        <time>2021-10-07T16:08:06Z</time>
      </trkpt>
      <trkpt lat="5.354001" lon="-72.401390">
        <ele>351.60</ele>
        <time>2021-10-07T16:08:07Z</time>
      </trkpt>
      <trkpt lat="5.354008" lon="-72.401406">
        <ele>351.50</ele>
        <time>2021-10-07T16:08:08Z</time>
      </trkpt>
      <trkpt lat="5.354017" lon="-72.401420">
        <ele>351.50</ele>
        <time>2021-10-07T16:08:10Z</time>
      </trkpt>
      <trkpt lat="5.354020" lon="-72.401422">
        <ele>351.50</ele>
        <time>2021-10-07T16:08:11Z</time>
      </trkpt>
      <trkpt lat="5.354021" lon="-72.401422">
        <ele>351.50</ele>
        <time>2021-10-07T16:08:12Z</time>
      </trkpt>
      <trkpt lat="5.354028" lon="-72.401426">
        <ele>351.50</ele>
        <time>2021-10-07T16:08:14Z</time>
      </trkpt>
      <trkpt lat="5.354051" lon="-72.401447">
        <ele>351.20</ele>
        <time>2021-10-07T16:08:16Z</time>
      </trkpt>
      <trkpt lat="5.354065" lon="-72.401460">
        <ele>351.10</ele>
        <time>2021-10-07T16:08:18Z</time>
      </trkpt>
      <trkpt lat="5.354071" lon="-72.401456">
        <ele>351.10</ele>
        <time>2021-10-07T16:08:19Z</time>
      </trkpt>
      <trkpt lat="5.354078" lon="-72.401452">
        <ele>351.00</ele>
        <time>2021-10-07T16:08:21Z</time>
      </trkpt>
      <trkpt lat="5.354081" lon="-72.401456">
        <ele>351.00</ele>
        <time>2021-10-07T16:08:22Z</time>
      </trkpt>
      <trkpt lat="5.354083" lon="-72.401462">
        <ele>351.00</ele>
        <time>2021-10-07T16:08:23Z</time>
      </trkpt>
      <trkpt lat="5.354083" lon="-72.401463">
        <ele>351.00</ele>
        <time>2021-10-07T16:08:24Z</time>
      </trkpt>
      <trkpt lat="5.354083" lon="-72.401464">
        <ele>351.00</ele>
        <time>2021-10-07T16:08:25Z</time>
      </trkpt>
      <trkpt lat="5.354083" lon="-72.401465">
        <ele>351.00</ele>
        <time>2021-10-07T16:08:27Z</time>
      </trkpt>
      <trkpt lat="5.354082" lon="-72.401465">
        <ele>351.00</ele>
        <time>2021-10-07T16:08:29Z</time>
      </trkpt>
      <trkpt lat="5.354082" lon="-72.401465">
        <ele>351.00</ele>
        <time>2021-10-07T16:08:30Z</time>
      </trkpt>
      <trkpt lat="5.354082" lon="-72.401465">
        <ele>351.00</ele>
        <time>2021-10-07T16:08:32Z</time>
      </trkpt>
      <trkpt lat="5.354102" lon="-72.401474">
        <ele>351.00</ele>
        <time>2021-10-07T16:08:50Z</time>
      </trkpt>
      <trkpt lat="5.354101" lon="-72.401474">
        <ele>351.00</ele>
        <time>2021-10-07T16:08:52Z</time>
      </trkpt>
      <trkpt lat="5.354116" lon="-72.401480">
        <ele>351.00</ele>
        <time>2021-10-07T16:08:54Z</time>
      </trkpt>
      <trkpt lat="5.354139" lon="-72.401495">
        <ele>351.00</ele>
        <time>2021-10-07T16:08:56Z</time>
      </trkpt>
      <trkpt lat="5.354148" lon="-72.401507">
        <ele>351.00</ele>
        <time>2021-10-07T16:08:57Z</time>
      </trkpt>
      <trkpt lat="5.354159" lon="-72.401520">
        <ele>351.00</ele>
        <time>2021-10-07T16:08:58Z</time>
      </trkpt>
      <trkpt lat="5.354164" lon="-72.401528">
        <ele>351.20</ele>
        <time>2021-10-07T16:08:59Z</time>
      </trkpt>
      <trkpt lat="5.354168" lon="-72.401544">
        <ele>351.40</ele>
        <time>2021-10-07T16:09:00Z</time>
      </trkpt>
      <trkpt lat="5.354167" lon="-72.401583">
        <ele>351.60</ele>
        <time>2021-10-07T16:09:02Z</time>
      </trkpt>
      <trkpt lat="5.354164" lon="-72.401603">
        <ele>351.60</ele>
        <time>2021-10-07T16:09:03Z</time>
      </trkpt>
      <trkpt lat="5.354155" lon="-72.401634">
        <ele>351.60</ele>
        <time>2021-10-07T16:09:05Z</time>
      </trkpt>
      <trkpt lat="5.354148" lon="-72.401651">
        <ele>351.60</ele>
        <time>2021-10-07T16:09:06Z</time>
      </trkpt>
      <trkpt lat="5.354138" lon="-72.401676">
        <ele>352.00</ele>
        <time>2021-10-07T16:09:08Z</time>
      </trkpt>
      <trkpt lat="5.354135" lon="-72.401709">
        <ele>352.30</ele>
        <time>2021-10-07T16:09:10Z</time>
      </trkpt>
      <trkpt lat="5.354128" lon="-72.401755">
        <ele>352.70</ele>
        <time>2021-10-07T16:09:12Z</time>
      </trkpt>
      <trkpt lat="5.354125" lon="-72.401780">
        <ele>352.70</ele>
        <time>2021-10-07T16:09:13Z</time>
      </trkpt>
      <trkpt lat="5.354121" lon="-72.401842">
        <ele>353.10</ele>
        <time>2021-10-07T16:09:15Z</time>
      </trkpt>
      <trkpt lat="5.354120" lon="-72.401879">
        <ele>353.10</ele>
        <time>2021-10-07T16:09:16Z</time>
      </trkpt>
      <trkpt lat="5.354121" lon="-72.401949">
        <ele>353.00</ele>
        <time>2021-10-07T16:09:18Z</time>
      </trkpt>
      <trkpt lat="5.354139" lon="-72.402025">
        <ele>352.30</ele>
        <time>2021-10-07T16:09:20Z</time>
      </trkpt>
      <trkpt lat="5.354153" lon="-72.402068">
        <ele>351.90</ele>
        <time>2021-10-07T16:09:21Z</time>
      </trkpt>
      <trkpt lat="5.354171" lon="-72.402125">
        <ele>351.70</ele>
        <time>2021-10-07T16:09:22Z</time>
      </trkpt>
      <trkpt lat="5.354215" lon="-72.402239">
        <ele>350.80</ele>
        <time>2021-10-07T16:09:24Z</time>
      </trkpt>
      <trkpt lat="5.354231" lon="-72.402295">
        <ele>350.70</ele>
        <time>2021-10-07T16:09:25Z</time>
      </trkpt>
      <trkpt lat="5.354255" lon="-72.402411">
        <ele>351.10</ele>
        <time>2021-10-07T16:09:27Z</time>
      </trkpt>
      <trkpt lat="5.354275" lon="-72.402531">
        <ele>351.90</ele>
        <time>2021-10-07T16:09:29Z</time>
      </trkpt>
      <trkpt lat="5.354281" lon="-72.402589">
        <ele>352.40</ele>
        <time>2021-10-07T16:09:30Z</time>
      </trkpt>
      <trkpt lat="5.354284" lon="-72.402707">
        <ele>353.90</ele>
        <time>2021-10-07T16:09:32Z</time>
      </trkpt>
      <trkpt lat="5.354292" lon="-72.402824">
        <ele>354.50</ele>
        <time>2021-10-07T16:09:34Z</time>
      </trkpt>
      <trkpt lat="5.354321" lon="-72.402902">
        <ele>354.60</ele>
        <time>2021-10-07T16:09:36Z</time>
      </trkpt>
      <trkpt lat="5.354332" lon="-72.402922">
        <ele>354.70</ele>
        <time>2021-10-07T16:09:37Z</time>
      </trkpt>
      <trkpt lat="5.354354" lon="-72.402967">
        <ele>354.30</ele>
        <time>2021-10-07T16:09:39Z</time>
      </trkpt>
      <trkpt lat="5.354367" lon="-72.402995">
        <ele>354.30</ele>
        <time>2021-10-07T16:09:40Z</time>
      </trkpt>
      <trkpt lat="5.354405" lon="-72.403072">
        <ele>353.80</ele>
        <time>2021-10-07T16:09:42Z</time>
      </trkpt>
      <trkpt lat="5.354421" lon="-72.403119">
        <ele>353.10</ele>
        <time>2021-10-07T16:09:44Z</time>
      </trkpt>
      <trkpt lat="5.354441" lon="-72.403214">
        <ele>352.20</ele>
        <time>2021-10-07T16:09:46Z</time>
      </trkpt>
      <trkpt lat="5.354450" lon="-72.403348">
        <ele>351.80</ele>
        <time>2021-10-07T16:09:48Z</time>
      </trkpt>
      <trkpt lat="5.354457" lon="-72.403511">
        <ele>353.20</ele>
        <time>2021-10-07T16:09:50Z</time>
      </trkpt>
      <trkpt lat="5.354458" lon="-72.403583">
        <ele>353.70</ele>
        <time>2021-10-07T16:09:51Z</time>
      </trkpt>
      <trkpt lat="5.354451" lon="-72.403650">
        <ele>354.50</ele>
        <time>2021-10-07T16:09:52Z</time>
      </trkpt>
      <trkpt lat="5.354438" lon="-72.403706">
        <ele>354.80</ele>
        <time>2021-10-07T16:09:53Z</time>
      </trkpt>
      <trkpt lat="5.354414" lon="-72.403767">
        <ele>354.90</ele>
        <time>2021-10-07T16:09:55Z</time>
      </trkpt>
      <trkpt lat="5.354400" lon="-72.403802">
        <ele>354.90</ele>
        <time>2021-10-07T16:09:56Z</time>
      </trkpt>
      <trkpt lat="5.354365" lon="-72.403824">
        <ele>355.00</ele>
        <time>2021-10-07T16:09:58Z</time>
      </trkpt>
      <trkpt lat="5.354375" lon="-72.403891">
        <ele>355.10</ele>
        <time>2021-10-07T16:10:00Z</time>
      </trkpt>
      <trkpt lat="5.354375" lon="-72.403893">
        <ele>355.10</ele>
        <time>2021-10-07T16:10:01Z</time>
      </trkpt>
      <trkpt lat="5.354371" lon="-72.403893">
        <ele>355.10</ele>
        <time>2021-10-07T16:10:03Z</time>
      </trkpt>
      <trkpt lat="5.354357" lon="-72.403891">
        <ele>355.10</ele>
        <time>2021-10-07T16:10:04Z</time>
      </trkpt>
      <trkpt lat="5.354331" lon="-72.403861">
        <ele>355.40</ele>
        <time>2021-10-07T16:10:05Z</time>
      </trkpt>
      <trkpt lat="5.354270" lon="-72.403802">
        <ele>355.30</ele>
        <time>2021-10-07T16:10:07Z</time>
      </trkpt>
      <trkpt lat="5.354225" lon="-72.403767">
        <ele>355.70</ele>
        <time>2021-10-07T16:10:08Z</time>
      </trkpt>
      <trkpt lat="5.354184" lon="-72.403729">
        <ele>355.70</ele>
        <time>2021-10-07T16:10:09Z</time>
      </trkpt>
      <trkpt lat="5.354139" lon="-72.403679">
        <ele>356.00</ele>
        <time>2021-10-07T16:10:10Z</time>
      </trkpt>
      <trkpt lat="5.354103" lon="-72.403646">
        <ele>356.60</ele>
        <time>2021-10-07T16:10:12Z</time>
      </trkpt>
      <trkpt lat="5.354073" lon="-72.403623">
        <ele>357.60</ele>
        <time>2021-10-07T16:10:13Z</time>
      </trkpt>
      <trkpt lat="5.354036" lon="-72.403589">
        <ele>357.60</ele>
        <time>2021-10-07T16:10:14Z</time>
      </trkpt>
      <trkpt lat="5.354007" lon="-72.403558">
        <ele>358.90</ele>
        <time>2021-10-07T16:10:16Z</time>
      </trkpt>
      <trkpt lat="5.353986" lon="-72.403528">
        <ele>360.00</ele>
        <time>2021-10-07T16:10:17Z</time>
      </trkpt>
      <trkpt lat="5.353968" lon="-72.403493">
        <ele>359.70</ele>
        <time>2021-10-07T16:10:18Z</time>
      </trkpt>
      <trkpt lat="5.353944" lon="-72.403451">
        <ele>360.40</ele>
        <time>2021-10-07T16:10:19Z</time>
      </trkpt>
      <trkpt lat="5.353918" lon="-72.403414">
        <ele>360.10</ele>
        <time>2021-10-07T16:10:21Z</time>
      </trkpt>
      <trkpt lat="5.353899" lon="-72.403383">
        <ele>361.00</ele>
        <time>2021-10-07T16:10:22Z</time>
      </trkpt>
      <trkpt lat="5.353894" lon="-72.403375">
        <ele>360.80</ele>
        <time>2021-10-07T16:10:23Z</time>
      </trkpt>
      <trkpt lat="5.353875" lon="-72.403350">
        <ele>360.80</ele>
        <time>2021-10-07T16:10:24Z</time>
      </trkpt>
      <trkpt lat="5.353859" lon="-72.403330">
        <ele>361.40</ele>
        <time>2021-10-07T16:10:25Z</time>
      </trkpt>
      <trkpt lat="5.353831" lon="-72.403290">
        <ele>361.10</ele>
        <time>2021-10-07T16:10:27Z</time>
      </trkpt>
      <trkpt lat="5.353795" lon="-72.403236">
        <ele>361.30</ele>
        <time>2021-10-07T16:10:29Z</time>
      </trkpt>
      <trkpt lat="5.353776" lon="-72.403197">
        <ele>361.10</ele>
        <time>2021-10-07T16:10:30Z</time>
      </trkpt>
      <trkpt lat="5.353764" lon="-72.403158">
        <ele>360.30</ele>
        <time>2021-10-07T16:10:31Z</time>
      </trkpt>
      <trkpt lat="5.353755" lon="-72.403064">
        <ele>358.90</ele>
        <time>2021-10-07T16:10:33Z</time>
      </trkpt>
      <trkpt lat="5.353725" lon="-72.402953">
        <ele>359.00</ele>
        <time>2021-10-07T16:10:35Z</time>
      </trkpt>
      <trkpt lat="5.353707" lon="-72.402897">
        <ele>358.90</ele>
        <time>2021-10-07T16:10:36Z</time>
      </trkpt>
      <trkpt lat="5.353665" lon="-72.402789">
        <ele>359.40</ele>
        <time>2021-10-07T16:10:38Z</time>
      </trkpt>
      <trkpt lat="5.353639" lon="-72.402734">
        <ele>359.30</ele>
        <time>2021-10-07T16:10:39Z</time>
      </trkpt>
      <trkpt lat="5.353598" lon="-72.402627">
        <ele>358.40</ele>
        <time>2021-10-07T16:10:41Z</time>
      </trkpt>
      <trkpt lat="5.353577" lon="-72.402560">
        <ele>356.80</ele>
        <time>2021-10-07T16:10:42Z</time>
      </trkpt>
      <trkpt lat="5.353564" lon="-72.402515">
        <ele>356.50</ele>
        <time>2021-10-07T16:10:44Z</time>
      </trkpt>
      <trkpt lat="5.353546" lon="-72.402468">
        <ele>355.90</ele>
        <time>2021-10-07T16:10:45Z</time>
      </trkpt>
      <trkpt lat="5.353536" lon="-72.402440">
        <ele>355.90</ele>
        <time>2021-10-07T16:10:46Z</time>
      </trkpt>
      <trkpt lat="5.353529" lon="-72.402418">
        <ele>355.50</ele>
        <time>2021-10-07T16:10:47Z</time>
      </trkpt>
      <trkpt lat="5.353531" lon="-72.402416">
        <ele>355.50</ele>
        <time>2021-10-07T16:10:48Z</time>
      </trkpt>
      <trkpt lat="5.353531" lon="-72.402403">
        <ele>355.50</ele>
        <time>2021-10-07T16:10:50Z</time>
      </trkpt>
      <trkpt lat="5.353532" lon="-72.402385">
        <ele>355.20</ele>
        <time>2021-10-07T16:10:51Z</time>
      </trkpt>
      <trkpt lat="5.353534" lon="-72.402368">
        <ele>355.20</ele>
        <time>2021-10-07T16:10:52Z</time>
      </trkpt>
      <trkpt lat="5.353529" lon="-72.402339">
        <ele>354.90</ele>
        <time>2021-10-07T16:10:54Z</time>
      </trkpt>
      <trkpt lat="5.353511" lon="-72.402300">
        <ele>355.40</ele>
        <time>2021-10-07T16:10:56Z</time>
      </trkpt>
      <trkpt lat="5.353481" lon="-72.402259">
        <ele>355.40</ele>
        <time>2021-10-07T16:10:57Z</time>
      </trkpt>
      <trkpt lat="5.353462" lon="-72.402228">
        <ele>355.90</ele>
        <time>2021-10-07T16:10:58Z</time>
      </trkpt>
      <trkpt lat="5.353440" lon="-72.402195">
        <ele>355.90</ele>
        <time>2021-10-07T16:11:00Z</time>
      </trkpt>
      <trkpt lat="5.353426" lon="-72.402165">
        <ele>356.20</ele>
        <time>2021-10-07T16:11:01Z</time>
      </trkpt>
      <trkpt lat="5.353409" lon="-72.402132">
        <ele>356.00</ele>
        <time>2021-10-07T16:11:02Z</time>
      </trkpt>
      <trkpt lat="5.353372" lon="-72.402069">
        <ele>356.10</ele>
        <time>2021-10-07T16:11:04Z</time>
      </trkpt>
      <trkpt lat="5.353337" lon="-72.401995">
        <ele>356.10</ele>
        <time>2021-10-07T16:11:06Z</time>
      </trkpt>
      <trkpt lat="5.353313" lon="-72.401962">
        <ele>356.00</ele>
        <time>2021-10-07T16:11:07Z</time>
      </trkpt>
      <trkpt lat="5.353274" lon="-72.401902">
        <ele>356.80</ele>
        <time>2021-10-07T16:11:09Z</time>
      </trkpt>
      <trkpt lat="5.353255" lon="-72.401858">
        <ele>357.60</ele>
        <time>2021-10-07T16:11:10Z</time>
      </trkpt>
      <trkpt lat="5.353176" lon="-72.401699">
        <ele>359.00</ele>
        <time>2021-10-07T16:11:12Z</time>
      </trkpt>
      <trkpt lat="5.353140" lon="-72.401637">
        <ele>359.10</ele>
        <time>2021-10-07T16:11:13Z</time>
      </trkpt>
      <trkpt lat="5.353101" lon="-72.401582">
        <ele>359.90</ele>
        <time>2021-10-07T16:11:14Z</time>
      </trkpt>
      <trkpt lat="5.353041" lon="-72.401492">
        <ele>360.40</ele>
        <time>2021-10-07T16:11:16Z</time>
      </trkpt>
      <trkpt lat="5.353014" lon="-72.401459">
        <ele>360.10</ele>
        <time>2021-10-07T16:11:17Z</time>
      </trkpt>
      <trkpt lat="5.352978" lon="-72.401408">
        <ele>359.70</ele>
        <time>2021-10-07T16:11:19Z</time>
      </trkpt>
      <trkpt lat="5.352935" lon="-72.401343">
        <ele>358.80</ele>
        <time>2021-10-07T16:11:21Z</time>
      </trkpt>
      <trkpt lat="5.352916" lon="-72.401308">
        <ele>358.50</ele>
        <time>2021-10-07T16:11:22Z</time>
      </trkpt>
      <trkpt lat="5.352885" lon="-72.401251">
        <ele>358.00</ele>
        <time>2021-10-07T16:11:24Z</time>
      </trkpt>
      <trkpt lat="5.352858" lon="-72.401209">
        <ele>357.70</ele>
        <time>2021-10-07T16:11:25Z</time>
      </trkpt>
      <trkpt lat="5.352828" lon="-72.401157">
        <ele>357.60</ele>
        <time>2021-10-07T16:11:27Z</time>
      </trkpt>
      <trkpt lat="5.352814" lon="-72.401120">
        <ele>357.20</ele>
        <time>2021-10-07T16:11:28Z</time>
      </trkpt>
      <trkpt lat="5.352810" lon="-72.401088">
        <ele>356.90</ele>
        <time>2021-10-07T16:11:29Z</time>
      </trkpt>
      <trkpt lat="5.352812" lon="-72.401046">
        <ele>356.60</ele>
        <time>2021-10-07T16:11:31Z</time>
      </trkpt>
      <trkpt lat="5.352819" lon="-72.401025">
        <ele>356.60</ele>
        <time>2021-10-07T16:11:32Z</time>
      </trkpt>
      <trkpt lat="5.352827" lon="-72.401006">
        <ele>356.20</ele>
        <time>2021-10-07T16:11:34Z</time>
      </trkpt>
      <trkpt lat="5.352830" lon="-72.400989">
        <ele>356.20</ele>
        <time>2021-10-07T16:11:35Z</time>
      </trkpt>
      <trkpt lat="5.352829" lon="-72.400979">
        <ele>356.20</ele>
        <time>2021-10-07T16:11:36Z</time>
      </trkpt>
      <trkpt lat="5.352829" lon="-72.400973">
        <ele>355.80</ele>
        <time>2021-10-07T16:11:37Z</time>
      </trkpt>
      <trkpt lat="5.352829" lon="-72.400968">
        <ele>355.80</ele>
        <time>2021-10-07T16:11:38Z</time>
      </trkpt>
      <trkpt lat="5.352825" lon="-72.400950">
        <ele>355.80</ele>
        <time>2021-10-07T16:11:40Z</time>
      </trkpt>
      <trkpt lat="5.352813" lon="-72.400923">
        <ele>355.40</ele>
        <time>2021-10-07T16:11:42Z</time>
      </trkpt>
      <trkpt lat="5.352799" lon="-72.400892">
        <ele>355.40</ele>
        <time>2021-10-07T16:11:43Z</time>
      </trkpt>
      <trkpt lat="5.352787" lon="-72.400866">
        <ele>355.80</ele>
        <time>2021-10-07T16:11:44Z</time>
      </trkpt>
      <trkpt lat="5.352759" lon="-72.400834">
        <ele>355.90</ele>
        <time>2021-10-07T16:11:46Z</time>
      </trkpt>
      <trkpt lat="5.352747" lon="-72.400806">
        <ele>356.60</ele>
        <time>2021-10-07T16:11:47Z</time>
      </trkpt>
      <trkpt lat="5.352730" lon="-72.400782">
        <ele>357.00</ele>
        <time>2021-10-07T16:11:48Z</time>
      </trkpt>
      <trkpt lat="5.352724" lon="-72.400775">
        <ele>357.00</ele>
        <time>2021-10-07T16:11:49Z</time>
      </trkpt>
      <trkpt lat="5.352707" lon="-72.400758">
        <ele>358.30</ele>
        <time>2021-10-07T16:11:50Z</time>
      </trkpt>
      <trkpt lat="5.352680" lon="-72.400724">
        <ele>358.30</ele>
        <time>2021-10-07T16:11:52Z</time>
      </trkpt>
      <trkpt lat="5.352661" lon="-72.400692">
        <ele>359.30</ele>
        <time>2021-10-07T16:11:53Z</time>
      </trkpt>
      <trkpt lat="5.352656" lon="-72.400683">
        <ele>359.30</ele>
        <time>2021-10-07T16:11:54Z</time>
      </trkpt>
      <trkpt lat="5.352649" lon="-72.400655">
        <ele>359.50</ele>
        <time>2021-10-07T16:11:56Z</time>
      </trkpt>
      <trkpt lat="5.352651" lon="-72.400632">
        <ele>359.50</ele>
        <time>2021-10-07T16:11:57Z</time>
      </trkpt>
      <trkpt lat="5.352654" lon="-72.400599">
        <ele>359.50</ele>
        <time>2021-10-07T16:11:59Z</time>
      </trkpt>
      <trkpt lat="5.352654" lon="-72.400582">
        <ele>359.30</ele>
        <time>2021-10-07T16:12:00Z</time>
      </trkpt>
      <trkpt lat="5.352655" lon="-72.400569">
        <ele>359.30</ele>
        <time>2021-10-07T16:12:01Z</time>
      </trkpt>
      <trkpt lat="5.352653" lon="-72.400563">
        <ele>359.30</ele>
        <time>2021-10-07T16:12:02Z</time>
      </trkpt>
      <trkpt lat="5.352653" lon="-72.400544">
        <ele>359.00</ele>
        <time>2021-10-07T16:12:04Z</time>
      </trkpt>
      <trkpt lat="5.352651" lon="-72.400505">
        <ele>359.00</ele>
        <time>2021-10-07T16:12:06Z</time>
      </trkpt>
      <trkpt lat="5.352633" lon="-72.400482">
        <ele>358.70</ele>
        <time>2021-10-07T16:12:08Z</time>
      </trkpt>
      <trkpt lat="5.352629" lon="-72.400475">
        <ele>358.70</ele>
        <time>2021-10-07T16:12:09Z</time>
      </trkpt>
      <trkpt lat="5.352618" lon="-72.400456">
        <ele>358.60</ele>
        <time>2021-10-07T16:12:10Z</time>
      </trkpt>
      <trkpt lat="5.352594" lon="-72.400411">
        <ele>358.30</ele>
        <time>2021-10-07T16:12:12Z</time>
      </trkpt>
      <trkpt lat="5.352560" lon="-72.400368">
        <ele>358.40</ele>
        <time>2021-10-07T16:12:13Z</time>
      </trkpt>
      <trkpt lat="5.352532" lon="-72.400329">
        <ele>358.50</ele>
        <time>2021-10-07T16:12:15Z</time>
      </trkpt>
      <trkpt lat="5.352510" lon="-72.400297">
        <ele>358.50</ele>
        <time>2021-10-07T16:12:16Z</time>
      </trkpt>
      <trkpt lat="5.352479" lon="-72.400252">
        <ele>358.30</ele>
        <time>2021-10-07T16:12:18Z</time>
      </trkpt>
      <trkpt lat="5.352464" lon="-72.400229">
        <ele>357.80</ele>
        <time>2021-10-07T16:12:19Z</time>
      </trkpt>
      <trkpt lat="5.352444" lon="-72.400201">
        <ele>357.30</ele>
        <time>2021-10-07T16:12:20Z</time>
      </trkpt>
      <trkpt lat="5.352417" lon="-72.400158">
        <ele>356.90</ele>
        <time>2021-10-07T16:12:21Z</time>
      </trkpt>
      <trkpt lat="5.352395" lon="-72.400125">
        <ele>357.00</ele>
        <time>2021-10-07T16:12:22Z</time>
      </trkpt>
      <trkpt lat="5.352363" lon="-72.400082">
        <ele>357.10</ele>
        <time>2021-10-07T16:12:24Z</time>
      </trkpt>
      <trkpt lat="5.352333" lon="-72.400041">
        <ele>356.90</ele>
        <time>2021-10-07T16:12:25Z</time>
      </trkpt>
      <trkpt lat="5.352290" lon="-72.399983">
        <ele>356.70</ele>
        <time>2021-10-07T16:12:27Z</time>
      </trkpt>
      <trkpt lat="5.352260" lon="-72.399937">
        <ele>356.60</ele>
        <time>2021-10-07T16:12:28Z</time>
      </trkpt>
      <trkpt lat="5.352241" lon="-72.399906">
        <ele>356.60</ele>
        <time>2021-10-07T16:12:29Z</time>
      </trkpt>
      <trkpt lat="5.352207" lon="-72.399857">
        <ele>356.30</ele>
        <time>2021-10-07T16:12:31Z</time>
      </trkpt>
      <trkpt lat="5.352194" lon="-72.399819">
        <ele>356.60</ele>
        <time>2021-10-07T16:12:32Z</time>
      </trkpt>
      <trkpt lat="5.352178" lon="-72.399785">
        <ele>356.60</ele>
        <time>2021-10-07T16:12:34Z</time>
      </trkpt>
      <trkpt lat="5.352169" lon="-72.399735">
        <ele>356.60</ele>
        <time>2021-10-07T16:12:36Z</time>
      </trkpt>
      <trkpt lat="5.352165" lon="-72.399694">
        <ele>356.60</ele>
        <time>2021-10-07T16:12:37Z</time>
      </trkpt>
      <trkpt lat="5.352156" lon="-72.399637">
        <ele>356.60</ele>
        <time>2021-10-07T16:12:38Z</time>
      </trkpt>
      <trkpt lat="5.352145" lon="-72.399586">
        <ele>356.80</ele>
        <time>2021-10-07T16:12:39Z</time>
      </trkpt>
      <trkpt lat="5.352136" lon="-72.399537">
        <ele>356.80</ele>
        <time>2021-10-07T16:12:41Z</time>
      </trkpt>
      <trkpt lat="5.352127" lon="-72.399490">
        <ele>356.70</ele>
        <time>2021-10-07T16:12:42Z</time>
      </trkpt>
      <trkpt lat="5.352116" lon="-72.399448">
        <ele>356.60</ele>
        <time>2021-10-07T16:12:43Z</time>
      </trkpt>
      <trkpt lat="5.352105" lon="-72.399413">
        <ele>356.90</ele>
        <time>2021-10-07T16:12:44Z</time>
      </trkpt>
      <trkpt lat="5.352095" lon="-72.399373">
        <ele>356.90</ele>
        <time>2021-10-07T16:12:45Z</time>
      </trkpt>
      <trkpt lat="5.352081" lon="-72.399312">
        <ele>356.90</ele>
        <time>2021-10-07T16:12:47Z</time>
      </trkpt>
      <trkpt lat="5.352070" lon="-72.399265">
        <ele>356.90</ele>
        <time>2021-10-07T16:12:48Z</time>
      </trkpt>
      <trkpt lat="5.352059" lon="-72.399220">
        <ele>357.30</ele>
        <time>2021-10-07T16:12:49Z</time>
      </trkpt>
      <trkpt lat="5.352050" lon="-72.399180">
        <ele>357.30</ele>
        <time>2021-10-07T16:12:50Z</time>
      </trkpt>
      <trkpt lat="5.352034" lon="-72.399105">
        <ele>357.10</ele>
        <time>2021-10-07T16:12:52Z</time>
      </trkpt>
      <trkpt lat="5.352025" lon="-72.399043">
        <ele>357.30</ele>
        <time>2021-10-07T16:12:54Z</time>
      </trkpt>
      <trkpt lat="5.352031" lon="-72.399002">
        <ele>356.80</ele>
        <time>2021-10-07T16:12:55Z</time>
      </trkpt>
      <trkpt lat="5.352037" lon="-72.398962">
        <ele>356.60</ele>
        <time>2021-10-07T16:12:56Z</time>
      </trkpt>
      <trkpt lat="5.352047" lon="-72.398888">
        <ele>356.10</ele>
        <time>2021-10-07T16:12:58Z</time>
      </trkpt>
      <trkpt lat="5.352052" lon="-72.398825">
        <ele>355.40</ele>
        <time>2021-10-07T16:12:59Z</time>
      </trkpt>
      <trkpt lat="5.352049" lon="-72.398766">
        <ele>355.00</ele>
        <time>2021-10-07T16:13:00Z</time>
      </trkpt>
      <trkpt lat="5.352015" lon="-72.398611">
        <ele>353.00</ele>
        <time>2021-10-07T16:13:02Z</time>
      </trkpt>
      <trkpt lat="5.352005" lon="-72.398566">
        <ele>352.60</ele>
        <time>2021-10-07T16:13:03Z</time>
      </trkpt>
      <trkpt lat="5.352021" lon="-72.398484">
        <ele>351.80</ele>
        <time>2021-10-07T16:13:05Z</time>
      </trkpt>
      <trkpt lat="5.352003" lon="-72.398389">
        <ele>351.30</ele>
        <time>2021-10-07T16:13:07Z</time>
      </trkpt>
      <trkpt lat="5.351991" lon="-72.398339">
        <ele>351.00</ele>
        <time>2021-10-07T16:13:08Z</time>
      </trkpt>
      <trkpt lat="5.351969" lon="-72.398257">
        <ele>351.20</ele>
        <time>2021-10-07T16:13:10Z</time>
      </trkpt>
      <trkpt lat="5.351949" lon="-72.398197">
        <ele>351.20</ele>
        <time>2021-10-07T16:13:12Z</time>
      </trkpt>
      <trkpt lat="5.351934" lon="-72.398152">
        <ele>351.90</ele>
        <time>2021-10-07T16:13:13Z</time>
      </trkpt>
      <trkpt lat="5.351924" lon="-72.398103">
        <ele>351.80</ele>
        <time>2021-10-07T16:13:14Z</time>
      </trkpt>
      <trkpt lat="5.351916" lon="-72.398057">
        <ele>351.70</ele>
        <time>2021-10-07T16:13:16Z</time>
      </trkpt>
      <trkpt lat="5.351911" lon="-72.398005">
        <ele>351.20</ele>
        <time>2021-10-07T16:13:17Z</time>
      </trkpt>
      <trkpt lat="5.351898" lon="-72.397925">
        <ele>350.90</ele>
        <time>2021-10-07T16:13:18Z</time>
      </trkpt>
      <trkpt lat="5.351888" lon="-72.397855">
        <ele>351.10</ele>
        <time>2021-10-07T16:13:20Z</time>
      </trkpt>
      <trkpt lat="5.351882" lon="-72.397790">
        <ele>351.20</ele>
        <time>2021-10-07T16:13:21Z</time>
      </trkpt>
      <trkpt lat="5.351883" lon="-72.397733">
        <ele>351.30</ele>
        <time>2021-10-07T16:13:22Z</time>
      </trkpt>
      <trkpt lat="5.351885" lon="-72.397683">
        <ele>351.30</ele>
        <time>2021-10-07T16:13:23Z</time>
      </trkpt>
      <trkpt lat="5.351885" lon="-72.397637">
        <ele>351.30</ele>
        <time>2021-10-07T16:13:24Z</time>
      </trkpt>
      <trkpt lat="5.351884" lon="-72.397574">
        <ele>351.10</ele>
        <time>2021-10-07T16:13:25Z</time>
      </trkpt>
      <trkpt lat="5.351880" lon="-72.397500">
        <ele>351.10</ele>
        <time>2021-10-07T16:13:27Z</time>
      </trkpt>
      <trkpt lat="5.351867" lon="-72.397383">
        <ele>351.30</ele>
        <time>2021-10-07T16:13:29Z</time>
      </trkpt>
      <trkpt lat="5.351859" lon="-72.397194">
        <ele>352.10</ele>
        <time>2021-10-07T16:13:31Z</time>
      </trkpt>
      <trkpt lat="5.351869" lon="-72.397118">
        <ele>351.80</ele>
        <time>2021-10-07T16:13:33Z</time>
      </trkpt>
      <trkpt lat="5.351876" lon="-72.397083">
        <ele>351.50</ele>
        <time>2021-10-07T16:13:34Z</time>
      </trkpt>
      <trkpt lat="5.351884" lon="-72.397035">
        <ele>351.30</ele>
        <time>2021-10-07T16:13:35Z</time>
      </trkpt>
      <trkpt lat="5.351898" lon="-72.396999">
        <ele>350.60</ele>
        <time>2021-10-07T16:13:37Z</time>
      </trkpt>
      <trkpt lat="5.351905" lon="-72.396968">
        <ele>350.60</ele>
        <time>2021-10-07T16:13:38Z</time>
      </trkpt>
      <trkpt lat="5.351910" lon="-72.396938">
        <ele>350.70</ele>
        <time>2021-10-07T16:13:39Z</time>
      </trkpt>
      <trkpt lat="5.351908" lon="-72.396896">
        <ele>350.80</ele>
        <time>2021-10-07T16:13:40Z</time>
      </trkpt>
      <trkpt lat="5.351906" lon="-72.396864">
        <ele>350.80</ele>
        <time>2021-10-07T16:13:41Z</time>
      </trkpt>
      <trkpt lat="5.351904" lon="-72.396827">
        <ele>351.00</ele>
        <time>2021-10-07T16:13:42Z</time>
      </trkpt>
      <trkpt lat="5.351902" lon="-72.396776">
        <ele>351.20</ele>
        <time>2021-10-07T16:13:44Z</time>
      </trkpt>
      <trkpt lat="5.351911" lon="-72.396733">
        <ele>351.50</ele>
        <time>2021-10-07T16:13:46Z</time>
      </trkpt>
      <trkpt lat="5.351920" lon="-72.396699">
        <ele>351.80</ele>
        <time>2021-10-07T16:13:48Z</time>
      </trkpt>
      <trkpt lat="5.351923" lon="-72.396685">
        <ele>351.80</ele>
        <time>2021-10-07T16:13:49Z</time>
      </trkpt>
      <trkpt lat="5.351926" lon="-72.396676">
        <ele>352.10</ele>
        <time>2021-10-07T16:13:50Z</time>
      </trkpt>
      <trkpt lat="5.351929" lon="-72.396670">
        <ele>352.10</ele>
        <time>2021-10-07T16:13:51Z</time>
      </trkpt>
      <trkpt lat="5.351925" lon="-72.396654">
        <ele>352.10</ele>
        <time>2021-10-07T16:13:54Z</time>
      </trkpt>
      <trkpt lat="5.351922" lon="-72.396645">
        <ele>352.10</ele>
        <time>2021-10-07T16:13:55Z</time>
      </trkpt>
      <trkpt lat="5.351919" lon="-72.396637">
        <ele>352.40</ele>
        <time>2021-10-07T16:13:57Z</time>
      </trkpt>
      <trkpt lat="5.351916" lon="-72.396629">
        <ele>352.40</ele>
        <time>2021-10-07T16:13:58Z</time>
      </trkpt>
      <trkpt lat="5.351900" lon="-72.396600">
        <ele>352.40</ele>
        <time>2021-10-07T16:13:59Z</time>
      </trkpt>
      <trkpt lat="5.351879" lon="-72.396560">
        <ele>354.00</ele>
        <time>2021-10-07T16:14:01Z</time>
      </trkpt>
      <trkpt lat="5.351853" lon="-72.396515">
        <ele>355.10</ele>
        <time>2021-10-07T16:14:02Z</time>
      </trkpt>
      <trkpt lat="5.351828" lon="-72.396468">
        <ele>354.30</ele>
        <time>2021-10-07T16:14:03Z</time>
      </trkpt>
      <trkpt lat="5.351795" lon="-72.396412">
        <ele>354.50</ele>
        <time>2021-10-07T16:14:05Z</time>
      </trkpt>
      <trkpt lat="5.351765" lon="-72.396367">
        <ele>354.60</ele>
        <time>2021-10-07T16:14:06Z</time>
      </trkpt>
      <trkpt lat="5.351744" lon="-72.396338">
        <ele>354.30</ele>
        <time>2021-10-07T16:14:07Z</time>
      </trkpt>
      <trkpt lat="5.351735" lon="-72.396317">
        <ele>354.30</ele>
        <time>2021-10-07T16:14:08Z</time>
      </trkpt>
      <trkpt lat="5.351719" lon="-72.396278">
        <ele>354.60</ele>
        <time>2021-10-07T16:14:10Z</time>
      </trkpt>
      <trkpt lat="5.351712" lon="-72.396246">
        <ele>354.40</ele>
        <time>2021-10-07T16:14:11Z</time>
      </trkpt>
      <trkpt lat="5.351704" lon="-72.396219">
        <ele>354.40</ele>
        <time>2021-10-07T16:14:13Z</time>
      </trkpt>
      <trkpt lat="5.351700" lon="-72.396191">
        <ele>354.20</ele>
        <time>2021-10-07T16:14:14Z</time>
      </trkpt>
      <trkpt lat="5.351693" lon="-72.396162">
        <ele>354.00</ele>
        <time>2021-10-07T16:14:15Z</time>
      </trkpt>
      <trkpt lat="5.351679" lon="-72.396118">
        <ele>353.80</ele>
        <time>2021-10-07T16:14:17Z</time>
      </trkpt>
      <trkpt lat="5.351676" lon="-72.396090">
        <ele>353.80</ele>
        <time>2021-10-07T16:14:18Z</time>
      </trkpt>
      <trkpt lat="5.351676" lon="-72.396069">
        <ele>353.40</ele>
        <time>2021-10-07T16:14:19Z</time>
      </trkpt>
      <trkpt lat="5.351683" lon="-72.396036">
        <ele>353.00</ele>
        <time>2021-10-07T16:14:21Z</time>
      </trkpt>
      <trkpt lat="5.351687" lon="-72.396010">
        <ele>353.00</ele>
        <time>2021-10-07T16:14:23Z</time>
      </trkpt>
      <trkpt lat="5.351687" lon="-72.396003">
        <ele>353.00</ele>
        <time>2021-10-07T16:14:24Z</time>
      </trkpt>
      <trkpt lat="5.351688" lon="-72.395999">
        <ele>353.00</ele>
        <time>2021-10-07T16:14:26Z</time>
      </trkpt>
      <trkpt lat="5.351691" lon="-72.395999">
        <ele>353.00</ele>
        <time>2021-10-07T16:14:28Z</time>
      </trkpt>
      <trkpt lat="5.351692" lon="-72.395999">
        <ele>353.00</ele>
        <time>2021-10-07T16:14:29Z</time>
      </trkpt>
      <trkpt lat="5.351694" lon="-72.395999">
        <ele>353.00</ele>
        <time>2021-10-07T16:14:31Z</time>
      </trkpt>
      <trkpt lat="5.351695" lon="-72.395998">
        <ele>353.00</ele>
        <time>2021-10-07T16:14:32Z</time>
      </trkpt>
      <trkpt lat="5.351697" lon="-72.395996">
        <ele>352.60</ele>
        <time>2021-10-07T16:14:34Z</time>
      </trkpt>
      <trkpt lat="5.351697" lon="-72.395992">
        <ele>352.60</ele>
        <time>2021-10-07T16:14:35Z</time>
      </trkpt>
      <trkpt lat="5.351698" lon="-72.395986">
        <ele>352.60</ele>
        <time>2021-10-07T16:14:37Z</time>
      </trkpt>
      <trkpt lat="5.351700" lon="-72.395983">
        <ele>352.60</ele>
        <time>2021-10-07T16:14:38Z</time>
      </trkpt>
      <trkpt lat="5.351706" lon="-72.395975">
        <ele>352.60</ele>
        <time>2021-10-07T16:14:40Z</time>
      </trkpt>
      <trkpt lat="5.351710" lon="-72.395970">
        <ele>352.60</ele>
        <time>2021-10-07T16:14:41Z</time>
      </trkpt>
      <trkpt lat="5.351713" lon="-72.395967">
        <ele>352.60</ele>
        <time>2021-10-07T16:14:42Z</time>
      </trkpt>
      <trkpt lat="5.351718" lon="-72.395963">
        <ele>352.60</ele>
        <time>2021-10-07T16:14:43Z</time>
      </trkpt>
      <trkpt lat="5.351721" lon="-72.395960">
        <ele>352.60</ele>
        <time>2021-10-07T16:14:45Z</time>
      </trkpt>
      <trkpt lat="5.351724" lon="-72.395958">
        <ele>352.60</ele>
        <time>2021-10-07T16:14:46Z</time>
      </trkpt>
      <trkpt lat="5.351728" lon="-72.395956">
        <ele>352.40</ele>
        <time>2021-10-07T16:14:48Z</time>
      </trkpt>
      <trkpt lat="5.351729" lon="-72.395955">
        <ele>352.40</ele>
        <time>2021-10-07T16:14:49Z</time>
      </trkpt>
      <trkpt lat="5.351729" lon="-72.395958">
        <ele>352.40</ele>
        <time>2021-10-07T16:14:50Z</time>
      </trkpt>
      <trkpt lat="5.351731" lon="-72.395968">
        <ele>352.40</ele>
        <time>2021-10-07T16:14:52Z</time>
      </trkpt>
      <trkpt lat="5.351736" lon="-72.395981">
        <ele>352.40</ele>
        <time>2021-10-07T16:14:53Z</time>
      </trkpt>
      <trkpt lat="5.351737" lon="-72.395987">
        <ele>352.40</ele>
        <time>2021-10-07T16:14:54Z</time>
      </trkpt>
      <trkpt lat="5.351741" lon="-72.395993">
        <ele>352.40</ele>
        <time>2021-10-07T16:14:55Z</time>
      </trkpt>
      <trkpt lat="5.351745" lon="-72.395996">
        <ele>352.40</ele>
        <time>2021-10-07T16:14:57Z</time>
      </trkpt>
      <trkpt lat="5.351748" lon="-72.396000">
        <ele>352.70</ele>
        <time>2021-10-07T16:14:59Z</time>
      </trkpt>
      <trkpt lat="5.351752" lon="-72.396003">
        <ele>352.70</ele>
        <time>2021-10-07T16:15:01Z</time>
      </trkpt>
      <trkpt lat="5.351756" lon="-72.396007">
        <ele>352.70</ele>
        <time>2021-10-07T16:15:02Z</time>
      </trkpt>
      <trkpt lat="5.351760" lon="-72.396010">
        <ele>352.70</ele>
        <time>2021-10-07T16:15:03Z</time>
      </trkpt>
      <trkpt lat="5.351763" lon="-72.396014">
        <ele>352.70</ele>
        <time>2021-10-07T16:15:04Z</time>
      </trkpt>
      <trkpt lat="5.351767" lon="-72.396017">
        <ele>352.70</ele>
        <time>2021-10-07T16:15:06Z</time>
      </trkpt>
      <trkpt lat="5.351771" lon="-72.396021">
        <ele>352.20</ele>
        <time>2021-10-07T16:15:07Z</time>
      </trkpt>
      <trkpt lat="5.351802" lon="-72.396038">
        <ele>352.20</ele>
        <time>2021-10-07T16:15:08Z</time>
      </trkpt>
      <trkpt lat="5.351812" lon="-72.396045">
        <ele>352.40</ele>
        <time>2021-10-07T16:15:09Z</time>
      </trkpt>
      <trkpt lat="5.351841" lon="-72.396070">
        <ele>351.60</ele>
        <time>2021-10-07T16:15:10Z</time>
      </trkpt>
      <trkpt lat="5.351850" lon="-72.396079">
        <ele>351.60</ele>
        <time>2021-10-07T16:15:11Z</time>
      </trkpt>
      <trkpt lat="5.351875" lon="-72.396104">
        <ele>350.90</ele>
        <time>2021-10-07T16:15:13Z</time>
      </trkpt>
      <trkpt lat="5.351880" lon="-72.396138">
        <ele>351.10</ele>
        <time>2021-10-07T16:15:14Z</time>
      </trkpt>
      <trkpt lat="5.351890" lon="-72.396185">
        <ele>351.40</ele>
        <time>2021-10-07T16:15:15Z</time>
      </trkpt>
      <trkpt lat="5.351899" lon="-72.396212">
        <ele>350.90</ele>
        <time>2021-10-07T16:15:16Z</time>
      </trkpt>
      <trkpt lat="5.351912" lon="-72.396246">
        <ele>350.90</ele>
        <time>2021-10-07T16:15:17Z</time>
      </trkpt>
      <trkpt lat="5.351926" lon="-72.396277">
        <ele>351.10</ele>
        <time>2021-10-07T16:15:18Z</time>
      </trkpt>
      <trkpt lat="5.351947" lon="-72.396325">
        <ele>350.40</ele>
        <time>2021-10-07T16:15:20Z</time>
      </trkpt>
      <trkpt lat="5.351959" lon="-72.396363">
        <ele>350.50</ele>
        <time>2021-10-07T16:15:22Z</time>
      </trkpt>
      <trkpt lat="5.351970" lon="-72.396393">
        <ele>350.60</ele>
        <time>2021-10-07T16:15:24Z</time>
      </trkpt>
      <trkpt lat="5.351985" lon="-72.396444">
        <ele>349.30</ele>
        <time>2021-10-07T16:15:26Z</time>
      </trkpt>
      <trkpt lat="5.351993" lon="-72.396472">
        <ele>349.30</ele>
        <time>2021-10-07T16:15:27Z</time>
      </trkpt>
      <trkpt lat="5.352004" lon="-72.396511">
        <ele>349.30</ele>
        <time>2021-10-07T16:15:29Z</time>
      </trkpt>
      <trkpt lat="5.352010" lon="-72.396545">
        <ele>349.20</ele>
        <time>2021-10-07T16:15:30Z</time>
      </trkpt>
      <trkpt lat="5.352012" lon="-72.396555">
        <ele>349.10</ele>
        <time>2021-10-07T16:15:31Z</time>
      </trkpt>
      <trkpt lat="5.352014" lon="-72.396572">
        <ele>349.10</ele>
        <time>2021-10-07T16:15:32Z</time>
      </trkpt>
      <trkpt lat="5.352010" lon="-72.396595">
        <ele>349.10</ele>
        <time>2021-10-07T16:15:34Z</time>
      </trkpt>
      <trkpt lat="5.351998" lon="-72.396609">
        <ele>349.00</ele>
        <time>2021-10-07T16:15:36Z</time>
      </trkpt>
      <trkpt lat="5.351994" lon="-72.396614">
        <ele>349.00</ele>
        <time>2021-10-07T16:15:37Z</time>
      </trkpt>
      <trkpt lat="5.351993" lon="-72.396620">
        <ele>349.00</ele>
        <time>2021-10-07T16:15:39Z</time>
      </trkpt>
      <trkpt lat="5.351993" lon="-72.396623">
        <ele>349.00</ele>
        <time>2021-10-07T16:15:40Z</time>
      </trkpt>
      <trkpt lat="5.351994" lon="-72.396631">
        <ele>349.00</ele>
        <time>2021-10-07T16:15:42Z</time>
      </trkpt>
      <trkpt lat="5.351995" lon="-72.396635">
        <ele>349.00</ele>
        <time>2021-10-07T16:15:43Z</time>
      </trkpt>
      <trkpt lat="5.352003" lon="-72.396644">
        <ele>348.90</ele>
        <time>2021-10-07T16:15:45Z</time>
      </trkpt>
      <trkpt lat="5.352022" lon="-72.396666">
        <ele>348.90</ele>
        <time>2021-10-07T16:15:47Z</time>
      </trkpt>
      <trkpt lat="5.352031" lon="-72.396679">
        <ele>347.10</ele>
        <time>2021-10-07T16:15:48Z</time>
      </trkpt>
      <trkpt lat="5.352042" lon="-72.396708">
        <ele>347.10</ele>
        <time>2021-10-07T16:15:50Z</time>
      </trkpt>
      <trkpt lat="5.352053" lon="-72.396743">
        <ele>347.10</ele>
        <time>2021-10-07T16:15:52Z</time>
      </trkpt>
      <trkpt lat="5.352076" lon="-72.396775">
        <ele>345.90</ele>
        <time>2021-10-07T16:15:54Z</time>
      </trkpt>
      <trkpt lat="5.352113" lon="-72.396820">
        <ele>345.00</ele>
        <time>2021-10-07T16:15:56Z</time>
      </trkpt>
      <trkpt lat="5.352126" lon="-72.396831">
        <ele>345.00</ele>
        <time>2021-10-07T16:15:57Z</time>
      </trkpt>
      <trkpt lat="5.352158" lon="-72.396855">
        <ele>343.90</ele>
        <time>2021-10-07T16:15:59Z</time>
      </trkpt>
      <trkpt lat="5.352177" lon="-72.396872">
        <ele>344.30</ele>
        <time>2021-10-07T16:16:00Z</time>
      </trkpt>
      <trkpt lat="5.352213" lon="-72.396907">
        <ele>343.80</ele>
        <time>2021-10-07T16:16:02Z</time>
      </trkpt>
      <trkpt lat="5.352259" lon="-72.396947">
        <ele>343.50</ele>
        <time>2021-10-07T16:16:04Z</time>
      </trkpt>
      <trkpt lat="5.352292" lon="-72.396981">
        <ele>342.80</ele>
        <time>2021-10-07T16:16:05Z</time>
      </trkpt>
      <trkpt lat="5.352329" lon="-72.397032">
        <ele>343.80</ele>
        <time>2021-10-07T16:16:07Z</time>
      </trkpt>
      <trkpt lat="5.352356" lon="-72.397087">
        <ele>344.40</ele>
        <time>2021-10-07T16:16:09Z</time>
      </trkpt>
      <trkpt lat="5.352363" lon="-72.397117">
        <ele>345.10</ele>
        <time>2021-10-07T16:16:10Z</time>
      </trkpt>
      <trkpt lat="5.352365" lon="-72.397145">
        <ele>345.10</ele>
        <time>2021-10-07T16:16:11Z</time>
      </trkpt>
      <trkpt lat="5.352371" lon="-72.397221">
        <ele>345.90</ele>
        <time>2021-10-07T16:16:13Z</time>
      </trkpt>
      <trkpt lat="5.352374" lon="-72.397313">
        <ele>346.40</ele>
        <time>2021-10-07T16:16:15Z</time>
      </trkpt>
      <trkpt lat="5.352375" lon="-72.397363">
        <ele>346.70</ele>
        <time>2021-10-07T16:16:16Z</time>
      </trkpt>
      <trkpt lat="5.352376" lon="-72.397460">
        <ele>347.50</ele>
        <time>2021-10-07T16:16:18Z</time>
      </trkpt>
      <trkpt lat="5.352403" lon="-72.397561">
        <ele>348.10</ele>
        <time>2021-10-07T16:16:20Z</time>
      </trkpt>
      <trkpt lat="5.352421" lon="-72.397614">
        <ele>348.00</ele>
        <time>2021-10-07T16:16:21Z</time>
      </trkpt>
      <trkpt lat="5.352438" lon="-72.397651">
        <ele>348.00</ele>
        <time>2021-10-07T16:16:22Z</time>
      </trkpt>
      <trkpt lat="5.352458" lon="-72.397693">
        <ele>347.70</ele>
        <time>2021-10-07T16:16:23Z</time>
      </trkpt>
      <trkpt lat="5.352506" lon="-72.397788">
        <ele>347.50</ele>
        <time>2021-10-07T16:16:25Z</time>
      </trkpt>
      <trkpt lat="5.352540" lon="-72.397892">
        <ele>348.00</ele>
        <time>2021-10-07T16:16:27Z</time>
      </trkpt>
      <trkpt lat="5.352553" lon="-72.397962">
        <ele>348.10</ele>
        <time>2021-10-07T16:16:28Z</time>
      </trkpt>
      <trkpt lat="5.352559" lon="-72.398037">
        <ele>348.20</ele>
        <time>2021-10-07T16:16:29Z</time>
      </trkpt>
      <trkpt lat="5.352558" lon="-72.398164">
        <ele>348.00</ele>
        <time>2021-10-07T16:16:31Z</time>
      </trkpt>
      <trkpt lat="5.352545" lon="-72.398269">
        <ele>348.00</ele>
        <time>2021-10-07T16:16:33Z</time>
      </trkpt>
      <trkpt lat="5.352552" lon="-72.398340">
        <ele>347.90</ele>
        <time>2021-10-07T16:16:35Z</time>
      </trkpt>
      <trkpt lat="5.352567" lon="-72.398391">
        <ele>347.90</ele>
        <time>2021-10-07T16:16:36Z</time>
      </trkpt>
      <trkpt lat="5.352584" lon="-72.398431">
        <ele>348.00</ele>
        <time>2021-10-07T16:16:37Z</time>
      </trkpt>
      <trkpt lat="5.352619" lon="-72.398512">
        <ele>348.00</ele>
        <time>2021-10-07T16:16:39Z</time>
      </trkpt>
      <trkpt lat="5.352629" lon="-72.398592">
        <ele>347.70</ele>
        <time>2021-10-07T16:16:41Z</time>
      </trkpt>
      <trkpt lat="5.352626" lon="-72.398639">
        <ele>347.60</ele>
        <time>2021-10-07T16:16:42Z</time>
      </trkpt>
      <trkpt lat="5.352625" lon="-72.398692">
        <ele>347.60</ele>
        <time>2021-10-07T16:16:43Z</time>
      </trkpt>
      <trkpt lat="5.352633" lon="-72.398805">
        <ele>347.80</ele>
        <time>2021-10-07T16:16:45Z</time>
      </trkpt>
      <trkpt lat="5.352654" lon="-72.398905">
        <ele>348.30</ele>
        <time>2021-10-07T16:16:47Z</time>
      </trkpt>
      <trkpt lat="5.352659" lon="-72.398947">
        <ele>348.50</ele>
        <time>2021-10-07T16:16:48Z</time>
      </trkpt>
      <trkpt lat="5.352669" lon="-72.399033">
        <ele>348.90</ele>
        <time>2021-10-07T16:16:50Z</time>
      </trkpt>
      <trkpt lat="5.352698" lon="-72.399101">
        <ele>349.60</ele>
        <time>2021-10-07T16:16:52Z</time>
      </trkpt>
      <trkpt lat="5.352737" lon="-72.399162">
        <ele>350.10</ele>
        <time>2021-10-07T16:16:54Z</time>
      </trkpt>
      <trkpt lat="5.352770" lon="-72.399216">
        <ele>350.70</ele>
        <time>2021-10-07T16:16:56Z</time>
      </trkpt>
      <trkpt lat="5.352784" lon="-72.399248">
        <ele>350.70</ele>
        <time>2021-10-07T16:16:57Z</time>
      </trkpt>
      <trkpt lat="5.352801" lon="-72.399332">
        <ele>350.70</ele>
        <time>2021-10-07T16:16:59Z</time>
      </trkpt>
      <trkpt lat="5.352807" lon="-72.399430">
        <ele>350.60</ele>
        <time>2021-10-07T16:17:01Z</time>
      </trkpt>
      <trkpt lat="5.352820" lon="-72.399514">
        <ele>350.70</ele>
        <time>2021-10-07T16:17:03Z</time>
      </trkpt>
      <trkpt lat="5.352844" lon="-72.399575">
        <ele>351.00</ele>
        <time>2021-10-07T16:17:05Z</time>
      </trkpt>
      <trkpt lat="5.352859" lon="-72.399607">
        <ele>351.40</ele>
        <time>2021-10-07T16:17:06Z</time>
      </trkpt>
      <trkpt lat="5.352877" lon="-72.399666">
        <ele>351.70</ele>
        <time>2021-10-07T16:17:08Z</time>
      </trkpt>
      <trkpt lat="5.352878" lon="-72.399697">
        <ele>351.80</ele>
        <time>2021-10-07T16:17:09Z</time>
      </trkpt>
      <trkpt lat="5.352863" lon="-72.399752">
        <ele>351.80</ele>
        <time>2021-10-07T16:17:11Z</time>
      </trkpt>
      <trkpt lat="5.352848" lon="-72.399801">
        <ele>351.90</ele>
        <time>2021-10-07T16:17:13Z</time>
      </trkpt>
      <trkpt lat="5.352854" lon="-72.399835">
        <ele>352.10</ele>
        <time>2021-10-07T16:17:15Z</time>
      </trkpt>
      <trkpt lat="5.352878" lon="-72.399872">
        <ele>352.40</ele>
        <time>2021-10-07T16:17:17Z</time>
      </trkpt>
      <trkpt lat="5.352894" lon="-72.399889">
        <ele>351.80</ele>
        <time>2021-10-07T16:17:18Z</time>
      </trkpt>
      <trkpt lat="5.352931" lon="-72.399946">
        <ele>352.80</ele>
        <time>2021-10-07T16:17:20Z</time>
      </trkpt>
      <trkpt lat="5.352952" lon="-72.399984">
        <ele>352.80</ele>
        <time>2021-10-07T16:17:21Z</time>
      </trkpt>
      <trkpt lat="5.352994" lon="-72.400077">
        <ele>354.20</ele>
        <time>2021-10-07T16:17:23Z</time>
      </trkpt>
      <trkpt lat="5.353007" lon="-72.400117">
        <ele>354.60</ele>
        <time>2021-10-07T16:17:24Z</time>
      </trkpt>
      <trkpt lat="5.353033" lon="-72.400200">
        <ele>354.70</ele>
        <time>2021-10-07T16:17:26Z</time>
      </trkpt>
      <trkpt lat="5.353043" lon="-72.400237">
        <ele>355.00</ele>
        <time>2021-10-07T16:17:27Z</time>
      </trkpt>
      <trkpt lat="5.353058" lon="-72.400290">
        <ele>355.20</ele>
        <time>2021-10-07T16:17:29Z</time>
      </trkpt>
      <trkpt lat="5.353080" lon="-72.400327">
        <ele>355.20</ele>
        <time>2021-10-07T16:17:31Z</time>
      </trkpt>
      <trkpt lat="5.353101" lon="-72.400355">
        <ele>354.90</ele>
        <time>2021-10-07T16:17:33Z</time>
      </trkpt>
      <trkpt lat="5.353124" lon="-72.400392">
        <ele>354.70</ele>
        <time>2021-10-07T16:17:35Z</time>
      </trkpt>
      <trkpt lat="5.353171" lon="-72.400442">
        <ele>354.20</ele>
        <time>2021-10-07T16:17:37Z</time>
      </trkpt>
      <trkpt lat="5.353232" lon="-72.400525">
        <ele>353.90</ele>
        <time>2021-10-07T16:17:39Z</time>
      </trkpt>
      <trkpt lat="5.353304" lon="-72.400629">
        <ele>354.10</ele>
        <time>2021-10-07T16:17:41Z</time>
      </trkpt>
      <trkpt lat="5.353397" lon="-72.400752">
        <ele>354.10</ele>
        <time>2021-10-07T16:17:43Z</time>
      </trkpt>
      <trkpt lat="5.353476" lon="-72.400861">
        <ele>354.10</ele>
        <time>2021-10-07T16:17:45Z</time>
      </trkpt>
      <trkpt lat="5.353506" lon="-72.400925">
        <ele>354.10</ele>
        <time>2021-10-07T16:17:46Z</time>
      </trkpt>
      <trkpt lat="5.353537" lon="-72.400988">
        <ele>353.60</ele>
        <time>2021-10-07T16:17:47Z</time>
      </trkpt>
      <trkpt lat="5.353566" lon="-72.401049">
        <ele>353.10</ele>
        <time>2021-10-07T16:17:48Z</time>
      </trkpt>
      <trkpt lat="5.353640" lon="-72.401137">
        <ele>352.60</ele>
        <time>2021-10-07T16:17:50Z</time>
      </trkpt>
      <trkpt lat="5.353669" lon="-72.401166">
        <ele>352.40</ele>
        <time>2021-10-07T16:17:51Z</time>
      </trkpt>
      <trkpt lat="5.353732" lon="-72.401241">
        <ele>352.20</ele>
        <time>2021-10-07T16:17:53Z</time>
      </trkpt>
      <trkpt lat="5.353775" lon="-72.401276">
        <ele>351.90</ele>
        <time>2021-10-07T16:17:55Z</time>
      </trkpt>
      <trkpt lat="5.353802" lon="-72.401284">
        <ele>351.80</ele>
        <time>2021-10-07T16:17:56Z</time>
      </trkpt>
      <trkpt lat="5.353854" lon="-72.401295">
        <ele>351.80</ele>
        <time>2021-10-07T16:17:58Z</time>
      </trkpt>
      <trkpt lat="5.353887" lon="-72.401300">
        <ele>351.80</ele>
        <time>2021-10-07T16:17:59Z</time>
      </trkpt>
      <trkpt lat="5.353910" lon="-72.401307">
        <ele>351.80</ele>
        <time>2021-10-07T16:18:00Z</time>
      </trkpt>
      <trkpt lat="5.353934" lon="-72.401324">
        <ele>352.00</ele>
        <time>2021-10-07T16:18:02Z</time>
      </trkpt>
      <trkpt lat="5.353955" lon="-72.401334">
        <ele>351.80</ele>
        <time>2021-10-07T16:18:03Z</time>
      </trkpt>
      <trkpt lat="5.353988" lon="-72.401359">
        <ele>351.80</ele>
        <time>2021-10-07T16:18:05Z</time>
      </trkpt>
      <trkpt lat="5.353994" lon="-72.401374">
        <ele>351.60</ele>
        <time>2021-10-07T16:18:06Z</time>
      </trkpt>
      <trkpt lat="5.354001" lon="-72.401390">
        <ele>351.60</ele>
        <time>2021-10-07T16:18:07Z</time>
      </trkpt>
      <trkpt lat="5.354008" lon="-72.401406">
        <ele>351.50</ele>
        <time>2021-10-07T16:18:08Z</time>
      </trkpt>
      <trkpt lat="5.354017" lon="-72.401420">
        <ele>351.50</ele>
        <time>2021-10-07T16:18:10Z</time>
      </trkpt>
      <trkpt lat="5.354020" lon="-72.401422">
        <ele>351.50</ele>
        <time>2021-10-07T16:18:11Z</time>
      </trkpt>
      <trkpt lat="5.354021" lon="-72.401422">
        <ele>351.50</ele>
        <time>2021-10-07T16:18:12Z</time>
      </trkpt>
      <trkpt lat="5.354028" lon="-72.401426">
        <ele>351.50</ele>
        <time>2021-10-07T16:18:14Z</time>
      </trkpt>
      <trkpt lat="5.354051" lon="-72.401447">
        <ele>351.20</ele>
        <time>2021-10-07T16:18:16Z</time>
      </trkpt>
      <trkpt lat="5.354065" lon="-72.401460">
        <ele>351.10</ele>
        <time>2021-10-07T16:18:18Z</time>
      </trkpt>
      <trkpt lat="5.354071" lon="-72.401456">
        <ele>351.10</ele>
        <time>2021-10-07T16:18:19Z</time>
      </trkpt>
      <trkpt lat="5.354078" lon="-72.401452">
        <ele>351.00</ele>
        <time>2021-10-07T16:18:21Z</time>
      </trkpt>
      <trkpt lat="5.354081" lon="-72.401456">
        <ele>351.00</ele>
        <time>2021-10-07T16:18:22Z</time>
      </trkpt>
      <trkpt lat="5.354083" lon="-72.401462">
        <ele>351.00</ele>
        <time>2021-10-07T16:18:23Z</time>
      </trkpt>
      <trkpt lat="5.354083" lon="-72.401463">
        <ele>351.00</ele>
        <time>2021-10-07T16:18:24Z</time>
      </trkpt>
      <trkpt lat="5.354083" lon="-72.401464">
        <ele>351.00</ele>
        <time>2021-10-07T16:18:25Z</time>
      </trkpt>
      <trkpt lat="5.354083" lon="-72.401465">
        <ele>351.00</ele>
        <time>2021-10-07T16:18:27Z</time>
      </trkpt>
      <trkpt lat="5.354082" lon="-72.401465">
        <ele>351.00</ele>
        <time>2021-10-07T16:18:29Z</time>
      </trkpt>
      <trkpt lat="5.354082" lon="-72.401465">
        <ele>351.00</ele>
        <time>2021-10-07T16:18:30Z</time>
      </trkpt>
      <trkpt lat="5.354082" lon="-72.401465">
        <ele>351.00</ele>
        <time>2021-10-07T16:18:32Z</time>
      </trkpt>
      <trkpt lat="5.354102" lon="-72.401474">
        <ele>351.00</ele>
        <time>2021-10-07T16:18:50Z</time>
      </trkpt>
      <trkpt lat="5.354101" lon="-72.401474">
        <ele>351.00</ele>
        <time>2021-10-07T16:18:52Z</time>
      </trkpt>
      <trkpt lat="5.354116" lon="-72.401480">
        <ele>351.00</ele>
        <time>2021-10-07T16:18:54Z</time>
      </trkpt>
      <trkpt lat="5.354139" lon="-72.401495">
        <ele>351.00</ele>
        <time>2021-10-07T16:18:56Z</time>
      </trkpt>
      <trkpt lat="5.354148" lon="-72.401507">
        <ele>351.00</ele>
        <time>2021-10-07T16:18:57Z</time>
      </trkpt>
      <trkpt lat="5.354159" lon="-72.401520">
        <ele>351.00</ele>
        <time>2021-10-07T16:18:58Z</time>
      </trkpt>
      <trkpt lat="5.354164" lon="-72.401528">
        <ele>351.20</ele>
        <time>2021-10-07T16:18:59Z</time>
      </trkpt>
      <trkpt lat="5.354168" lon="-72.401544">
        <ele>351.40</ele>
        <time>2021-10-07T16:19:00Z</time>
      </trkpt>
      <trkpt lat="5.354167" lon="-72.401583">
        <ele>351.60</ele>
        <time>2021-10-07T16:19:02Z</time>
      </trkpt>
      <trkpt lat="5.354164" lon="-72.401603">
        <ele>351.60</ele>
        <time>2021-10-07T16:19:03Z</time>
      </trkpt>
      <trkpt lat="5.354155" lon="-72.401634">
        <ele>351.60</ele>
        <time>2021-10-07T16:19:05Z</time>
      </trkpt>
      <trkpt lat="5.354148" lon="-72.401651">
        <ele>351.60</ele>
        <time>2021-10-07T16:19:06Z</time>
      </trkpt>
      <trkpt lat="5.354138" lon="-72.401676">
        <ele>352.00</ele>
        <time>2021-10-07T16:19:08Z</time>
      </trkpt>
      <trkpt lat="5.354135" lon="-72.401709">
        <ele>352.30</ele>
        <time>2021-10-07T16:19:10Z</time>
      </trkpt>
      <trkpt lat="5.354128" lon="-72.401755">
        <ele>352.70</ele>
        <time>2021-10-07T16:19:12Z</time>
      </trkpt>
      <trkpt lat="5.354125" lon="-72.401780">
        <ele>352.70</ele>
        <time>2021-10-07T16:19:13Z</time>
      </trkpt>
      <trkpt lat="5.354121" lon="-72.401842">
        <ele>353.10</ele>
        <time>2021-10-07T16:19:15Z</time>
      </trkpt>
      <trkpt lat="5.354120" lon="-72.401879">
        <ele>353.10</ele>
        <time>2021-10-07T16:19:16Z</time>
      </trkpt>
      <trkpt lat="5.354121" lon="-72.401949">
        <ele>353.00</ele>
        <time>2021-10-07T16:19:18Z</time>
      </trkpt>
      <trkpt lat="5.354139" lon="-72.402025">
        <ele>352.30</ele>
        <time>2021-10-07T16:19:20Z</time>
      </trkpt>
      <trkpt lat="5.354153" lon="-72.402068">
        <ele>351.90</ele>
        <time>2021-10-07T16:19:21Z</time>
      </trkpt>
      <trkpt lat="5.354171" lon="-72.402125">
        <ele>351.70</ele>
        <time>2021-10-07T16:19:22Z</time>
      </trkpt>
      <trkpt lat="5.354215" lon="-72.402239">
        <ele>350.80</ele>
        <time>2021-10-07T16:19:24Z</time>
      </trkpt>
      <trkpt lat="5.354231" lon="-72.402295">
        <ele>350.70</ele>
        <time>2021-10-07T16:19:25Z</time>
      </trkpt>
      <trkpt lat="5.354255" lon="-72.402411">
        <ele>351.10</ele>
        <time>2021-10-07T16:19:27Z</time>
      </trkpt>
      <trkpt lat="5.354275" lon="-72.402531">
        <ele>351.90</ele>
        <time>2021-10-07T16:19:29Z</time>
      </trkpt>
      <trkpt lat="5.354281" lon="-72.402589">
        <ele>352.40</ele>
        <time>2021-10-07T16:19:30Z</time>
      </trkpt>
      <trkpt lat="5.354284" lon="-72.402707">
        <ele>353.90</ele>
        <time>2021-10-07T16:19:32Z</time>
      </trkpt>
      <trkpt lat="5.354292" lon="-72.402824">
        <ele>354.50</ele>
        <time>2021-10-07T16:19:34Z</time>
      </trkpt>
      <trkpt lat="5.354321" lon="-72.402902">
        <ele>354.60</ele>
        <time>2021-10-07T16:19:36Z</time>
      </trkpt>
      <trkpt lat="5.354332" lon="-72.402922">
        <ele>354.70</ele>
        <time>2021-10-07T16:19:37Z</time>
      </trkpt>
      <trkpt lat="5.354354" lon="-72.402967">
        <ele>354.30</ele>
        <time>2021-10-07T16:19:39Z</time>
      </trkpt>
      <trkpt lat="5.354367" lon="-72.402995">
        <ele>354.30</ele>
        <time>2021-10-07T16:19:40Z</time>
      </trkpt>
      <trkpt lat="5.354405" lon="-72.403072">
        <ele>353.80</ele>
        <time>2021-10-07T16:19:42Z</time>
      </trkpt>
      <trkpt lat="5.354421" lon="-72.403119">
        <ele>353.10</ele>
        <time>2021-10-07T16:19:44Z</time>
      </trkpt>
      <trkpt lat="5.354441" lon="-72.403214">
        <ele>352.20</ele>
        <time>2021-10-07T16:19:46Z</time>
      </trkpt>
      <trkpt lat="5.354450" lon="-72.403348">
        <ele>351.80</ele>
        <time>2021-10-07T16:19:48Z</time>
      </trkpt>
      <trkpt lat="5.354457" lon="-72.403511">
        <ele>353.20</ele>
        <time>2021-10-07T16:19:50Z</time>
      </trkpt>
      <trkpt lat="5.354458" lon="-72.403583">
        <ele>353.70</ele>
        <time>2021-10-07T16:19:51Z</time>
      </trkpt>
      <trkpt lat="5.354451" lon="-72.403650">
        <ele>354.50</ele>
        <time>2021-10-07T16:19:52Z</time>
      </trkpt>
      <trkpt lat="5.354438" lon="-72.403706">
        <ele>354.80</ele>
        <time>2021-10-07T16:19:53Z</time>
      </trkpt>
      <trkpt lat="5.354414" lon="-72.403767">
        <ele>354.90</ele>
        <time>2021-10-07T16:19:55Z</time>
      </trkpt>
      <trkpt lat="5.354400" lon="-72.403802">
        <ele>354.90</ele>
        <time>2021-10-07T16:19:56Z</time>
      </trkpt>
      <trkpt lat="5.354365" lon="-72.403824">
        <ele>355.00</ele>
        <time>2021-10-07T16:19:58Z</time>
      </trkpt>
      <trkpt lat="5.354375" lon="-72.403891">
        <ele>355.10</ele>
        <time>2021-10-07T16:20:00Z</time>
      </trkpt>
      <trkpt lat="5.354375" lon="-72.403893">
        <ele>355.10</ele>
        <time>2021-10-07T16:20:01Z</time>
      </trkpt>
      <trkpt lat="5.354371" lon="-72.403893">
        <ele>355.10</ele>
        <time>2021-10-07T16:20:03Z</time>
      </trkpt>
      <trkpt lat="5.354357" lon="-72.403891">
        <ele>355.10</ele>
        <time>2021-10-07T16:20:04Z</time>
      </trkpt>
      <trkpt lat="5.354331" lon="-72.403861">
        <ele>355.40</ele>
        <time>2021-10-07T16:20:05Z</time>
      </trkpt>
      <trkpt lat="5.354270" lon="-72.403802">
        <ele>355.30</ele>
        <time>2021-10-07T16:20:07Z</time>
      </trkpt>
      <trkpt lat="5.354225" lon="-72.403767">
        <ele>355.70</ele>
        <time>2021-10-07T16:20:08Z</time>
      </trkpt>
      <trkpt lat="5.354184" lon="-72.403729">
        <ele>355.70</ele>
        <time>2021-10-07T16:20:09Z</time>
      </trkpt>
      <trkpt lat="5.354139" lon="-72.403679">
        <ele>356.00</ele>
        <time>2021-10-07T16:20:10Z</time>
      </trkpt>
      <trkpt lat="5.354103" lon="-72.403646">
        <ele>356.60</ele>
        <time>2021-10-07T16:20:12Z</time>
      </trkpt>
      <trkpt lat="5.354073" lon="-72.403623">
        <ele>357.60</ele>
        <time>2021-10-07T16:20:13Z</time>
      </trkpt>
      <trkpt lat="5.354036" lon="-72.403589">
        <ele>357.60</ele>
        <time>2021-10-07T16:20:14Z</time>
      </trkpt>
      <trkpt lat="5.354007" lon="-72.403558">
        <ele>358.90</ele>
        <time>2021-10-07T16:20:16Z</time>
      </trkpt>
      <trkpt lat="5.353986" lon="-72.403528">
        <ele>360.00</ele>
        <time>2021-10-07T16:20:17Z</time>
      </trkpt>
      <trkpt lat="5.353968" lon="-72.403493">
        <ele>359.70</ele>
        <time>2021-10-07T16:20:18Z</time>
      </trkpt>
      <trkpt lat="5.353944" lon="-72.403451">
        <ele>360.40</ele>
        <time>2021-10-07T16:20:19Z</time>
      </trkpt>
      <trkpt lat="5.353918" lon="-72.403414">
        <ele>360.10</ele>
        <time>2021-10-07T16:20:21Z</time>
      </trkpt>
      <trkpt lat="5.353899" lon="-72.403383">
        <ele>361.00</ele>
        <time>2021-10-07T16:20:22Z</time>
      </trkpt>
      <trkpt lat="5.353894" lon="-72.403375">
        <ele>360.80</ele>
        <time>2021-10-07T16:20:23Z</time>
      </trkpt>
      <trkpt lat="5.353875" lon="-72.403350">
        <ele>360.80</ele>
        <time>2021-10-07T16:20:24Z</time>
      </trkpt>
      <trkpt lat="5.353859" lon="-72.403330">
        <ele>361.40</ele>
        <time>2021-10-07T16:20:25Z</time>
      </trkpt>
      <trkpt lat="5.353831" lon="-72.403290">
        <ele>361.10</ele>
        <time>2021-10-07T16:20:27Z</time>
      </trkpt>
      <trkpt lat="5.353795" lon="-72.403236">
        <ele>361.30</ele>
        <time>2021-10-07T16:20:29Z</time>
      </trkpt>
      <trkpt lat="5.353776" lon="-72.403197">
        <ele>361.10</ele>
        <time>2021-10-07T16:20:30Z</time>
      </trkpt>
      <trkpt lat="5.353764" lon="-72.403158">
        <ele>360.30</ele>
        <time>2021-10-07T16:20:31Z</time>
      </trkpt>
      <trkpt lat="5.353755" lon="-72.403064">
        <ele>358.90</ele>
        <time>2021-10-07T16:20:33Z</time>
      </trkpt>
      <trkpt lat="5.353725" lon="-72.402953">
        <ele>359.00</ele>
        <time>2021-10-07T16:20:35Z</time>
      </trkpt>
      <trkpt lat="5.353707" lon="-72.402897">
        <ele>358.90</ele>
        <time>2021-10-07T16:20:36Z</time>
      </trkpt>
      <trkpt lat="5.353665" lon="-72.402789">
        <ele>359.40</ele>
        <time>2021-10-07T16:20:38Z</time>
      </trkpt>
      <trkpt lat="5.353639" lon="-72.402734">
        <ele>359.30</ele>
        <time>2021-10-07T16:20:39Z</time>
      </trkpt>
      <trkpt lat="5.353598" lon="-72.402627">
        <ele>358.40</ele>
        <time>2021-10-07T16:20:41Z</time>
      </trkpt>
      <trkpt lat="5.353577" lon="-72.402560">
        <ele>356.80</ele>
        <time>2021-10-07T16:20:42Z</time>
      </trkpt>
      <trkpt lat="5.353564" lon="-72.402515">
        <ele>356.50</ele>
        <time>2021-10-07T16:20:44Z</time>
      </trkpt>
      <trkpt lat="5.353546" lon="-72.402468">
        <ele>355.90</ele>
        <time>2021-10-07T16:20:45Z</time>
      </trkpt>
      <trkpt lat="5.353536" lon="-72.402440">
        <ele>355.90</ele>
        <time>2021-10-07T16:20:46Z</time>
      </trkpt>
      <trkpt lat="5.353529" lon="-72.402418">
        <ele>355.50</ele>
        <time>2021-10-07T16:20:47Z</time>
      </trkpt>
      <trkpt lat="5.353531" lon="-72.402416">
        <ele>355.50</ele>
        <time>2021-10-07T16:20:48Z</time>
      </trkpt>
      <trkpt lat="5.353531" lon="-72.402403">
        <ele>355.50</ele>
        <time>2021-10-07T16:20:50Z</time>
      </trkpt>
      <trkpt lat="5.353532" lon="-72.402385">
        <ele>355.20</ele>
        <time>2021-10-07T16:20:51Z</time>
      </trkpt>
      <trkpt lat="5.353534" lon="-72.402368">
        <ele>355.20</ele>
        <time>2021-10-07T16:20:52Z</time>
      </trkpt>
      <trkpt lat="5.353529" lon="-72.402339">
        <ele>354.90</ele>
        <time>2021-10-07T16:20:54Z</time>
      </trkpt>
      <trkpt lat="5.353511" lon="-72.402300">
        <ele>355.40</ele>
        <time>2021-10-07T16:20:56Z</time>
      </trkpt>
      <trkpt lat="5.353481" lon="-72.402259">
        <ele>355.40</ele>
        <time>2021-10-07T16:20:57Z</time>
      </trkpt>
      <trkpt lat="5.353462" lon="-72.402228">
        <ele>355.90</ele>
        <time>2021-10-07T16:20:58Z</time>
      </trkpt>
      <trkpt lat="5.353440" lon="-72.402195">
        <ele>355.90</ele>
        <time>2021-10-07T16:21:00Z</time>
      </trkpt>
      <trkpt lat="5.353426" lon="-72.402165">
        <ele>356.20</ele>
        <time>2021-10-07T16:21:01Z</time>
      </trkpt>
      <trkpt lat="5.353409" lon="-72.402132">
        <ele>356.00</ele>
        <time>2021-10-07T16:21:02Z</time>
      </trkpt>
      <trkpt lat="5.353372" lon="-72.402069">
        <ele>356.10</ele>
        <time>2021-10-07T16:21:04Z</time>
      </trkpt>
      <trkpt lat="5.353337" lon="-72.401995">
        <ele>356.10</ele>
        <time>2021-10-07T16:21:06Z</time>
      </trkpt>
      <trkpt lat="5.353313" lon="-72.401962">
        <ele>356.00</ele>
        <time>2021-10-07T16:21:07Z</time>
      </trkpt>
      <trkpt lat="5.353274" lon="-72.401902">
        <ele>356.80</ele>
        <time>2021-10-07T16:21:09Z</time>
      </trkpt>
      <trkpt lat="5.353255" lon="-72.401858">
        <ele>357.60</ele>
        <time>2021-10-07T16:21:10Z</time>
      </trkpt>
      <trkpt lat="5.353176" lon="-72.401699">
        <ele>359.00</ele>
        <time>2021-10-07T16:21:12Z</time>
      </trkpt>
      <trkpt lat="5.353140" lon="-72.401637">
        <ele>359.10</ele>
        <time>2021-10-07T16:21:13Z</time>
      </trkpt>
      <trkpt lat="5.353101" lon="-72.401582">
        <ele>359.90</ele>
        <time>2021-10-07T16:21:14Z</time>
      </trkpt>
      <trkpt lat="5.353041" lon="-72.401492">
        <ele>360.40</ele>
        <time>2021-10-07T16:21:16Z</time>
      </trkpt>
      <trkpt lat="5.353014" lon="-72.401459">
        <ele>360.10</ele>
        <time>2021-10-07T16:21:17Z</time>
      </trkpt>
      <trkpt lat="5.352978" lon="-72.401408">
        <ele>359.70</ele>
        <time>2021-10-07T16:21:19Z</time>
      </trkpt>
      <trkpt lat="5.352935" lon="-72.401343">
        <ele>358.80</ele>
        <time>2021-10-07T16:21:21Z</time>
      </trkpt>
      <trkpt lat="5.352916" lon="-72.401308">
        <ele>358.50</ele>
        <time>2021-10-07T16:21:22Z</time>
      </trkpt>
      <trkpt lat="5.352885" lon="-72.401251">
        <ele>358.00</ele>
        <time>2021-10-07T16:21:24Z</time>
      </trkpt>
      <trkpt lat="5.352858" lon="-72.401209">
        <ele>357.70</ele>
        <time>2021-10-07T16:21:25Z</time>
      </trkpt>
      <trkpt lat="5.352828" lon="-72.401157">
        <ele>357.60</ele>
        <time>2021-10-07T16:21:27Z</time>
      </trkpt>
      <trkpt lat="5.352814" lon="-72.401120">
        <ele>357.20</ele>
        <time>2021-10-07T16:21:28Z</time>
      </trkpt>
      <trkpt lat="5.352810" lon="-72.401088">
        <ele>356.90</ele>
        <time>2021-10-07T16:21:29Z</time>
      </trkpt>
      <trkpt lat="5.352812" lon="-72.401046">
        <ele>356.60</ele>
        <time>2021-10-07T16:21:31Z</time>
      </trkpt>
      <trkpt lat="5.352819" lon="-72.401025">
        <ele>356.60</ele>
        <time>2021-10-07T16:21:32Z</time>
      </trkpt>
      <trkpt lat="5.352827" lon="-72.401006">
        <ele>356.20</ele>
        <time>2021-10-07T16:21:34Z</time>
      </trkpt>
      <trkpt lat="5.352830" lon="-72.400989">
        <ele>356.20</ele>
        <time>2021-10-07T16:21:35Z</time>
      </trkpt>
      <trkpt lat="5.352829" lon="-72.400979">
        <ele>356.20</ele>
        <time>2021-10-07T16:21:36Z</time>
      </trkpt>
      <trkpt lat="5.352829" lon="-72.400973">
        <ele>355.80</ele>
        <time>2021-10-07T16:21:37Z</time>
      </trkpt>
      <trkpt lat="5.352829" lon="-72.400968">
        <ele>355.80</ele>
        <time>2021-10-07T16:21:38Z</time>
      </trkpt>
      <trkpt lat="5.352825" lon="-72.400950">
        <ele>355.80</ele>
        <time>2021-10-07T16:21:40Z</time>
      </trkpt>
      <trkpt lat="5.352813" lon="-72.400923">
        <ele>355.40</ele>
        <time>2021-10-07T16:21:42Z</time>
      </trkpt>
      <trkpt lat="5.352799" lon="-72.400892">
        <ele>355.40</ele>
        <time>2021-10-07T16:21:43Z</time>
      </trkpt>
      <trkpt lat="5.352787" lon="-72.400866">
        <ele>355.80</ele>
        <time>2021-10-07T16:21:44Z</time>
      </trkpt>
      <trkpt lat="5.352759" lon="-72.400834">
        <ele>355.90</ele>
        <time>2021-10-07T16:21:46Z</time>
      </trkpt>
      <trkpt lat="5.352747" lon="-72.400806">
        <ele>356.60</ele>
        <time>2021-10-07T16:21:47Z</time>
      </trkpt>
      <trkpt lat="5.352730" lon="-72.400782">
        <ele>357.00</ele>
        <time>2021-10-07T16:21:48Z</time>
      </trkpt>
      <trkpt lat="5.352724" lon="-72.400775">
        <ele>357.00</ele>
        <time>2021-10-07T16:21:49Z</time>
      </trkpt>
      <trkpt lat="5.352707" lon="-72.400758">
        <ele>358.30</ele>
        <time>2021-10-07T16:21:50Z</time>
      </trkpt>
      <trkpt lat="5.352680" lon="-72.400724">
        <ele>358.30</ele>
        <time>2021-10-07T16:21:52Z</time>
      </trkpt>
      <trkpt lat="5.352661" lon="-72.400692">
        <ele>359.30</ele>
        <time>2021-10-07T16:21:53Z</time>
      </trkpt>
      <trkpt lat="5.352656" lon="-72.400683">
        <ele>359.30</ele>
        <time>2021-10-07T16:21:54Z</time>
      </trkpt>
      <trkpt lat="5.352649" lon="-72.400655">
        <ele>359.50</ele>
        <time>2021-10-07T16:21:56Z</time>
      </trkpt>
      <trkpt lat="5.352651" lon="-72.400632">
        <ele>359.50</ele>
        <time>2021-10-07T16:21:57Z</time>
      </trkpt>
      <trkpt lat="5.352654" lon="-72.400599">
        <ele>359.50</ele>
        <time>2021-10-07T16:21:59Z</time>
      </trkpt>
      <trkpt lat="5.352654" lon="-72.400582">
        <ele>359.30</ele>
        <time>2021-10-07T16:22:00Z</time>
      </trkpt>
      <trkpt lat="5.352655" lon="-72.400569">
        <ele>359.30</ele>
        <time>2021-10-07T16:22:01Z</time>
      </trkpt>
      <trkpt lat="5.352653" lon="-72.400563">
        <ele>359.30</ele>
        <time>2021-10-07T16:22:02Z</time>
      </trkpt>
      <trkpt lat="5.352653" lon="-72.400544">
        <ele>359.00</ele>
        <time>2021-10-07T16:22:04Z</time>
      </trkpt>
      <trkpt lat="5.352651" lon="-72.400505">
        <ele>359.00</ele>
        <time>2021-10-07T16:22:06Z</time>
      </trkpt>
      <trkpt lat="5.352633" lon="-72.400482">
        <ele>358.70</ele>
        <time>2021-10-07T16:22:08Z</time>
      </trkpt>
      <trkpt lat="5.352629" lon="-72.400475">
        <ele>358.70</ele>
        <time>2021-10-07T16:22:09Z</time>
      </trkpt>
      <trkpt lat="5.352618" lon="-72.400456">
        <ele>358.60</ele>
        <time>2021-10-07T16:22:10Z</time>
      </trkpt>
      <trkpt lat="5.352594" lon="-72.400411">
        <ele>358.30</ele>
        <time>2021-10-07T16:22:12Z</time>
      </trkpt>
      <trkpt lat="5.352560" lon="-72.400368">
        <ele>358.40</ele>
        <time>2021-10-07T16:22:13Z</time>
      </trkpt>
      <trkpt lat="5.352532" lon="-72.400329">
        <ele>358.50</ele>
        <time>2021-10-07T16:22:15Z</time>
      </trkpt>
      <trkpt lat="5.352510" lon="-72.400297">
        <ele>358.50</ele>
        <time>2021-10-07T16:22:16Z</time>
      </trkpt>
      <trkpt lat="5.352479" lon="-72.400252">
        <ele>358.30</ele>
        <time>2021-10-07T16:22:18Z</time>
      </trkpt>
      <trkpt lat="5.352464" lon="-72.400229">
        <ele>357.80</ele>
        <time>2021-10-07T16:22:19Z</time>
      </trkpt>
      <trkpt lat="5.352444" lon="-72.400201">
        <ele>357.30</ele>
        <time>2021-10-07T16:22:20Z</time>
      </trkpt>
      <trkpt lat="5.352417" lon="-72.400158">
        <ele>356.90</ele>
        <time>2021-10-07T16:22:21Z</time>
      </trkpt>
      <trkpt lat="5.352395" lon="-72.400125">
        <ele>357.00</ele>
        <time>2021-10-07T16:22:22Z</time>
      </trkpt>
      <trkpt lat="5.352363" lon="-72.400082">
        <ele>357.10</ele>
        <time>2021-10-07T16:22:24Z</time>
      </trkpt>
      <trkpt lat="5.352333" lon="-72.400041">
        <ele>356.90</ele>
        <time>2021-10-07T16:22:25Z</time>
      </trkpt>
      <trkpt lat="5.352290" lon="-72.399983">
        <ele>356.70</ele>
        <time>2021-10-07T16:22:27Z</time>
      </trkpt>
      <trkpt lat="5.352260" lon="-72.399937">
        <ele>356.60</ele>
        <time>2021-10-07T16:22:28Z</time>
      </trkpt>
      <trkpt lat="5.352241" lon="-72.399906">
        <ele>356.60</ele>
        <time>2021-10-07T16:22:29Z</time>
      </trkpt>
      <trkpt lat="5.352207" lon="-72.399857">
        <ele>356.30</ele>
        <time>2021-10-07T16:22:31Z</time>
      </trkpt>
      <trkpt lat="5.352194" lon="-72.399819">
        <ele>356.60</ele>
        <time>2021-10-07T16:22:32Z</time>
      </trkpt>
      <trkpt lat="5.352178" lon="-72.399785">
        <ele>356.60</ele>
        <time>2021-10-07T16:22:34Z</time>
      </trkpt>
      <trkpt lat="5.352169" lon="-72.399735">
        <ele>356.60</ele>
        <time>2021-10-07T16:22:36Z</time>
      </trkpt>
      <trkpt lat="5.352165" lon="-72.399694">
        <ele>356.60</ele>
        <time>2021-10-07T16:22:37Z</time>
      </trkpt>
      <trkpt lat="5.352156" lon="-72.399637">
        <ele>356.60</ele>
        <time>2021-10-07T16:22:38Z</time>
      </trkpt>
      <trkpt lat="5.352145" lon="-72.399586">
        <ele>356.80</ele>
        <time>2021-10-07T16:22:39Z</time>
      </trkpt>
      <trkpt lat="5.352136" lon="-72.399537">
        <ele>356.80</ele>
        <time>2021-10-07T16:22:41Z</time>
      </trkpt>
      <trkpt lat="5.352127" lon="-72.399490">
        <ele>356.70</ele>
        <time>2021-10-07T16:22:42Z</time>
      </trkpt>
      <trkpt lat="5.352116" lon="-72.399448">
        <ele>356.60</ele>
        <time>2021-10-07T16:22:43Z</time>
      </trkpt>
      <trkpt lat="5.352105" lon="-72.399413">
        <ele>356.90</ele>
        <time>2021-10-07T16:22:44Z</time>
      </trkpt>
      <trkpt lat="5.352095" lon="-72.399373">
        <ele>356.90</ele>
        <time>2021-10-07T16:22:45Z</time>
      </trkpt>
      <trkpt lat="5.352081" lon="-72.399312">
        <ele>356.90</ele>
        <time>2021-10-07T16:22:47Z</time>
      </trkpt>
      <trkpt lat="5.352070" lon="-72.399265">
        <ele>356.90</ele>
        <time>2021-10-07T16:22:48Z</time>
      </trkpt>
      <trkpt lat="5.352059" lon="-72.399220">
        <ele>357.30</ele>
        <time>2021-10-07T16:22:49Z</time>
      </trkpt>
      <trkpt lat="5.352050" lon="-72.399180">
        <ele>357.30</ele>
        <time>2021-10-07T16:22:50Z</time>
      </trkpt>
      <trkpt lat="5.352034" lon="-72.399105">
        <ele>357.10</ele>
        <time>2021-10-07T16:22:52Z</time>
      </trkpt>
      <trkpt lat="5.352025" lon="-72.399043">
        <ele>357.30</ele>
        <time>2021-10-07T16:22:54Z</time>
      </trkpt>
      <trkpt lat="5.352031" lon="-72.399002">
        <ele>356.80</ele>
        <time>2021-10-07T16:22:55Z</time>
      </trkpt>
      <trkpt lat="5.352037" lon="-72.398962">
        <ele>356.60</ele>
        <time>2021-10-07T16:22:56Z</time>
      </trkpt>
      <trkpt lat="5.352047" lon="-72.398888">
        <ele>356.10</ele>
        <time>2021-10-07T16:22:58Z</time>
      </trkpt>
      <trkpt lat="5.352052" lon="-72.398825">
        <ele>355.40</ele>
        <time>2021-10-07T16:22:59Z</time>
      </trkpt>
      <trkpt lat="5.352049" lon="-72.398766">
        <ele>355.00</ele>
        <time>2021-10-07T16:23:00Z</time>
      </trkpt>
      <trkpt lat="5.352015" lon="-72.398611">
        <ele>353.00</ele>
        <time>2021-10-07T16:23:02Z</time>
      </trkpt>
      <trkpt lat="5.352005" lon="-72.398566">
        <ele>352.60</ele>
        <time>2021-10-07T16:23:03Z</time>
      </trkpt>
      <trkpt lat="5.352021" lon="-72.398484">
        <ele>351.80</ele>
        <time>2021-10-07T16:23:05Z</time>
      </trkpt>
      <trkpt lat="5.352003" lon="-72.398389">
        <ele>351.30</ele>
        <time>2021-10-07T16:23:07Z</time>
      </trkpt>
      <trkpt lat="5.351991" lon="-72.398339">
        <ele>351.00</ele>
        <time>2021-10-07T16:23:08Z</time>
      </trkpt>
      <trkpt lat="5.351969" lon="-72.398257">
        <ele>351.20</ele>
        <time>2021-10-07T16:23:10Z</time>
      </trkpt>
      <trkpt lat="5.351949" lon="-72.398197">
        <ele>351.20</ele>
        <time>2021-10-07T16:23:12Z</time>
      </trkpt>
      <trkpt lat="5.351934" lon="-72.398152">
        <ele>351.90</ele>
        <time>2021-10-07T16:23:13Z</time>
      </trkpt>
      <trkpt lat="5.351924" lon="-72.398103">
        <ele>351.80</ele>
        <time>2021-10-07T16:23:14Z</time>
      </trkpt>
      <trkpt lat="5.351916" lon="-72.398057">
        <ele>351.70</ele>
        <time>2021-10-07T16:23:16Z</time>
      </trkpt>
      <trkpt lat="5.351911" lon="-72.398005">
        <ele>351.20</ele>
        <time>2021-10-07T16:23:17Z</time>
      </trkpt>
      <trkpt lat="5.351898" lon="-72.397925">
        <ele>350.90</ele>
        <time>2021-10-07T16:23:18Z</time>
      </trkpt>
      <trkpt lat="5.351888" lon="-72.397855">
        <ele>351.10</ele>
        <time>2021-10-07T16:23:20Z</time>
      </trkpt>
      <trkpt lat="5.351882" lon="-72.397790">
        <ele>351.20</ele>
        <time>2021-10-07T16:23:21Z</time>
      </trkpt>
      <trkpt lat="5.351883" lon="-72.397733">
        <ele>351.30</ele>
        <time>2021-10-07T16:23:22Z</time>
      </trkpt>
      <trkpt lat="5.351885" lon="-72.397683">
        <ele>351.30</ele>
        <time>2021-10-07T16:23:23Z</time>
      </trkpt>
      <trkpt lat="5.351885" lon="-72.397637">
        <ele>351.30</ele>
        <time>2021-10-07T16:23:24Z</time>
      </trkpt>
      <trkpt lat="5.351884" lon="-72.397574">
        <ele>351.10</ele>
        <time>2021-10-07T16:23:25Z</time>
      </trkpt>
      <trkpt lat="5.351880" lon="-72.397500">
        <ele>351.10</ele>
        <time>2021-10-07T16:23:27Z</time>
      </trkpt>
      <trkpt lat="5.351867" lon="-72.397383">
        <ele>351.30</ele>
        <time>2021-10-07T16:23:29Z</time>
      </trkpt>
      <trkpt lat="5.351859" lon="-72.397194">
        <ele>352.10</ele>
        <time>2021-10-07T16:23:31Z</time>
      </trkpt>
      <trkpt lat="5.351869" lon="-72.397118">
        <ele>351.80</ele>
        <time>2021-10-07T16:23:33Z</time>
      </trkpt>
      <trkpt lat="5.351876" lon="-72.397083">
        <ele>351.50</ele>
        <time>2021-10-07T16:23:34Z</time>
      </trkpt>
      <trkpt lat="5.351884" lon="-72.397035">
        <ele>351.30</ele>
        <time>2021-10-07T16:23:35Z</time>
      </trkpt>
      <trkpt lat="5.351898" lon="-72.396999">
        <ele>350.60</ele>
        <time>2021-10-07T16:23:37Z</time>
      </trkpt>
      <trkpt lat="5.351905" lon="-72.396968">
        <ele>350.60</ele>
        <time>2021-10-07T16:23:38Z</time>
      </trkpt>
      <trkpt lat="5.351910" lon="-72.396938">
        <ele>350.70</ele>
        <time>2021-10-07T16:23:39Z</time>
      </trkpt>
      <trkpt lat="5.351908" lon="-72.396896">
        <ele>350.80</ele>
        <time>2021-10-07T16:23:40Z</time>
      </trkpt>
      <trkpt lat="5.351906" lon="-72.396864">
        <ele>350.80</ele>
        <time>2021-10-07T16:23:41Z</time>
      </trkpt>
      <trkpt lat="5.351904" lon="-72.396827">
        <ele>351.00</ele>
        <time>2021-10-07T16:23:42Z</time>
      </trkpt>
      <trkpt lat="5.351902" lon="-72.396776">
        <ele>351.20</ele>
        <time>2021-10-07T16:23:44Z</time>
      </trkpt>
      <trkpt lat="5.351911" lon="-72.396733">
        <ele>351.50</ele>
        <time>2021-10-07T16:23:46Z</time>
      </trkpt>
      <trkpt lat="5.351920" lon="-72.396699">
        <ele>351.80</ele>
        <time>2021-10-07T16:23:48Z</time>
      </trkpt>
      <trkpt lat="5.351923" lon="-72.396685">
        <ele>351.80</ele>
        <time>2021-10-07T16:23:49Z</time>
      </trkpt>
      <trkpt lat="5.351926" lon="-72.396676">
        <ele>352.10</ele>
        <time>2021-10-07T16:23:50Z</time>
      </trkpt>
      <trkpt lat="5.351929" lon="-72.396670">
        <ele>352.10</ele>
        <time>2021-10-07T16:23:51Z</time>
      </trkpt>
      <trkpt lat="5.351925" lon="-72.396654">
        <ele>352.10</ele>
        <time>2021-10-07T16:23:54Z</time>
      </trkpt>
      <trkpt lat="5.351922" lon="-72.396645">
        <ele>352.10</ele>
        <time>2021-10-07T16:23:55Z</time>
      </trkpt>
      <trkpt lat="5.351919" lon="-72.396637">
        <ele>352.40</ele>
        <time>2021-10-07T16:23:57Z</time>
      </trkpt>
      <trkpt lat="5.351916" lon="-72.396629">
        <ele>352.40</ele>
        <time>2021-10-07T16:23:58Z</time>
      </trkpt>
      <trkpt lat="5.351900" lon="-72.396600">
        <ele>352.40</ele>
        <time>2021-10-07T16:23:59Z</time>
      </trkpt>
      <trkpt lat="5.351879" lon="-72.396560">
        <ele>354.00</ele>
        <time>2021-10-07T16:24:01Z</time>
      </trkpt>
      <trkpt lat="5.351853" lon="-72.396515">
        <ele>355.10</ele>
        <time>2021-10-07T16:24:02Z</time>
      </trkpt>
      <trkpt lat="5.351828" lon="-72.396468">
        <ele>354.30</ele>
        <time>2021-10-07T16:24:03Z</time>
      </trkpt>
      <trkpt lat="5.351795" lon="-72.396412">
        <ele>354.50</ele>
        <time>2021-10-07T16:24:05Z</time>
      </trkpt>
      <trkpt lat="5.351765" lon="-72.396367">
        <ele>354.60</ele>
        <time>2021-10-07T16:24:06Z</time>
      </trkpt>
      <trkpt lat="5.351744" lon="-72.396338">
        <ele>354.30</ele>
        <time>2021-10-07T16:24:07Z</time>
      </trkpt>
      <trkpt lat="5.351735" lon="-72.396317">
        <ele>354.30</ele>
        <time>2021-10-07T16:24:08Z</time>
      </trkpt>
      <trkpt lat="5.351719" lon="-72.396278">
        <ele>354.60</ele>
        <time>2021-10-07T16:24:10Z</time>
      </trkpt>
      <trkpt lat="5.351712" lon="-72.396246">
        <ele>354.40</ele>
        <time>2021-10-07T16:24:11Z</time>
      </trkpt>
      <trkpt lat="5.351704" lon="-72.396219">
        <ele>354.40</ele>
        <time>2021-10-07T16:24:13Z</time>
      </trkpt>
      <trkpt lat="5.351700" lon="-72.396191">
        <ele>354.20</ele>
        <time>2021-10-07T16:24:14Z</time>
      </trkpt>
      <trkpt lat="5.351693" lon="-72.396162">
        <ele>354.00</ele>
        <time>2021-10-07T16:24:15Z</time>
      </trkpt>
      <trkpt lat="5.351679" lon="-72.396118">
        <ele>353.80</ele>
        <time>2021-10-07T16:24:17Z</time>
      </trkpt>
      <trkpt lat="5.351676" lon="-72.396090">
        <ele>353.80</ele>
        <time>2021-10-07T16:24:18Z</time>
      </trkpt>
      <trkpt lat="5.351676" lon="-72.396069">
        <ele>353.40</ele>
        <time>2021-10-07T16:24:19Z</time>
      </trkpt>
      <trkpt lat="5.351683" lon="-72.396036">
        <ele>353.00</ele>
        <time>2021-10-07T16:24:21Z</time>
      </trkpt>
      <trkpt lat="5.351687" lon="-72.396010">
        <ele>353.00</ele>
        <time>2021-10-07T16:24:23Z</time>
      </trkpt>
      <trkpt lat="5.351687" lon="-72.396003">
        <ele>353.00</ele>
        <time>2021-10-07T16:24:24Z</time>
      </trkpt>
      <trkpt lat="5.351688" lon="-72.395999">
        <ele>353.00</ele>
        <time>2021-10-07T16:24:26Z</time>
      </trkpt>
      <trkpt lat="5.351691" lon="-72.395999">
        <ele>353.00</ele>
        <time>2021-10-07T16:24:28Z</time>
      </trkpt>
      <trkpt lat="5.351692" lon="-72.395999">
        <ele>353.00</ele>
        <time>2021-10-07T16:24:29Z</time>
      </trkpt>
      <trkpt lat="5.351694" lon="-72.395999">
        <ele>353.00</ele>
        <time>2021-10-07T16:24:31Z</time>
      </trkpt>
      <trkpt lat="5.351695" lon="-72.395998">
        <ele>353.00</ele>
        <time>2021-10-07T16:24:32Z</time>
      </trkpt>
      <trkpt lat="5.351697" lon="-72.395996">
        <ele>352.60</ele>
        <time>2021-10-07T16:24:34Z</time>
      </trkpt>
      <trkpt lat="5.351697" lon="-72.395992">
        <ele>352.60</ele>
        <time>2021-10-07T16:24:35Z</time>
      </trkpt>
      <trkpt lat="5.351698" lon="-72.395986">
        <ele>352.60</ele>
        <time>2021-10-07T16:24:37Z</time>
      </trkpt>
      <trkpt lat="5.351700" lon="-72.395983">
        <ele>352.60</ele>
        <time>2021-10-07T16:24:38Z</time>
      </trkpt>
      <trkpt lat="5.351706" lon="-72.395975">
        <ele>352.60</ele>
        <time>2021-10-07T16:24:40Z</time>
      </trkpt>
      <trkpt lat="5.351710" lon="-72.395970">
        <ele>352.60</ele>
        <time>2021-10-07T16:24:41Z</time>
      </trkpt>
      <trkpt lat="5.351713" lon="-72.395967">
        <ele>352.60</ele>
        <time>2021-10-07T16:24:42Z</time>
      </trkpt>
      <trkpt lat="5.351718" lon="-72.395963">
        <ele>352.60</ele>
        <time>2021-10-07T16:24:43Z</time>
      </trkpt>
      <trkpt lat="5.351721" lon="-72.395960">
        <ele>352.60</ele>
        <time>2021-10-07T16:24:45Z</time>
      </trkpt>
      <trkpt lat="5.351724" lon="-72.395958">
        <ele>352.60</ele>
        <time>2021-10-07T16:24:46Z</time>
      </trkpt>
      <trkpt lat="5.351728" lon="-72.395956">
        <ele>352.40</ele>
        <time>2021-10-07T16:24:48Z</time>
      </trkpt>
      <trkpt lat="5.351729" lon="-72.395955">
        <ele>352.40</ele>
        <time>2021-10-07T16:24:49Z</time>
      </trkpt>
      <trkpt lat="5.351729" lon="-72.395958">
        <ele>352.40</ele>
        <time>2021-10-07T16:24:50Z</time>
      </trkpt>
      <trkpt lat="5.351731" lon="-72.395968">
        <ele>352.40</ele>
        <time>2021-10-07T16:24:52Z</time>
      </trkpt>
      <trkpt lat="5.351736" lon="-72.395981">
        <ele>352.40</ele>
        <time>2021-10-07T16:24:53Z</time>
      </trkpt>
      <trkpt lat="5.351737" lon="-72.395987">
        <ele>352.40</ele>
        <time>2021-10-07T16:24:54Z</time>
      </trkpt>
      <trkpt lat="5.351741" lon="-72.395993">
        <ele>352.40</ele>
        <time>2021-10-07T16:24:55Z</time>
      </trkpt>
      <trkpt lat="5.351745" lon="-72.395996">
        <ele>352.40</ele>
        <time>2021-10-07T16:24:57Z</time>
      </trkpt>
      <trkpt lat="5.351748" lon="-72.396000">
        <ele>352.70</ele>
        <time>2021-10-07T16:24:59Z</time>
      </trkpt>
      <trkpt lat="5.351752" lon="-72.396003">
        <ele>352.70</ele>
        <time>2021-10-07T16:25:01Z</time>
      </trkpt>
      <trkpt lat="5.351756" lon="-72.396007">
        <ele>352.70</ele>
        <time>2021-10-07T16:25:02Z</time>
      </trkpt>
      <trkpt lat="5.351760" lon="-72.396010">
        <ele>352.70</ele>
        <time>2021-10-07T16:25:03Z</time>
      </trkpt>
      <trkpt lat="5.351763" lon="-72.396014">
        <ele>352.70</ele>
        <time>2021-10-07T16:25:04Z</time>
      </trkpt>
      <trkpt lat="5.351767" lon="-72.396017">
        <ele>352.70</ele>
        <time>2021-10-07T16:25:06Z</time>
      </trkpt>
      <trkpt lat="5.351771" lon="-72.396021">
        <ele>352.20</ele>
        <time>2021-10-07T16:25:07Z</time>
      </trkpt>
      <trkpt lat="5.351802" lon="-72.396038">
        <ele>352.20</ele>
        <time>2021-10-07T16:25:08Z</time>
      </trkpt>
      <trkpt lat="5.351812" lon="-72.396045">
        <ele>352.40</ele>
        <time>2021-10-07T16:25:09Z</time>
      </trkpt>
      <trkpt lat="5.351841" lon="-72.396070">
        <ele>351.60</ele>
        <time>2021-10-07T16:25:10Z</time>
      </trkpt>
      <trkpt lat="5.351850" lon="-72.396079">
        <ele>351.60</ele>
        <time>2021-10-07T16:25:11Z</time>
      </trkpt>
      <trkpt lat="5.351875" lon="-72.396104">
        <ele>350.90</ele>
        <time>2021-10-07T16:25:13Z</time>
      </trkpt>
      <trkpt lat="5.351880" lon="-72.396138">
        <ele>351.10</ele>
        <time>2021-10-07T16:25:14Z</time>
      </trkpt>
      <trkpt lat="5.351890" lon="-72.396185">
        <ele>351.40</ele>
        <time>2021-10-07T16:25:15Z</time>
      </trkpt>
      <trkpt lat="5.351899" lon="-72.396212">
        <ele>350.90</ele>
        <time>2021-10-07T16:25:16Z</time>
      </trkpt>
      <trkpt lat="5.351912" lon="-72.396246">
        <ele>350.90</ele>
        <time>2021-10-07T16:25:17Z</time>
      </trkpt>
      <trkpt lat="5.351926" lon="-72.396277">
        <ele>351.10</ele>
        <time>2021-10-07T16:25:18Z</time>
      </trkpt>
      <trkpt lat="5.351947" lon="-72.396325">
        <ele>350.40</ele>
        <time>2021-10-07T16:25:20Z</time>
      </trkpt>
      <trkpt lat="5.351959" lon="-72.396363">
        <ele>350.50</ele>
        <time>2021-10-07T16:25:22Z</time>
      </trkpt>
      <trkpt lat="5.351970" lon="-72.396393">
        <ele>350.60</ele>
        <time>2021-10-07T16:25:24Z</time>
      </trkpt>
      <trkpt lat="5.351985" lon="-72.396444">
        <ele>349.30</ele>
        <time>2021-10-07T16:25:26Z</time>
      </trkpt>
      <trkpt lat="5.351993" lon="-72.396472">
        <ele>349.30</ele>
        <time>2021-10-07T16:25:27Z</time>
      </trkpt>
      <trkpt lat="5.352004" lon="-72.396511">
        <ele>349.30</ele>
        <time>2021-10-07T16:25:29Z</time>
      </trkpt>
      <trkpt lat="5.352010" lon="-72.396545">
        <ele>349.20</ele>
        <time>2021-10-07T16:25:30Z</time>
      </trkpt>
      <trkpt lat="5.352012" lon="-72.396555">
        <ele>349.10</ele>
        <time>2021-10-07T16:25:31Z</time>
      </trkpt>
      <trkpt lat="5.352014" lon="-72.396572">
        <ele>349.10</ele>
        <time>2021-10-07T16:25:32Z</time>
      </trkpt>
      <trkpt lat="5.352010" lon="-72.396595">
        <ele>349.10</ele>
        <time>2021-10-07T16:25:34Z</time>
      </trkpt>
      <trkpt lat="5.351998" lon="-72.396609">
        <ele>349.00</ele>
        <time>2021-10-07T16:25:36Z</time>
      </trkpt>
      <trkpt lat="5.351994" lon="-72.396614">
        <ele>349.00</ele>
        <time>2021-10-07T16:25:37Z</time>
      </trkpt>
      <trkpt lat="5.351993" lon="-72.396620">
        <ele>349.00</ele>
        <time>2021-10-07T16:25:39Z</time>
      </trkpt>
      <trkpt lat="5.351993" lon="-72.396623">
        <ele>349.00</ele>
        <time>2021-10-07T16:25:40Z</time>
      </trkpt>
      <trkpt lat="5.351994" lon="-72.396631">
        <ele>349.00</ele>
        <time>2021-10-07T16:25:42Z</time>
      </trkpt>
      <trkpt lat="5.351995" lon="-72.396635">
        <ele>349.00</ele>
        <time>2021-10-07T16:25:43Z</time>
      </trkpt>
      <trkpt lat="5.352003" lon="-72.396644">
        <ele>348.90</ele>
        <time>2021-10-07T16:25:45Z</time>
      </trkpt>
      <trkpt lat="5.352022" lon="-72.396666">
        <ele>348.90</ele>
        <time>2021-10-07T16:25:47Z</time>
      </trkpt>
      <trkpt lat="5.352031" lon="-72.396679">
        <ele>347.10</ele>
        <time>2021-10-07T16:25:48Z</time>
      </trkpt>
      <trkpt lat="5.352042" lon="-72.396708">
        <ele>347.10</ele>
        <time>2021-10-07T16:25:50Z</time>
      </trkpt>
      <trkpt lat="5.352053" lon="-72.396743">
        <ele>347.10</ele>
        <time>2021-10-07T16:25:52Z</time>
      </trkpt>
      <trkpt lat="5.352076" lon="-72.396775">
        <ele>345.90</ele>
        <time>2021-10-07T16:25:54Z</time>
      </trkpt>
      <trkpt lat="5.352113" lon="-72.396820">
        <ele>345.00</ele>
        <time>2021-10-07T16:25:56Z</time>
      </trkpt>
      <trkpt lat="5.352126" lon="-72.396831">
        <ele>345.00</ele>
        <time>2021-10-07T16:25:57Z</time>
      </trkpt>
      <trkpt lat="5.352158" lon="-72.396855">
        <ele>343.90</ele>
        <time>2021-10-07T16:25:59Z</time>
      </trkpt>
      <trkpt lat="5.352177" lon="-72.396872">
        <ele>344.30</ele>
        <time>2021-10-07T16:26:00Z</time>
      </trkpt>
      <trkpt lat="5.352213" lon="-72.396907">
        <ele>343.80</ele>
        <time>2021-10-07T16:26:02Z</time>
      </trkpt>
      <trkpt lat="5.352259" lon="-72.396947">
        <ele>343.50</ele>
        <time>2021-10-07T16:26:04Z</time>
      </trkpt>
      <trkpt lat="5.352292" lon="-72.396981">
        <ele>342.80</ele>
        <time>2021-10-07T16:26:05Z</time>
      </trkpt>
      <trkpt lat="5.352329" lon="-72.397032">
        <ele>343.80</ele>
        <time>2021-10-07T16:26:07Z</time>
      </trkpt>
      <trkpt lat="5.352356" lon="-72.397087">
        <ele>344.40</ele>
        <time>2021-10-07T16:26:09Z</time>
      </trkpt>
      <trkpt lat="5.352363" lon="-72.397117">
        <ele>345.10</ele>
        <time>2021-10-07T16:26:10Z</time>
      </trkpt>
      <trkpt lat="5.352365" lon="-72.397145">
        <ele>345.10</ele>
        <time>2021-10-07T16:26:11Z</time>
      </trkpt>
      <trkpt lat="5.352371" lon="-72.397221">
        <ele>345.90</ele>
        <time>2021-10-07T16:26:13Z</time>
      </trkpt>
      <trkpt lat="5.352374" lon="-72.397313">
        <ele>346.40</ele>
        <time>2021-10-07T16:26:15Z</time>
      </trkpt>
      <trkpt lat="5.352375" lon="-72.397363">
        <ele>346.70</ele>
        <time>2021-10-07T16:26:16Z</time>
      </trkpt>
      <trkpt lat="5.352376" lon="-72.397460">
        <ele>347.50</ele>
        <time>2021-10-07T16:26:18Z</time>
      </trkpt>
      <trkpt lat="5.352403" lon="-72.397561">
        <ele>348.10</ele>
        <time>2021-10-07T16:26:20Z</time>
      </trkpt>
      <trkpt lat="5.352421" lon="-72.397614">
        <ele>348.00</ele>
        <time>2021-10-07T16:26:21Z</time>
      </trkpt>
      <trkpt lat="5.352438" lon="-72.397651">
        <ele>348.00</ele>
        <time>2021-10-07T16:26:22Z</time>
      </trkpt>
      <trkpt lat="5.352458" lon="-72.397693">
        <ele>347.70</ele>
        <time>2021-10-07T16:26:23Z</time>
      </trkpt>
      <trkpt lat="5.352506" lon="-72.397788">
        <ele>347.50</ele>
        <time>2021-10-07T16:26:25Z</time>
      </trkpt>
      <trkpt lat="5.352540" lon="-72.397892">
        <ele>348.00</ele>
        <time>2021-10-07T16:26:27Z</time>
      </trkpt>
      <trkpt lat="5.352553" lon="-72.397962">
        <ele>348.10</ele>
        <time>2021-10-07T16:26:28Z</time>
      </trkpt>
      <trkpt lat="5.352559" lon="-72.398037">
        <ele>348.20</ele>
        <time>2021-10-07T16:26:29Z</time>
      </trkpt>
      <trkpt lat="5.352558" lon="-72.398164">
        <ele>348.00</ele>
        <time>2021-10-07T16:26:31Z</time>
      </trkpt>
      <trkpt lat="5.352545" lon="-72.398269">
        <ele>348.00</ele>
        <time>2021-10-07T16:26:33Z</time>
      </trkpt>
      <trkpt lat="5.352552" lon="-72.398340">
        <ele>347.90</ele>
        <time>2021-10-07T16:26:35Z</time>
      </trkpt>
      <trkpt lat="5.352567" lon="-72.398391">
        <ele>347.90</ele>
        <time>2021-10-07T16:26:36Z</time>
      </trkpt>
      <trkpt lat="5.352584" lon="-72.398431">
        <ele>348.00</ele>
        <time>2021-10-07T16:26:37Z</time>
      </trkpt>
      <trkpt lat="5.352619" lon="-72.398512">
        <ele>348.00</ele>
        <time>2021-10-07T16:26:39Z</time>
      </trkpt>
      <trkpt lat="5.352629" lon="-72.398592">
        <ele>347.70</ele>
        <time>2021-10-07T16:26:41Z</time>
      </trkpt>
      <trkpt lat="5.352626" lon="-72.398639">
        <ele>347.60</ele>
        <time>2021-10-07T16:26:42Z</time>
      </trkpt>
      <trkpt lat="5.352625" lon="-72.398692">
        <ele>347.60</ele>
        <time>2021-10-07T16:26:43Z</time>
      </trkpt>
      <trkpt lat="5.352633" lon="-72.398805">
        <ele>347.80</ele>
        <time>2021-10-07T16:26:45Z</time>
      </trkpt>
      <trkpt lat="5.352654" lon="-72.398905">
        <ele>348.30</ele>
        <time>2021-10-07T16:26:47Z</time>
      </trkpt>
      <trkpt lat="5.352659" lon="-72.398947">
        <ele>348.50</ele>
        <time>2021-10-07T16:26:48Z</time>
      </trkpt>
      <trkpt lat="5.352669" lon="-72.399033">
        <ele>348.90</ele>
        <time>2021-10-07T16:26:50Z</time>
      </trkpt>
      <trkpt lat="5.352698" lon="-72.399101">
        <ele>349.60</ele>
        <time>2021-10-07T16:26:52Z</time>
      </trkpt>
      <trkpt lat="5.352737" lon="-72.399162">
        <ele>350.10</ele>
        <time>2021-10-07T16:26:54Z</time>
      </trkpt>
      <trkpt lat="5.352770" lon="-72.399216">
        <ele>350.70</ele>
        <time>2021-10-07T16:26:56Z</time>
      </trkpt>
      <trkpt lat="5.352784" lon="-72.399248">
        <ele>350.70</ele>
        <time>2021-10-07T16:26:57Z</time>
      </trkpt>
      <trkpt lat="5.352801" lon="-72.399332">
        <ele>350.70</ele>
        <time>2021-10-07T16:26:59Z</time>
      </trkpt>
      <trkpt lat="5.352807" lon="-72.399430">
        <ele>350.60</ele>
        <time>2021-10-07T16:27:01Z</time>
      </trkpt>
      <trkpt lat="5.352820" lon="-72.399514">
        <ele>350.70</ele>
        <time>2021-10-07T16:27:03Z</time>
      </trkpt>
      <trkpt lat="5.352844" lon="-72.399575">
        <ele>351.00</ele>
        <time>2021-10-07T16:27:05Z</time>
      </trkpt>
      <trkpt lat="5.352859" lon="-72.399607">
        <ele>351.40</ele>
        <time>2021-10-07T16:27:06Z</time>
      </trkpt>
      <trkpt lat="5.352877" lon="-72.399666">
        <ele>351.70</ele>
        <time>2021-10-07T16:27:08Z</time>
      </trkpt>
      <trkpt lat="5.352878" lon="-72.399697">
        <ele>351.80</ele>
        <time>2021-10-07T16:27:09Z</time>
      </trkpt>
      <trkpt lat="5.352863" lon="-72.399752">
        <ele>351.80</ele>
        <time>2021-10-07T16:27:11Z</time>
      </trkpt>
      <trkpt lat="5.352848" lon="-72.399801">
        <ele>351.90</ele>
        <time>2021-10-07T16:27:13Z</time>
      </trkpt>
      <trkpt lat="5.352854" lon="-72.399835">
        <ele>352.10</ele>
        <time>2021-10-07T16:27:15Z</time>
      </trkpt>
      <trkpt lat="5.352878" lon="-72.399872">
        <ele>352.40</ele>
        <time>2021-10-07T16:27:17Z</time>
      </trkpt>
      <trkpt lat="5.352894" lon="-72.399889">
        <ele>351.80</ele>
        <time>2021-10-07T16:27:18Z</time>
      </trkpt>
      <trkpt lat="5.352931" lon="-72.399946">
        <ele>352.80</ele>
        <time>2021-10-07T16:27:20Z</time>
      </trkpt>
      <trkpt lat="5.352952" lon="-72.399984">
        <ele>352.80</ele>
        <time>2021-10-07T16:27:21Z</time>
      </trkpt>
      <trkpt lat="5.352994" lon="-72.400077">
        <ele>354.20</ele>
        <time>2021-10-07T16:27:23Z</time>
      </trkpt>
      <trkpt lat="5.353007" lon="-72.400117">
        <ele>354.60</ele>
        <time>2021-10-07T16:27:24Z</time>
      </trkpt>
      <trkpt lat="5.353033" lon="-72.400200">
        <ele>354.70</ele>
        <time>2021-10-07T16:27:26Z</time>
      </trkpt>
      <trkpt lat="5.353043" lon="-72.400237">
        <ele>355.00</ele>
        <time>2021-10-07T16:27:27Z</time>
      </trkpt>
      <trkpt lat="5.353058" lon="-72.400290">
        <ele>355.20</ele>
        <time>2021-10-07T16:27:29Z</time>
      </trkpt>
      <trkpt lat="5.353080" lon="-72.400327">
        <ele>355.20</ele>
        <time>2021-10-07T16:27:31Z</time>
      </trkpt>
      <trkpt lat="5.353101" lon="-72.400355">
        <ele>354.90</ele>
        <time>2021-10-07T16:27:33Z</time>
      </trkpt>
      <trkpt lat="5.353124" lon="-72.400392">
        <ele>354.70</ele>
        <time>2021-10-07T16:27:35Z</time>
      </trkpt>
      <trkpt lat="5.353171" lon="-72.400442">
        <ele>354.20</ele>
        <time>2021-10-07T16:27:37Z</time>
      </trkpt>
      <trkpt lat="5.353232" lon="-72.400525">
        <ele>353.90</ele>
        <time>2021-10-07T16:27:39Z</time>
      </trkpt>
      <trkpt lat="5.353304" lon="-72.400629">
        <ele>354.10</ele>
        <time>2021-10-07T16:27:41Z</time>
      </trkpt>
      <trkpt lat="5.353397" lon="-72.400752">
        <ele>354.10</ele>
        <time>2021-10-07T16:27:43Z</time>
      </trkpt>
      <trkpt lat="5.353476" lon="-72.400861">
        <ele>354.10</ele>
        <time>2021-10-07T16:27:45Z</time>
      </trkpt>
      <trkpt lat="5.353506" lon="-72.400925">
        <ele>354.10</ele>
        <time>2021-10-07T16:27:46Z</time>
      </trkpt>
      <trkpt lat="5.353537" lon="-72.400988">
        <ele>353.60</ele>
        <time>2021-10-07T16:27:47Z</time>
      </trkpt>
      <trkpt lat="5.353566" lon="-72.401049">
        <ele>353.10</ele>
        <time>2021-10-07T16:27:48Z</time>
      </trkpt>
      <trkpt lat="5.353640" lon="-72.401137">
        <ele>352.60</ele>
        <time>2021-10-07T16:27:50Z</time>
      </trkpt>
      <trkpt lat="5.353669" lon="-72.401166">
        <ele>352.40</ele>
        <time>2021-10-07T16:27:51Z</time>
      </trkpt>
      <trkpt lat="5.353732" lon="-72.401241">
        <ele>352.20</ele>
        <time>2021-10-07T16:27:53Z</time>
      </trkpt>
      <trkpt lat="5.353775" lon="-72.401276">
        <ele>351.90</ele>
        <time>2021-10-07T16:27:55Z</time>
      </trkpt>
      <trkpt lat="5.353802" lon="-72.401284">
        <ele>351.80</ele>
        <time>2021-10-07T16:27:56Z</time>
      </trkpt>
      <trkpt lat="5.353854" lon="-72.401295">
        <ele>351.80</ele>
        <time>2021-10-07T16:27:58Z</time>
      </trkpt>
      <trkpt lat="5.353887" lon="-72.401300">
        <ele>351.80</ele>
        <time>2021-10-07T16:27:59Z</time>
      </trkpt>
      <trkpt lat="5.353910" lon="-72.401307">
        <ele>351.80</ele>
        <time>2021-10-07T16:28:00Z</time>
      </trkpt>
      <trkpt lat="5.353934" lon="-72.401324">
        <ele>352.00</ele>
        <time>2021-10-07T16:28:02Z</time>
      </trkpt>
      <trkpt lat="5.353955" lon="-72.401334">
        <ele>351.80</ele>
        <time>2021-10-07T16:28:03Z</time>
      </trkpt>
      <trkpt lat="5.353988" lon="-72.401359">
        <ele>351.80</ele>
        <time>2021-10-07T16:28:05Z</time>
      </trkpt>
      <trkpt lat="5.353994" lon="-72.401374">
        <ele>351.60</ele>
        <time>2021-10-07T16:28:06Z</time>
      </trkpt>
      <trkpt lat="5.354001" lon="-72.401390">
        <ele>351.60</ele>
        <time>2021-10-07T16:28:07Z</time>
      </trkpt>
      <trkpt lat="5.354008" lon="-72.401406">
        <ele>351.50</ele>
        <time>2021-10-07T16:28:08Z</time>
      </trkpt>
      <trkpt lat="5.354017" lon="-72.401420">
        <ele>351.50</ele>
        <time>2021-10-07T16:28:10Z</time>
      </trkpt>
      <trkpt lat="5.354020" lon="-72.401422">
        <ele>351.50</ele>
        <time>2021-10-07T16:28:11Z</time>
      </trkpt>
      <trkpt lat="5.354021" lon="-72.401422">
        <ele>351.50</ele>
        <time>2021-10-07T16:28:12Z</time>
      </trkpt>
      <trkpt lat="5.354028" lon="-72.401426">
        <ele>351.50</ele>
        <time>2021-10-07T16:28:14Z</time>
      </trkpt>
      <trkpt lat="5.354051" lon="-72.401447">
        <ele>351.20</ele>
        <time>2021-10-07T16:28:16Z</time>
      </trkpt>
      <trkpt lat="5.354065" lon="-72.401460">
        <ele>351.10</ele>
        <time>2021-10-07T16:28:18Z</time>
      </trkpt>
      <trkpt lat="5.354071" lon="-72.401456">
        <ele>351.10</ele>
        <time>2021-10-07T16:28:19Z</time>
      </trkpt>
      <trkpt lat="5.354078" lon="-72.401452">
        <ele>351.00</ele>
        <time>2021-10-07T16:28:21Z</time>
      </trkpt>
      <trkpt lat="5.354081" lon="-72.401456">
        <ele>351.00</ele>
        <time>2021-10-07T16:28:22Z</time>
      </trkpt>
      <trkpt lat="5.354083" lon="-72.401462">
        <ele>351.00</ele>
        <time>2021-10-07T16:28:23Z</time>
      </trkpt>
      <trkpt lat="5.354083" lon="-72.401463">
        <ele>351.00</ele>
        <time>2021-10-07T16:28:24Z</time>
      </trkpt>
      <trkpt lat="5.354083" lon="-72.401464">
        <ele>351.00</ele>
        <time>2021-10-07T16:28:25Z</time>
      </trkpt>
      <trkpt lat="5.354083" lon="-72.401465">
        <ele>351.00</ele>
        <time>2021-10-07T16:28:27Z</time>
      </trkpt>
      <trkpt lat="5.354082" lon="-72.401465">
        <ele>351.00</ele>
        <time>2021-10-07T16:28:29Z</time>
      </trkpt>
      <trkpt lat="5.354082" lon="-72.401465">
        <ele>351.00</ele>
        <time>2021-10-07T16:28:30Z</time>
      </trkpt>
      <trkpt lat="5.354082" lon="-72.401465">
        <ele>351.00</ele>
        <time>2021-10-07T16:28:32Z</time>
      </trkpt>
      <trkpt lat="5.354102" lon="-72.401474">
        <ele>351.00</ele>
        <time>2021-10-07T16:28:50Z</time>
      </trkpt>
      <trkpt lat="5.354101" lon="-72.401474">
        <ele>351.00</ele>
        <time>2021-10-07T16:28:52Z</time>
      </trkpt>
      <trkpt lat="5.354116" lon="-72.401480">
        <ele>351.00</ele>
        <time>2021-10-07T16:28:54Z</time>
      </trkpt>
      <trkpt lat="5.354139" lon="-72.401495">
        <ele>351.00</ele>
        <time>2021-10-07T16:28:56Z</time>
      </trkpt>
      <trkpt lat="5.354148" lon="-72.401507">
        <ele>351.00</ele>
        <time>2021-10-07T16:28:57Z</time>
      </trkpt>
      <trkpt lat="5.354159" lon="-72.401520">
        <ele>351.00</ele>
        <time>2021-10-07T16:28:58Z</time>
      </trkpt>
      <trkpt lat="5.354164" lon="-72.401528">
        <ele>351.20</ele>
        <time>2021-10-07T16:28:59Z</time>
      </trkpt>
      <trkpt lat="5.354168" lon="-72.401544">
        <ele>351.40</ele>
        <time>2021-10-07T16:29:00Z</time>
      </trkpt>
      <trkpt lat="5.354167" lon="-72.401583">
        <ele>351.60</ele>
        <time>2021-10-07T16:29:02Z</time>
      </trkpt>
      <trkpt lat="5.354164" lon="-72.401603">
        <ele>351.60</ele>
        <time>2021-10-07T16:29:03Z</time>
      </trkpt>
      <trkpt lat="5.354155" lon="-72.401634">
        <ele>351.60</ele>
        <time>2021-10-07T16:29:05Z</time>
      </trkpt>
      <trkpt lat="5.354148" lon="-72.401651">
        <ele>351.60</ele>
        <time>2021-10-07T16:29:06Z</time>
      </trkpt>
      <trkpt lat="5.354138" lon="-72.401676">
        <ele>352.00</ele>
        <time>2021-10-07T16:29:08Z</time>
      </trkpt>
      <trkpt lat="5.354135" lon="-72.401709">
        <ele>352.30</ele>
        <time>2021-10-07T16:29:10Z</time>
      </trkpt>
      <trkpt lat="5.354128" lon="-72.401755">
        <ele>352.70</ele>
        <time>2021-10-07T16:29:12Z</time>
      </trkpt>
      <trkpt lat="5.354125" lon="-72.401780">
        <ele>352.70</ele>
        <time>2021-10-07T16:29:13Z</time>
      </trkpt>
      <trkpt lat="5.354121" lon="-72.401842">
        <ele>353.10</ele>
        <time>2021-10-07T16:29:15Z</time>
      </trkpt>
      <trkpt lat="5.354120" lon="-72.401879">
        <ele>353.10</ele>
        <time>2021-10-07T16:29:16Z</time>
      </trkpt>
      <trkpt lat="5.354121" lon="-72.401949">
        <ele>353.00</ele>
        <time>2021-10-07T16:29:18Z</time>
      </trkpt>
      <trkpt lat="5.354139" lon="-72.402025">
        <ele>352.30</ele>
        <time>2021-10-07T16:29:20Z</time>
      </trkpt>
      <trkpt lat="5.354153" lon="-72.402068">
        <ele>351.90</ele>
        <time>2021-10-07T16:29:21Z</time>
      </trkpt>
      <trkpt lat="5.354171" lon="-72.402125">
        <ele>351.70</ele>
        <time>2021-10-07T16:29:22Z</time>
      </trkpt>
      <trkpt lat="5.354215" lon="-72.402239">
        <ele>350.80</ele>
        <time>2021-10-07T16:29:24Z</time>
      </trkpt>
      <trkpt lat="5.354231" lon="-72.402295">
        <ele>350.70</ele>
        <time>2021-10-07T16:29:25Z</time>
      </trkpt>
      <trkpt lat="5.354255" lon="-72.402411">
        <ele>351.10</ele>
        <time>2021-10-07T16:29:27Z</time>
      </trkpt>
      <trkpt lat="5.354275" lon="-72.402531">
        <ele>351.90</ele>
        <time>2021-10-07T16:29:29Z</time>
      </trkpt>
      <trkpt lat="5.354281" lon="-72.402589">
        <ele>352.40</ele>
        <time>2021-10-07T16:29:30Z</time>
      </trkpt>
      <trkpt lat="5.354284" lon="-72.402707">
        <ele>353.90</ele>
        <time>2021-10-07T16:29:32Z</time>
      </trkpt>
      <trkpt lat="5.354292" lon="-72.402824">
        <ele>354.50</ele>
        <time>2021-10-07T16:29:34Z</time>
      </trkpt>
      <trkpt lat="5.354321" lon="-72.402902">
        <ele>354.60</ele>
        <time>2021-10-07T16:29:36Z</time>
      </trkpt>
      <trkpt lat="5.354332" lon="-72.402922">
        <ele>354.70</ele>
        <time>2021-10-07T16:29:37Z</time>
      </trkpt>
      <trkpt lat="5.354354" lon="-72.402967">
        <ele>354.30</ele>
        <time>2021-10-07T16:29:39Z</time>
      </trkpt>
      <trkpt lat="5.354367" lon="-72.402995">
        <ele>354.30</ele>
        <time>2021-10-07T16:29:40Z</time>
      </trkpt>
      <trkpt lat="5.354405" lon="-72.403072">
        <ele>353.80</ele>
        <time>2021-10-07T16:29:42Z</time>
      </trkpt>
      <trkpt lat="5.354421" lon="-72.403119">
        <ele>353.10</ele>
        <time>2021-10-07T16:29:44Z</time>
      </trkpt>
      <trkpt lat="5.354441" lon="-72.403214">
        <ele>352.20</ele>
        <time>2021-10-07T16:29:46Z</time>
      </trkpt>
      <trkpt lat="5.354450" lon="-72.403348">
        <ele>351.80</ele>
        <time>2021-10-07T16:29:48Z</time>
      </trkpt>
      <trkpt lat="5.354457" lon="-72.403511">
        <ele>353.20</ele>
        <time>2021-10-07T16:29:50Z</time>
      </trkpt>
      <trkpt lat="5.354458" lon="-72.403583">
        <ele>353.70</ele>
        <time>2021-10-07T16:29:51Z</time>
      </trkpt>
      <trkpt lat="5.354451" lon="-72.403650">
        <ele>354.50</ele>
        <time>2021-10-07T16:29:52Z</time>
      </trkpt>
      <trkpt lat="5.354438" lon="-72.403706">
        <ele>354.80</ele>
        <time>2021-10-07T16:29:53Z</time>
      </trkpt>
      <trkpt lat="5.354414" lon="-72.403767">
        <ele>354.90</ele>
        <time>2021-10-07T16:29:55Z</time>
      </trkpt>
      <trkpt lat="5.354400" lon="-72.403802">
        <ele>354.90</ele>
        <time>2021-10-07T16:29:56Z</time>
      </trkpt>
      <trkpt lat="5.354365" lon="-72.403824">
        <ele>355.00</ele>
        <time>2021-10-07T16:29:58Z</time>
      </trkpt>
      <trkpt lat="5.354375" lon="-72.403891">
        <ele>355.10</ele>
        <time>2021-10-07T16:30:00Z</time>
      </trkpt>
      <trkpt lat="5.354375" lon="-72.403893">
        <ele>355.10</ele>
        <time>2021-10-07T16:30:01Z</time>
      </trkpt>
      <trkpt lat="5.354371" lon="-72.403893">
        <ele>355.10</ele>
        <time>2021-10-07T16:30:03Z</time>
      </trkpt>
      <trkpt lat="5.354357" lon="-72.403891">
        <ele>355.10</ele>
        <time>2021-10-07T16:30:04Z</time>
      </trkpt>
      <trkpt lat="5.354331" lon="-72.403861">
        <ele>355.40</ele>
        <time>2021-10-07T16:30:05Z</time>
      </trkpt>
      <trkpt lat="5.354270" lon="-72.403802">
        <ele>355.30</ele>
        <time>2021-10-07T16:30:07Z</time>
      </trkpt>
      <trkpt lat="5.354225" lon="-72.403767">
        <ele>355.70</ele>
        <time>2021-10-07T16:30:08Z</time>
      </trkpt>
      <trkpt lat="5.354184" lon="-72.403729">
        <ele>355.70</ele>
        <time>2021-10-07T16:30:09Z</time>
      </trkpt>
      <trkpt lat="5.354139" lon="-72.403679">
        <ele>356.00</ele>
        <time>2021-10-07T16:30:10Z</time>
      </trkpt>
      <trkpt lat="5.354103" lon="-72.403646">
        <ele>356.60</ele>
        <time>2021-10-07T16:30:12Z</time>
      </trkpt>
      <trkpt lat="5.354073" lon="-72.403623">
        <ele>357.60</ele>
        <time>2021-10-07T16:30:13Z</time>
      </trkpt>
      <trkpt lat="5.354036" lon="-72.403589">
        <ele>357.60</ele>
        <time>2021-10-07T16:30:14Z</time>
      </trkpt>
      <trkpt lat="5.354007" lon="-72.403558">
        <ele>358.90</ele>
        <time>2021-10-07T16:30:16Z</time>
      </trkpt>
      <trkpt lat="5.353986" lon="-72.403528">
        <ele>360.00</ele>
        <time>2021-10-07T16:30:17Z</time>
      </trkpt>
      <trkpt lat="5.353968" lon="-72.403493">
        <ele>359.70</ele>
        <time>2021-10-07T16:30:18Z</time>
      </trkpt>
      <trkpt lat="5.353944" lon="-72.403451">
        <ele>360.40</ele>
        <time>2021-10-07T16:30:19Z</time>
      </trkpt>
      <trkpt lat="5.353918" lon="-72.403414">
        <ele>360.10</ele>
        <time>2021-10-07T16:30:21Z</time>
      </trkpt>
      <trkpt lat="5.353899" lon="-72.403383">
        <ele>361.00</ele>
        <time>2021-10-07T16:30:22Z</time>
      </trkpt>
      <trkpt lat="5.353894" lon="-72.403375">
        <ele>360.80</ele>
        <time>2021-10-07T16:30:23Z</time>
      </trkpt>
      <trkpt lat="5.353875" lon="-72.403350">
        <ele>360.80</ele>
        <time>2021-10-07T16:30:24Z</time>
      </trkpt>
      <trkpt lat="5.353859" lon="-72.403330">
        <ele>361.40</ele>
        <time>2021-10-07T16:30:25Z</time>
      </trkpt>
      <trkpt lat="5.353831" lon="-72.403290">
        <ele>361.10</ele>
        <time>2021-10-07T16:30:27Z</time>
      </trkpt>
      <trkpt lat="5.353795" lon="-72.403236">
        <ele>361.30</ele>
        <time>2021-10-07T16:30:29Z</time>
      </trkpt>
      <trkpt lat="5.353776" lon="-72.403197">
        <ele>361.10</ele>
        <time>2021-10-07T16:30:30Z</time>
      </trkpt>
      <trkpt lat="5.353764" lon="-72.403158">
        <ele>360.30</ele>
        <time>2021-10-07T16:30:31Z</time>
      </trkpt>
      <trkpt lat="5.353755" lon="-72.403064">
        <ele>358.90</ele>
        <time>2021-10-07T16:30:33Z</time>
      </trkpt>
      <trkpt lat="5.353725" lon="-72.402953">
        <ele>359.00</ele>
        <time>2021-10-07T16:30:35Z</time>
      </trkpt>
      <trkpt lat="5.353707" lon="-72.402897">
        <ele>358.90</ele>
        <time>2021-10-07T16:30:36Z</time>
      </trkpt>
      <trkpt lat="5.353665" lon="-72.402789">
        <ele>359.40</ele>
        <time>2021-10-07T16:30:38Z</time>
      </trkpt>
      <trkpt lat="5.353639" lon="-72.402734">
        <ele>359.30</ele>
        <time>2021-10-07T16:30:39Z</time>
      </trkpt>
      <trkpt lat="5.353598" lon="-72.402627">
        <ele>358.40</ele>
        <time>2021-10-07T16:30:41Z</time>
      </trkpt>
      <trkpt lat="5.353577" lon="-72.402560">
        <ele>356.80</ele>
        <time>2021-10-07T16:30:42Z</time>
      </trkpt>
      <trkpt lat="5.353564" lon="-72.402515">
        <ele>356.50</ele>
        <time>2021-10-07T16:30:44Z</time>
      </trkpt>
      <trkpt lat="5.353546" lon="-72.402468">
        <ele>355.90</ele>
        <time>2021-10-07T16:30:45Z</time>
      </trkpt>
      <trkpt lat="5.353536" lon="-72.402440">
        <ele>355.90</ele>
        <time>2021-10-07T16:30:46Z</time>
      </trkpt>
      <trkpt lat="5.353529" lon="-72.402418">
        <ele>355.50</ele>
        <time>2021-10-07T16:30:47Z</time>
      </trkpt>
      <trkpt lat="5.353531" lon="-72.402416">
        <ele>355.50</ele>
        <time>2021-10-07T16:30:48Z</time>
      </trkpt>
      <trkpt lat="5.353531" lon="-72.402403">
        <ele>355.50</ele>
        <time>2021-10-07T16:30:50Z</time>
      </trkpt>
      <trkpt lat="5.353532" lon="-72.402385">
        <ele>355.20</ele>
        <time>2021-10-07T16:30:51Z</time>
      </trkpt>
      <trkpt lat="5.353534" lon="-72.402368">
        <ele>355.20</ele>
        <time>2021-10-07T16:30:52Z</time>
      </trkpt>
      <trkpt lat="5.353529" lon="-72.402339">
        <ele>354.90</ele>
        <time>2021-10-07T16:30:54Z</time>
      </trkpt>
      <trkpt lat="5.353511" lon="-72.402300">
        <ele>355.40</ele>
        <time>2021-10-07T16:30:56Z</time>
      </trkpt>
      <trkpt lat="5.353481" lon="-72.402259">
        <ele>355.40</ele>
        <time>2021-10-07T16:30:57Z</time>
      </trkpt>
      <trkpt lat="5.353462" lon="-72.402228">
        <ele>355.90</ele>
        <time>2021-10-07T16:30:58Z</time>
      </trkpt>
      <trkpt lat="5.353440" lon="-72.402195">
        <ele>355.90</ele>
        <time>2021-10-07T16:31:00Z</time>
      </trkpt>
      <trkpt lat="5.353426" lon="-72.402165">
        <ele>356.20</ele>
        <time>2021-10-07T16:31:01Z</time>
      </trkpt>
      <trkpt lat="5.353409" lon="-72.402132">
        <ele>356.00</ele>
        <time>2021-10-07T16:31:02Z</time>
      </trkpt>
      <trkpt lat="5.353372" lon="-72.402069">
        <ele>356.10</ele>
        <time>2021-10-07T16:31:04Z</time>
      </trkpt>
      <trkpt lat="5.353337" lon="-72.401995">
        <ele>356.10</ele>
        <time>2021-10-07T16:31:06Z</time>
      </trkpt>
      <trkpt lat="5.353313" lon="-72.401962">
        <ele>356.00</ele>
        <time>2021-10-07T16:31:07Z</time>
      </trkpt>
      <trkpt lat="5.353274" lon="-72.401902">
        <ele>356.80</ele>
        <time>2021-10-07T16:31:09Z</time>
      </trkpt>
      <trkpt lat="5.353255" lon="-72.401858">
        <ele>357.60</ele>
        <time>2021-10-07T16:31:10Z</time>
      </trkpt>
      <trkpt lat="5.353176" lon="-72.401699">
        <ele>359.00</ele>
        <time>2021-10-07T16:31:12Z</time>
      </trkpt>
      <trkpt lat="5.353140" lon="-72.401637">
        <ele>359.10</ele>
        <time>2021-10-07T16:31:13Z</time>
      </trkpt>
      <trkpt lat="5.353101" lon="-72.401582">
        <ele>359.90</ele>
        <time>2021-10-07T16:31:14Z</time>
      </trkpt>
      <trkpt lat="5.353041" lon="-72.401492">
        <ele>360.40</ele>
        <time>2021-10-07T16:31:16Z</time>
      </trkpt>
      <trkpt lat="5.353014" lon="-72.401459">
        <ele>360.10</ele>
        <time>2021-10-07T16:31:17Z</time>
      </trkpt>
      <trkpt lat="5.352978" lon="-72.401408">
        <ele>359.70</ele>
        <time>2021-10-07T16:31:19Z</time>
      </trkpt>
      <trkpt lat="5.352935" lon="-72.401343">
        <ele>358.80</ele>
        <time>2021-10-07T16:31:21Z</time>
      </trkpt>
      <trkpt lat="5.352916" lon="-72.401308">
        <ele>358.50</ele>
        <time>2021-10-07T16:31:22Z</time>
      </trkpt>
      <trkpt lat="5.352885" lon="-72.401251">
        <ele>358.00</ele>
        <time>2021-10-07T16:31:24Z</time>
      </trkpt>
      <trkpt lat="5.352858" lon="-72.401209">
        <ele>357.70</ele>
        <time>2021-10-07T16:31:25Z</time>
      </trkpt>
      <trkpt lat="5.352828" lon="-72.401157">
        <ele>357.60</ele>
        <time>2021-10-07T16:31:27Z</time>
      </trkpt>
      <trkpt lat="5.352814" lon="-72.401120">
        <ele>357.20</ele>
        <time>2021-10-07T16:31:28Z</time>
      </trkpt>
      <trkpt lat="5.352810" lon="-72.401088">
        <ele>356.90</ele>
        <time>2021-10-07T16:31:29Z</time>
      </trkpt>
      <trkpt lat="5.352812" lon="-72.401046">
        <ele>356.60</ele>
        <time>2021-10-07T16:31:31Z</time>
      </trkpt>
      <trkpt lat="5.352819" lon="-72.401025">
        <ele>356.60</ele>
        <time>2021-10-07T16:31:32Z</time>
      </trkpt>
      <trkpt lat="5.352827" lon="-72.401006">
        <ele>356.20</ele>
        <time>2021-10-07T16:31:34Z</time>
      </trkpt>
      <trkpt lat="5.352830" lon="-72.400989">
        <ele>356.20</ele>
        <time>2021-10-07T16:31:35Z</time>
      </trkpt>
      <trkpt lat="5.352829" lon="-72.400979">
        <ele>356.20</ele>
        <time>2021-10-07T16:31:36Z</time>
      </trkpt>
      <trkpt lat="5.352829" lon="-72.400973">
        <ele>355.80</ele>
        <time>2021-10-07T16:31:37Z</time>
      </trkpt>
      <trkpt lat="5.352829" lon="-72.400968">
        <ele>355.80</ele>
        <time>2021-10-07T16:31:38Z</time>
      </trkpt>
      <trkpt lat="5.352825" lon="-72.400950">
        <ele>355.80</ele>
        <time>2021-10-07T16:31:40Z</time>
      </trkpt>
      <trkpt lat="5.352813" lon="-72.400923">
        <ele>355.40</ele>
        <time>2021-10-07T16:31:42Z</time>
      </trkpt>
      <trkpt lat="5.352799" lon="-72.400892">
        <ele>355.40</ele>
        <time>2021-10-07T16:31:43Z</time>
      </trkpt>
      <trkpt lat="5.352787" lon="-72.400866">
        <ele>355.80</ele>
        <time>2021-10-07T16:31:44Z</time>
      </trkpt>
      <trkpt lat="5.352759" lon="-72.400834">
        <ele>355.90</ele>
        <time>2021-10-07T16:31:46Z</time>
      </trkpt>
      <trkpt lat="5.352747" lon="-72.400806">
        <ele>356.60</ele>
        <time>2021-10-07T16:31:47Z</time>
      </trkpt>
      <trkpt lat="5.352730" lon="-72.400782">
        <ele>357.00</ele>
        <time>2021-10-07T16:31:48Z</time>
      </trkpt>
      <trkpt lat="5.352724" lon="-72.400775">
        <ele>357.00</ele>
        <time>2021-10-07T16:31:49Z</time>
      </trkpt>
      <trkpt lat="5.352707" lon="-72.400758">
        <ele>358.30</ele>
        <time>2021-10-07T16:31:50Z</time>
      </trkpt>
      <trkpt lat="5.352680" lon="-72.400724">
        <ele>358.30</ele>
        <time>2021-10-07T16:31:52Z</time>
      </trkpt>
      <trkpt lat="5.352661" lon="-72.400692">
        <ele>359.30</ele>
        <time>2021-10-07T16:31:53Z</time>
      </trkpt>
      <trkpt lat="5.352656" lon="-72.400683">
        <ele>359.30</ele>
        <time>2021-10-07T16:31:54Z</time>
      </trkpt>
      <trkpt lat="5.352649" lon="-72.400655">
        <ele>359.50</ele>
        <time>2021-10-07T16:31:56Z</time>
      </trkpt>
      <trkpt lat="5.352651" lon="-72.400632">
        <ele>359.50</ele>
        <time>2021-10-07T16:31:57Z</time>
      </trkpt>
      <trkpt lat="5.352654" lon="-72.400599">
        <ele>359.50</ele>
        <time>2021-10-07T16:31:59Z</time>
      </trkpt>
      <trkpt lat="5.352654" lon="-72.400582">
        <ele>359.30</ele>
        <time>2021-10-07T16:32:00Z</time>
      </trkpt>
      <trkpt lat="5.352655" lon="-72.400569">
        <ele>359.30</ele>
        <time>2021-10-07T16:32:01Z</time>
      </trkpt>
      <trkpt lat="5.352653" lon="-72.400563">
        <ele>359.30</ele>
        <time>2021-10-07T16:32:02Z</time>
      </trkpt>
      <trkpt lat="5.352653" lon="-72.400544">
        <ele>359.00</ele>
        <time>2021-10-07T16:32:04Z</time>
      </trkpt>
      <trkpt lat="5.352651" lon="-72.400505">
        <ele>359.00</ele>
        <time>2021-10-07T16:32:06Z</time>
      </trkpt>
      <trkpt lat="5.352633" lon="-72.400482">
        <ele>358.70</ele>
        <time>2021-10-07T16:32:08Z</time>
      </trkpt>
      <trkpt lat="5.352629" lon="-72.400475">
        <ele>358.70</ele>
        <time>2021-10-07T16:32:09Z</time>
      </trkpt>
      <trkpt lat="5.352618" lon="-72.400456">
        <ele>358.60</ele>
        <time>2021-10-07T16:32:10Z</time>
      </trkpt>
      <trkpt lat="5.352594" lon="-72.400411">
        <ele>358.30</ele>
        <time>2021-10-07T16:32:12Z</time>
      </trkpt>
      <trkpt lat="5.352560" lon="-72.400368">
        <ele>358.40</ele>
        <time>2021-10-07T16:32:13Z</time>
      </trkpt>
      <trkpt lat="5.352532" lon="-72.400329">
        <ele>358.50</ele>
        <time>2021-10-07T16:32:15Z</time>
      </trkpt>
      <trkpt lat="5.352510" lon="-72.400297">
        <ele>358.50</ele>
        <time>2021-10-07T16:32:16Z</time>
      </trkpt>
      <trkpt lat="5.352479" lon="-72.400252">
        <ele>358.30</ele>
        <time>2021-10-07T16:32:18Z</time>
      </trkpt>
      <trkpt lat="5.352464" lon="-72.400229">
        <ele>357.80</ele>
        <time>2021-10-07T16:32:19Z</time>
      </trkpt>
      <trkpt lat="5.352444" lon="-72.400201">
        <ele>357.30</ele>
        <time>2021-10-07T16:32:20Z</time>
      </trkpt>
      <trkpt lat="5.352417" lon="-72.400158">
        <ele>356.90</ele>
        <time>2021-10-07T16:32:21Z</time>
      </trkpt>
      <trkpt lat="5.352395" lon="-72.400125">
        <ele>357.00</ele>
        <time>2021-10-07T16:32:22Z</time>
      </trkpt>
      <trkpt lat="5.352363" lon="-72.400082">
        <ele>357.10</ele>
        <time>2021-10-07T16:32:24Z</time>
      </trkpt>
      <trkpt lat="5.352333" lon="-72.400041">
        <ele>356.90</ele>
        <time>2021-10-07T16:32:25Z</time>
      </trkpt>
      <trkpt lat="5.352290" lon="-72.399983">
        <ele>356.70</ele>
        <time>2021-10-07T16:32:27Z</time>
      </trkpt>
      <trkpt lat="5.352260" lon="-72.399937">
        <ele>356.60</ele>
        <time>2021-10-07T16:32:28Z</time>
      </trkpt>
      <trkpt lat="5.352241" lon="-72.399906">
        <ele>356.60</ele>
        <time>2021-10-07T16:32:29Z</time>
      </trkpt>
      <trkpt lat="5.352207" lon="-72.399857">
        <ele>356.30</ele>
        <time>2021-10-07T16:32:31Z</time>
      </trkpt>
      <trkpt lat="5.352194" lon="-72.399819">
        <ele>356.60</ele>
        <time>2021-10-07T16:32:32Z</time>
      </trkpt>
      <trkpt lat="5.352178" lon="-72.399785">
        <ele>356.60</ele>
        <time>2021-10-07T16:32:34Z</time>
      </trkpt>
      <trkpt lat="5.352169" lon="-72.399735">
        <ele>356.60</ele>
        <time>2021-10-07T16:32:36Z</time>
      </trkpt>
      <trkpt lat="5.352165" lon="-72.399694">
        <ele>356.60</ele>
        <time>2021-10-07T16:32:37Z</time>
      </trkpt>
      <trkpt lat="5.352156" lon="-72.399637">
        <ele>356.60</ele>
        <time>2021-10-07T16:32:38Z</time>
      </trkpt>
      <trkpt lat="5.352145" lon="-72.399586">
        <ele>356.80</ele>
        <time>2021-10-07T16:32:39Z</time>
      </trkpt>
      <trkpt lat="5.352136" lon="-72.399537">
        <ele>356.80</ele>
        <time>2021-10-07T16:32:41Z</time>
      </trkpt>
      <trkpt lat="5.352127" lon="-72.399490">
        <ele>356.70</ele>
        <time>2021-10-07T16:32:42Z</time>
      </trkpt>
      <trkpt lat="5.352116" lon="-72.399448">
        <ele>356.60</ele>
        <time>2021-10-07T16:32:43Z</time>
      </trkpt>
      <trkpt lat="5.352105" lon="-72.399413">
        <ele>356.90</ele>
        <time>2021-10-07T16:32:44Z</time>
      </trkpt>
      <trkpt lat="5.352095" lon="-72.399373">
        <ele>356.90</ele>
        <time>2021-10-07T16:32:45Z</time>
      </trkpt>
      <trkpt lat="5.352081" lon="-72.399312">
        <ele>356.90</ele>
        <time>2021-10-07T16:32:47Z</time>
      </trkpt>
      <trkpt lat="5.352070" lon="-72.399265">
        <ele>356.90</ele>
        <time>2021-10-07T16:32:48Z</time>
      </trkpt>
      <trkpt lat="5.352059" lon="-72.399220">
        <ele>357.30</ele>
        <time>2021-10-07T16:32:49Z</time>
      </trkpt>
      <trkpt lat="5.352050" lon="-72.399180">
        <ele>357.30</ele>
        <time>2021-10-07T16:32:50Z</time>
      </trkpt>
      <trkpt lat="5.352034" lon="-72.399105">
        <ele>357.10</ele>
        <time>2021-10-07T16:32:52Z</time>
      </trkpt>
      <trkpt lat="5.352025" lon="-72.399043">
        <ele>357.30</ele>
        <time>2021-10-07T16:32:54Z</time>
      </trkpt>
      <trkpt lat="5.352031" lon="-72.399002">
        <ele>356.80</ele>
        <time>2021-10-07T16:32:55Z</time>
      </trkpt>
      <trkpt lat="5.352037" lon="-72.398962">
        <ele>356.60</ele>
        <time>2021-10-07T16:32:56Z</time>
      </trkpt>
      <trkpt lat="5.352047" lon="-72.398888">
        <ele>356.10</ele>
        <time>2021-10-07T16:32:58Z</time>
      </trkpt>
      <trkpt lat="5.352052" lon="-72.398825">
        <ele>355.40</ele>
        <time>2021-10-07T16:32:59Z</time>
      </trkpt>
      <trkpt lat="5.352049" lon="-72.398766">
        <ele>355.00</ele>
        <time>2021-10-07T16:33:00Z</time>
      </trkpt>
      <trkpt lat="5.352015" lon="-72.398611">
        <ele>353.00</ele>
        <time>2021-10-07T16:33:02Z</time>
      </trkpt>
      <trkpt lat="5.352005" lon="-72.398566">
        <ele>352.60</ele>
        <time>2021-10-07T16:33:03Z</time>
      </trkpt>
      <trkpt lat="5.352021" lon="-72.398484">
        <ele>351.80</ele>
        <time>2021-10-07T16:33:05Z</time>
      </trkpt>
      <trkpt lat="5.352003" lon="-72.398389">
        <ele>351.30</ele>
        <time>2021-10-07T16:33:07Z</time>
      </trkpt>
      <trkpt lat="5.351991" lon="-72.398339">
        <ele>351.00</ele>
        <time>2021-10-07T16:33:08Z</time>
      </trkpt>
      <trkpt lat="5.351969" lon="-72.398257">
        <ele>351.20</ele>
        <time>2021-10-07T16:33:10Z</time>
      </trkpt>
      <trkpt lat="5.351949" lon="-72.398197">
        <ele>351.20</ele>
        <time>2021-10-07T16:33:12Z</time>
      </trkpt>
      <trkpt lat="5.351934" lon="-72.398152">
        <ele>351.90</ele>
        <time>2021-10-07T16:33:13Z</time>
      </trkpt>
      <trkpt lat="5.351924" lon="-72.398103">
        <ele>351.80</ele>
        <time>2021-10-07T16:33:14Z</time>
      </trkpt>
      <trkpt lat="5.351916" lon="-72.398057">
        <ele>351.70</ele>
        <time>2021-10-07T16:33:16Z</time>
      </trkpt>
      <trkpt lat="5.351911" lon="-72.398005">
        <ele>351.20</ele>
        <time>2021-10-07T16:33:17Z</time>
      </trkpt>
      <trkpt lat="5.351898" lon="-72.397925">
        <ele>350.90</ele>
        <time>2021-10-07T16:33:18Z</time>
      </trkpt>
      <trkpt lat="5.351888" lon="-72.397855">
        <ele>351.10</ele>
        <time>2021-10-07T16:33:20Z</time>
      </trkpt>
      <trkpt lat="5.351882" lon="-72.397790">
        <ele>351.20</ele>
        <time>2021-10-07T16:33:21Z</time>
      </trkpt>
      <trkpt lat="5.351883" lon="-72.397733">
        <ele>351.30</ele>
        <time>2021-10-07T16:33:22Z</time>
      </trkpt>
      <trkpt lat="5.351885" lon="-72.397683">
        <ele>351.30</ele>
        <time>2021-10-07T16:33:23Z</time>
      </trkpt>
      <trkpt lat="5.351885" lon="-72.397637">
        <ele>351.30</ele>
        <time>2021-10-07T16:33:24Z</time>
      </trkpt>
      <trkpt lat="5.351884" lon="-72.397574">
        <ele>351.10</ele>
        <time>2021-10-07T16:33:25Z</time>
      </trkpt>
      <trkpt lat="5.351880" lon="-72.397500">
        <ele>351.10</ele>
        <time>2021-10-07T16:33:27Z</time>
      </trkpt>
      <trkpt lat="5.351867" lon="-72.397383">
        <ele>351.30</ele>
        <time>2021-10-07T16:33:29Z</time>
      </trkpt>
      <trkpt lat="5.351859" lon="-72.397194">
        <ele>352.10</ele>
        <time>2021-10-07T16:33:31Z</time>
      </trkpt>
      <trkpt lat="5.351869" lon="-72.397118">
        <ele>351.80</ele>
        <time>2021-10-07T16:33:33Z</time>
      </trkpt>
      <trkpt lat="5.351876" lon="-72.397083">
        <ele>351.50</ele>
        <time>2021-10-07T16:33:34Z</time>
      </trkpt>
      <trkpt lat="5.351884" lon="-72.397035">
        <ele>351.30</ele>
        <time>2021-10-07T16:33:35Z</time>
      </trkpt>
      <trkpt lat="5.351898" lon="-72.396999">
        <ele>350.60</ele>
        <time>2021-10-07T16:33:37Z</time>
      </trkpt>
      <trkpt lat="5.351905" lon="-72.396968">
        <ele>350.60</ele>
        <time>2021-10-07T16:33:38Z</time>
      </trkpt>
      <trkpt lat="5.351910" lon="-72.396938">
        <ele>350.70</ele>
        <time>2021-10-07T16:33:39Z</time>
      </trkpt>
      <trkpt lat="5.351908" lon="-72.396896">
        <ele>350.80</ele>
        <time>2021-10-07T16:33:40Z</time>
      </trkpt>
      <trkpt lat="5.351906" lon="-72.396864">
        <ele>350.80</ele>
        <time>2021-10-07T16:33:41Z</time>
      </trkpt>
      <trkpt lat="5.351904" lon="-72.396827">
        <ele>351.00</ele>
        <time>2021-10-07T16:33:42Z</time>
      </trkpt>
      <trkpt lat="5.351902" lon="-72.396776">
        <ele>351.20</ele>
        <time>2021-10-07T16:33:44Z</time>
      </trkpt>
      <trkpt lat="5.351911" lon="-72.396733">
        <ele>351.50</ele>
        <time>2021-10-07T16:33:46Z</time>
      </trkpt>
      <trkpt lat="5.351920" lon="-72.396699">
        <ele>351.80</ele>
        <time>2021-10-07T16:33:48Z</time>
      </trkpt>
      <trkpt lat="5.351923" lon="-72.396685">
        <ele>351.80</ele>
        <time>2021-10-07T16:33:49Z</time>
      </trkpt>
      <trkpt lat="5.351926" lon="-72.396676">
        <ele>352.10</ele>
        <time>2021-10-07T16:33:50Z</time>
      </trkpt>
      <trkpt lat="5.351929" lon="-72.396670">
        <ele>352.10</ele>
        <time>2021-10-07T16:33:51Z</time>
      </trkpt>
      <trkpt lat="5.351925" lon="-72.396654">
        <ele>352.10</ele>
        <time>2021-10-07T16:33:54Z</time>
      </trkpt>
      <trkpt lat="5.351922" lon="-72.396645">
        <ele>352.10</ele>
        <time>2021-10-07T16:33:55Z</time>
      </trkpt>
      <trkpt lat="5.351919" lon="-72.396637">
        <ele>352.40</ele>
        <time>2021-10-07T16:33:57Z</time>
      </trkpt>
      <trkpt lat="5.351916" lon="-72.396629">
        <ele>352.40</ele>
        <time>2021-10-07T16:33:58Z</time>
      </trkpt>
      <trkpt lat="5.351900" lon="-72.396600">
        <ele>352.40</ele>
        <time>2021-10-07T16:33:59Z</time>
      </trkpt>
      <trkpt lat="5.351879" lon="-72.396560">
        <ele>354.00</ele>
        <time>2021-10-07T16:34:01Z</time>
      </trkpt>
      <trkpt lat="5.351853" lon="-72.396515">
        <ele>355.10</ele>
        <time>2021-10-07T16:34:02Z</time>
      </trkpt>
      <trkpt lat="5.351828" lon="-72.396468">
        <ele>354.30</ele>
        <time>2021-10-07T16:34:03Z</time>
      </trkpt>
      <trkpt lat="5.351795" lon="-72.396412">
        <ele>354.50</ele>
        <time>2021-10-07T16:34:05Z</time>
      </trkpt>
      <trkpt lat="5.351765" lon="-72.396367">
        <ele>354.60</ele>
        <time>2021-10-07T16:34:06Z</time>
      </trkpt>
      <trkpt lat="5.351744" lon="-72.396338">
        <ele>354.30</ele>
        <time>2021-10-07T16:34:07Z</time>
      </trkpt>
      <trkpt lat="5.351735" lon="-72.396317">
        <ele>354.30</ele>
        <time>2021-10-07T16:34:08Z</time>
      </trkpt>
      <trkpt lat="5.351719" lon="-72.396278">
        <ele>354.60</ele>
        <time>2021-10-07T16:34:10Z</time>
      </trkpt>
      <trkpt lat="5.351712" lon="-72.396246">
        <ele>354.40</ele>
        <time>2021-10-07T16:34:11Z</time>
      </trkpt>
      <trkpt lat="5.351704" lon="-72.396219">
        <ele>354.40</ele>
        <time>2021-10-07T16:34:13Z</time>
      </trkpt>
      <trkpt lat="5.351700" lon="-72.396191">
        <ele>354.20</ele>
        <time>2021-10-07T16:34:14Z</time>
      </trkpt>
      <trkpt lat="5.351693" lon="-72.396162">
        <ele>354.00</ele>
        <time>2021-10-07T16:34:15Z</time>
      </trkpt>
      <trkpt lat="5.351679" lon="-72.396118">
        <ele>353.80</ele>
        <time>2021-10-07T16:34:17Z</time>
      </trkpt>
      <trkpt lat="5.351676" lon="-72.396090">
        <ele>353.80</ele>
        <time>2021-10-07T16:34:18Z</time>
      </trkpt>
      <trkpt lat="5.351676" lon="-72.396069">
        <ele>353.40</ele>
        <time>2021-10-07T16:34:19Z</time>
      </trkpt>
      <trkpt lat="5.351683" lon="-72.396036">
        <ele>353.00</ele>
        <time>2021-10-07T16:34:21Z</time>
      </trkpt>
      <trkpt lat="5.351687" lon="-72.396010">
        <ele>353.00</ele>
        <time>2021-10-07T16:34:23Z</time>
      </trkpt>
      <trkpt lat="5.351687" lon="-72.396003">
        <ele>353.00</ele>
        <time>2021-10-07T16:34:24Z</time>
      </trkpt>
      <trkpt lat="5.351688" lon="-72.395999">
        <ele>353.00</ele>
        <time>2021-10-07T16:34:26Z</time>
      </trkpt>
      <trkpt lat="5.351691" lon="-72.395999">
        <ele>353.00</ele>
        <time>2021-10-07T16:34:28Z</time>
      </trkpt>
      <trkpt lat="5.351692" lon="-72.395999">
        <ele>353.00</ele>
        <time>2021-10-07T16:34:29Z</time>
      </trkpt>
      <trkpt lat="5.351694" lon="-72.395999">
        <ele>353.00</ele>
        <time>2021-10-07T16:34:31Z</time>
      </trkpt>
      <trkpt lat="5.351695" lon="-72.395998">
        <ele>353.00</ele>
        <time>2021-10-07T16:34:32Z</time>
      </trkpt>
      <trkpt lat="5.351697" lon="-72.395996">
        <ele>352.60</ele>
        <time>2021-10-07T16:34:34Z</time>
      </trkpt>
      <trkpt lat="5.351697" lon="-72.395992">
        <ele>352.60</ele>
        <time>2021-10-07T16:34:35Z</time>
      </trkpt>
      <trkpt lat="5.351698" lon="-72.395986">
        <ele>352.60</ele>
        <time>2021-10-07T16:34:37Z</time>
      </trkpt>
      <trkpt lat="5.351700" lon="-72.395983">
        <ele>352.60</ele>
        <time>2021-10-07T16:34:38Z</time>
      </trkpt>
      <trkpt lat="5.351706" lon="-72.395975">
        <ele>352.60</ele>
        <time>2021-10-07T16:34:40Z</time>
      </trkpt>
      <trkpt lat="5.351710" lon="-72.395970">
        <ele>352.60</ele>
        <time>2021-10-07T16:34:41Z</time>
      </trkpt>
      <trkpt lat="5.351713" lon="-72.395967">
        <ele>352.60</ele>
        <time>2021-10-07T16:34:42Z</time>
      </trkpt>
      <trkpt lat="5.351718" lon="-72.395963">
        <ele>352.60</ele>
        <time>2021-10-07T16:34:43Z</time>
      </trkpt>
      <trkpt lat="5.351721" lon="-72.395960">
        <ele>352.60</ele>
        <time>2021-10-07T16:34:45Z</time>
      </trkpt>
      <trkpt lat="5.351724" lon="-72.395958">
        <ele>352.60</ele>
        <time>2021-10-07T16:34:46Z</time>
      </trkpt>
      <trkpt lat="5.351728" lon="-72.395956">
        <ele>352.40</ele>
        <time>2021-10-07T16:34:48Z</time>
      </trkpt>
      <trkpt lat="5.351729" lon="-72.395955">
        <ele>352.40</ele>
        <time>2021-10-07T16:34:49Z</time>
      </trkpt>
      <trkpt lat="5.351729" lon="-72.395958">
        <ele>352.40</ele>
        <time>2021-10-07T16:34:50Z</time>
      </trkpt>
      <trkpt lat="5.351731" lon="-72.395968">
        <ele>352.40</ele>
        <time>2021-10-07T16:34:52Z</time>
      </trkpt>
      <trkpt lat="5.351736" lon="-72.395981">
        <ele>352.40</ele>
        <time>2021-10-07T16:34:53Z</time>
      </trkpt>
      <trkpt lat="5.351737" lon="-72.395987">
        <ele>352.40</ele>
        <time>2021-10-07T16:34:54Z</time>
      </trkpt>
      <trkpt lat="5.351741" lon="-72.395993">
        <ele>352.40</ele>
        <time>2021-10-07T16:34:55Z</time>
      </trkpt>
      <trkpt lat="5.351745" lon="-72.395996">
        <ele>352.40</ele>
        <time>2021-10-07T16:34:57Z</time>
      </trkpt>
      <trkpt lat="5.351748" lon="-72.396000">
        <ele>352.70</ele>
        <time>2021-10-07T16:34:59Z</time>
      </trkpt>
      <trkpt lat="5.351752" lon="-72.396003">
        <ele>352.70</ele>
        <time>2021-10-07T16:35:01Z</time>
      </trkpt>
      <trkpt lat="5.351756" lon="-72.396007">
        <ele>352.70</ele>
        <time>2021-10-07T16:35:02Z</time>
      </trkpt>
      <trkpt lat="5.351760" lon="-72.396010">
        <ele>352.70</ele>
        <time>2021-10-07T16:35:03Z</time>
      </trkpt>
      <trkpt lat="5.351763" lon="-72.396014">
        <ele>352.70</ele>
        <time>2021-10-07T16:35:04Z</time>
      </trkpt>
      <trkpt lat="5.351767" lon="-72.396017">
        <ele>352.70</ele>
        <time>2021-10-07T16:35:06Z</time>
      </trkpt>
      <trkpt lat="5.351771" lon="-72.396021">
        <ele>352.20</ele>
        <time>2021-10-07T16:35:07Z</time>
      </trkpt>
      <trkpt lat="5.351802" lon="-72.396038">
        <ele>352.20</ele>
        <time>2021-10-07T16:35:08Z</time>
      </trkpt>
      <trkpt lat="5.351812" lon="-72.396045">
        <ele>352.40</ele>
        <time>2021-10-07T16:35:09Z</time>
      </trkpt>
      <trkpt lat="5.351841" lon="-72.396070">
        <ele>351.60</ele>
        <time>2021-10-07T16:35:10Z</time>
      </trkpt>
      <trkpt lat="5.351850" lon="-72.396079">
        <ele>351.60</ele>
        <time>2021-10-07T16:35:11Z</time>
      </trkpt>
      <trkpt lat="5.351875" lon="-72.396104">
        <ele>350.90</ele>
        <time>2021-10-07T16:35:13Z</time>
      </trkpt>
      <trkpt lat="5.351880" lon="-72.396138">
        <ele>351.10</ele>
        <time>2021-10-07T16:35:14Z</time>
      </trkpt>
      <trkpt lat="5.351890" lon="-72.396185">
        <ele>351.40</ele>
        <time>2021-10-07T16:35:15Z</time>
      </trkpt>
      <trkpt lat="5.351899" lon="-72.396212">
        <ele>350.90</ele>
        <time>2021-10-07T16:35:16Z</time>
      </trkpt>
      <trkpt lat="5.351912" lon="-72.396246">
        <ele>350.90</ele>
        <time>2021-10-07T16:35:17Z</time>
      </trkpt>
      <trkpt lat="5.351926" lon="-72.396277">
        <ele>351.10</ele>
        <time>2021-10-07T16:35:18Z</time>
      </trkpt>
      <trkpt lat="5.351947" lon="-72.396325">
        <ele>350.40</ele>
        <time>2021-10-07T16:35:20Z</time>
      </trkpt>
      <trkpt lat="5.351959" lon="-72.396363">
        <ele>350.50</ele>
        <time>2021-10-07T16:35:22Z</time>
      </trkpt>
      <trkpt lat="5.351970" lon="-72.396393">
        <ele>350.60</ele>
        <time>2021-10-07T16:35:24Z</time>
      </trkpt>
      <trkpt lat="5.351985" lon="-72.396444">
        <ele>349.30</ele>
        <time>2021-10-07T16:35:26Z</time>
      </trkpt>
      <trkpt lat="5.351993" lon="-72.396472">
        <ele>349.30</ele>
        <time>2021-10-07T16:35:27Z</time>
      </trkpt>
      <trkpt lat="5.352004" lon="-72.396511">
        <ele>349.30</ele>
        <time>2021-10-07T16:35:29Z</time>
      </trkpt>
      <trkpt lat="5.352010" lon="-72.396545">
        <ele>349.20</ele>
        <time>2021-10-07T16:35:30Z</time>
      </trkpt>
      <trkpt lat="5.352012" lon="-72.396555">
        <ele>349.10</ele>
        <time>2021-10-07T16:35:31Z</time>
      </trkpt>
      <trkpt lat="5.352014" lon="-72.396572">
        <ele>349.10</ele>
        <time>2021-10-07T16:35:32Z</time>
      </trkpt>
      <trkpt lat="5.352010" lon="-72.396595">
        <ele>349.10</ele>
        <time>2021-10-07T16:35:34Z</time>
      </trkpt>
      <trkpt lat="5.351998" lon="-72.396609">
        <ele>349.00</ele>
        <time>2021-10-07T16:35:36Z</time>
      </trkpt>
      <trkpt lat="5.351994" lon="-72.396614">
        <ele>349.00</ele>
        <time>2021-10-07T16:35:37Z</time>
      </trkpt>
      <trkpt lat="5.351993" lon="-72.396620">
        <ele>349.00</ele>
        <time>2021-10-07T16:35:39Z</time>
      </trkpt>
      <trkpt lat="5.351993" lon="-72.396623">
        <ele>349.00</ele>
        <time>2021-10-07T16:35:40Z</time>
      </trkpt>
      <trkpt lat="5.351994" lon="-72.396631">
        <ele>349.00</ele>
        <time>2021-10-07T16:35:42Z</time>
      </trkpt>
      <trkpt lat="5.351995" lon="-72.396635">
        <ele>349.00</ele>
        <time>2021-10-07T16:35:43Z</time>
      </trkpt>
      <trkpt lat="5.352003" lon="-72.396644">
        <ele>348.90</ele>
        <time>2021-10-07T16:35:45Z</time>
      </trkpt>
      <trkpt lat="5.352022" lon="-72.396666">
        <ele>348.90</ele>
        <time>2021-10-07T16:35:47Z</time>
      </trkpt>
      <trkpt lat="5.352031" lon="-72.396679">
        <ele>347.10</ele>
        <time>2021-10-07T16:35:48Z</time>
      </trkpt>
      <trkpt lat="5.352042" lon="-72.396708">
        <ele>347.10</ele>
        <time>2021-10-07T16:35:50Z</time>
      </trkpt>
      <trkpt lat="5.352053" lon="-72.396743">
        <ele>347.10</ele>
        <time>2021-10-07T16:35:52Z</time>
      </trkpt>
      <trkpt lat="5.352076" lon="-72.396775">
        <ele>345.90</ele>
        <time>2021-10-07T16:35:54Z</time>
      </trkpt>
      <trkpt lat="5.352113" lon="-72.396820">
        <ele>345.00</ele>
        <time>2021-10-07T16:35:56Z</time>
      </trkpt>
      <trkpt lat="5.352126" lon="-72.396831">
        <ele>345.00</ele>
        <time>2021-10-07T16:35:57Z</time>
      </trkpt>
      <trkpt lat="5.352158" lon="-72.396855">
        <ele>343.90</ele>
        <time>2021-10-07T16:35:59Z</time>
      </trkpt>
      <trkpt lat="5.352177" lon="-72.396872">
        <ele>344.30</ele>
        <time>2021-10-07T16:36:00Z</time>
      </trkpt>
      <trkpt lat="5.352213" lon="-72.396907">
        <ele>343.80</ele>
        <time>2021-10-07T16:36:02Z</time>
      </trkpt>
      <trkpt lat="5.352259" lon="-72.396947">
        <ele>343.50</ele>
        <time>2021-10-07T16:36:04Z</time>
      </trkpt>
      <trkpt lat="5.352292" lon="-72.396981">
        <ele>342.80</ele>
        <time>2021-10-07T16:36:05Z</time>
      </trkpt>
      <trkpt lat="5.352329" lon="-72.397032">
        <ele>343.80</ele>
        <time>2021-10-07T16:36:07Z</time>
      </trkpt>
      <trkpt lat="5.352356" lon="-72.397087">
        <ele>344.40</ele>
        <time>2021-10-07T16:36:09Z</time>
      </trkpt>
      <trkpt lat="5.352363" lon="-72.397117">
        <ele>345.10</ele>
        <time>2021-10-07T16:36:10Z</time>
      </trkpt>
      <trkpt lat="5.352365" lon="-72.397145">
        <ele>345.10</ele>
        <time>2021-10-07T16:36:11Z</time>
      </trkpt>
      <trkpt lat="5.352371" lon="-72.397221">
        <ele>345.90</ele>
        <time>2021-10-07T16:36:13Z</time>
      </trkpt>
      <trkpt lat="5.352374" lon="-72.397313">
        <ele>346.40</ele>
        <time>2021-10-07T16:36:15Z</time>
      </trkpt>
      <trkpt lat="5.352375" lon="-72.397363">
        <ele>346.70</ele>
        <time>2021-10-07T16:36:16Z</time>
      </trkpt>
      <trkpt lat="5.352376" lon="-72.397460">
        <ele>347.50</ele>
        <time>2021-10-07T16:36:18Z</time>
      </trkpt>
      <trkpt lat="5.352403" lon="-72.397561">
        <ele>348.10</ele>
        <time>2021-10-07T16:36:20Z</time>
      </trkpt>
      <trkpt lat="5.352421" lon="-72.397614">
        <ele>348.00</ele>
        <time>2021-10-07T16:36:21Z</time>
      </trkpt>
      <trkpt lat="5.352438" lon="-72.397651">
        <ele>348.00</ele>
        <time>2021-10-07T16:36:22Z</time>
      </trkpt>
      <trkpt lat="5.352458" lon="-72.397693">
        <ele>347.70</ele>
        <time>2021-10-07T16:36:23Z</time>
      </trkpt>
      <trkpt lat="5.352506" lon="-72.397788">
        <ele>347.50</ele>
        <time>2021-10-07T16:36:25Z</time>
      </trkpt>
      <trkpt lat="5.352540" lon="-72.397892">
        <ele>348.00</ele>
        <time>2021-10-07T16:36:27Z</time>
      </trkpt>
      <trkpt lat="5.352553" lon="-72.397962">
        <ele>348.10</ele>
        <time>2021-10-07T16:36:28Z</time>
      </trkpt>
      <trkpt lat="5.352559" lon="-72.398037">
        <ele>348.20</ele>
        <time>2021-10-07T16:36:29Z</time>
      </trkpt>
      <trkpt lat="5.352558" lon="-72.398164">
        <ele>348.00</ele>
        <time>2021-10-07T16:36:31Z</time>
      </trkpt>
      <trkpt lat="5.352545" lon="-72.398269">
        <ele>348.00</ele>
        <time>2021-10-07T16:36:33Z</time>
      </trkpt>
      <trkpt lat="5.352552" lon="-72.398340">
        <ele>347.90</ele>
        <time>2021-10-07T16:36:35Z</time>
      </trkpt>
      <trkpt lat="5.352567" lon="-72.398391">
        <ele>347.90</ele>
        <time>2021-10-07T16:36:36Z</time>
      </trkpt>
      <trkpt lat="5.352584" lon="-72.398431">
        <ele>348.00</ele>
        <time>2021-10-07T16:36:37Z</time>
      </trkpt>
      <trkpt lat="5.352619" lon="-72.398512">
        <ele>348.00</ele>
        <time>2021-10-07T16:36:39Z</time>
      </trkpt>
      <trkpt lat="5.352629" lon="-72.398592">
        <ele>347.70</ele>
        <time>2021-10-07T16:36:41Z</time>
      </trkpt>
      <trkpt lat="5.352626" lon="-72.398639">
        <ele>347.60</ele>
        <time>2021-10-07T16:36:42Z</time>
      </trkpt>
      <trkpt lat="5.352625" lon="-72.398692">
        <ele>347.60</ele>
        <time>2021-10-07T16:36:43Z</time>
      </trkpt>
      <trkpt lat="5.352633" lon="-72.398805">
        <ele>347.80</ele>
        <time>2021-10-07T16:36:45Z</time>
      </trkpt>
      <trkpt lat="5.352654" lon="-72.398905">
        <ele>348.30</ele>
        <time>2021-10-07T16:36:47Z</time>
      </trkpt>
      <trkpt lat="5.352659" lon="-72.398947">
        <ele>348.50</ele>
        <time>2021-10-07T16:36:48Z</time>
      </trkpt>
      <trkpt lat="5.352669" lon="-72.399033">
        <ele>348.90</ele>
        <time>2021-10-07T16:36:50Z</time>
      </trkpt>
      <trkpt lat="5.352698" lon="-72.399101">
        <ele>349.60</ele>
        <time>2021-10-07T16:36:52Z</time>
      </trkpt>
      <trkpt lat="5.352737" lon="-72.399162">
        <ele>350.10</ele>
        <time>2021-10-07T16:36:54Z</time>
      </trkpt>
      <trkpt lat="5.352770" lon="-72.399216">
        <ele>350.70</ele>
        <time>2021-10-07T16:36:56Z</time>
      </trkpt>
      <trkpt lat="5.352784" lon="-72.399248">
        <ele>350.70</ele>
        <time>2021-10-07T16:36:57Z</time>
      </trkpt>
      <trkpt lat="5.352801" lon="-72.399332">
        <ele>350.70</ele>
        <time>2021-10-07T16:36:59Z</time>
      </trkpt>
      <trkpt lat="5.352807" lon="-72.399430">
        <ele>350.60</ele>
        <time>2021-10-07T16:37:01Z</time>
      </trkpt>
      <trkpt lat="5.352820" lon="-72.399514">
        <ele>350.70</ele>
        <time>2021-10-07T16:37:03Z</time>
      </trkpt>
      <trkpt lat="5.352844" lon="-72.399575">
        <ele>351.00</ele>
        <time>2021-10-07T16:37:05Z</time>
      </trkpt>
      <trkpt lat="5.352859" lon="-72.399607">
        <ele>351.40</ele>
        <time>2021-10-07T16:37:06Z</time>
      </trkpt>
      <trkpt lat="5.352877" lon="-72.399666">
        <ele>351.70</ele>
        <time>2021-10-07T16:37:08Z</time>
      </trkpt>
      <trkpt lat="5.352878" lon="-72.399697">
        <ele>351.80</ele>
        <time>2021-10-07T16:37:09Z</time>
      </trkpt>
      <trkpt lat="5.352863" lon="-72.399752">
        <ele>351.80</ele>
        <time>2021-10-07T16:37:11Z</time>
      </trkpt>
      <trkpt lat="5.352848" lon="-72.399801">
        <ele>351.90</ele>
        <time>2021-10-07T16:37:13Z</time>
      </trkpt>
      <trkpt lat="5.352854" lon="-72.399835">
        <ele>352.10</ele>
        <time>2021-10-07T16:37:15Z</time>
      </trkpt>
      <trkpt lat="5.352878" lon="-72.399872">
        <ele>352.40</ele>
        <time>2021-10-07T16:37:17Z</time>
      </trkpt>
      <trkpt lat="5.352894" lon="-72.399889">
        <ele>351.80</ele>
        <time>2021-10-07T16:37:18Z</time>
      </trkpt>
      <trkpt lat="5.352931" lon="-72.399946">
        <ele>352.80</ele>
        <time>2021-10-07T16:37:20Z</time>
      </trkpt>
      <trkpt lat="5.352952" lon="-72.399984">
        <ele>352.80</ele>
        <time>2021-10-07T16:37:21Z</time>
      </trkpt>
      <trkpt lat="5.352994" lon="-72.400077">
        <ele>354.20</ele>
        <time>2021-10-07T16:37:23Z</time>
      </trkpt>
      <trkpt lat="5.353007" lon="-72.400117">
        <ele>354.60</ele>
        <time>2021-10-07T16:37:24Z</time>
      </trkpt>
      <trkpt lat="5.353033" lon="-72.400200">
        <ele>354.70</ele>
        <time>2021-10-07T16:37:26Z</time>
      </trkpt>
      <trkpt lat="5.353043" lon="-72.400237">
        <ele>355.00</ele>
        <time>2021-10-07T16:37:27Z</time>
      </trkpt>
      <trkpt lat="5.353058" lon="-72.400290">
        <ele>355.20</ele>
        <time>2021-10-07T16:37:29Z</time>
      </trkpt>
      <trkpt lat="5.353080" lon="-72.400327">
        <ele>355.20</ele>
        <time>2021-10-07T16:37:31Z</time>
      </trkpt>
      <trkpt lat="5.353101" lon="-72.400355">
        <ele>354.90</ele>
        <time>2021-10-07T16:37:33Z</time>
      </trkpt>
      <trkpt lat="5.353124" lon="-72.400392">
        <ele>354.70</ele>
        <time>2021-10-07T16:37:35Z</time>
      </trkpt>
      <trkpt lat="5.353171" lon="-72.400442">
        <ele>354.20</ele>
        <time>2021-10-07T16:37:37Z</time>
      </trkpt>
      <trkpt lat="5.353232" lon="-72.400525">
        <ele>353.90</ele>
        <time>2021-10-07T16:37:39Z</time>
      </trkpt>
      <trkpt lat="5.353304" lon="-72.400629">
        <ele>354.10</ele>
        <time>2021-10-07T16:37:41Z</time>
      </trkpt>
      <trkpt lat="5.353397" lon="-72.400752">
        <ele>354.10</ele>
        <time>2021-10-07T16:37:43Z</time>
      </trkpt>
      <trkpt lat="5.353476" lon="-72.400861">
        <ele>354.10</ele>
        <time>2021-10-07T16:37:45Z</time>
      </trkpt>
      <trkpt lat="5.353506" lon="-72.400925">
        <ele>354.10</ele>
        <time>2021-10-07T16:37:46Z</time>
      </trkpt>
      <trkpt lat="5.353537" lon="-72.400988">
        <ele>353.60</ele>
        <time>2021-10-07T16:37:47Z</time>
      </trkpt>
      <trkpt lat="5.353566" lon="-72.401049">
        <ele>353.10</ele>
        <time>2021-10-07T16:37:48Z</time>
      </trkpt>
      <trkpt lat="5.353640" lon="-72.401137">
        <ele>352.60</ele>
        <time>2021-10-07T16:37:50Z</time>
      </trkpt>
      <trkpt lat="5.353669" lon="-72.401166">
        <ele>352.40</ele>
        <time>2021-10-07T16:37:51Z</time>
      </trkpt>
      <trkpt lat="5.353732" lon="-72.401241">
        <ele>352.20</ele>
        <time>2021-10-07T16:37:53Z</time>
      </trkpt>
      <trkpt lat="5.353775" lon="-72.401276">
        <ele>351.90</ele>
        <time>2021-10-07T16:37:55Z</time>
      </trkpt>
      <trkpt lat="5.353802" lon="-72.401284">
        <ele>351.80</ele>
        <time>2021-10-07T16:37:56Z</time>
      </trkpt>
      <trkpt lat="5.353854" lon="-72.401295">
        <ele>351.80</ele>
        <time>2021-10-07T16:37:58Z</time>
      </trkpt>
      <trkpt lat="5.353887" lon="-72.401300">
        <ele>351.80</ele>
        <time>2021-10-07T16:37:59Z</time>
      </trkpt>
      <trkpt lat="5.353910" lon="-72.401307">
        <ele>351.80</ele>
        <time>2021-10-07T16:38:00Z</time>
      </trkpt>
      <trkpt lat="5.353934" lon="-72.401324">
        <ele>352.00</ele>
        <time>2021-10-07T16:38:02Z</time>
      </trkpt>
      <trkpt lat="5.353955" lon="-72.401334">
        <ele>351.80</ele>
        <time>2021-10-07T16:38:03Z</time>
      </trkpt>
      <trkpt lat="5.353988" lon="-72.401359">
        <ele>351.80</ele>
        <time>2021-10-07T16:38:05Z</time>
      </trkpt>
      <trkpt lat="5.353994" lon="-72.401374">
        <ele>351.60</ele>
        <time>2021-10-07T16:38:06Z</time>
      </trkpt>
      <trkpt lat="5.354001" lon="-72.401390">
        <ele>351.60</ele>
        <time>2021-10-07T16:38:07Z</time>
      </trkpt>
      <trkpt lat="5.354008" lon="-72.401406">
        <ele>351.50</ele>
        <time>2021-10-07T16:38:08Z</time>
      </trkpt>
      <trkpt lat="5.354017" lon="-72.401420">
        <ele>351.50</ele>
        <time>2021-10-07T16:38:10Z</time>
      </trkpt>
      <trkpt lat="5.354020" lon="-72.401422">
        <ele>351.50</ele>
        <time>2021-10-07T16:38:11Z</time>
      </trkpt>
      <trkpt lat="5.354021" lon="-72.401422">
        <ele>351.50</ele>
        <time>2021-10-07T16:38:12Z</time>
      </trkpt>
      <trkpt lat="5.354028" lon="-72.401426">
        <ele>351.50</ele>
        <time>2021-10-07T16:38:14Z</time>
      </trkpt>
      <trkpt lat="5.354051" lon="-72.401447">
        <ele>351.20</ele>
        <time>2021-10-07T16:38:16Z</time>
      </trkpt>
      <trkpt lat="5.354065" lon="-72.401460">
        <ele>351.10</ele>
        <time>2021-10-07T16:38:18Z</time>
      </trkpt>
      <trkpt lat="5.354071" lon="-72.401456">
        <ele>351.10</ele>
        <time>2021-10-07T16:38:19Z</time>
      </trkpt>
      <trkpt lat="5.354078" lon="-72.401452">
        <ele>351.00</ele>
        <time>2021-10-07T16:38:21Z</time>
      </trkpt>
      <trkpt lat="5.354081" lon="-72.401456">
        <ele>351.00</ele>
        <time>2021-10-07T16:38:22Z</time>
      </trkpt>
      <trkpt lat="5.354083" lon="-72.401462">
        <ele>351.00</ele>
        <time>2021-10-07T16:38:23Z</time>
      </trkpt>
      <trkpt lat="5.354083" lon="-72.401463">
        <ele>351.00</ele>
        <time>2021-10-07T16:38:24Z</time>
      </trkpt>
      <trkpt lat="5.354083" lon="-72.401464">
        <ele>351.00</ele>
        <time>2021-10-07T16:38:25Z</time>
      </trkpt>
      <trkpt lat="5.354083" lon="-72.401465">
        <ele>351.00</ele>
        <time>2021-10-07T16:38:27Z</time>
      </trkpt>
      <trkpt lat="5.354082" lon="-72.401465">
        <ele>351.00</ele>
        <time>2021-10-07T16:38:29Z</time>
      </trkpt>
      <trkpt lat="5.354082" lon="-72.401465">
        <ele>351.00</ele>
        <time>2021-10-07T16:38:30Z</time>
      </trkpt>
      <trkpt lat="5.354082" lon="-72.401465">
        <ele>351.00</ele>
        <time>2021-10-07T16:38:32Z</time>
      </trkpt>
      <trkpt lat="5.354102" lon="-72.401474">
        <ele>351.00</ele>
        <time>2021-10-07T16:38:50Z</time>
      </trkpt>
      <trkpt lat="5.354101" lon="-72.401474">
        <ele>351.00</ele>
        <time>2021-10-07T16:38:52Z</time>
      </trkpt>
      <trkpt lat="5.354116" lon="-72.401480">
        <ele>351.00</ele>
        <time>2021-10-07T16:38:54Z</time>
      </trkpt>
      <trkpt lat="5.354139" lon="-72.401495">
        <ele>351.00</ele>
        <time>2021-10-07T16:38:56Z</time>
      </trkpt>
      <trkpt lat="5.354148" lon="-72.401507">
        <ele>351.00</ele>
        <time>2021-10-07T16:38:57Z</time>
      </trkpt>
      <trkpt lat="5.354159" lon="-72.401520">
        <ele>351.00</ele>
        <time>2021-10-07T16:38:58Z</time>
      </trkpt>
      <trkpt lat="5.354164" lon="-72.401528">
        <ele>351.20</ele>
        <time>2021-10-07T16:38:59Z</time>
      </trkpt>
      <trkpt lat="5.354168" lon="-72.401544">
        <ele>351.40</ele>
        <time>2021-10-07T16:39:00Z</time>
      </trkpt>
      <trkpt lat="5.354167" lon="-72.401583">
        <ele>351.60</ele>
        <time>2021-10-07T16:39:02Z</time>
      </trkpt>
      <trkpt lat="5.354164" lon="-72.401603">
        <ele>351.60</ele>
        <time>2021-10-07T16:39:03Z</time>
      </trkpt>
      <trkpt lat="5.354155" lon="-72.401634">
        <ele>351.60</ele>
        <time>2021-10-07T16:39:05Z</time>
      </trkpt>
      <trkpt lat="5.354148" lon="-72.401651">
        <ele>351.60</ele>
        <time>2021-10-07T16:39:06Z</time>
      </trkpt>
      <trkpt lat="5.354138" lon="-72.401676">
        <ele>352.00</ele>
        <time>2021-10-07T16:39:08Z</time>
      </trkpt>
      <trkpt lat="5.354135" lon="-72.401709">
        <ele>352.30</ele>
        <time>2021-10-07T16:39:10Z</time>
      </trkpt>
      <trkpt lat="5.354128" lon="-72.401755">
        <ele>352.70</ele>
        <time>2021-10-07T16:39:12Z</time>
      </trkpt>
      <trkpt lat="5.354125" lon="-72.401780">
        <ele>352.70</ele>
        <time>2021-10-07T16:39:13Z</time>
      </trkpt>
      <trkpt lat="5.354121" lon="-72.401842">
        <ele>353.10</ele>
        <time>2021-10-07T16:39:15Z</time>
      </trkpt>
      <trkpt lat="5.354120" lon="-72.401879">
        <ele>353.10</ele>
        <time>2021-10-07T16:39:16Z</time>
      </trkpt>
      <trkpt lat="5.354121" lon="-72.401949">
        <ele>353.00</ele>
        <time>2021-10-07T16:39:18Z</time>
      </trkpt>
      <trkpt lat="5.354139" lon="-72.402025">
        <ele>352.30</ele>
        <time>2021-10-07T16:39:20Z</time>
      </trkpt>
      <trkpt lat="5.354153" lon="-72.402068">
        <ele>351.90</ele>
        <time>2021-10-07T16:39:21Z</time>
      </trkpt>
      <trkpt lat="5.354171" lon="-72.402125">
        <ele>351.70</ele>
        <time>2021-10-07T16:39:22Z</time>
      </trkpt>
      <trkpt lat="5.354215" lon="-72.402239">
        <ele>350.80</ele>
        <time>2021-10-07T16:39:24Z</time>
      </trkpt>
      <trkpt lat="5.354231" lon="-72.402295">
        <ele>350.70</ele>
        <time>2021-10-07T16:39:25Z</time>
      </trkpt>
      <trkpt lat="5.354255" lon="-72.402411">
        <ele>351.10</ele>
        <time>2021-10-07T16:39:27Z</time>
      </trkpt>
      <trkpt lat="5.354275" lon="-72.402531">
        <ele>351.90</ele>
        <time>2021-10-07T16:39:29Z</time>
      </trkpt>
      <trkpt lat="5.354281" lon="-72.402589">
        <ele>352.40</ele>
        <time>2021-10-07T16:39:30Z</time>
      </trkpt>
      <trkpt lat="5.354284" lon="-72.402707">
        <ele>353.90</ele>
        <time>2021-10-07T16:39:32Z</time>
      </trkpt>
      <trkpt lat="5.354292" lon="-72.402824">
        <ele>354.50</ele>
        <time>2021-10-07T16:39:34Z</time>
      </trkpt>
      <trkpt lat="5.354321" lon="-72.402902">
        <ele>354.60</ele>
        <time>2021-10-07T16:39:36Z</time>
      </trkpt>
      <trkpt lat="5.354332" lon="-72.402922">
        <ele>354.70</ele>
        <time>2021-10-07T16:39:37Z</time>
      </trkpt>
      <trkpt lat="5.354354" lon="-72.402967">
        <ele>354.30</ele>
        <time>2021-10-07T16:39:39Z</time>
      </trkpt>
      <trkpt lat="5.354367" lon="-72.402995">
        <ele>354.30</ele>
        <time>2021-10-07T16:39:40Z</time>
      </trkpt>
      <trkpt lat="5.354405" lon="-72.403072">
        <ele>353.80</ele>
        <time>2021-10-07T16:39:42Z</time>
      </trkpt>
      <trkpt lat="5.354421" lon="-72.403119">
        <ele>353.10</ele>
        <time>2021-10-07T16:39:44Z</time>
      </trkpt>
      <trkpt lat="5.354441" lon="-72.403214">
        <ele>352.20</ele>
        <time>2021-10-07T16:39:46Z</time>
      </trkpt>
      <trkpt lat="5.354450" lon="-72.403348">
        <ele>351.80</ele>
        <time>2021-10-07T16:39:48Z</time>
      </trkpt>
      <trkpt lat="5.354457" lon="-72.403511">
        <ele>353.20</ele>
        <time>2021-10-07T16:39:50Z</time>
      </trkpt>
      <trkpt lat="5.354458" lon="-72.403583">
        <ele>353.70</ele>
        <time>2021-10-07T16:39:51Z</time>
      </trkpt>
      <trkpt lat="5.354451" lon="-72.403650">
        <ele>354.50</ele>
        <time>2021-10-07T16:39:52Z</time>
      </trkpt>
      <trkpt lat="5.354438" lon="-72.403706">
        <ele>354.80</ele>
        <time>2021-10-07T16:39:53Z</time>
      </trkpt>
      <trkpt lat="5.354414" lon="-72.403767">
        <ele>354.90</ele>
        <time>2021-10-07T16:39:55Z</time>
      </trkpt>
      <trkpt lat="5.354400" lon="-72.403802">
        <ele>354.90</ele>
        <time>2021-10-07T16:39:56Z</time>
      </trkpt>
      <trkpt lat="5.354365" lon="-72.403824">
        <ele>355.00</ele>
        <time>2021-10-07T16:39:58Z</time>
      </trkpt>
      <trkpt lat="5.354375" lon="-72.403891">
        <ele>355.10</ele>
        <time>2021-10-07T16:40:00Z</time>
      </trkpt>
      <trkpt lat="5.354375" lon="-72.403893">
        <ele>355.10</ele>
        <time>2021-10-07T16:40:01Z</time>
      </trkpt>
      <trkpt lat="5.354371" lon="-72.403893">
        <ele>355.10</ele>
        <time>2021-10-07T16:40:03Z</time>
      </trkpt>
      <trkpt lat="5.354357" lon="-72.403891">
        <ele>355.10</ele>
        <time>2021-10-07T16:40:04Z</time>
      </trkpt>
      <trkpt lat="5.354331" lon="-72.403861">
        <ele>355.40</ele>
        <time>2021-10-07T16:40:05Z</time>
      </trkpt>
      <trkpt lat="5.354270" lon="-72.403802">
        <ele>355.30</ele>
        <time>2021-10-07T16:40:07Z</time>
      </trkpt>
      <trkpt lat="5.354225" lon="-72.403767">
        <ele>355.70</ele>
        <time>2021-10-07T16:40:08Z</time>
      </trkpt>
      <trkpt lat="5.354184" lon="-72.403729">
        <ele>355.70</ele>
        <time>2021-10-07T16:40:09Z</time>
      </trkpt>
      <trkpt lat="5.354139" lon="-72.403679">
        <ele>356.00</ele>
        <time>2021-10-07T16:40:10Z</time>
      </trkpt>
      <trkpt lat="5.354103" lon="-72.403646">
        <ele>356.60</ele>
        <time>2021-10-07T16:40:12Z</time>
      </trkpt>
      <trkpt lat="5.354073" lon="-72.403623">
        <ele>357.60</ele>
        <time>2021-10-07T16:40:13Z</time>
      </trkpt>
      <trkpt lat="5.354036" lon="-72.403589">
        <ele>357.60</ele>
        <time>2021-10-07T16:40:14Z</time>
      </trkpt>
      <trkpt lat="5.354007" lon="-72.403558">
        <ele>358.90</ele>
        <time>2021-10-07T16:40:16Z</time>
      </trkpt>
      <trkpt lat="5.353986" lon="-72.403528">
        <ele>360.00</ele>
        <time>2021-10-07T16:40:17Z</time>
      </trkpt>
      <trkpt lat="5.353968" lon="-72.403493">
        <ele>359.70</ele>
        <time>2021-10-07T16:40:18Z</time>
      </trkpt>
      <trkpt lat="5.353944" lon="-72.403451">
        <ele>360.40</ele>
        <time>2021-10-07T16:40:19Z</time>
      </trkpt>
      <trkpt lat="5.353918" lon="-72.403414">
        <ele>360.10</ele>
        <time>2021-10-07T16:40:21Z</time>
      </trkpt>
      <trkpt lat="5.353899" lon="-72.403383">
        <ele>361.00</ele>
        <time>2021-10-07T16:40:22Z</time>
      </trkpt>
      <trkpt lat="5.353894" lon="-72.403375">
        <ele>360.80</ele>
        <time>2021-10-07T16:40:23Z</time>
      </trkpt>
      <trkpt lat="5.353875" lon="-72.403350">
        <ele>360.80</ele>
        <time>2021-10-07T16:40:24Z</time>
      </trkpt>
      <trkpt lat="5.353859" lon="-72.403330">
        <ele>361.40</ele>
        <time>2021-10-07T16:40:25Z</time>
      </trkpt>
      <trkpt lat="5.353831" lon="-72.403290">
        <ele>361.10</ele>
        <time>2021-10-07T16:40:27Z</time>
      </trkpt>
      <trkpt lat="5.353795" lon="-72.403236">
        <ele>361.30</ele>
        <time>2021-10-07T16:40:29Z</time>
      </trkpt>
      <trkpt lat="5.353776" lon="-72.403197">
        <ele>361.10</ele>
        <time>2021-10-07T16:40:30Z</time>
      </trkpt>
      <trkpt lat="5.353764" lon="-72.403158">
        <ele>360.30</ele>
        <time>2021-10-07T16:40:31Z</time>
      </trkpt>
      <trkpt lat="5.353755" lon="-72.403064">
        <ele>358.90</ele>
        <time>2021-10-07T16:40:33Z</time>
      </trkpt>
      <trkpt lat="5.353725" lon="-72.402953">
        <ele>359.00</ele>
        <time>2021-10-07T16:40:35Z</time>
      </trkpt>
      <trkpt lat="5.353707" lon="-72.402897">
        <ele>358.90</ele>
        <time>2021-10-07T16:40:36Z</time>
      </trkpt>
      <trkpt lat="5.353665" lon="-72.402789">
        <ele>359.40</ele>
        <time>2021-10-07T16:40:38Z</time>
      </trkpt>
      <trkpt lat="5.353639" lon="-72.402734">
        <ele>359.30</ele>
        <time>2021-10-07T16:40:39Z</time>
      </trkpt>
      <trkpt lat="5.353598" lon="-72.402627">
        <ele>358.40</ele>
        <time>2021-10-07T16:40:41Z</time>
      </trkpt>
      <trkpt lat="5.353577" lon="-72.402560">
        <ele>356.80</ele>
        <time>2021-10-07T16:40:42Z</time>
      </trkpt>
      <trkpt lat="5.353564" lon="-72.402515">
        <ele>356.50</ele>
        <time>2021-10-07T16:40:44Z</time>
      </trkpt>
      <trkpt lat="5.353546" lon="-72.402468">
        <ele>355.90</ele>
        <time>2021-10-07T16:40:45Z</time>
      </trkpt>
      <trkpt lat="5.353536" lon="-72.402440">
        <ele>355.90</ele>
        <time>2021-10-07T16:40:46Z</time>
      </trkpt>
      <trkpt lat="5.353529" lon="-72.402418">
        <ele>355.50</ele>
        <time>2021-10-07T16:40:47Z</time>
      </trkpt>
      <trkpt lat="5.353531" lon="-72.402416">
        <ele>355.50</ele>
        <time>2021-10-07T16:40:48Z</time>
      </trkpt>
      <trkpt lat="5.353531" lon="-72.402403">
        <ele>355.50</ele>
        <time>2021-10-07T16:40:50Z</time>
      </trkpt>
      <trkpt lat="5.353532" lon="-72.402385">
        <ele>355.20</ele>
        <time>2021-10-07T16:40:51Z</time>
      </trkpt>
      <trkpt lat="5.353534" lon="-72.402368">
        <ele>355.20</ele>
        <time>2021-10-07T16:40:52Z</time>
      </trkpt>
      <trkpt lat="5.353529" lon="-72.402339">
        <ele>354.90</ele>
        <time>2021-10-07T16:40:54Z</time>
      </trkpt>
      <trkpt lat="5.353511" lon="-72.402300">
        <ele>355.40</ele>
        <time>2021-10-07T16:40:56Z</time>
      </trkpt>
      <trkpt lat="5.353481" lon="-72.402259">
        <ele>355.40</ele>
        <time>2021-10-07T16:40:57Z</time>
      </trkpt>
      <trkpt lat="5.353462" lon="-72.402228">
        <ele>355.90</ele>
        <time>2021-10-07T16:40:58Z</time>
      </trkpt>
      <trkpt lat="5.353440" lon="-72.402195">
        <ele>355.90</ele>
        <time>2021-10-07T16:41:00Z</time>
      </trkpt>
      <trkpt lat="5.353426" lon="-72.402165">
        <ele>356.20</ele>
        <time>2021-10-07T16:41:01Z</time>
      </trkpt>
      <trkpt lat="5.353409" lon="-72.402132">
        <ele>356.00</ele>
        <time>2021-10-07T16:41:02Z</time>
      </trkpt>
      <trkpt lat="5.353372" lon="-72.402069">
        <ele>356.10</ele>
        <time>2021-10-07T16:41:04Z</time>
      </trkpt>
      <trkpt lat="5.353337" lon="-72.401995">
        <ele>356.10</ele>
        <time>2021-10-07T16:41:06Z</time>
      </trkpt>
      <trkpt lat="5.353313" lon="-72.401962">
        <ele>356.00</ele>
        <time>2021-10-07T16:41:07Z</time>
      </trkpt>
      <trkpt lat="5.353274" lon="-72.401902">
        <ele>356.80</ele>
        <time>2021-10-07T16:41:09Z</time>
      </trkpt>
      <trkpt lat="5.353255" lon="-72.401858">
        <ele>357.60</ele>
        <time>2021-10-07T16:41:10Z</time>
      </trkpt>
      <trkpt lat="5.353176" lon="-72.401699">
        <ele>359.00</ele>
        <time>2021-10-07T16:41:12Z</time>
      </trkpt>
      <trkpt lat="5.353140" lon="-72.401637">
        <ele>359.10</ele>
        <time>2021-10-07T16:41:13Z</time>
      </trkpt>
      <trkpt lat="5.353101" lon="-72.401582">
        <ele>359.90</ele>
        <time>2021-10-07T16:41:14Z</time>
      </trkpt>
      <trkpt lat="5.353041" lon="-72.401492">
        <ele>360.40</ele>
        <time>2021-10-07T16:41:16Z</time>
      </trkpt>
      <trkpt lat="5.353014" lon="-72.401459">
        <ele>360.10</ele>
        <time>2021-10-07T16:41:17Z</time>
      </trkpt>
      <trkpt lat="5.352978" lon="-72.401408">
        <ele>359.70</ele>
        <time>2021-10-07T16:41:19Z</time>
      </trkpt>
      <trkpt lat="5.352935" lon="-72.401343">
        <ele>358.80</ele>
        <time>2021-10-07T16:41:21Z</time>
      </trkpt>
      <trkpt lat="5.352916" lon="-72.401308">
        <ele>358.50</ele>
        <time>2021-10-07T16:41:22Z</time>
      </trkpt>
      <trkpt lat="5.352885" lon="-72.401251">
        <ele>358.00</ele>
        <time>2021-10-07T16:41:24Z</time>
      </trkpt>
      <trkpt lat="5.352858" lon="-72.401209">
        <ele>357.70</ele>
        <time>2021-10-07T16:41:25Z</time>
      </trkpt>
      <trkpt lat="5.352828" lon="-72.401157">
        <ele>357.60</ele>
        <time>2021-10-07T16:41:27Z</time>
      </trkpt>
      <trkpt lat="5.352814" lon="-72.401120">
        <ele>357.20</ele>
        <time>2021-10-07T16:41:28Z</time>
      </trkpt>
      <trkpt lat="5.352810" lon="-72.401088">
        <ele>356.90</ele>
        <time>2021-10-07T16:41:29Z</time>
      </trkpt>
      <trkpt lat="5.352812" lon="-72.401046">
        <ele>356.60</ele>
        <time>2021-10-07T16:41:31Z</time>
      </trkpt>
      <trkpt lat="5.352819" lon="-72.401025">
        <ele>356.60</ele>
        <time>2021-10-07T16:41:32Z</time>
      </trkpt>
      <trkpt lat="5.352827" lon="-72.401006">
        <ele>356.20</ele>
        <time>2021-10-07T16:41:34Z</time>
      </trkpt>
      <trkpt lat="5.352830" lon="-72.400989">
        <ele>356.20</ele>
        <time>2021-10-07T16:41:35Z</time>
      </trkpt>
      <trkpt lat="5.352829" lon="-72.400979">
        <ele>356.20</ele>
        <time>2021-10-07T16:41:36Z</time>
      </trkpt>
      <trkpt lat="5.352829" lon="-72.400973">
        <ele>355.80</ele>
        <time>2021-10-07T16:41:37Z</time>
      </trkpt>
      <trkpt lat="5.352829" lon="-72.400968">
        <ele>355.80</ele>
        <time>2021-10-07T16:41:38Z</time>
      </trkpt>
      <trkpt lat="5.352825" lon="-72.400950">
        <ele>355.80</ele>
        <time>2021-10-07T16:41:40Z</time>
      </trkpt>
      <trkpt lat="5.352813" lon="-72.400923">
        <ele>355.40</ele>
        <time>2021-10-07T16:41:42Z</time>
      </trkpt>
      <trkpt lat="5.352799" lon="-72.400892">
        <ele>355.40</ele>
        <time>2021-10-07T16:41:43Z</time>
      </trkpt>
      <trkpt lat="5.352787" lon="-72.400866">
        <ele>355.80</ele>
        <time>2021-10-07T16:41:44Z</time>
      </trkpt>
      <trkpt lat="5.352759" lon="-72.400834">
        <ele>355.90</ele>
        <time>2021-10-07T16:41:46Z</time>
      </trkpt>
      <trkpt lat="5.352747" lon="-72.400806">
        <ele>356.60</ele>
        <time>2021-10-07T16:41:47Z</time>
      </trkpt>
      <trkpt lat="5.352730" lon="-72.400782">
        <ele>357.00</ele>
        <time>2021-10-07T16:41:48Z</time>
      </trkpt>
      <trkpt lat="5.352724" lon="-72.400775">
        <ele>357.00</ele>
        <time>2021-10-07T16:41:49Z</time>
      </trkpt>
      <trkpt lat="5.352707" lon="-72.400758">
        <ele>358.30</ele>
        <time>2021-10-07T16:41:50Z</time>
      </trkpt>
      <trkpt lat="5.352680" lon="-72.400724">
        <ele>358.30</ele>
        <time>2021-10-07T16:41:52Z</time>
      </trkpt>
      <trkpt lat="5.352661" lon="-72.400692">
        <ele>359.30</ele>
        <time>2021-10-07T16:41:53Z</time>
      </trkpt>
      <trkpt lat="5.352656" lon="-72.400683">
        <ele>359.30</ele>
        <time>2021-10-07T16:41:54Z</time>
      </trkpt>
      <trkpt lat="5.352649" lon="-72.400655">
        <ele>359.50</ele>
        <time>2021-10-07T16:41:56Z</time>
      </trkpt>
      <trkpt lat="5.352651" lon="-72.400632">
        <ele>359.50</ele>
        <time>2021-10-07T16:41:57Z</time>
      </trkpt>
      <trkpt lat="5.352654" lon="-72.400599">
        <ele>359.50</ele>
        <time>2021-10-07T16:41:59Z</time>
      </trkpt>
      <trkpt lat="5.352654" lon="-72.400582">
        <ele>359.30</ele>
        <time>2021-10-07T16:42:00Z</time>
      </trkpt>
      <trkpt lat="5.352655" lon="-72.400569">
        <ele>359.30</ele>
        <time>2021-10-07T16:42:01Z</time>
      </trkpt>
      <trkpt lat="5.352653" lon="-72.400563">
        <ele>359.30</ele>
        <time>2021-10-07T16:42:02Z</time>
      </trkpt>
      <trkpt lat="5.352653" lon="-72.400544">
        <ele>359.00</ele>
        <time>2021-10-07T16:42:04Z</time>
      </trkpt>
      <trkpt lat="5.352651" lon="-72.400505">
        <ele>359.00</ele>
        <time>2021-10-07T16:42:06Z</time>
      </trkpt>
      <trkpt lat="5.352633" lon="-72.400482">
        <ele>358.70</ele>
        <time>2021-10-07T16:42:08Z</time>
      </trkpt>
      <trkpt lat="5.352629" lon="-72.400475">
        <ele>358.70</ele>
        <time>2021-10-07T16:42:09Z</time>
      </trkpt>
      <trkpt lat="5.352618" lon="-72.400456">
        <ele>358.60</ele>
        <time>2021-10-07T16:42:10Z</time>
      </trkpt>
      <trkpt lat="5.352594" lon="-72.400411">
        <ele>358.30</ele>
        <time>2021-10-07T16:42:12Z</time>
      </trkpt>
      <trkpt lat="5.352560" lon="-72.400368">
        <ele>358.40</ele>
        <time>2021-10-07T16:42:13Z</time>
      </trkpt>
      <trkpt lat="5.352532" lon="-72.400329">
        <ele>358.50</ele>
        <time>2021-10-07T16:42:15Z</time>
      </trkpt>
      <trkpt lat="5.352510" lon="-72.400297">
        <ele>358.50</ele>
        <time>2021-10-07T16:42:16Z</time>
      </trkpt>
      <trkpt lat="5.352479" lon="-72.400252">
        <ele>358.30</ele>
        <time>2021-10-07T16:42:18Z</time>
      </trkpt>
      <trkpt lat="5.352464" lon="-72.400229">
        <ele>357.80</ele>
        <time>2021-10-07T16:42:19Z</time>
      </trkpt>
      <trkpt lat="5.352444" lon="-72.400201">
        <ele>357.30</ele>
        <time>2021-10-07T16:42:20Z</time>
      </trkpt>
      <trkpt lat="5.352417" lon="-72.400158">
        <ele>356.90</ele>
        <time>2021-10-07T16:42:21Z</time>
      </trkpt>
      <trkpt lat="5.352395" lon="-72.400125">
        <ele>357.00</ele>
        <time>2021-10-07T16:42:22Z</time>
      </trkpt>
      <trkpt lat="5.352363" lon="-72.400082">
        <ele>357.10</ele>
        <time>2021-10-07T16:42:24Z</time>
      </trkpt>
      <trkpt lat="5.352333" lon="-72.400041">
        <ele>356.90</ele>
        <time>2021-10-07T16:42:25Z</time>
      </trkpt>
      <trkpt lat="5.352290" lon="-72.399983">
        <ele>356.70</ele>
        <time>2021-10-07T16:42:27Z</time>
      </trkpt>
      <trkpt lat="5.352260" lon="-72.399937">
        <ele>356.60</ele>
        <time>2021-10-07T16:42:28Z</time>
      </trkpt>
      <trkpt lat="5.352241" lon="-72.399906">
        <ele>356.60</ele>
        <time>2021-10-07T16:42:29Z</time>
      </trkpt>
      <trkpt lat="5.352207" lon="-72.399857">
        <ele>356.30</ele>
        <time>2021-10-07T16:42:31Z</time>
      </trkpt>
      <trkpt lat="5.352194" lon="-72.399819">
        <ele>356.60</ele>
        <time>2021-10-07T16:42:32Z</time>
      </trkpt>
      <trkpt lat="5.352178" lon="-72.399785">
        <ele>356.60</ele>
        <time>2021-10-07T16:42:34Z</time>
      </trkpt>
      <trkpt lat="5.352169" lon="-72.399735">
        <ele>356.60</ele>
        <time>2021-10-07T16:42:36Z</time>
      </trkpt>
      <trkpt lat="5.352165" lon="-72.399694">
        <ele>356.60</ele>
        <time>2021-10-07T16:42:37Z</time>
      </trkpt>
      <trkpt lat="5.352156" lon="-72.399637">
        <ele>356.60</ele>
        <time>2021-10-07T16:42:38Z</time>
      </trkpt>
      <trkpt lat="5.352145" lon="-72.399586">
        <ele>356.80</ele>
        <time>2021-10-07T16:42:39Z</time>
      </trkpt>
      <trkpt lat="5.352136" lon="-72.399537">
        <ele>356.80</ele>
        <time>2021-10-07T16:42:41Z</time>
      </trkpt>
      <trkpt lat="5.352127" lon="-72.399490">
        <ele>356.70</ele>
        <time>2021-10-07T16:42:42Z</time>
      </trkpt>
      <trkpt lat="5.352116" lon="-72.399448">
        <ele>356.60</ele>
        <time>2021-10-07T16:42:43Z</time>
      </trkpt>
      <trkpt lat="5.352105" lon="-72.399413">
        <ele>356.90</ele>
        <time>2021-10-07T16:42:44Z</time>
      </trkpt>
      <trkpt lat="5.352095" lon="-72.399373">
        <ele>356.90</ele>
        <time>2021-10-07T16:42:45Z</time>
      </trkpt>
      <trkpt lat="5.352081" lon="-72.399312">
        <ele>356.90</ele>
        <time>2021-10-07T16:42:47Z</time>
      </trkpt>
      <trkpt lat="5.352070" lon="-72.399265">
        <ele>356.90</ele>
        <time>2021-10-07T16:42:48Z</time>
      </trkpt>
      <trkpt lat="5.352059" lon="-72.399220">
        <ele>357.30</ele>
        <time>2021-10-07T16:42:49Z</time>
      </trkpt>
      <trkpt lat="5.352050" lon="-72.399180">
        <ele>357.30</ele>
        <time>2021-10-07T16:42:50Z</time>
      </trkpt>
      <trkpt lat="5.352034" lon="-72.399105">
        <ele>357.10</ele>
        <time>2021-10-07T16:42:52Z</time>
      </trkpt>
      <trkpt lat="5.352025" lon="-72.399043">
        <ele>357.30</ele>
        <time>2021-10-07T16:42:54Z</time>
      </trkpt>
      <trkpt lat="5.352031" lon="-72.399002">
        <ele>356.80</ele>
        <time>2021-10-07T16:42:55Z</time>
      </trkpt>
      <trkpt lat="5.352037" lon="-72.398962">
        <ele>356.60</ele>
        <time>2021-10-07T16:42:56Z</time>
      </trkpt>
      <trkpt lat="5.352047" lon="-72.398888">
        <ele>356.10</ele>
        <time>2021-10-07T16:42:58Z</time>
      </trkpt>
      <trkpt lat="5.352052" lon="-72.398825">
        <ele>355.40</ele>
        <time>2021-10-07T16:42:59Z</time>
      </trkpt>
      <trkpt lat="5.352049" lon="-72.398766">
        <ele>355.00</ele>
        <time>2021-10-07T16:43:00Z</time>
      </trkpt>
      <trkpt lat="5.352015" lon="-72.398611">
        <ele>353.00</ele>
        <time>2021-10-07T16:43:02Z</time>
      </trkpt>
      <trkpt lat="5.352005" lon="-72.398566">
        <ele>352.60</ele>
        <time>2021-10-07T16:43:03Z</time>
      </trkpt>
      <trkpt lat="5.352021" lon="-72.398484">
        <ele>351.80</ele>
        <time>2021-10-07T16:43:05Z</time>
      </trkpt>
      <trkpt lat="5.352003" lon="-72.398389">
        <ele>351.30</ele>
        <time>2021-10-07T16:43:07Z</time>
      </trkpt>
      <trkpt lat="5.351991" lon="-72.398339">
        <ele>351.00</ele>
        <time>2021-10-07T16:43:08Z</time>
      </trkpt>
      <trkpt lat="5.351969" lon="-72.398257">
        <ele>351.20</ele>
        <time>2021-10-07T16:43:10Z</time>
      </trkpt>
      <trkpt lat="5.351949" lon="-72.398197">
        <ele>351.20</ele>
        <time>2021-10-07T16:43:12Z</time>
      </trkpt>
      <trkpt lat="5.351934" lon="-72.398152">
        <ele>351.90</ele>
        <time>2021-10-07T16:43:13Z</time>
      </trkpt>
      <trkpt lat="5.351924" lon="-72.398103">
        <ele>351.80</ele>
        <time>2021-10-07T16:43:14Z</time>
      </trkpt>
      <trkpt lat="5.351916" lon="-72.398057">
        <ele>351.70</ele>
        <time>2021-10-07T16:43:16Z</time>
      </trkpt>
      <trkpt lat="5.351911" lon="-72.398005">
        <ele>351.20</ele>
        <time>2021-10-07T16:43:17Z</time>
      </trkpt>
      <trkpt lat="5.351898" lon="-72.397925">
        <ele>350.90</ele>
        <time>2021-10-07T16:43:18Z</time>
      </trkpt>
      <trkpt lat="5.351888" lon="-72.397855">
        <ele>351.10</ele>
        <time>2021-10-07T16:43:20Z</time>
      </trkpt>
      <trkpt lat="5.351882" lon="-72.397790">
        <ele>351.20</ele>
        <time>2021-10-07T16:43:21Z</time>
      </trkpt>
      <trkpt lat="5.351883" lon="-72.397733">
        <ele>351.30</ele>
        <time>2021-10-07T16:43:22Z</time>
      </trkpt>
      <trkpt lat="5.351885" lon="-72.397683">
        <ele>351.30</ele>
        <time>2021-10-07T16:43:23Z</time>
      </trkpt>
      <trkpt lat="5.351885" lon="-72.397637">
        <ele>351.30</ele>
        <time>2021-10-07T16:43:24Z</time>
      </trkpt>
      <trkpt lat="5.351884" lon="-72.397574">
        <ele>351.10</ele>
        <time>2021-10-07T16:43:25Z</time>
      </trkpt>
      <trkpt lat="5.351880" lon="-72.397500">
        <ele>351.10</ele>
        <time>2021-10-07T16:43:27Z</time>
      </trkpt>
      <trkpt lat="5.351867" lon="-72.397383">
        <ele>351.30</ele>
        <time>2021-10-07T16:43:29Z</time>
      </trkpt>
      <trkpt lat="5.351859" lon="-72.397194">
        <ele>352.10</ele>
        <time>2021-10-07T16:43:31Z</time>
      </trkpt>
      <trkpt lat="5.351869" lon="-72.397118">
        <ele>351.80</ele>
        <time>2021-10-07T16:43:33Z</time>
      </trkpt>
      <trkpt lat="5.351876" lon="-72.397083">
        <ele>351.50</ele>
        <time>2021-10-07T16:43:34Z</time>
      </trkpt>
      <trkpt lat="5.351884" lon="-72.397035">
        <ele>351.30</ele>
        <time>2021-10-07T16:43:35Z</time>
      </trkpt>
      <trkpt lat="5.351898" lon="-72.396999">
        <ele>350.60</ele>
        <time>2021-10-07T16:43:37Z</time>
      </trkpt>
      <trkpt lat="5.351905" lon="-72.396968">
        <ele>350.60</ele>
        <time>2021-10-07T16:43:38Z</time>
      </trkpt>
      <trkpt lat="5.351910" lon="-72.396938">
        <ele>350.70</ele>
        <time>2021-10-07T16:43:39Z</time>
      </trkpt>
      <trkpt lat="5.351908" lon="-72.396896">
        <ele>350.80</ele>
        <time>2021-10-07T16:43:40Z</time>
      </trkpt>
      <trkpt lat="5.351906" lon="-72.396864">
        <ele>350.80</ele>
        <time>2021-10-07T16:43:41Z</time>
      </trkpt>
      <trkpt lat="5.351904" lon="-72.396827">
        <ele>351.00</ele>
        <time>2021-10-07T16:43:42Z</time>
      </trkpt>
      <trkpt lat="5.351902" lon="-72.396776">
        <ele>351.20</ele>
        <time>2021-10-07T16:43:44Z</time>
      </trkpt>
      <trkpt lat="5.351911" lon="-72.396733">
        <ele>351.50</ele>
        <time>2021-10-07T16:43:46Z</time>
      </trkpt>
      <trkpt lat="5.351920" lon="-72.396699">
        <ele>351.80</ele>
        <time>2021-10-07T16:43:48Z</time>
      </trkpt>
      <trkpt lat="5.351923" lon="-72.396685">
        <ele>351.80</ele>
        <time>2021-10-07T16:43:49Z</time>
      </trkpt>
      <trkpt lat="5.351926" lon="-72.396676">
        <ele>352.10</ele>
        <time>2021-10-07T16:43:50Z</time>
      </trkpt>
      <trkpt lat="5.351929" lon="-72.396670">
        <ele>352.10</ele>
        <time>2021-10-07T16:43:51Z</time>
      </trkpt>
      <trkpt lat="5.351925" lon="-72.396654">
        <ele>352.10</ele>
        <time>2021-10-07T16:43:54Z</time>
      </trkpt>
      <trkpt lat="5.351922" lon="-72.396645">
        <ele>352.10</ele>
        <time>2021-10-07T16:43:55Z</time>
      </trkpt>
      <trkpt lat="5.351919" lon="-72.396637">
        <ele>352.40</ele>
        <time>2021-10-07T16:43:57Z</time>
      </trkpt>
      <trkpt lat="5.351916" lon="-72.396629">
        <ele>352.40</ele>
        <time>2021-10-07T16:43:58Z</time>
      </trkpt>
      <trkpt lat="5.351900" lon="-72.396600">
        <ele>352.40</ele>
        <time>2021-10-07T16:43:59Z</time>
      </trkpt>
      <trkpt lat="5.351879" lon="-72.396560">
        <ele>354.00</ele>
        <time>2021-10-07T16:44:01Z</time>
      </trkpt>
      <trkpt lat="5.351853" lon="-72.396515">
        <ele>355.10</ele>
        <time>2021-10-07T16:44:02Z</time>
      </trkpt>
      <trkpt lat="5.351828" lon="-72.396468">
        <ele>354.30</ele>
        <time>2021-10-07T16:44:03Z</time>
      </trkpt>
      <trkpt lat="5.351795" lon="-72.396412">
        <ele>354.50</ele>
        <time>2021-10-07T16:44:05Z</time>
      </trkpt>
      <trkpt lat="5.351765" lon="-72.396367">
        <ele>354.60</ele>
        <time>2021-10-07T16:44:06Z</time>
      </trkpt>
      <trkpt lat="5.351744" lon="-72.396338">
        <ele>354.30</ele>
        <time>2021-10-07T16:44:07Z</time>
      </trkpt>
      <trkpt lat="5.351735" lon="-72.396317">
        <ele>354.30</ele>
        <time>2021-10-07T16:44:08Z</time>
      </trkpt>
      <trkpt lat="5.351719" lon="-72.396278">
        <ele>354.60</ele>
        <time>2021-10-07T16:44:10Z</time>
      </trkpt>
      <trkpt lat="5.351712" lon="-72.396246">
        <ele>354.40</ele>
        <time>2021-10-07T16:44:11Z</time>
      </trkpt>
      <trkpt lat="5.351704" lon="-72.396219">
        <ele>354.40</ele>
        <time>2021-10-07T16:44:13Z</time>
      </trkpt>
      <trkpt lat="5.351700" lon="-72.396191">
        <ele>354.20</ele>
        <time>2021-10-07T16:44:14Z</time>
      </trkpt>
      <trkpt lat="5.351693" lon="-72.396162">
        <ele>354.00</ele>
        <time>2021-10-07T16:44:15Z</time>
      </trkpt>
      <trkpt lat="5.351679" lon="-72.396118">
        <ele>353.80</ele>
        <time>2021-10-07T16:44:17Z</time>
      </trkpt>
      <trkpt lat="5.351676" lon="-72.396090">
        <ele>353.80</ele>
        <time>2021-10-07T16:44:18Z</time>
      </trkpt>
      <trkpt lat="5.351676" lon="-72.396069">
        <ele>353.40</ele>
        <time>2021-10-07T16:44:19Z</time>
      </trkpt>
      <trkpt lat="5.351683" lon="-72.396036">
        <ele>353.00</ele>
        <time>2021-10-07T16:44:21Z</time>
      </trkpt>
      <trkpt lat="5.351687" lon="-72.396010">
        <ele>353.00</ele>
        <time>2021-10-07T16:44:23Z</time>
      </trkpt>
      <trkpt lat="5.351687" lon="-72.396003">
        <ele>353.00</ele>
        <time>2021-10-07T16:44:24Z</time>
      </trkpt>
      <trkpt lat="5.351688" lon="-72.395999">
        <ele>353.00</ele>
        <time>2021-10-07T16:44:26Z</time>
      </trkpt>
      <trkpt lat="5.351691" lon="-72.395999">
        <ele>353.00</ele>
        <time>2021-10-07T16:44:28Z</time>
      </trkpt>
      <trkpt lat="5.351692" lon="-72.395999">
        <ele>353.00</ele>
        <time>2021-10-07T16:44:29Z</time>
      </trkpt>
      <trkpt lat="5.351694" lon="-72.395999">
        <ele>353.00</ele>
        <time>2021-10-07T16:44:31Z</time>
      </trkpt>
      <trkpt lat="5.351695" lon="-72.395998">
        <ele>353.00</ele>
        <time>2021-10-07T16:44:32Z</time>
      </trkpt>
      <trkpt lat="5.351697" lon="-72.395996">
        <ele>352.60</ele>
        <time>2021-10-07T16:44:34Z</time>
      </trkpt>
      <trkpt lat="5.351697" lon="-72.395992">
        <ele>352.60</ele>
        <time>2021-10-07T16:44:35Z</time>
      </trkpt>
      <trkpt lat="5.351698" lon="-72.395986">
        <ele>352.60</ele>
        <time>2021-10-07T16:44:37Z</time>
      </trkpt>
      <trkpt lat="5.351700" lon="-72.395983">
        <ele>352.60</ele>
        <time>2021-10-07T16:44:38Z</time>
      </trkpt>
      <trkpt lat="5.351706" lon="-72.395975">
        <ele>352.60</ele>
        <time>2021-10-07T16:44:40Z</time>
      </trkpt>
      <trkpt lat="5.351710" lon="-72.395970">
        <ele>352.60</ele>
        <time>2021-10-07T16:44:41Z</time>
      </trkpt>
      <trkpt lat="5.351713" lon="-72.395967">
        <ele>352.60</ele>
        <time>2021-10-07T16:44:42Z</time>
      </trkpt>
      <trkpt lat="5.351718" lon="-72.395963">
        <ele>352.60</ele>
        <time>2021-10-07T16:44:43Z</time>
      </trkpt>
      <trkpt lat="5.351721" lon="-72.395960">
        <ele>352.60</ele>
        <time>2021-10-07T16:44:45Z</time>
      </trkpt>
      <trkpt lat="5.351724" lon="-72.395958">
        <ele>352.60</ele>
        <time>2021-10-07T16:44:46Z</time>
      </trkpt>
      <trkpt lat="5.351728" lon="-72.395956">
        <ele>352.40</ele>
        <time>2021-10-07T16:44:48Z</time>
      </trkpt>
      <trkpt lat="5.351729" lon="-72.395955">
        <ele>352.40</ele>
        <time>2021-10-07T16:44:49Z</time>
      </trkpt>
      <trkpt lat="5.351729" lon="-72.395958">
        <ele>352.40</ele>
        <time>2021-10-07T16:44:50Z</time>
      </trkpt>
      <trkpt lat="5.351731" lon="-72.395968">
        <ele>352.40</ele>
        <time>2021-10-07T16:44:52Z</time>
      </trkpt>
      <trkpt lat="5.351736" lon="-72.395981">
        <ele>352.40</ele>
        <time>2021-10-07T16:44:53Z</time>
      </trkpt>
      <trkpt lat="5.351737" lon="-72.395987">
        <ele>352.40</ele>
        <time>2021-10-07T16:44:54Z</time>
      </trkpt>
      <trkpt lat="5.351741" lon="-72.395993">
        <ele>352.40</ele>
        <time>2021-10-07T16:44:55Z</time>
      </trkpt>
      <trkpt lat="5.351745" lon="-72.395996">
        <ele>352.40</ele>
        <time>2021-10-07T16:44:57Z</time>
      </trkpt>
      <trkpt lat="5.351748" lon="-72.396000">
        <ele>352.70</ele>
        <time>2021-10-07T16:44:59Z</time>
      </trkpt>
      <trkpt lat="5.351752" lon="-72.396003">
        <ele>352.70</ele>
        <time>2021-10-07T16:45:01Z</time>
      </trkpt>
      <trkpt lat="5.351756" lon="-72.396007">
        <ele>352.70</ele>
        <time>2021-10-07T16:45:02Z</time>
      </trkpt>
      <trkpt lat="5.351760" lon="-72.396010">
        <ele>352.70</ele>
        <time>2021-10-07T16:45:03Z</time>
      </trkpt>
      <trkpt lat="5.351763" lon="-72.396014">
        <ele>352.70</ele>
        <time>2021-10-07T16:45:04Z</time>
      </trkpt>
      <trkpt lat="5.351767" lon="-72.396017">
        <ele>352.70</ele>
        <time>2021-10-07T16:45:06Z</time>
      </trkpt>
      <trkpt lat="5.351771" lon="-72.396021">
        <ele>352.20</ele>
        <time>2021-10-07T16:45:07Z</time>
      </trkpt>
      <trkpt lat="5.351802" lon="-72.396038">
        <ele>352.20</ele>
        <time>2021-10-07T16:45:08Z</time>
      </trkpt>
      <trkpt lat="5.351812" lon="-72.396045">
        <ele>352.40</ele>
        <time>2021-10-07T16:45:09Z</time>
      </trkpt>
      <trkpt lat="5.351841" lon="-72.396070">
        <ele>351.60</ele>
        <time>2021-10-07T16:45:10Z</time>
      </trkpt>
      <trkpt lat="5.351850" lon="-72.396079">
        <ele>351.60</ele>
        <time>2021-10-07T16:45:11Z</time>
      </trkpt>
      <trkpt lat="5.351875" lon="-72.396104">
        <ele>350.90</ele>
        <time>2021-10-07T16:45:13Z</time>
      </trkpt>
      <trkpt lat="5.351880" lon="-72.396138">
        <ele>351.10</ele>
        <time>2021-10-07T16:45:14Z</time>
      </trkpt>
      <trkpt lat="5.351890" lon="-72.396185">
        <ele>351.40</ele>
        <time>2021-10-07T16:45:15Z</time>
      </trkpt>
      <trkpt lat="5.351899" lon="-72.396212">
        <ele>350.90</ele>
        <time>2021-10-07T16:45:16Z</time>
      </trkpt>
      <trkpt lat="5.351912" lon="-72.396246">
        <ele>350.90</ele>
        <time>2021-10-07T16:45:17Z</time>
      </trkpt>
      <trkpt lat="5.351926" lon="-72.396277">
        <ele>351.10</ele>
        <time>2021-10-07T16:45:18Z</time>
      </trkpt>
      <trkpt lat="5.351947" lon="-72.396325">
        <ele>350.40</ele>
        <time>2021-10-07T16:45:20Z</time>
      </trkpt>
      <trkpt lat="5.351959" lon="-72.396363">
        <ele>350.50</ele>
        <time>2021-10-07T16:45:22Z</time>
      </trkpt>
      <trkpt lat="5.351970" lon="-72.396393">
        <ele>350.60</ele>
        <time>2021-10-07T16:45:24Z</time>
      </trkpt>
      <trkpt lat="5.351985" lon="-72.396444">
        <ele>349.30</ele>
        <time>2021-10-07T16:45:26Z</time>
      </trkpt>
      <trkpt lat="5.351993" lon="-72.396472">
        <ele>349.30</ele>
        <time>2021-10-07T16:45:27Z</time>
      </trkpt>
      <trkpt lat="5.352004" lon="-72.396511">
        <ele>349.30</ele>
        <time>2021-10-07T16:45:29Z</time>
      </trkpt>
      <trkpt lat="5.352010" lon="-72.396545">
        <ele>349.20</ele>
        <time>2021-10-07T16:45:30Z</time>
      </trkpt>
      <trkpt lat="5.352012" lon="-72.396555">
        <ele>349.10</ele>
        <time>2021-10-07T16:45:31Z</time>
      </trkpt>
      <trkpt lat="5.352014" lon="-72.396572">
        <ele>349.10</ele>
        <time>2021-10-07T16:45:32Z</time>
      </trkpt>
      <trkpt lat="5.352010" lon="-72.396595">
        <ele>349.10</ele>
        <time>2021-10-07T16:45:34Z</time>
      </trkpt>
      <trkpt lat="5.351998" lon="-72.396609">
        <ele>349.00</ele>
        <time>2021-10-07T16:45:36Z</time>
      </trkpt>
      <trkpt lat="5.351994" lon="-72.396614">
        <ele>349.00</ele>
        <time>2021-10-07T16:45:37Z</time>
      </trkpt>
      <trkpt lat="5.351993" lon="-72.396620">
        <ele>349.00</ele>
        <time>2021-10-07T16:45:39Z</time>
      </trkpt>
      <trkpt lat="5.351993" lon="-72.396623">
        <ele>349.00</ele>
        <time>2021-10-07T16:45:40Z</time>
      </trkpt>
      <trkpt lat="5.351994" lon="-72.396631">
        <ele>349.00</ele>
        <time>2021-10-07T16:45:42Z</time>
      </trkpt>
      <trkpt lat="5.351995" lon="-72.396635">
        <ele>349.00</ele>
        <time>2021-10-07T16:45:43Z</time>
      </trkpt>
      <trkpt lat="5.352003" lon="-72.396644">
        <ele>348.90</ele>
        <time>2021-10-07T16:45:45Z</time>
      </trkpt>
      <trkpt lat="5.352022" lon="-72.396666">
        <ele>348.90</ele>
        <time>2021-10-07T16:45:47Z</time>
      </trkpt>
      <trkpt lat="5.352031" lon="-72.396679">
        <ele>347.10</ele>
        <time>2021-10-07T16:45:48Z</time>
      </trkpt>
      <trkpt lat="5.352042" lon="-72.396708">
        <ele>347.10</ele>
        <time>2021-10-07T16:45:50Z</time>
      </trkpt>
      <trkpt lat="5.352053" lon="-72.396743">
        <ele>347.10</ele>
        <time>2021-10-07T16:45:52Z</time>
      </trkpt>
      <trkpt lat="5.352076" lon="-72.396775">
        <ele>345.90</ele>
        <time>2021-10-07T16:45:54Z</time>
      </trkpt>
      <trkpt lat="5.352113" lon="-72.396820">
        <ele>345.00</ele>
        <time>2021-10-07T16:45:56Z</time>
      </trkpt>
      <trkpt lat="5.352126" lon="-72.396831">
        <ele>345.00</ele>
        <time>2021-10-07T16:45:57Z</time>
      </trkpt>
      <trkpt lat="5.352158" lon="-72.396855">
        <ele>343.90</ele>
        <time>2021-10-07T16:45:59Z</time>
      </trkpt>
      <trkpt lat="5.352177" lon="-72.396872">
        <ele>344.30</ele>
        <time>2021-10-07T16:46:00Z</time>
      </trkpt>
      <trkpt lat="5.352213" lon="-72.396907">
        <ele>343.80</ele>
        <time>2021-10-07T16:46:02Z</time>
      </trkpt>
      <trkpt lat="5.352259" lon="-72.396947">
        <ele>343.50</ele>
        <time>2021-10-07T16:46:04Z</time>
      </trkpt>
      <trkpt lat="5.352292" lon="-72.396981">
        <ele>342.80</ele>
        <time>2021-10-07T16:46:05Z</time>
      </trkpt>
      <trkpt lat="5.352329" lon="-72.397032">
        <ele>343.80</ele>
        <time>2021-10-07T16:46:07Z</time>
      </trkpt>
      <trkpt lat="5.352356" lon="-72.397087">
        <ele>344.40</ele>
        <time>2021-10-07T16:46:09Z</time>
      </trkpt>
      <trkpt lat="5.352363" lon="-72.397117">
        <ele>345.10</ele>
        <time>2021-10-07T16:46:10Z</time>
      </trkpt>
      <trkpt lat="5.352365" lon="-72.397145">
        <ele>345.10</ele>
        <time>2021-10-07T16:46:11Z</time>
      </trkpt>
      <trkpt lat="5.352371" lon="-72.397221">
        <ele>345.90</ele>
        <time>2021-10-07T16:46:13Z</time>
      </trkpt>
      <trkpt lat="5.352374" lon="-72.397313">
        <ele>346.40</ele>
        <time>2021-10-07T16:46:15Z</time>
      </trkpt>
      <trkpt lat="5.352375" lon="-72.397363">
        <ele>346.70</ele>
        <time>2021-10-07T16:46:16Z</time>
      </trkpt>
      <trkpt lat="5.352376" lon="-72.397460">
        <ele>347.50</ele>
        <time>2021-10-07T16:46:18Z</time>
      </trkpt>
      <trkpt lat="5.352403" lon="-72.397561">
        <ele>348.10</ele>
        <time>2021-10-07T16:46:20Z</time>
      </trkpt>
      <trkpt lat="5.352421" lon="-72.397614">
        <ele>348.00</ele>
        <time>2021-10-07T16:46:21Z</time>
      </trkpt>
      <trkpt lat="5.352438" lon="-72.397651">
        <ele>348.00</ele>
        <time>2021-10-07T16:46:22Z</time>
      </trkpt>
      <trkpt lat="5.352458" lon="-72.397693">
        <ele>347.70</ele>
        <time>2021-10-07T16:46:23Z</time>
      </trkpt>
      <trkpt lat="5.352506" lon="-72.397788">
        <ele>347.50</ele>
        <time>2021-10-07T16:46:25Z</time>
      </trkpt>
      <trkpt lat="5.352540" lon="-72.397892">
        <ele>348.00</ele>
        <time>2021-10-07T16:46:27Z</time>
      </trkpt>
      <trkpt lat="5.352553" lon="-72.397962">
        <ele>348.10</ele>
        <time>2021-10-07T16:46:28Z</time>
      </trkpt>
      <trkpt lat="5.352559" lon="-72.398037">
        <ele>348.20</ele>
        <time>2021-10-07T16:46:29Z</time>
      </trkpt>
      <trkpt lat="5.352558" lon="-72.398164">
        <ele>348.00</ele>
        <time>2021-10-07T16:46:31Z</time>
      </trkpt>
      <trkpt lat="5.352545" lon="-72.398269">
        <ele>348.00</ele>
        <time>2021-10-07T16:46:33Z</time>
      </trkpt>
      <trkpt lat="5.352552" lon="-72.398340">
        <ele>347.90</ele>
        <time>2021-10-07T16:46:35Z</time>
      </trkpt>
      <trkpt lat="5.352567" lon="-72.398391">
        <ele>347.90</ele>
        <time>2021-10-07T16:46:36Z</time>
      </trkpt>
      <trkpt lat="5.352584" lon="-72.398431">
        <ele>348.00</ele>
        <time>2021-10-07T16:46:37Z</time>
      </trkpt>
      <trkpt lat="5.352619" lon="-72.398512">
        <ele>348.00</ele>
        <time>2021-10-07T16:46:39Z</time>
      </trkpt>
      <trkpt lat="5.352629" lon="-72.398592">
        <ele>347.70</ele>
        <time>2021-10-07T16:46:41Z</time>
      </trkpt>
      <trkpt lat="5.352626" lon="-72.398639">
        <ele>347.60</ele>
        <time>2021-10-07T16:46:42Z</time>
      </trkpt>
      <trkpt lat="5.352625" lon="-72.398692">
        <ele>347.60</ele>
        <time>2021-10-07T16:46:43Z</time>
      </trkpt>
      <trkpt lat="5.352633" lon="-72.398805">
        <ele>347.80</ele>
        <time>2021-10-07T16:46:45Z</time>
      </trkpt>
      <trkpt lat="5.352654" lon="-72.398905">
        <ele>348.30</ele>
        <time>2021-10-07T16:46:47Z</time>
      </trkpt>
      <trkpt lat="5.352659" lon="-72.398947">
        <ele>348.50</ele>
        <time>2021-10-07T16:46:48Z</time>
      </trkpt>
      <trkpt lat="5.352669" lon="-72.399033">
        <ele>348.90</ele>
        <time>2021-10-07T16:46:50Z</time>
      </trkpt>
      <trkpt lat="5.352698" lon="-72.399101">
        <ele>349.60</ele>
        <time>2021-10-07T16:46:52Z</time>
      </trkpt>
      <trkpt lat="5.352737" lon="-72.399162">
        <ele>350.10</ele>
        <time>2021-10-07T16:46:54Z</time>
      </trkpt>
      <trkpt lat="5.352770" lon="-72.399216">
        <ele>350.70</ele>
        <time>2021-10-07T16:46:56Z</time>
      </trkpt>
      <trkpt lat="5.352784" lon="-72.399248">
        <ele>350.70</ele>
        <time>2021-10-07T16:46:57Z</time>
      </trkpt>
      <trkpt lat="5.352801" lon="-72.399332">
        <ele>350.70</ele>
        <time>2021-10-07T16:46:59Z</time>
      </trkpt>
      <trkpt lat="5.352807" lon="-72.399430">
        <ele>350.60</ele>
        <time>2021-10-07T16:47:01Z</time>
      </trkpt>
      <trkpt lat="5.352820" lon="-72.399514">
        <ele>350.70</ele>
        <time>2021-10-07T16:47:03Z</time>
      </trkpt>
      <trkpt lat="5.352844" lon="-72.399575">
        <ele>351.00</ele>
        <time>2021-10-07T16:47:05Z</time>
      </trkpt>
      <trkpt lat="5.352859" lon="-72.399607">
        <ele>351.40</ele>
        <time>2021-10-07T16:47:06Z</time>
      </trkpt>
      <trkpt lat="5.352877" lon="-72.399666">
        <ele>351.70</ele>
        <time>2021-10-07T16:47:08Z</time>
      </trkpt>
      <trkpt lat="5.352878" lon="-72.399697">
        <ele>351.80</ele>
        <time>2021-10-07T16:47:09Z</time>
      </trkpt>
      <trkpt lat="5.352863" lon="-72.399752">
        <ele>351.80</ele>
        <time>2021-10-07T16:47:11Z</time>
      </trkpt>
      <trkpt lat="5.352848" lon="-72.399801">
        <ele>351.90</ele>
        <time>2021-10-07T16:47:13Z</time>
      </trkpt>
      <trkpt lat="5.352854" lon="-72.399835">
        <ele>352.10</ele>
        <time>2021-10-07T16:47:15Z</time>
      </trkpt>
      <trkpt lat="5.352878" lon="-72.399872">
        <ele>352.40</ele>
        <time>2021-10-07T16:47:17Z</time>
      </trkpt>
      <trkpt lat="5.352894" lon="-72.399889">
        <ele>351.80</ele>
        <time>2021-10-07T16:47:18Z</time>
      </trkpt>
      <trkpt lat="5.352931" lon="-72.399946">
        <ele>352.80</ele>
        <time>2021-10-07T16:47:20Z</time>
      </trkpt>
      <trkpt lat="5.352952" lon="-72.399984">
        <ele>352.80</ele>
        <time>2021-10-07T16:47:21Z</time>
      </trkpt>
      <trkpt lat="5.352994" lon="-72.400077">
        <ele>354.20</ele>
        <time>2021-10-07T16:47:23Z</time>
      </trkpt>
      <trkpt lat="5.353007" lon="-72.400117">
        <ele>354.60</ele>
        <time>2021-10-07T16:47:24Z</time>
      </trkpt>
      <trkpt lat="5.353033" lon="-72.400200">
        <ele>354.70</ele>
        <time>2021-10-07T16:47:26Z</time>
      </trkpt>
      <trkpt lat="5.353043" lon="-72.400237">
        <ele>355.00</ele>
        <time>2021-10-07T16:47:27Z</time>
      </trkpt>
      <trkpt lat="5.353058" lon="-72.400290">
        <ele>355.20</ele>
        <time>2021-10-07T16:47:29Z</time>
      </trkpt>
      <trkpt lat="5.353080" lon="-72.400327">
        <ele>355.20</ele>
        <time>2021-10-07T16:47:31Z</time>
      </trkpt>
      <trkpt lat="5.353101" lon="-72.400355">
        <ele>354.90</ele>
        <time>2021-10-07T16:47:33Z</time>
      </trkpt>
      <trkpt lat="5.353124" lon="-72.400392">
        <ele>354.70</ele>
        <time>2021-10-07T16:47:35Z</time>
      </trkpt>
      <trkpt lat="5.353171" lon="-72.400442">
        <ele>354.20</ele>
        <time>2021-10-07T16:47:37Z</time>
      </trkpt>
      <trkpt lat="5.353232" lon="-72.400525">
        <ele>353.90</ele>
        <time>2021-10-07T16:47:39Z</time>
      </trkpt>
      <trkpt lat="5.353304" lon="-72.400629">
        <ele>354.10</ele>
        <time>2021-10-07T16:47:41Z</time>
      </trkpt>
      <trkpt lat="5.353397" lon="-72.400752">
        <ele>354.10</ele>
        <time>2021-10-07T16:47:43Z</time>
      </trkpt>
      <trkpt lat="5.353476" lon="-72.400861">
        <ele>354.10</ele>
        <time>2021-10-07T16:47:45Z</time>
      </trkpt>
      <trkpt lat="5.353506" lon="-72.400925">
        <ele>354.10</ele>
        <time>2021-10-07T16:47:46Z</time>
      </trkpt>
      <trkpt lat="5.353537" lon="-72.400988">
        <ele>353.60</ele>
        <time>2021-10-07T16:47:47Z</time>
      </trkpt>
      <trkpt lat="5.353566" lon="-72.401049">
        <ele>353.10</ele>
        <time>2021-10-07T16:47:48Z</time>
      </trkpt>
      <trkpt lat="5.353640" lon="-72.401137">
        <ele>352.60</ele>
        <time>2021-10-07T16:47:50Z</time>
      </trkpt>
      <trkpt lat="5.353669" lon="-72.401166">
        <ele>352.40</ele>
        <time>2021-10-07T16:47:51Z</time>
      </trkpt>
      <trkpt lat="5.353732" lon="-72.401241">
        <ele>352.20</ele>
        <time>2021-10-07T16:47:53Z</time>
      </trkpt>
      <trkpt lat="5.353775" lon="-72.401276">
        <ele>351.90</ele>
        <time>2021-10-07T16:47:55Z</time>
      </trkpt>
      <trkpt lat="5.353802" lon="-72.401284">
        <ele>351.80</ele>
        <time>2021-10-07T16:47:56Z</time>
      </trkpt>
      <trkpt lat="5.353854" lon="-72.401295">
        <ele>351.80</ele>
        <time>2021-10-07T16:47:58Z</time>
      </trkpt>
      <trkpt lat="5.353887" lon="-72.401300">
        <ele>351.80</ele>
        <time>2021-10-07T16:47:59Z</time>
      </trkpt>
      <trkpt lat="5.353910" lon="-72.401307">
        <ele>351.80</ele>
        <time>2021-10-07T16:48:00Z</time>
      </trkpt>
      <trkpt lat="5.353934" lon="-72.401324">
        <ele>352.00</ele>
        <time>2021-10-07T16:48:02Z</time>
      </trkpt>
      <trkpt lat="5.353955" lon="-72.401334">
        <ele>351.80</ele>
        <time>2021-10-07T16:48:03Z</time>
      </trkpt>
      <trkpt lat="5.353988" lon="-72.401359">
        <ele>351.80</ele>
        <time>2021-10-07T16:48:05Z</time>
      </trkpt>
      <trkpt lat="5.353994" lon="-72.401374">
        <ele>351.60</ele>
        <time>2021-10-07T16:48:06Z</time>
      </trkpt>
      <trkpt lat="5.354001" lon="-72.401390">
        <ele>351.60</ele>
        <time>2021-10-07T16:48:07Z</time>
      </trkpt>
      <trkpt lat="5.354008" lon="-72.401406">
        <ele>351.50</ele>
        <time>2021-10-07T16:48:08Z</time>
      </trkpt>
      <trkpt lat="5.354017" lon="-72.401420">
        <ele>351.50</ele>
        <time>2021-10-07T16:48:10Z</time>
      </trkpt>
      <trkpt lat="5.354020" lon="-72.401422">
        <ele>351.50</ele>
        <time>2021-10-07T16:48:11Z</time>
      </trkpt>
      <trkpt lat="5.354021" lon="-72.401422">
        <ele>351.50</ele>
        <time>2021-10-07T16:48:12Z</time>
      </trkpt>
      <trkpt lat="5.354028" lon="-72.401426">
        <ele>351.50</ele>
        <time>2021-10-07T16:48:14Z</time>
      </trkpt>
      <trkpt lat="5.354051" lon="-72.401447">
        <ele>351.20</ele>
        <time>2021-10-07T16:48:16Z</time>
      </trkpt>
      <trkpt lat="5.354065" lon="-72.401460">
        <ele>351.10</ele>
        <time>2021-10-07T16:48:18Z</time>
      </trkpt>
      <trkpt lat="5.354071" lon="-72.401456">
        <ele>351.10</ele>
        <time>2021-10-07T16:48:19Z</time>
      </trkpt>
      <trkpt lat="5.354078" lon="-72.401452">
        <ele>351.00</ele>
        <time>2021-10-07T16:48:21Z</time>
      </trkpt>
      <trkpt lat="5.354081" lon="-72.401456">
        <ele>351.00</ele>
        <time>2021-10-07T16:48:22Z</time>
      </trkpt>
      <trkpt lat="5.354083" lon="-72.401462">
        <ele>351.00</ele>
        <time>2021-10-07T16:48:23Z</time>
      </trkpt>
      <trkpt lat="5.354083" lon="-72.401463">
        <ele>351.00</ele>
        <time>2021-10-07T16:48:24Z</time>
      </trkpt>
      <trkpt lat="5.354083" lon="-72.401464">
        <ele>351.00</ele>
        <time>2021-10-07T16:48:25Z</time>
      </trkpt>
      <trkpt lat="5.354083" lon="-72.401465">
        <ele>351.00</ele>
        <time>2021-10-07T16:48:27Z</time>
      </trkpt>
      <trkpt lat="5.354082" lon="-72.401465">
        <ele>351.00</ele>
        <time>2021-10-07T16:48:29Z</time>
      </trkpt>
      <trkpt lat="5.354082" lon="-72.401465">
        <ele>351.00</ele>
        <time>2021-10-07T16:48:30Z</time>
      </trkpt>
      <trkpt lat="5.354082" lon="-72.401465">
        <ele>351.00</ele>
        <time>2021-10-07T16:48:32Z</time>
      </trkpt>
      <trkpt lat="5.354102" lon="-72.401474">
        <ele>351.00</ele>
        <time>2021-10-07T16:48:50Z</time>
      </trkpt>
      <trkpt lat="5.354101" lon="-72.401474">
        <ele>351.00</ele>
        <time>2021-10-07T16:48:52Z</time>
      </trkpt>
      <trkpt lat="5.354116" lon="-72.401480">
        <ele>351.00</ele>
        <time>2021-10-07T16:48:54Z</time>
      </trkpt>
      <trkpt lat="5.354139" lon="-72.401495">
        <ele>351.00</ele>
        <time>2021-10-07T16:48:56Z</time>
      </trkpt>
      <trkpt lat="5.354148" lon="-72.401507">
        <ele>351.00</ele>
        <time>2021-10-07T16:48:57Z</time>
      </trkpt>
      <trkpt lat="5.354159" lon="-72.401520">
        <ele>351.00</ele>
        <time>2021-10-07T16:48:58Z</time>
      </trkpt>
      <trkpt lat="5.354164" lon="-72.401528">
        <ele>351.20</ele>
        <time>2021-10-07T16:48:59Z</time>
      </trkpt>
      <trkpt lat="5.354168" lon="-72.401544">
        <ele>351.40</ele>
        <time>2021-10-07T16:49:00Z</time>
      </trkpt>
      <trkpt lat="5.354167" lon="-72.401583">
        <ele>351.60</ele>
        <time>2021-10-07T16:49:02Z</time>
      </trkpt>
      <trkpt lat="5.354164" lon="-72.401603">
        <ele>351.60</ele>
        <time>2021-10-07T16:49:03Z</time>
      </trkpt>
      <trkpt lat="5.354155" lon="-72.401634">
        <ele>351.60</ele>
        <time>2021-10-07T16:49:05Z</time>
      </trkpt>
      <trkpt lat="5.354148" lon="-72.401651">
        <ele>351.60</ele>
        <time>2021-10-07T16:49:06Z</time>
      </trkpt>
      <trkpt lat="5.354138" lon="-72.401676">
        <ele>352.00</ele>
        <time>2021-10-07T16:49:08Z</time>
      </trkpt>
      <trkpt lat="5.354135" lon="-72.401709">
        <ele>352.30</ele>
        <time>2021-10-07T16:49:10Z</time>
      </trkpt>
      <trkpt lat="5.354128" lon="-72.401755">
        <ele>352.70</ele>
        <time>2021-10-07T16:49:12Z</time>
      </trkpt>
      <trkpt lat="5.354125" lon="-72.401780">
        <ele>352.70</ele>
        <time>2021-10-07T16:49:13Z</time>
      </trkpt>
      <trkpt lat="5.354121" lon="-72.401842">
        <ele>353.10</ele>
        <time>2021-10-07T16:49:15Z</time>
      </trkpt>
      <trkpt lat="5.354120" lon="-72.401879">
        <ele>353.10</ele>
        <time>2021-10-07T16:49:16Z</time>
      </trkpt>
      <trkpt lat="5.354121" lon="-72.401949">
        <ele>353.00</ele>
        <time>2021-10-07T16:49:18Z</time>
      </trkpt>
      <trkpt lat="5.354139" lon="-72.402025">
        <ele>352.30</ele>
        <time>2021-10-07T16:49:20Z</time>
      </trkpt>
      <trkpt lat="5.354153" lon="-72.402068">
        <ele>351.90</ele>
        <time>2021-10-07T16:49:21Z</time>
      </trkpt>
      <trkpt lat="5.354171" lon="-72.402125">
        <ele>351.70</ele>
        <time>2021-10-07T16:49:22Z</time>
      </trkpt>
      <trkpt lat="5.354215" lon="-72.402239">
        <ele>350.80</ele>
        <time>2021-10-07T16:49:24Z</time>
      </trkpt>
      <trkpt lat="5.354231" lon="-72.402295">
        <ele>350.70</ele>
        <time>2021-10-07T16:49:25Z</time>
      </trkpt>
      <trkpt lat="5.354255" lon="-72.402411">
        <ele>351.10</ele>
        <time>2021-10-07T16:49:27Z</time>
      </trkpt>
      <trkpt lat="5.354275" lon="-72.402531">
        <ele>351.90</ele>
        <time>2021-10-07T16:49:29Z</time>
      </trkpt>
      <trkpt lat="5.354281" lon="-72.402589">
        <ele>352.40</ele>
        <time>2021-10-07T16:49:30Z</time>
      </trkpt>
      <trkpt lat="5.354284" lon="-72.402707">
        <ele>353.90</ele>
        <time>2021-10-07T16:49:32Z</time>
      </trkpt>
      <trkpt lat="5.354292" lon="-72.402824">
        <ele>354.50</ele>
        <time>2021-10-07T16:49:34Z</time>
      </trkpt>
      <trkpt lat="5.354321" lon="-72.402902">
        <ele>354.60</ele>
        <time>2021-10-07T16:49:36Z</time>
      </trkpt>
      <trkpt lat="5.354332" lon="-72.402922">
        <ele>354.70</ele>
        <time>2021-10-07T16:49:37Z</time>
      </trkpt>
      <trkpt lat="5.354354" lon="-72.402967">
        <ele>354.30</ele>
        <time>2021-10-07T16:49:39Z</time>
      </trkpt>
      <trkpt lat="5.354367" lon="-72.402995">
        <ele>354.30</ele>
        <time>2021-10-07T16:49:40Z</time>
      </trkpt>
      <trkpt lat="5.354405" lon="-72.403072">
        <ele>353.80</ele>
        <time>2021-10-07T16:49:42Z</time>
      </trkpt>
      <trkpt lat="5.354421" lon="-72.403119">
        <ele>353.10</ele>
        <time>2021-10-07T16:49:44Z</time>
      </trkpt>
      <trkpt lat="5.354441" lon="-72.403214">
        <ele>352.20</ele>
        <time>2021-10-07T16:49:46Z</time>
      </trkpt>
      <trkpt lat="5.354450" lon="-72.403348">
        <ele>351.80</ele>
        <time>2021-10-07T16:49:48Z</time>
      </trkpt>
      <trkpt lat="5.354457" lon="-72.403511">
        <ele>353.20</ele>
        <time>2021-10-07T16:49:50Z</time>
      </trkpt>
      <trkpt lat="5.354458" lon="-72.403583">
        <ele>353.70</ele>
        <time>2021-10-07T16:49:51Z</time>
      </trkpt>
      <trkpt lat="5.354451" lon="-72.403650">
        <ele>354.50</ele>
        <time>2021-10-07T16:49:52Z</time>
      </trkpt>
      <trkpt lat="5.354438" lon="-72.403706">
        <ele>354.80</ele>
        <time>2021-10-07T16:49:53Z</time>
      </trkpt>
      <trkpt lat="5.354414" lon="-72.403767">
        <ele>354.90</ele>
        <time>2021-10-07T16:49:55Z</time>
      </trkpt>
      <trkpt lat="5.354400" lon="-72.403802">
        <ele>354.90</ele>
        <time>2021-10-07T16:49:56Z</time>
      </trkpt>
      <trkpt lat="5.354365" lon="-72.403824">
        <ele>355.00</ele>
        <time>2021-10-07T16:49:58Z</time>
      </trkpt>
      <trkpt lat="5.354375" lon="-72.403891">
        <ele>355.10</ele>
        <time>2021-10-07T16:50:00Z</time>
      </trkpt>
      <trkpt lat="5.354375" lon="-72.403893">
        <ele>355.10</ele>
        <time>2021-10-07T16:50:01Z</time>
      </trkpt>
      <trkpt lat="5.354371" lon="-72.403893">
        <ele>355.10</ele>
        <time>2021-10-07T16:50:03Z</time>
      </trkpt>
      <trkpt lat="5.354357" lon="-72.403891">
        <ele>355.10</ele>
        <time>2021-10-07T16:50:04Z</time>
      </trkpt>
      <trkpt lat="5.354331" lon="-72.403861">
        <ele>355.40</ele>
        <time>2021-10-07T16:50:05Z</time>
      </trkpt>
      <trkpt lat="5.354270" lon="-72.403802">
        <ele>355.30</ele>
        <time>2021-10-07T16:50:07Z</time>
      </trkpt>
      <trkpt lat="5.354225" lon="-72.403767">
        <ele>355.70</ele>
        <time>2021-10-07T16:50:08Z</time>
      </trkpt>
      <trkpt lat="5.354184" lon="-72.403729">
        <ele>355.70</ele>
        <time>2021-10-07T16:50:09Z</time>
      </trkpt>
      <trkpt lat="5.354139" lon="-72.403679">
        <ele>356.00</ele>
        <time>2021-10-07T16:50:10Z</time>
      </trkpt>
      <trkpt lat="5.354103" lon="-72.403646">
        <ele>356.60</ele>
        <time>2021-10-07T16:50:12Z</time>
      </trkpt>
      <trkpt lat="5.354073" lon="-72.403623">
        <ele>357.60</ele>
        <time>2021-10-07T16:50:13Z</time>
      </trkpt>
      <trkpt lat="5.354036" lon="-72.403589">
        <ele>357.60</ele>
        <time>2021-10-07T16:50:14Z</time>
      </trkpt>
      <trkpt lat="5.354007" lon="-72.403558">
        <ele>358.90</ele>
        <time>2021-10-07T16:50:16Z</time>
      </trkpt>
      <trkpt lat="5.353986" lon="-72.403528">
        <ele>360.00</ele>
        <time>2021-10-07T16:50:17Z</time>
      </trkpt>
      <trkpt lat="5.353968" lon="-72.403493">
        <ele>359.70</ele>
        <time>2021-10-07T16:50:18Z</time>
      </trkpt>
      <trkpt lat="5.353944" lon="-72.403451">
        <ele>360.40</ele>
        <time>2021-10-07T16:50:19Z</time>
      </trkpt>
      <trkpt lat="5.353918" lon="-72.403414">
        <ele>360.10</ele>
        <time>2021-10-07T16:50:21Z</time>
      </trkpt>
      <trkpt lat="5.353899" lon="-72.403383">
        <ele>361.00</ele>
        <time>2021-10-07T16:50:22Z</time>
      </trkpt>
      <trkpt lat="5.353894" lon="-72.403375">
        <ele>360.80</ele>
        <time>2021-10-07T16:50:23Z</time>
      </trkpt>
      <trkpt lat="5.353875" lon="-72.403350">
        <ele>360.80</ele>
        <time>2021-10-07T16:50:24Z</time>
      </trkpt>
      <trkpt lat="5.353859" lon="-72.403330">
        <ele>361.40</ele>
        <time>2021-10-07T16:50:25Z</time>
      </trkpt>
      <trkpt lat="5.353831" lon="-72.403290">
        <ele>361.10</ele>
        <time>2021-10-07T16:50:27Z</time>
      </trkpt>
      <trkpt lat="5.353795" lon="-72.403236">
        <ele>361.30</ele>
        <time>2021-10-07T16:50:29Z</time>
      </trkpt>
      <trkpt lat="5.353776" lon="-72.403197">
        <ele>361.10</ele>
        <time>2021-10-07T16:50:30Z</time>
      </trkpt>
      <trkpt lat="5.353764" lon="-72.403158">
        <ele>360.30</ele>
        <time>2021-10-07T16:50:31Z</time>
      </trkpt>
      <trkpt lat="5.353755" lon="-72.403064">
        <ele>358.90</ele>
        <time>2021-10-07T16:50:33Z</time>
      </trkpt>
      <trkpt lat="5.353725" lon="-72.402953">
        <ele>359.00</ele>
        <time>2021-10-07T16:50:35Z</time>
      </trkpt>
      <trkpt lat="5.353707" lon="-72.402897">
        <ele>358.90</ele>
        <time>2021-10-07T16:50:36Z</time>
      </trkpt>
      <trkpt lat="5.353665" lon="-72.402789">
        <ele>359.40</ele>
        <time>2021-10-07T16:50:38Z</time>
      </trkpt>
      <trkpt lat="5.353639" lon="-72.402734">
        <ele>359.30</ele>
        <time>2021-10-07T16:50:39Z</time>
      </trkpt>
      <trkpt lat="5.353598" lon="-72.402627">
        <ele>358.40</ele>
        <time>2021-10-07T16:50:41Z</time>
      </trkpt>
      <trkpt lat="5.353577" lon="-72.402560">
        <ele>356.80</ele>
        <time>2021-10-07T16:50:42Z</time>
      </trkpt>
      <trkpt lat="5.353564" lon="-72.402515">
        <ele>356.50</ele>
        <time>2021-10-07T16:50:44Z</time>
      </trkpt>
      <trkpt lat="5.353546" lon="-72.402468">
        <ele>355.90</ele>
        <time>2021-10-07T16:50:45Z</time>
      </trkpt>
      <trkpt lat="5.353536" lon="-72.402440">
        <ele>355.90</ele>
        <time>2021-10-07T16:50:46Z</time>
      </trkpt>
      <trkpt lat="5.353529" lon="-72.402418">
        <ele>355.50</ele>
        <time>2021-10-07T16:50:47Z</time>
      </trkpt>
      <trkpt lat="5.353531" lon="-72.402416">
        <ele>355.50</ele>
        <time>2021-10-07T16:50:48Z</time>
      </trkpt>
      <trkpt lat="5.353531" lon="-72.402403">
        <ele>355.50</ele>
        <time>2021-10-07T16:50:50Z</time>
      </trkpt>
      <trkpt lat="5.353532" lon="-72.402385">
        <ele>355.20</ele>
        <time>2021-10-07T16:50:51Z</time>
      </trkpt>
      <trkpt lat="5.353534" lon="-72.402368">
        <ele>355.20</ele>
        <time>2021-10-07T16:50:52Z</time>
      </trkpt>
      <trkpt lat="5.353529" lon="-72.402339">
        <ele>354.90</ele>
        <time>2021-10-07T16:50:54Z</time>
      </trkpt>
      <trkpt lat="5.353511" lon="-72.402300">
        <ele>355.40</ele>
        <time>2021-10-07T16:50:56Z</time>
      </trkpt>
      <trkpt lat="5.353481" lon="-72.402259">
        <ele>355.40</ele>
        <time>2021-10-07T16:50:57Z</time>
      </trkpt>
      <trkpt lat="5.353462" lon="-72.402228">
        <ele>355.90</ele>
        <time>2021-10-07T16:50:58Z</time>
      </trkpt>
      <trkpt lat="5.353440" lon="-72.402195">
        <ele>355.90</ele>
        <time>2021-10-07T16:51:00Z</time>
      </trkpt>
      <trkpt lat="5.353426" lon="-72.402165">
        <ele>356.20</ele>
        <time>2021-10-07T16:51:01Z</time>
      </trkpt>
      <trkpt lat="5.353409" lon="-72.402132">
        <ele>356.00</ele>
        <time>2021-10-07T16:51:02Z</time>
      </trkpt>
      <trkpt lat="5.353372" lon="-72.402069">
        <ele>356.10</ele>
        <time>2021-10-07T16:51:04Z</time>
      </trkpt>
      <trkpt lat="5.353337" lon="-72.401995">
        <ele>356.10</ele>
        <time>2021-10-07T16:51:06Z</time>
      </trkpt>
      <trkpt lat="5.353313" lon="-72.401962">
        <ele>356.00</ele>
        <time>2021-10-07T16:51:07Z</time>
      </trkpt>
      <trkpt lat="5.353274" lon="-72.401902">
        <ele>356.80</ele>
        <time>2021-10-07T16:51:09Z</time>
      </trkpt>
      <trkpt lat="5.353255" lon="-72.401858">
        <ele>357.60</ele>
        <time>2021-10-07T16:51:10Z</time>
      </trkpt>
      <trkpt lat="5.353176" lon="-72.401699">
        <ele>359.00</ele>
        <time>2021-10-07T16:51:12Z</time>
      </trkpt>
      <trkpt lat="5.353140" lon="-72.401637">
        <ele>359.10</ele>
        <time>2021-10-07T16:51:13Z</time>
      </trkpt>
      <trkpt lat="5.353101" lon="-72.401582">
        <ele>359.90</ele>
        <time>2021-10-07T16:51:14Z</time>
      </trkpt>
      <trkpt lat="5.353041" lon="-72.401492">
        <ele>360.40</ele>
        <time>2021-10-07T16:51:16Z</time>
      </trkpt>
      <trkpt lat="5.353014" lon="-72.401459">
        <ele>360.10</ele>
        <time>2021-10-07T16:51:17Z</time>
      </trkpt>
      <trkpt lat="5.352978" lon="-72.401408">
        <ele>359.70</ele>
        <time>2021-10-07T16:51:19Z</time>
      </trkpt>
      <trkpt lat="5.352935" lon="-72.401343">
        <ele>358.80</ele>
        <time>2021-10-07T16:51:21Z</time>
      </trkpt>
      <trkpt lat="5.352916" lon="-72.401308">
        <ele>358.50</ele>
        <time>2021-10-07T16:51:22Z</time>
      </trkpt>
      <trkpt lat="5.352885" lon="-72.401251">
        <ele>358.00</ele>
        <time>2021-10-07T16:51:24Z</time>
      </trkpt>
      <trkpt lat="5.352858" lon="-72.401209">
        <ele>357.70</ele>
        <time>2021-10-07T16:51:25Z</time>
      </trkpt>
      <trkpt lat="5.352828" lon="-72.401157">
        <ele>357.60</ele>
        <time>2021-10-07T16:51:27Z</time>
      </trkpt>
      <trkpt lat="5.352814" lon="-72.401120">
        <ele>357.20</ele>
        <time>2021-10-07T16:51:28Z</time>
      </trkpt>
      <trkpt lat="5.352810" lon="-72.401088">
        <ele>356.90</ele>
        <time>2021-10-07T16:51:29Z</time>
      </trkpt>
      <trkpt lat="5.352812" lon="-72.401046">
        <ele>356.60</ele>
        <time>2021-10-07T16:51:31Z</time>
      </trkpt>
      <trkpt lat="5.352819" lon="-72.401025">
        <ele>356.60</ele>
        <time>2021-10-07T16:51:32Z</time>
      </trkpt>
      <trkpt lat="5.352827" lon="-72.401006">
        <ele>356.20</ele>
        <time>2021-10-07T16:51:34Z</time>
      </trkpt>
      <trkpt lat="5.352830" lon="-72.400989">
        <ele>356.20</ele>
        <time>2021-10-07T16:51:35Z</time>
      </trkpt>
      <trkpt lat="5.352829" lon="-72.400979">
        <ele>356.20</ele>
        <time>2021-10-07T16:51:36Z</time>
      </trkpt>
      <trkpt lat="5.352829" lon="-72.400973">
        <ele>355.80</ele>
        <time>2021-10-07T16:51:37Z</time>
      </trkpt>
      <trkpt lat="5.352829" lon="-72.400968">
        <ele>355.80</ele>
        <time>2021-10-07T16:51:38Z</time>
      </trkpt>
      <trkpt lat="5.352825" lon="-72.400950">
        <ele>355.80</ele>
        <time>2021-10-07T16:51:40Z</time>
      </trkpt>
      <trkpt lat="5.352813" lon="-72.400923">
        <ele>355.40</ele>
        <time>2021-10-07T16:51:42Z</time>
      </trkpt>
      <trkpt lat="5.352799" lon="-72.400892">
        <ele>355.40</ele>
        <time>2021-10-07T16:51:43Z</time>
      </trkpt>
      <trkpt lat="5.352787" lon="-72.400866">
        <ele>355.80</ele>
        <time>2021-10-07T16:51:44Z</time>
      </trkpt>
      <trkpt lat="5.352759" lon="-72.400834">
        <ele>355.90</ele>
        <time>2021-10-07T16:51:46Z</time>
      </trkpt>
      <trkpt lat="5.352747" lon="-72.400806">
        <ele>356.60</ele>
        <time>2021-10-07T16:51:47Z</time>
      </trkpt>
      <trkpt lat="5.352730" lon="-72.400782">
        <ele>357.00</ele>
        <time>2021-10-07T16:51:48Z</time>
      </trkpt>
      <trkpt lat="5.352724" lon="-72.400775">
        <ele>357.00</ele>
        <time>2021-10-07T16:51:49Z</time>
      </trkpt>
      <trkpt lat="5.352707" lon="-72.400758">
        <ele>358.30</ele>
        <time>2021-10-07T16:51:50Z</time>
      </trkpt>
      <trkpt lat="5.352680" lon="-72.400724">
        <ele>358.30</ele>
        <time>2021-10-07T16:51:52Z</time>
      </trkpt>
      <trkpt lat="5.352661" lon="-72.400692">
        <ele>359.30</ele>
        <time>2021-10-07T16:51:53Z</time>
      </trkpt>
      <trkpt lat="5.352656" lon="-72.400683">
        <ele>359.30</ele>
        <time>2021-10-07T16:51:54Z</time>
      </trkpt>
      <trkpt lat="5.352649" lon="-72.400655">
        <ele>359.50</ele>
        <time>2021-10-07T16:51:56Z</time>
      </trkpt>
      <trkpt lat="5.352651" lon="-72.400632">
        <ele>359.50</ele>
        <time>2021-10-07T16:51:57Z</time>
      </trkpt>
      <trkpt lat="5.352654" lon="-72.400599">
        <ele>359.50</ele>
        <time>2021-10-07T16:51:59Z</time>
      </trkpt>
      <trkpt lat="5.352654" lon="-72.400582">
        <ele>359.30</ele>
        <time>2021-10-07T16:52:00Z</time>
      </trkpt>
      <trkpt lat="5.352655" lon="-72.400569">
        <ele>359.30</ele>
        <time>2021-10-07T16:52:01Z</time>
      </trkpt>
      <trkpt lat="5.352653" lon="-72.400563">
        <ele>359.30</ele>
        <time>2021-10-07T16:52:02Z</time>
      </trkpt>
      <trkpt lat="5.352653" lon="-72.400544">
        <ele>359.00</ele>
        <time>2021-10-07T16:52:04Z</time>
      </trkpt>
      <trkpt lat="5.352651" lon="-72.400505">
        <ele>359.00</ele>
        <time>2021-10-07T16:52:06Z</time>
      </trkpt>
      <trkpt lat="5.352633" lon="-72.400482">
        <ele>358.70</ele>
        <time>2021-10-07T16:52:08Z</time>
      </trkpt>
      <trkpt lat="5.352629" lon="-72.400475">
        <ele>358.70</ele>
        <time>2021-10-07T16:52:09Z</time>
      </trkpt>
      <trkpt lat="5.352618" lon="-72.400456">
        <ele>358.60</ele>
        <time>2021-10-07T16:52:10Z</time>
      </trkpt>
      <trkpt lat="5.352594" lon="-72.400411">
        <ele>358.30</ele>
        <time>2021-10-07T16:52:12Z</time>
      </trkpt>
      <trkpt lat="5.352560" lon="-72.400368">
        <ele>358.40</ele>
        <time>2021-10-07T16:52:13Z</time>
      </trkpt>
      <trkpt lat="5.352532" lon="-72.400329">
        <ele>358.50</ele>
        <time>2021-10-07T16:52:15Z</time>
      </trkpt>
      <trkpt lat="5.352510" lon="-72.400297">
        <ele>358.50</ele>
        <time>2021-10-07T16:52:16Z</time>
      </trkpt>
      <trkpt lat="5.352479" lon="-72.400252">
        <ele>358.30</ele>
        <time>2021-10-07T16:52:18Z</time>
      </trkpt>
      <trkpt lat="5.352464" lon="-72.400229">
        <ele>357.80</ele>
        <time>2021-10-07T16:52:19Z</time>
      </trkpt>
      <trkpt lat="5.352444" lon="-72.400201">
        <ele>357.30</ele>
        <time>2021-10-07T16:52:20Z</time>
      </trkpt>
      <trkpt lat="5.352417" lon="-72.400158">
        <ele>356.90</ele>
        <time>2021-10-07T16:52:21Z</time>
      </trkpt>
      <trkpt lat="5.352395" lon="-72.400125">
        <ele>357.00</ele>
        <time>2021-10-07T16:52:22Z</time>
      </trkpt>
      <trkpt lat="5.352363" lon="-72.400082">
        <ele>357.10</ele>
        <time>2021-10-07T16:52:24Z</time>
      </trkpt>
      <trkpt lat="5.352333" lon="-72.400041">
        <ele>356.90</ele>
        <time>2021-10-07T16:52:25Z</time>
      </trkpt>
      <trkpt lat="5.352290" lon="-72.399983">
        <ele>356.70</ele>
        <time>2021-10-07T16:52:27Z</time>
      </trkpt>
      <trkpt lat="5.352260" lon="-72.399937">
        <ele>356.60</ele>
        <time>2021-10-07T16:52:28Z</time>
      </trkpt>
      <trkpt lat="5.352241" lon="-72.399906">
        <ele>356.60</ele>
        <time>2021-10-07T16:52:29Z</time>
      </trkpt>
      <trkpt lat="5.352207" lon="-72.399857">
        <ele>356.30</ele>
        <time>2021-10-07T16:52:31Z</time>
      </trkpt>
      <trkpt lat="5.352194" lon="-72.399819">
        <ele>356.60</ele>
        <time>2021-10-07T16:52:32Z</time>
      </trkpt>
      <trkpt lat="5.352178" lon="-72.399785">
        <ele>356.60</ele>
        <time>2021-10-07T16:52:34Z</time>
      </trkpt>
      <trkpt lat="5.352169" lon="-72.399735">
        <ele>356.60</ele>
        <time>2021-10-07T16:52:36Z</time>
      </trkpt>
      <trkpt lat="5.352165" lon="-72.399694">
        <ele>356.60</ele>
        <time>2021-10-07T16:52:37Z</time>
      </trkpt>
      <trkpt lat="5.352156" lon="-72.399637">
        <ele>356.60</ele>
        <time>2021-10-07T16:52:38Z</time>
      </trkpt>
      <trkpt lat="5.352145" lon="-72.399586">
        <ele>356.80</ele>
        <time>2021-10-07T16:52:39Z</time>
      </trkpt>
      <trkpt lat="5.352136" lon="-72.399537">
        <ele>356.80</ele>
        <time>2021-10-07T16:52:41Z</time>
      </trkpt>
      <trkpt lat="5.352127" lon="-72.399490">
        <ele>356.70</ele>
        <time>2021-10-07T16:52:42Z</time>
      </trkpt>
      <trkpt lat="5.352116" lon="-72.399448">
        <ele>356.60</ele>
        <time>2021-10-07T16:52:43Z</time>
      </trkpt>
      <trkpt lat="5.352105" lon="-72.399413">
        <ele>356.90</ele>
        <time>2021-10-07T16:52:44Z</time>
      </trkpt>
      <trkpt lat="5.352095" lon="-72.399373">
        <ele>356.90</ele>
        <time>2021-10-07T16:52:45Z</time>
      </trkpt>
      <trkpt lat="5.352081" lon="-72.399312">
        <ele>356.90</ele>
        <time>2021-10-07T16:52:47Z</time>
      </trkpt>
      <trkpt lat="5.352070" lon="-72.399265">
        <ele>356.90</ele>
        <time>2021-10-07T16:52:48Z</time>
      </trkpt>
      <trkpt lat="5.352059" lon="-72.399220">
        <ele>357.30</ele>
        <time>2021-10-07T16:52:49Z</time>
      </trkpt>
      <trkpt lat="5.352050" lon="-72.399180">
        <ele>357.30</ele>
        <time>2021-10-07T16:52:50Z</time>
      </trkpt>
      <trkpt lat="5.352034" lon="-72.399105">
        <ele>357.10</ele>
        <time>2021-10-07T16:52:52Z</time>
      </trkpt>
      <trkpt lat="5.352025" lon="-72.399043">
        <ele>357.30</ele>
        <time>2021-10-07T16:52:54Z</time>
      </trkpt>
      <trkpt lat="5.352031" lon="-72.399002">
        <ele>356.80</ele>
        <time>2021-10-07T16:52:55Z</time>
      </trkpt>
      <trkpt lat="5.352037" lon="-72.398962">
        <ele>356.60</ele>
        <time>2021-10-07T16:52:56Z</time>
      </trkpt>
      <trkpt lat="5.352047" lon="-72.398888">
        <ele>356.10</ele>
        <time>2021-10-07T16:52:58Z</time>
      </trkpt>
      <trkpt lat="5.352052" lon="-72.398825">
        <ele>355.40</ele>
        <time>2021-10-07T16:52:59Z</time>
      </trkpt>
      <trkpt lat="5.352049" lon="-72.398766">
        <ele>355.00</ele>
        <time>2021-10-07T16:53:00Z</time>
      </trkpt>
      <trkpt lat="5.352015" lon="-72.398611">
        <ele>353.00</ele>
        <time>2021-10-07T16:53:02Z</time>
      </trkpt>
      <trkpt lat="5.352005" lon="-72.398566">
        <ele>352.60</ele>
        <time>2021-10-07T16:53:03Z</time>
      </trkpt>
      <trkpt lat="5.352021" lon="-72.398484">
        <ele>351.80</ele>
        <time>2021-10-07T16:53:05Z</time>
      </trkpt>
      <trkpt lat="5.352003" lon="-72.398389">
        <ele>351.30</ele>
        <time>2021-10-07T16:53:07Z</time>
      </trkpt>
      <trkpt lat="5.351991" lon="-72.398339">
        <ele>351.00</ele>
        <time>2021-10-07T16:53:08Z</time>
      </trkpt>
      <trkpt lat="5.351969" lon="-72.398257">
        <ele>351.20</ele>
        <time>2021-10-07T16:53:10Z</time>
      </trkpt>
      <trkpt lat="5.351949" lon="-72.398197">
        <ele>351.20</ele>
        <time>2021-10-07T16:53:12Z</time>
      </trkpt>
      <trkpt lat="5.351934" lon="-72.398152">
        <ele>351.90</ele>
        <time>2021-10-07T16:53:13Z</time>
      </trkpt>
      <trkpt lat="5.351924" lon="-72.398103">
        <ele>351.80</ele>
        <time>2021-10-07T16:53:14Z</time>
      </trkpt>
      <trkpt lat="5.351916" lon="-72.398057">
        <ele>351.70</ele>
        <time>2021-10-07T16:53:16Z</time>
      </trkpt>
      <trkpt lat="5.351911" lon="-72.398005">
        <ele>351.20</ele>
        <time>2021-10-07T16:53:17Z</time>
      </trkpt>
      <trkpt lat="5.351898" lon="-72.397925">
        <ele>350.90</ele>
        <time>2021-10-07T16:53:18Z</time>
      </trkpt>
      <trkpt lat="5.351888" lon="-72.397855">
        <ele>351.10</ele>
        <time>2021-10-07T16:53:20Z</time>
      </trkpt>
      <trkpt lat="5.351882" lon="-72.397790">
        <ele>351.20</ele>
        <time>2021-10-07T16:53:21Z</time>
      </trkpt>
      <trkpt lat="5.351883" lon="-72.397733">
        <ele>351.30</ele>
        <time>2021-10-07T16:53:22Z</time>
      </trkpt>
      <trkpt lat="5.351885" lon="-72.397683">
        <ele>351.30</ele>
        <time>2021-10-07T16:53:23Z</time>
      </trkpt>
      <trkpt lat="5.351885" lon="-72.397637">
        <ele>351.30</ele>
        <time>2021-10-07T16:53:24Z</time>
      </trkpt>
      <trkpt lat="5.351884" lon="-72.397574">
        <ele>351.10</ele>
        <time>2021-10-07T16:53:25Z</time>
      </trkpt>
      <trkpt lat="5.351880" lon="-72.397500">
        <ele>351.10</ele>
        <time>2021-10-07T16:53:27Z</time>
      </trkpt>
      <trkpt lat="5.351867" lon="-72.397383">
        <ele>351.30</ele>
        <time>2021-10-07T16:53:29Z</time>
      </trkpt>
      <trkpt lat="5.351859" lon="-72.397194">
        <ele>352.10</ele>
        <time>2021-10-07T16:53:31Z</time>
      </trkpt>
      <trkpt lat="5.351869" lon="-72.397118">
        <ele>351.80</ele>
        <time>2021-10-07T16:53:33Z</time>
      </trkpt>
      <trkpt lat="5.351876" lon="-72.397083">
        <ele>351.50</ele>
        <time>2021-10-07T16:53:34Z</time>
      </trkpt>
      <trkpt lat="5.351884" lon="-72.397035">
        <ele>351.30</ele>
        <time>2021-10-07T16:53:35Z</time>
      </trkpt>
      <trkpt lat="5.351898" lon="-72.396999">
        <ele>350.60</ele>
        <time>2021-10-07T16:53:37Z</time>
      </trkpt>
      <trkpt lat="5.351905" lon="-72.396968">
        <ele>350.60</ele>
        <time>2021-10-07T16:53:38Z</time>
      </trkpt>
      <trkpt lat="5.351910" lon="-72.396938">
        <ele>350.70</ele>
        <time>2021-10-07T16:53:39Z</time>
      </trkpt>
      <trkpt lat="5.351908" lon="-72.396896">
        <ele>350.80</ele>
        <time>2021-10-07T16:53:40Z</time>
      </trkpt>
      <trkpt lat="5.351906" lon="-72.396864">
        <ele>350.80</ele>
        <time>2021-10-07T16:53:41Z</time>
      </trkpt>
      <trkpt lat="5.351904" lon="-72.396827">
        <ele>351.00</ele>
        <time>2021-10-07T16:53:42Z</time>
      </trkpt>
      <trkpt lat="5.351902" lon="-72.396776">
        <ele>351.20</ele>
        <time>2021-10-07T16:53:44Z</time>
      </trkpt>
      <trkpt lat="5.351911" lon="-72.396733">
        <ele>351.50</ele>
        <time>2021-10-07T16:53:46Z</time>
      </trkpt>
      <trkpt lat="5.351920" lon="-72.396699">
        <ele>351.80</ele>
        <time>2021-10-07T16:53:48Z</time>
      </trkpt>
      <trkpt lat="5.351923" lon="-72.396685">
        <ele>351.80</ele>
        <time>2021-10-07T16:53:49Z</time>
      </trkpt>
      <trkpt lat="5.351926" lon="-72.396676">
        <ele>352.10</ele>
        <time>2021-10-07T16:53:50Z</time>
      </trkpt>
      <trkpt lat="5.351929" lon="-72.396670">
        <ele>352.10</ele>
        <time>2021-10-07T16:53:51Z</time>
      </trkpt>
      <trkpt lat="5.351925" lon="-72.396654">
        <ele>352.10</ele>
        <time>2021-10-07T16:53:54Z</time>
      </trkpt>
      <trkpt lat="5.351922" lon="-72.396645">
        <ele>352.10</ele>
        <time>2021-10-07T16:53:55Z</time>
      </trkpt>
      <trkpt lat="5.351919" lon="-72.396637">
        <ele>352.40</ele>
        <time>2021-10-07T16:53:57Z</time>
      </trkpt>
      <trkpt lat="5.351916" lon="-72.396629">
        <ele>352.40</ele>
        <time>2021-10-07T16:53:58Z</time>
      </trkpt>
      <trkpt lat="5.351900" lon="-72.396600">
        <ele>352.40</ele>
        <time>2021-10-07T16:53:59Z</time>
      </trkpt>
      <trkpt lat="5.351879" lon="-72.396560">
        <ele>354.00</ele>
        <time>2021-10-07T16:54:01Z</time>
      </trkpt>
      <trkpt lat="5.351853" lon="-72.396515">
        <ele>355.10</ele>
        <time>2021-10-07T16:54:02Z</time>
      </trkpt>
      <trkpt lat="5.351828" lon="-72.396468">
        <ele>354.30</ele>
        <time>2021-10-07T16:54:03Z</time>
      </trkpt>
      <trkpt lat="5.351795" lon="-72.396412">
        <ele>354.50</ele>
        <time>2021-10-07T16:54:05Z</time>
      </trkpt>
      <trkpt lat="5.351765" lon="-72.396367">
        <ele>354.60</ele>
        <time>2021-10-07T16:54:06Z</time>
      </trkpt>
      <trkpt lat="5.351744" lon="-72.396338">
        <ele>354.30</ele>
        <time>2021-10-07T16:54:07Z</time>
      </trkpt>
      <trkpt lat="5.351735" lon="-72.396317">
        <ele>354.30</ele>
        <time>2021-10-07T16:54:08Z</time>
      </trkpt>
      <trkpt lat="5.351719" lon="-72.396278">
        <ele>354.60</ele>
        <time>2021-10-07T16:54:10Z</time>
      </trkpt>
      <trkpt lat="5.351712" lon="-72.396246">
        <ele>354.40</ele>
        <time>2021-10-07T16:54:11Z</time>
      </trkpt>
      <trkpt lat="5.351704" lon="-72.396219">
        <ele>354.40</ele>
        <time>2021-10-07T16:54:13Z</time>
      </trkpt>
      <trkpt lat="5.351700" lon="-72.396191">
        <ele>354.20</ele>
        <time>2021-10-07T16:54:14Z</time>
      </trkpt>
      <trkpt lat="5.351693" lon="-72.396162">
        <ele>354.00</ele>
        <time>2021-10-07T16:54:15Z</time>
      </trkpt>
      <trkpt lat="5.351679" lon="-72.396118">
        <ele>353.80</ele>
        <time>2021-10-07T16:54:17Z</time>
      </trkpt>
      <trkpt lat="5.351676" lon="-72.396090">
        <ele>353.80</ele>
        <time>2021-10-07T16:54:18Z</time>
      </trkpt>
      <trkpt lat="5.351676" lon="-72.396069">
        <ele>353.40</ele>
        <time>2021-10-07T16:54:19Z</time>
      </trkpt>
      <trkpt lat="5.351683" lon="-72.396036">
        <ele>353.00</ele>
        <time>2021-10-07T16:54:21Z</time>
      </trkpt>
      <trkpt lat="5.351687" lon="-72.396010">
        <ele>353.00</ele>
        <time>2021-10-07T16:54:23Z</time>
      </trkpt>
      <trkpt lat="5.351687" lon="-72.396003">
        <ele>353.00</ele>
        <time>2021-10-07T16:54:24Z</time>
      </trkpt>
      <trkpt lat="5.351688" lon="-72.395999">
        <ele>353.00</ele>
        <time>2021-10-07T16:54:26Z</time>
      </trkpt>
      <trkpt lat="5.351691" lon="-72.395999">
        <ele>353.00</ele>
        <time>2021-10-07T16:54:28Z</time>
      </trkpt>
      <trkpt lat="5.351692" lon="-72.395999">
        <ele>353.00</ele>
        <time>2021-10-07T16:54:29Z</time>
      </trkpt>
      <trkpt lat="5.351694" lon="-72.395999">
        <ele>353.00</ele>
        <time>2021-10-07T16:54:31Z</time>
      </trkpt>
      <trkpt lat="5.351695" lon="-72.395998">
        <ele>353.00</ele>
        <time>2021-10-07T16:54:32Z</time>
      </trkpt>
      <trkpt lat="5.351697" lon="-72.395996">
        <ele>352.60</ele>
        <time>2021-10-07T16:54:34Z</time>
      </trkpt>
      <trkpt lat="5.351697" lon="-72.395992">
        <ele>352.60</ele>
        <time>2021-10-07T16:54:35Z</time>
      </trkpt>
      <trkpt lat="5.351698" lon="-72.395986">
        <ele>352.60</ele>
        <time>2021-10-07T16:54:37Z</time>
      </trkpt>
      <trkpt lat="5.351700" lon="-72.395983">
        <ele>352.60</ele>
        <time>2021-10-07T16:54:38Z</time>
      </trkpt>
      <trkpt lat="5.351706" lon="-72.395975">
        <ele>352.60</ele>
        <time>2021-10-07T16:54:40Z</time>
      </trkpt>
      <trkpt lat="5.351710" lon="-72.395970">
        <ele>352.60</ele>
        <time>2021-10-07T16:54:41Z</time>
      </trkpt>
      <trkpt lat="5.351713" lon="-72.395967">
        <ele>352.60</ele>
        <time>2021-10-07T16:54:42Z</time>
      </trkpt>
      <trkpt lat="5.351718" lon="-72.395963">
        <ele>352.60</ele>
        <time>2021-10-07T16:54:43Z</time>
      </trkpt>
      <trkpt lat="5.351721" lon="-72.395960">
        <ele>352.60</ele>
        <time>2021-10-07T16:54:45Z</time>
      </trkpt>
      <trkpt lat="5.351724" lon="-72.395958">
        <ele>352.60</ele>
        <time>2021-10-07T16:54:46Z</time>
      </trkpt>
      <trkpt lat="5.351728" lon="-72.395956">
        <ele>352.40</ele>
        <time>2021-10-07T16:54:48Z</time>
      </trkpt>
      <trkpt lat="5.351729" lon="-72.395955">
        <ele>352.40</ele>
        <time>2021-10-07T16:54:49Z</time>
      </trkpt>
      <trkpt lat="5.351729" lon="-72.395958">
        <ele>352.40</ele>
        <time>2021-10-07T16:54:50Z</time>
      </trkpt>
      <trkpt lat="5.351731" lon="-72.395968">
        <ele>352.40</ele>
        <time>2021-10-07T16:54:52Z</time>
      </trkpt>
      <trkpt lat="5.351736" lon="-72.395981">
        <ele>352.40</ele>
        <time>2021-10-07T16:54:53Z</time>
      </trkpt>
      <trkpt lat="5.351737" lon="-72.395987">
        <ele>352.40</ele>
        <time>2021-10-07T16:54:54Z</time>
      </trkpt>
      <trkpt lat="5.351741" lon="-72.395993">
        <ele>352.40</ele>
        <time>2021-10-07T16:54:55Z</time>
      </trkpt>
      <trkpt lat="5.351745" lon="-72.395996">
        <ele>352.40</ele>
        <time>2021-10-07T16:54:57Z</time>
      </trkpt>
      <trkpt lat="5.351748" lon="-72.396000">
        <ele>352.70</ele>
        <time>2021-10-07T16:54:59Z</time>
      </trkpt>
      <trkpt lat="5.351752" lon="-72.396003">
        <ele>352.70</ele>
        <time>2021-10-07T16:55:01Z</time>
      </trkpt>
      <trkpt lat="5.351756" lon="-72.396007">
        <ele>352.70</ele>
        <time>2021-10-07T16:55:02Z</time>
      </trkpt>
      <trkpt lat="5.351760" lon="-72.396010">
        <ele>352.70</ele>
        <time>2021-10-07T16:55:03Z</time>
      </trkpt>
      <trkpt lat="5.351763" lon="-72.396014">
        <ele>352.70</ele>
        <time>2021-10-07T16:55:04Z</time>
      </trkpt>
      <trkpt lat="5.351767" lon="-72.396017">
        <ele>352.70</ele>
        <time>2021-10-07T16:55:06Z</time>
      </trkpt>
      <trkpt lat="5.351771" lon="-72.396021">
        <ele>352.20</ele>
        <time>2021-10-07T16:55:07Z</time>
      </trkpt>
      <trkpt lat="5.351802" lon="-72.396038">
        <ele>352.20</ele>
        <time>2021-10-07T16:55:08Z</time>
      </trkpt>
      <trkpt lat="5.351812" lon="-72.396045">
        <ele>352.40</ele>
        <time>2021-10-07T16:55:09Z</time>
      </trkpt>
      <trkpt lat="5.351841" lon="-72.396070">
        <ele>351.60</ele>
        <time>2021-10-07T16:55:10Z</time>
      </trkpt>
      <trkpt lat="5.351850" lon="-72.396079">
        <ele>351.60</ele>
        <time>2021-10-07T16:55:11Z</time>
      </trkpt>
      <trkpt lat="5.351875" lon="-72.396104">
        <ele>350.90</ele>
        <time>2021-10-07T16:55:13Z</time>
      </trkpt>
      <trkpt lat="5.351880" lon="-72.396138">
        <ele>351.10</ele>
        <time>2021-10-07T16:55:14Z</time>
      </trkpt>
      <trkpt lat="5.351890" lon="-72.396185">
        <ele>351.40</ele>
        <time>2021-10-07T16:55:15Z</time>
      </trkpt>
      <trkpt lat="5.351899" lon="-72.396212">
        <ele>350.90</ele>
        <time>2021-10-07T16:55:16Z</time>
      </trkpt>
      <trkpt lat="5.351912" lon="-72.396246">
        <ele>350.90</ele>
        <time>2021-10-07T16:55:17Z</time>
      </trkpt>
      <trkpt lat="5.351926" lon="-72.396277">
        <ele>351.10</ele>
        <time>2021-10-07T16:55:18Z</time>
      </trkpt>
      <trkpt lat="5.351947" lon="-72.396325">
        <ele>350.40</ele>
        <time>2021-10-07T16:55:20Z</time>
      </trkpt>
      <trkpt lat="5.351959" lon="-72.396363">
        <ele>350.50</ele>
        <time>2021-10-07T16:55:22Z</time>
      </trkpt>
      <trkpt lat="5.351970" lon="-72.396393">
        <ele>350.60</ele>
        <time>2021-10-07T16:55:24Z</time>
      </trkpt>
      <trkpt lat="5.351985" lon="-72.396444">
        <ele>349.30</ele>
        <time>2021-10-07T16:55:26Z</time>
      </trkpt>
      <trkpt lat="5.351993" lon="-72.396472">
        <ele>349.30</ele>
        <time>2021-10-07T16:55:27Z</time>
      </trkpt>
      <trkpt lat="5.352004" lon="-72.396511">
        <ele>349.30</ele>
        <time>2021-10-07T16:55:29Z</time>
      </trkpt>
      <trkpt lat="5.352010" lon="-72.396545">
        <ele>349.20</ele>
        <time>2021-10-07T16:55:30Z</time>
      </trkpt>
      <trkpt lat="5.352012" lon="-72.396555">
        <ele>349.10</ele>
        <time>2021-10-07T16:55:31Z</time>
      </trkpt>
      <trkpt lat="5.352014" lon="-72.396572">
        <ele>349.10</ele>
        <time>2021-10-07T16:55:32Z</time>
      </trkpt>
      <trkpt lat="5.352010" lon="-72.396595">
        <ele>349.10</ele>
        <time>2021-10-07T16:55:34Z</time>
      </trkpt>
      <trkpt lat="5.351998" lon="-72.396609">
        <ele>349.00</ele>
        <time>2021-10-07T16:55:36Z</time>
      </trkpt>
      <trkpt lat="5.351994" lon="-72.396614">
        <ele>349.00</ele>
        <time>2021-10-07T16:55:37Z</time>
      </trkpt>
      <trkpt lat="5.351993" lon="-72.396620">
        <ele>349.00</ele>
        <time>2021-10-07T16:55:39Z</time>
      </trkpt>
      <trkpt lat="5.351993" lon="-72.396623">
        <ele>349.00</ele>
        <time>2021-10-07T16:55:40Z</time>
      </trkpt>
      <trkpt lat="5.351994" lon="-72.396631">
        <ele>349.00</ele>
        <time>2021-10-07T16:55:42Z</time>
      </trkpt>
      <trkpt lat="5.351995" lon="-72.396635">
        <ele>349.00</ele>
        <time>2021-10-07T16:55:43Z</time>
      </trkpt>
      <trkpt lat="5.352003" lon="-72.396644">
        <ele>348.90</ele>
        <time>2021-10-07T16:55:45Z</time>
      </trkpt>
      <trkpt lat="5.352022" lon="-72.396666">
        <ele>348.90</ele>
        <time>2021-10-07T16:55:47Z</time>
      </trkpt>
      <trkpt lat="5.352031" lon="-72.396679">
        <ele>347.10</ele>
        <time>2021-10-07T16:55:48Z</time>
      </trkpt>
      <trkpt lat="5.352042" lon="-72.396708">
        <ele>347.10</ele>
        <time>2021-10-07T16:55:50Z</time>
      </trkpt>
      <trkpt lat="5.352053" lon="-72.396743">
        <ele>347.10</ele>
        <time>2021-10-07T16:55:52Z</time>
      </trkpt>
      <trkpt lat="5.352076" lon="-72.396775">
        <ele>345.90</ele>
        <time>2021-10-07T16:55:54Z</time>
      </trkpt>
      <trkpt lat="5.352113" lon="-72.396820">
        <ele>345.00</ele>
        <time>2021-10-07T16:55:56Z</time>
      </trkpt>
      <trkpt lat="5.352126" lon="-72.396831">
        <ele>345.00</ele>
        <time>2021-10-07T16:55:57Z</time>
      </trkpt>
      <trkpt lat="5.352158" lon="-72.396855">
        <ele>343.90</ele>
        <time>2021-10-07T16:55:59Z</time>
      </trkpt>
      <trkpt lat="5.352177" lon="-72.396872">
        <ele>344.30</ele>
        <time>2021-10-07T16:56:00Z</time>
      </trkpt>
      <trkpt lat="5.352213" lon="-72.396907">
        <ele>343.80</ele>
        <time>2021-10-07T16:56:02Z</time>
      </trkpt>
      <trkpt lat="5.352259" lon="-72.396947">
        <ele>343.50</ele>
        <time>2021-10-07T16:56:04Z</time>
      </trkpt>
      <trkpt lat="5.352292" lon="-72.396981">
        <ele>342.80</ele>
        <time>2021-10-07T16:56:05Z</time>
      </trkpt>
      <trkpt lat="5.352329" lon="-72.397032">
        <ele>343.80</ele>
        <time>2021-10-07T16:56:07Z</time>
      </trkpt>
      <trkpt lat="5.352356" lon="-72.397087">
        <ele>344.40</ele>
        <time>2021-10-07T16:56:09Z</time>
      </trkpt>
      <trkpt lat="5.352363" lon="-72.397117">
        <ele>345.10</ele>
        <time>2021-10-07T16:56:10Z</time>
      </trkpt>
      <trkpt lat="5.352365" lon="-72.397145">
        <ele>345.10</ele>
        <time>2021-10-07T16:56:11Z</time>
      </trkpt>
      <trkpt lat="5.352371" lon="-72.397221">
        <ele>345.90</ele>
        <time>2021-10-07T16:56:13Z</time>
      </trkpt>
      <trkpt lat="5.352374" lon="-72.397313">
        <ele>346.40</ele>
        <time>2021-10-07T16:56:15Z</time>
      </trkpt>
      <trkpt lat="5.352375" lon="-72.397363">
        <ele>346.70</ele>
        <time>2021-10-07T16:56:16Z</time>
      </trkpt>
      <trkpt lat="5.352376" lon="-72.397460">
        <ele>347.50</ele>
        <time>2021-10-07T16:56:18Z</time>
      </trkpt>
      <trkpt lat="5.352403" lon="-72.397561">
        <ele>348.10</ele>
        <time>2021-10-07T16:56:20Z</time>
      </trkpt>
      <trkpt lat="5.352421" lon="-72.397614">
        <ele>348.00</ele>
        <time>2021-10-07T16:56:21Z</time>
      </trkpt>
      <trkpt lat="5.352438" lon="-72.397651">
        <ele>348.00</ele>
        <time>2021-10-07T16:56:22Z</time>
      </trkpt>
      <trkpt lat="5.352458" lon="-72.397693">
        <ele>347.70</ele>
        <time>2021-10-07T16:56:23Z</time>
      </trkpt>
      <trkpt lat="5.352506" lon="-72.397788">
        <ele>347.50</ele>
        <time>2021-10-07T16:56:25Z</time>
      </trkpt>
      <trkpt lat="5.352540" lon="-72.397892">
        <ele>348.00</ele>
        <time>2021-10-07T16:56:27Z</time>
      </trkpt>
      <trkpt lat="5.352553" lon="-72.397962">
        <ele>348.10</ele>
        <time>2021-10-07T16:56:28Z</time>
      </trkpt>
      <trkpt lat="5.352559" lon="-72.398037">
        <ele>348.20</ele>
        <time>2021-10-07T16:56:29Z</time>
      </trkpt>
      <trkpt lat="5.352558" lon="-72.398164">
        <ele>348.00</ele>
        <time>2021-10-07T16:56:31Z</time>
      </trkpt>
      <trkpt lat="5.352545" lon="-72.398269">
        <ele>348.00</ele>
        <time>2021-10-07T16:56:33Z</time>
      </trkpt>
      <trkpt lat="5.352552" lon="-72.398340">
        <ele>347.90</ele>
        <time>2021-10-07T16:56:35Z</time>
      </trkpt>
      <trkpt lat="5.352567" lon="-72.398391">
        <ele>347.90</ele>
        <time>2021-10-07T16:56:36Z</time>
      </trkpt>
      <trkpt lat="5.352584" lon="-72.398431">
        <ele>348.00</ele>
        <time>2021-10-07T16:56:37Z</time>
      </trkpt>
      <trkpt lat="5.352619" lon="-72.398512">
        <ele>348.00</ele>
        <time>2021-10-07T16:56:39Z</time>
      </trkpt>
      <trkpt lat="5.352629" lon="-72.398592">
        <ele>347.70</ele>
        <time>2021-10-07T16:56:41Z</time>
      </trkpt>
      <trkpt lat="5.352626" lon="-72.398639">
        <ele>347.60</ele>
        <time>2021-10-07T16:56:42Z</time>
      </trkpt>
      <trkpt lat="5.352625" lon="-72.398692">
        <ele>347.60</ele>
        <time>2021-10-07T16:56:43Z</time>
      </trkpt>
      <trkpt lat="5.352633" lon="-72.398805">
        <ele>347.80</ele>
        <time>2021-10-07T16:56:45Z</time>
      </trkpt>
      <trkpt lat="5.352654" lon="-72.398905">
        <ele>348.30</ele>
        <time>2021-10-07T16:56:47Z</time>
      </trkpt>
      <trkpt lat="5.352659" lon="-72.398947">
        <ele>348.50</ele>
        <time>2021-10-07T16:56:48Z</time>
      </trkpt>
      <trkpt lat="5.352669" lon="-72.399033">
        <ele>348.90</ele>
        <time>2021-10-07T16:56:50Z</time>
      </trkpt>
      <trkpt lat="5.352698" lon="-72.399101">
        <ele>349.60</ele>
        <time>2021-10-07T16:56:52Z</time>
      </trkpt>
      <trkpt lat="5.352737" lon="-72.399162">
        <ele>350.10</ele>
        <time>2021-10-07T16:56:54Z</time>
      </trkpt>
      <trkpt lat="5.352770" lon="-72.399216">
        <ele>350.70</ele>
        <time>2021-10-07T16:56:56Z</time>
      </trkpt>
      <trkpt lat="5.352784" lon="-72.399248">
        <ele>350.70</ele>
        <time>2021-10-07T16:56:57Z</time>
      </trkpt>
      <trkpt lat="5.352801" lon="-72.399332">
        <ele>350.70</ele>
        <time>2021-10-07T16:56:59Z</time>
      </trkpt>
      <trkpt lat="5.352807" lon="-72.399430">
        <ele>350.60</ele>
        <time>2021-10-07T16:57:01Z</time>
      </trkpt>
      <trkpt lat="5.352820" lon="-72.399514">
        <ele>350.70</ele>
        <time>2021-10-07T16:57:03Z</time>
      </trkpt>
      <trkpt lat="5.352844" lon="-72.399575">
        <ele>351.00</ele>
        <time>2021-10-07T16:57:05Z</time>
      </trkpt>
      <trkpt lat="5.352859" lon="-72.399607">
        <ele>351.40</ele>
        <time>2021-10-07T16:57:06Z</time>
      </trkpt>
      <trkpt lat="5.352877" lon="-72.399666">
        <ele>351.70</ele>
        <time>2021-10-07T16:57:08Z</time>
      </trkpt>
      <trkpt lat="5.352878" lon="-72.399697">
        <ele>351.80</ele>
        <time>2021-10-07T16:57:09Z</time>
      </trkpt>
      <trkpt lat="5.352863" lon="-72.399752">
        <ele>351.80</ele>
        <time>2021-10-07T16:57:11Z</time>
      </trkpt>
      <trkpt lat="5.352848" lon="-72.399801">
        <ele>351.90</ele>
        <time>2021-10-07T16:57:13Z</time>
      </trkpt>
      <trkpt lat="5.352854" lon="-72.399835">
        <ele>352.10</ele>
        <time>2021-10-07T16:57:15Z</time>
      </trkpt>
      <trkpt lat="5.352878" lon="-72.399872">
        <ele>352.40</ele>
        <time>2021-10-07T16:57:17Z</time>
      </trkpt>
      <trkpt lat="5.352894" lon="-72.399889">
        <ele>351.80</ele>
        <time>2021-10-07T16:57:18Z</time>
      </trkpt>
      <trkpt lat="5.352931" lon="-72.399946">
        <ele>352.80</ele>
        <time>2021-10-07T16:57:20Z</time>
      </trkpt>
      <trkpt lat="5.352952" lon="-72.399984">
        <ele>352.80</ele>
        <time>2021-10-07T16:57:21Z</time>
      </trkpt>
      <trkpt lat="5.352994" lon="-72.400077">
        <ele>354.20</ele>
        <time>2021-10-07T16:57:23Z</time>
      </trkpt>
      <trkpt lat="5.353007" lon="-72.400117">
        <ele>354.60</ele>
        <time>2021-10-07T16:57:24Z</time>
      </trkpt>
      <trkpt lat="5.353033" lon="-72.400200">
        <ele>354.70</ele>
        <time>2021-10-07T16:57:26Z</time>
      </trkpt>
      <trkpt lat="5.353043" lon="-72.400237">
        <ele>355.00</ele>
        <time>2021-10-07T16:57:27Z</time>
      </trkpt>
      <trkpt lat="5.353058" lon="-72.400290">
        <ele>355.20</ele>
        <time>2021-10-07T16:57:29Z</time>
      </trkpt>
      <trkpt lat="5.353080" lon="-72.400327">
        <ele>355.20</ele>
        <time>2021-10-07T16:57:31Z</time>
      </trkpt>
      <trkpt lat="5.353101" lon="-72.400355">
        <ele>354.90</ele>
        <time>2021-10-07T16:57:33Z</time>
      </trkpt>
      <trkpt lat="5.353124" lon="-72.400392">
        <ele>354.70</ele>
        <time>2021-10-07T16:57:35Z</time>
      </trkpt>
      <trkpt lat="5.353171" lon="-72.400442">
        <ele>354.20</ele>
        <time>2021-10-07T16:57:37Z</time>
      </trkpt>
      <trkpt lat="5.353232" lon="-72.400525">
        <ele>353.90</ele>
        <time>2021-10-07T16:57:39Z</time>
      </trkpt>
      <trkpt lat="5.353304" lon="-72.400629">
        <ele>354.10</ele>
        <time>2021-10-07T16:57:41Z</time>
      </trkpt>
      <trkpt lat="5.353397" lon="-72.400752">
        <ele>354.10</ele>
        <time>2021-10-07T16:57:43Z</time>
      </trkpt>
      <trkpt lat="5.353476" lon="-72.400861">
        <ele>354.10</ele>
        <time>2021-10-07T16:57:45Z</time>
      </trkpt>
      <trkpt lat="5.353506" lon="-72.400925">
        <ele>354.10</ele>
        <time>2021-10-07T16:57:46Z</time>
      </trkpt>
      <trkpt lat="5.353537" lon="-72.400988">
        <ele>353.60</ele>
        <time>2021-10-07T16:57:47Z</time>
      </trkpt>
      <trkpt lat="5.353566" lon="-72.401049">
        <ele>353.10</ele>
        <time>2021-10-07T16:57:48Z</time>
      </trkpt>
      <trkpt lat="5.353640" lon="-72.401137">
        <ele>352.60</ele>
        <time>2021-10-07T16:57:50Z</time>
      </trkpt>
      <trkpt lat="5.353669" lon="-72.401166">
        <ele>352.40</ele>
        <time>2021-10-07T16:57:51Z</time>
      </trkpt>
      <trkpt lat="5.353732" lon="-72.401241">
        <ele>352.20</ele>
        <time>2021-10-07T16:57:53Z</time>
      </trkpt>
      <trkpt lat="5.353775" lon="-72.401276">
        <ele>351.90</ele>
        <time>2021-10-07T16:57:55Z</time>
      </trkpt>
      <trkpt lat="5.353802" lon="-72.401284">
        <ele>351.80</ele>
        <time>2021-10-07T16:57:56Z</time>
      </trkpt>
      <trkpt lat="5.353854" lon="-72.401295">
        <ele>351.80</ele>
        <time>2021-10-07T16:57:58Z</time>
      </trkpt>
      <trkpt lat="5.353887" lon="-72.401300">
        <ele>351.80</ele>
        <time>2021-10-07T16:57:59Z</time>
      </trkpt>
      <trkpt lat="5.353910" lon="-72.401307">
        <ele>351.80</ele>
        <time>2021-10-07T16:58:00Z</time>
      </trkpt>
      <trkpt lat="5.353934" lon="-72.401324">
        <ele>352.00</ele>
        <time>2021-10-07T16:58:02Z</time>
      </trkpt>
      <trkpt lat="5.353955" lon="-72.401334">
        <ele>351.80</ele>
        <time>2021-10-07T16:58:03Z</time>
      </trkpt>
      <trkpt lat="5.353988" lon="-72.401359">
        <ele>351.80</ele>
        <time>2021-10-07T16:58:05Z</time>
      </trkpt>
      <trkpt lat="5.353994" lon="-72.401374">
        <ele>351.60</ele>
        <time>2021-10-07T16:58:06Z</time>
      </trkpt>
      <trkpt lat="5.354001" lon="-72.401390">
        <ele>351.60</ele>
        <time>2021-10-07T16:58:07Z</time>
      </trkpt>
      <trkpt lat="5.354008" lon="-72.401406">
        <ele>351.50</ele>
        <time>2021-10-07T16:58:08Z</time>
      </trkpt>
      <trkpt lat="5.354017" lon="-72.401420">
        <ele>351.50</ele>
        <time>2021-10-07T16:58:10Z</time>
      </trkpt>
      <trkpt lat="5.354020" lon="-72.401422">
        <ele>351.50</ele>
        <time>2021-10-07T16:58:11Z</time>
      </trkpt>
      <trkpt lat="5.354021" lon="-72.401422">
        <ele>351.50</ele>
        <time>2021-10-07T16:58:12Z</time>
      </trkpt>
      <trkpt lat="5.354028" lon="-72.401426">
        <ele>351.50</ele>
        <time>2021-10-07T16:58:14Z</time>
      </trkpt>
      <trkpt lat="5.354051" lon="-72.401447">
        <ele>351.20</ele>
        <time>2021-10-07T16:58:16Z</time>
      </trkpt>
      <trkpt lat="5.354065" lon="-72.401460">
        <ele>351.10</ele>
        <time>2021-10-07T16:58:18Z</time>
      </trkpt>
      <trkpt lat="5.354071" lon="-72.401456">
        <ele>351.10</ele>
        <time>2021-10-07T16:58:19Z</time>
      </trkpt>
      <trkpt lat="5.354078" lon="-72.401452">
        <ele>351.00</ele>
        <time>2021-10-07T16:58:21Z</time>
      </trkpt>
      <trkpt lat="5.354081" lon="-72.401456">
        <ele>351.00</ele>
        <time>2021-10-07T16:58:22Z</time>
      </trkpt>
      <trkpt lat="5.354083" lon="-72.401462">
        <ele>351.00</ele>
        <time>2021-10-07T16:58:23Z</time>
      </trkpt>
      <trkpt lat="5.354083" lon="-72.401463">
        <ele>351.00</ele>
        <time>2021-10-07T16:58:24Z</time>
      </trkpt>
      <trkpt lat="5.354083" lon="-72.401464">
        <ele>351.00</ele>
        <time>2021-10-07T16:58:25Z</time>
      </trkpt>
      <trkpt lat="5.354083" lon="-72.401465">
        <ele>351.00</ele>
        <time>2021-10-07T16:58:27Z</time>
      </trkpt>
      <trkpt lat="5.354082" lon="-72.401465">
        <ele>351.00</ele>
        <time>2021-10-07T16:58:29Z</time>
      </trkpt>
      <trkpt lat="5.354082" lon="-72.401465">
        <ele>351.00</ele>
        <time>2021-10-07T16:58:30Z</time>
      </trkpt>
      <trkpt lat="5.354082" lon="-72.401465">
        <ele>351.00</ele>
        <time>2021-10-07T16:58:32Z</time>
      </trkpt>
      <trkpt lat="5.354102" lon="-72.401474">
        <ele>351.00</ele>
        <time>2021-10-07T16:58:50Z</time>
      </trkpt>
      <trkpt lat="5.354101" lon="-72.401474">
        <ele>351.00</ele>
        <time>2021-10-07T16:58:52Z</time>
      </trkpt>
      <trkpt lat="5.354116" lon="-72.401480">
        <ele>351.00</ele>
        <time>2021-10-07T16:58:54Z</time>
      </trkpt>
      <trkpt lat="5.354139" lon="-72.401495">
        <ele>351.00</ele>
        <time>2021-10-07T16:58:56Z</time>
      </trkpt>
      <trkpt lat="5.354148" lon="-72.401507">
        <ele>351.00</ele>
        <time>2021-10-07T16:58:57Z</time>
      </trkpt>
      <trkpt lat="5.354159" lon="-72.401520">
        <ele>351.00</ele>
        <time>2021-10-07T16:58:58Z</time>
      </trkpt>
      <trkpt lat="5.354164" lon="-72.401528">
        <ele>351.20</ele>
        <time>2021-10-07T16:58:59Z</time>
      </trkpt>
      <trkpt lat="5.354168" lon="-72.401544">
        <ele>351.40</ele>
        <time>2021-10-07T16:59:00Z</time>
      </trkpt>
      <trkpt lat="5.354167" lon="-72.401583">
        <ele>351.60</ele>
        <time>2021-10-07T16:59:02Z</time>
      </trkpt>
      <trkpt lat="5.354164" lon="-72.401603">
        <ele>351.60</ele>
        <time>2021-10-07T16:59:03Z</time>
      </trkpt>
      <trkpt lat="5.354155" lon="-72.401634">
        <ele>351.60</ele>
        <time>2021-10-07T16:59:05Z</time>
      </trkpt>
      <trkpt lat="5.354148" lon="-72.401651">
        <ele>351.60</ele>
        <time>2021-10-07T16:59:06Z</time>
      </trkpt>
      <trkpt lat="5.354138" lon="-72.401676">
        <ele>352.00</ele>
        <time>2021-10-07T16:59:08Z</time>
      </trkpt>
      <trkpt lat="5.354135" lon="-72.401709">
        <ele>352.30</ele>
        <time>2021-10-07T16:59:10Z</time>
      </trkpt>
      <trkpt lat="5.354128" lon="-72.401755">
        <ele>352.70</ele>
        <time>2021-10-07T16:59:12Z</time>
      </trkpt>
      <trkpt lat="5.354125" lon="-72.401780">
        <ele>352.70</ele>
        <time>2021-10-07T16:59:13Z</time>
      </trkpt>
      <trkpt lat="5.354121" lon="-72.401842">
        <ele>353.10</ele>
        <time>2021-10-07T16:59:15Z</time>
      </trkpt>
      <trkpt lat="5.354120" lon="-72.401879">
        <ele>353.10</ele>
        <time>2021-10-07T16:59:16Z</time>
      </trkpt>
      <trkpt lat="5.354121" lon="-72.401949">
        <ele>353.00</ele>
        <time>2021-10-07T16:59:18Z</time>
      </trkpt>
      <trkpt lat="5.354139" lon="-72.402025">
        <ele>352.30</ele>
        <time>2021-10-07T16:59:20Z</time>
      </trkpt>
      <trkpt lat="5.354153" lon="-72.402068">
        <ele>351.90</ele>
        <time>2021-10-07T16:59:21Z</time>
      </trkpt>
      <trkpt lat="5.354171" lon="-72.402125">
        <ele>351.70</ele>
        <time>2021-10-07T16:59:22Z</time>
      </trkpt>
      <trkpt lat="5.354215" lon="-72.402239">
        <ele>350.80</ele>
        <time>2021-10-07T16:59:24Z</time>
      </trkpt>
      <trkpt lat="5.354231" lon="-72.402295">
        <ele>350.70</ele>
        <time>2021-10-07T16:59:25Z</time>
      </trkpt>
      <trkpt lat="5.354255" lon="-72.402411">
        <ele>351.10</ele>
        <time>2021-10-07T16:59:27Z</time>
      </trkpt>
      <trkpt lat="5.354275" lon="-72.402531">
        <ele>351.90</ele>
        <time>2021-10-07T16:59:29Z</time>
      </trkpt>
      <trkpt lat="5.354281" lon="-72.402589">
        <ele>352.40</ele>
        <time>2021-10-07T16:59:30Z</time>
      </trkpt>
      <trkpt lat="5.354284" lon="-72.402707">
        <ele>353.90</ele>
        <time>2021-10-07T16:59:32Z</time>
      </trkpt>
      <trkpt lat="5.354292" lon="-72.402824">
        <ele>354.50</ele>
        <time>2021-10-07T16:59:34Z</time>
      </trkpt>
      <trkpt lat="5.354321" lon="-72.402902">
        <ele>354.60</ele>
        <time>2021-10-07T16:59:36Z</time>
      </trkpt>
      <trkpt lat="5.354332" lon="-72.402922">
        <ele>354.70</ele>
        <time>2021-10-07T16:59:37Z</time>
      </trkpt>
      <trkpt lat="5.354354" lon="-72.402967">
        <ele>354.30</ele>
        <time>2021-10-07T16:59:39Z</time>
      </trkpt>
      <trkpt lat="5.354367" lon="-72.402995">
        <ele>354.30</ele>
        <time>2021-10-07T16:59:40Z</time>
      </trkpt>
      <trkpt lat="5.354405" lon="-72.403072">
        <ele>353.80</ele>
        <time>2021-10-07T16:59:42Z</time>
      </trkpt>
      <trkpt lat="5.354421" lon="-72.403119">
        <ele>353.10</ele>
        <time>2021-10-07T16:59:44Z</time>
      </trkpt>
      <trkpt lat="5.354441" lon="-72.403214">
        <ele>352.20</ele>
        <time>2021-10-07T16:59:46Z</time>
      </trkpt>
      <trkpt lat="5.354450" lon="-72.403348">
        <ele>351.80</ele>
        <time>2021-10-07T16:59:48Z</time>
      </trkpt>
      <trkpt lat="5.354457" lon="-72.403511">
        <ele>353.20</ele>
        <time>2021-10-07T16:59:50Z</time>
      </trkpt>
      <trkpt lat="5.354458" lon="-72.403583">
        <ele>353.70</ele>
        <time>2021-10-07T16:59:51Z</time>
      </trkpt>
      <trkpt lat="5.354451" lon="-72.403650">
        <ele>354.50</ele>
        <time>2021-10-07T16:59:52Z</time>
      </trkpt>
      <trkpt lat="5.354438" lon="-72.403706">
        <ele>354.80</ele>
        <time>2021-10-07T16:59:53Z</time>
      </trkpt>
      <trkpt lat="5.354414" lon="-72.403767">
        <ele>354.90</ele>
        <time>2021-10-07T16:59:55Z</time>
      </trkpt>
      <trkpt lat="5.354400" lon="-72.403802">
        <ele>354.90</ele>
        <time>2021-10-07T16:59:56Z</time>
      </trkpt>
      <trkpt lat="5.354365" lon="-72.403824">
        <ele>355.00</ele>
        <time>2021-10-07T16:59:58Z</time>
      </trkpt>
      <trkpt lat="5.354375" lon="-72.403891">
        <ele>355.10</ele>
        <time>2021-10-07T17:00:00Z</time>
      </trkpt>
      <trkpt lat="5.354375" lon="-72.403893">
        <ele>355.10</ele>
        <time>2021-10-07T17:00:01Z</time>
      </trkpt>
      <trkpt lat="5.354371" lon="-72.403893">
        <ele>355.10</ele>
        <time>2021-10-07T17:00:03Z</time>
      </trkpt>
      <trkpt lat="5.354357" lon="-72.403891">
        <ele>355.10</ele>
        <time>2021-10-07T17:00:04Z</time>
      </trkpt>
      <trkpt lat="5.354331" lon="-72.403861">
        <ele>355.40</ele>
        <time>2021-10-07T17:00:05Z</time>
      </trkpt>
      <trkpt lat="5.354270" lon="-72.403802">
        <ele>355.30</ele>
        <time>2021-10-07T17:00:07Z</time>
      </trkpt>
      <trkpt lat="5.354225" lon="-72.403767">
        <ele>355.70</ele>
        <time>2021-10-07T17:00:08Z</time>
      </trkpt>
      <trkpt lat="5.354184" lon="-72.403729">
        <ele>355.70</ele>
        <time>2021-10-07T17:00:09Z</time>
      </trkpt>
      <trkpt lat="5.354139" lon="-72.403679">
        <ele>356.00</ele>
        <time>2021-10-07T17:00:10Z</time>
      </trkpt>
      <trkpt lat="5.354103" lon="-72.403646">
        <ele>356.60</ele>
        <time>2021-10-07T17:00:12Z</time>
      </trkpt>
      <trkpt lat="5.354073" lon="-72.403623">
        <ele>357.60</ele>
        <time>2021-10-07T17:00:13Z</time>
      </trkpt>
      <trkpt lat="5.354036" lon="-72.403589">
        <ele>357.60</ele>
        <time>2021-10-07T17:00:14Z</time>
      </trkpt>
      <trkpt lat="5.354007" lon="-72.403558">
        <ele>358.90</ele>
        <time>2021-10-07T17:00:16Z</time>
      </trkpt>
      <trkpt lat="5.353986" lon="-72.403528">
        <ele>360.00</ele>
        <time>2021-10-07T17:00:17Z</time>
      </trkpt>
      <trkpt lat="5.353968" lon="-72.403493">
        <ele>359.70</ele>
        <time>2021-10-07T17:00:18Z</time>
      </trkpt>
      <trkpt lat="5.353944" lon="-72.403451">
        <ele>360.40</ele>
        <time>2021-10-07T17:00:19Z</time>
      </trkpt>
      <trkpt lat="5.353918" lon="-72.403414">
        <ele>360.10</ele>
        <time>2021-10-07T17:00:21Z</time>
      </trkpt>
      <trkpt lat="5.353899" lon="-72.403383">
        <ele>361.00</ele>
        <time>2021-10-07T17:00:22Z</time>
      </trkpt>
      <trkpt lat="5.353894" lon="-72.403375">
        <ele>360.80</ele>
        <time>2021-10-07T17:00:23Z</time>
      </trkpt>
      <trkpt lat="5.353875" lon="-72.403350">
        <ele>360.80</ele>
        <time>2021-10-07T17:00:24Z</time>
      </trkpt>
      <trkpt lat="5.353859" lon="-72.403330">
        <ele>361.40</ele>
        <time>2021-10-07T17:00:25Z</time>
      </trkpt>
      <trkpt lat="5.353831" lon="-72.403290">
        <ele>361.10</ele>
        <time>2021-10-07T17:00:27Z</time>
      </trkpt>
      <trkpt lat="5.353795" lon="-72.403236">
        <ele>361.30</ele>
        <time>2021-10-07T17:00:29Z</time>
      </trkpt>
      <trkpt lat="5.353776" lon="-72.403197">
        <ele>361.10</ele>
        <time>2021-10-07T17:00:30Z</time>
      </trkpt>
      <trkpt lat="5.353764" lon="-72.403158">
        <ele>360.30</ele>
        <time>2021-10-07T17:00:31Z</time>
      </trkpt>
      <trkpt lat="5.353755" lon="-72.403064">
        <ele>358.90</ele>
        <time>2021-10-07T17:00:33Z</time>
      </trkpt>
      <trkpt lat="5.353725" lon="-72.402953">
        <ele>359.00</ele>
        <time>2021-10-07T17:00:35Z</time>
      </trkpt>
      <trkpt lat="5.353707" lon="-72.402897">
        <ele>358.90</ele>
        <time>2021-10-07T17:00:36Z</time>
      </trkpt>
      <trkpt lat="5.353665" lon="-72.402789">
        <ele>359.40</ele>
        <time>2021-10-07T17:00:38Z</time>
      </trkpt>
      <trkpt lat="5.353639" lon="-72.402734">
        <ele>359.30</ele>
        <time>2021-10-07T17:00:39Z</time>
      </trkpt>
      <trkpt lat="5.353598" lon="-72.402627">
        <ele>358.40</ele>
        <time>2021-10-07T17:00:41Z</time>
      </trkpt>
      <trkpt lat="5.353577" lon="-72.402560">
        <ele>356.80</ele>
        <time>2021-10-07T17:00:42Z</time>
      </trkpt>
      <trkpt lat="5.353564" lon="-72.402515">
        <ele>356.50</ele>
        <time>2021-10-07T17:00:44Z</time>
      </trkpt>
      <trkpt lat="5.353546" lon="-72.402468">
        <ele>355.90</ele>
        <time>2021-10-07T17:00:45Z</time>
      </trkpt>
      <trkpt lat="5.353536" lon="-72.402440">
        <ele>355.90</ele>
        <time>2021-10-07T17:00:46Z</time>
      </trkpt>
      <trkpt lat="5.353529" lon="-72.402418">
        <ele>355.50</ele>
        <time>2021-10-07T17:00:47Z</time>
      </trkpt>
      <trkpt lat="5.353531" lon="-72.402416">
        <ele>355.50</ele>
        <time>2021-10-07T17:00:48Z</time>
      </trkpt>
      <trkpt lat="5.353531" lon="-72.402403">
        <ele>355.50</ele>
        <time>2021-10-07T17:00:50Z</time>
      </trkpt>
      <trkpt lat="5.353532" lon="-72.402385">
        <ele>355.20</ele>
        <time>2021-10-07T17:00:51Z</time>
      </trkpt>
      <trkpt lat="5.353534" lon="-72.402368">
        <ele>355.20</ele>
        <time>2021-10-07T17:00:52Z</time>
      </trkpt>
      <trkpt lat="5.353529" lon="-72.402339">
        <ele>354.90</ele>
        <time>2021-10-07T17:00:54Z</time>
      </trkpt>
      <trkpt lat="5.353511" lon="-72.402300">
        <ele>355.40</ele>
        <time>2021-10-07T17:00:56Z</time>
      </trkpt>
      <trkpt lat="5.353481" lon="-72.402259">
        <ele>355.40</ele>
        <time>2021-10-07T17:00:57Z</time>
      </trkpt>
      <trkpt lat="5.353462" lon="-72.402228">
        <ele>355.90</ele>
        <time>2021-10-07T17:00:58Z</time>
      </trkpt>
      <trkpt lat="5.353440" lon="-72.402195">
        <ele>355.90</ele>
        <time>2021-10-07T17:01:00Z</time>
      </trkpt>
      <trkpt lat="5.353426" lon="-72.402165">
        <ele>356.20</ele>
        <time>2021-10-07T17:01:01Z</time>
      </trkpt>
      <trkpt lat="5.353409" lon="-72.402132">
        <ele>356.00</ele>
        <time>2021-10-07T17:01:02Z</time>
      </trkpt>
      <trkpt lat="5.353372" lon="-72.402069">
        <ele>356.10</ele>
        <time>2021-10-07T17:01:04Z</time>
      </trkpt>
      <trkpt lat="5.353337" lon="-72.401995">
        <ele>356.10</ele>
        <time>2021-10-07T17:01:06Z</time>
      </trkpt>
      <trkpt lat="5.353313" lon="-72.401962">
        <ele>356.00</ele>
        <time>2021-10-07T17:01:07Z</time>
      </trkpt>
      <trkpt lat="5.353274" lon="-72.401902">
        <ele>356.80</ele>
        <time>2021-10-07T17:01:09Z</time>
      </trkpt>
      <trkpt lat="5.353255" lon="-72.401858">
        <ele>357.60</ele>
        <time>2021-10-07T17:01:10Z</time>
      </trkpt>
      <trkpt lat="5.353176" lon="-72.401699">
        <ele>359.00</ele>
        <time>2021-10-07T17:01:12Z</time>
      </trkpt>
      <trkpt lat="5.353140" lon="-72.401637">
        <ele>359.10</ele>
        <time>2021-10-07T17:01:13Z</time>
      </trkpt>
      <trkpt lat="5.353101" lon="-72.401582">
        <ele>359.90</ele>
        <time>2021-10-07T17:01:14Z</time>
      </trkpt>
      <trkpt lat="5.353041" lon="-72.401492">
        <ele>360.40</ele>
        <time>2021-10-07T17:01:16Z</time>
      </trkpt>
      <trkpt lat="5.353014" lon="-72.401459">
        <ele>360.10</ele>
        <time>2021-10-07T17:01:17Z</time>
      </trkpt>
      <trkpt lat="5.352978" lon="-72.401408">
        <ele>359.70</ele>
        <time>2021-10-07T17:01:19Z</time>
      </trkpt>
      <trkpt lat="5.352935" lon="-72.401343">
        <ele>358.80</ele>
        <time>2021-10-07T17:01:21Z</time>
      </trkpt>
      <trkpt lat="5.352916" lon="-72.401308">
        <ele>358.50</ele>
        <time>2021-10-07T17:01:22Z</time>
      </trkpt>
      <trkpt lat="5.352885" lon="-72.401251">
        <ele>358.00</ele>
        <time>2021-10-07T17:01:24Z</time>
      </trkpt>
      <trkpt lat="5.352858" lon="-72.401209">
        <ele>357.70</ele>
        <time>2021-10-07T17:01:25Z</time>
      </trkpt>
      <trkpt lat="5.352828" lon="-72.401157">
        <ele>357.60</ele>
        <time>2021-10-07T17:01:27Z</time>
      </trkpt>
      <trkpt lat="5.352814" lon="-72.401120">
        <ele>357.20</ele>
        <time>2021-10-07T17:01:28Z</time>
      </trkpt>
      <trkpt lat="5.352810" lon="-72.401088">
        <ele>356.90</ele>
        <time>2021-10-07T17:01:29Z</time>
      </trkpt>
      <trkpt lat="5.352812" lon="-72.401046">
        <ele>356.60</ele>
        <time>2021-10-07T17:01:31Z</time>
      </trkpt>
      <trkpt lat="5.352819" lon="-72.401025">
        <ele>356.60</ele>
        <time>2021-10-07T17:01:32Z</time>
      </trkpt>
      <trkpt lat="5.352827" lon="-72.401006">
        <ele>356.20</ele>
        <time>2021-10-07T17:01:34Z</time>
      </trkpt>
      <trkpt lat="5.352830" lon="-72.400989">
        <ele>356.20</ele>
        <time>2021-10-07T17:01:35Z</time>
      </trkpt>
      <trkpt lat="5.352829" lon="-72.400979">
        <ele>356.20</ele>
        <time>2021-10-07T17:01:36Z</time>
      </trkpt>
      <trkpt lat="5.352829" lon="-72.400973">
        <ele>355.80</ele>
        <time>2021-10-07T17:01:37Z</time>
      </trkpt>
      <trkpt lat="5.352829" lon="-72.400968">
        <ele>355.80</ele>
        <time>2021-10-07T17:01:38Z</time>
      </trkpt>
      <trkpt lat="5.352825" lon="-72.400950">
        <ele>355.80</ele>
        <time>2021-10-07T17:01:40Z</time>
      </trkpt>
      <trkpt lat="5.352813" lon="-72.400923">
        <ele>355.40</ele>
        <time>2021-10-07T17:01:42Z</time>
      </trkpt>
      <trkpt lat="5.352799" lon="-72.400892">
        <ele>355.40</ele>
        <time>2021-10-07T17:01:43Z</time>
      </trkpt>
      <trkpt lat="5.352787" lon="-72.400866">
        <ele>355.80</ele>
        <time>2021-10-07T17:01:44Z</time>
      </trkpt>
      <trkpt lat="5.352759" lon="-72.400834">
        <ele>355.90</ele>
        <time>2021-10-07T17:01:46Z</time>
      </trkpt>
      <trkpt lat="5.352747" lon="-72.400806">
        <ele>356.60</ele>
        <time>2021-10-07T17:01:47Z</time>
      </trkpt>
      <trkpt lat="5.352730" lon="-72.400782">
        <ele>357.00</ele>
        <time>2021-10-07T17:01:48Z</time>
      </trkpt>
      <trkpt lat="5.352724" lon="-72.400775">
        <ele>357.00</ele>
        <time>2021-10-07T17:01:49Z</time>
      </trkpt>
      <trkpt lat="5.352707" lon="-72.400758">
        <ele>358.30</ele>
        <time>2021-10-07T17:01:50Z</time>
      </trkpt>
      <trkpt lat="5.352680" lon="-72.400724">
        <ele>358.30</ele>
        <time>2021-10-07T17:01:52Z</time>
      </trkpt>
      <trkpt lat="5.352661" lon="-72.400692">
        <ele>359.30</ele>
        <time>2021-10-07T17:01:53Z</time>
      </trkpt>
      <trkpt lat="5.352656" lon="-72.400683">
        <ele>359.30</ele>
        <time>2021-10-07T17:01:54Z</time>
      </trkpt>
      <trkpt lat="5.352649" lon="-72.400655">
        <ele>359.50</ele>
        <time>2021-10-07T17:01:56Z</time>
      </trkpt>
      <trkpt lat="5.352651" lon="-72.400632">
        <ele>359.50</ele>
        <time>2021-10-07T17:01:57Z</time>
      </trkpt>
      <trkpt lat="5.352654" lon="-72.400599">
        <ele>359.50</ele>
        <time>2021-10-07T17:01:59Z</time>
      </trkpt>
      <trkpt lat="5.352654" lon="-72.400582">
        <ele>359.30</ele>
        <time>2021-10-07T17:02:00Z</time>
      </trkpt>
      <trkpt lat="5.352655" lon="-72.400569">
        <ele>359.30</ele>
        <time>2021-10-07T17:02:01Z</time>
      </trkpt>
      <trkpt lat="5.352653" lon="-72.400563">
        <ele>359.30</ele>
        <time>2021-10-07T17:02:02Z</time>
      </trkpt>
      <trkpt lat="5.352653" lon="-72.400544">
        <ele>359.00</ele>
        <time>2021-10-07T17:02:04Z</time>
      </trkpt>
      <trkpt lat="5.352651" lon="-72.400505">
        <ele>359.00</ele>
        <time>2021-10-07T17:02:06Z</time>
      </trkpt>
      <trkpt lat="5.352633" lon="-72.400482">
        <ele>358.70</ele>
        <time>2021-10-07T17:02:08Z</time>
      </trkpt>
      <trkpt lat="5.352629" lon="-72.400475">
        <ele>358.70</ele>
        <time>2021-10-07T17:02:09Z</time>
      </trkpt>
      <trkpt lat="5.352618" lon="-72.400456">
        <ele>358.60</ele>
        <time>2021-10-07T17:02:10Z</time>
      </trkpt>
      <trkpt lat="5.352594" lon="-72.400411">
        <ele>358.30</ele>
        <time>2021-10-07T17:02:12Z</time>
      </trkpt>
      <trkpt lat="5.352560" lon="-72.400368">
        <ele>358.40</ele>
        <time>2021-10-07T17:02:13Z</time>
      </trkpt>
      <trkpt lat="5.352532" lon="-72.400329">
        <ele>358.50</ele>
        <time>2021-10-07T17:02:15Z</time>
      </trkpt>
      <trkpt lat="5.352510" lon="-72.400297">
        <ele>358.50</ele>
        <time>2021-10-07T17:02:16Z</time>
      </trkpt>
      <trkpt lat="5.352479" lon="-72.400252">
        <ele>358.30</ele>
        <time>2021-10-07T17:02:18Z</time>
      </trkpt>
      <trkpt lat="5.352464" lon="-72.400229">
        <ele>357.80</ele>
        <time>2021-10-07T17:02:19Z</time>
      </trkpt>
      <trkpt lat="5.352444" lon="-72.400201">
        <ele>357.30</ele>
        <time>2021-10-07T17:02:20Z</time>
      </trkpt>
      <trkpt lat="5.352417" lon="-72.400158">
        <ele>356.90</ele>
        <time>2021-10-07T17:02:21Z</time>
      </trkpt>
      <trkpt lat="5.352395" lon="-72.400125">
        <ele>357.00</ele>
        <time>2021-10-07T17:02:22Z</time>
      </trkpt>
      <trkpt lat="5.352363" lon="-72.400082">
        <ele>357.10</ele>
        <time>2021-10-07T17:02:24Z</time>
      </trkpt>
      <trkpt lat="5.352333" lon="-72.400041">
        <ele>356.90</ele>
        <time>2021-10-07T17:02:25Z</time>
      </trkpt>
      <trkpt lat="5.352290" lon="-72.399983">
        <ele>356.70</ele>
        <time>2021-10-07T17:02:27Z</time>
      </trkpt>
      <trkpt lat="5.352260" lon="-72.399937">
        <ele>356.60</ele>
        <time>2021-10-07T17:02:28Z</time>
      </trkpt>
      <trkpt lat="5.352241" lon="-72.399906">
        <ele>356.60</ele>
        <time>2021-10-07T17:02:29Z</time>
      </trkpt>
      <trkpt lat="5.352207" lon="-72.399857">
        <ele>356.30</ele>
        <time>2021-10-07T17:02:31Z</time>
      </trkpt>
      <trkpt lat="5.352194" lon="-72.399819">
        <ele>356.60</ele>
        <time>2021-10-07T17:02:32Z</time>
      </trkpt>
      <trkpt lat="5.352178" lon="-72.399785">
        <ele>356.60</ele>
        <time>2021-10-07T17:02:34Z</time>
      </trkpt>
      <trkpt lat="5.352169" lon="-72.399735">
        <ele>356.60</ele>
        <time>2021-10-07T17:02:36Z</time>
      </trkpt>
      <trkpt lat="5.352165" lon="-72.399694">
        <ele>356.60</ele>
        <time>2021-10-07T17:02:37Z</time>
      </trkpt>
      <trkpt lat="5.352156" lon="-72.399637">
        <ele>356.60</ele>
        <time>2021-10-07T17:02:38Z</time>
      </trkpt>
      <trkpt lat="5.352145" lon="-72.399586">
        <ele>356.80</ele>
        <time>2021-10-07T17:02:39Z</time>
      </trkpt>
      <trkpt lat="5.352136" lon="-72.399537">
        <ele>356.80</ele>
        <time>2021-10-07T17:02:41Z</time>
      </trkpt>
      <trkpt lat="5.352127" lon="-72.399490">
        <ele>356.70</ele>
        <time>2021-10-07T17:02:42Z</time>
      </trkpt>
      <trkpt lat="5.352116" lon="-72.399448">
        <ele>356.60</ele>
        <time>2021-10-07T17:02:43Z</time>
      </trkpt>
      <trkpt lat="5.352105" lon="-72.399413">
        <ele>356.90</ele>
        <time>2021-10-07T17:02:44Z</time>
      </trkpt>
      <trkpt lat="5.352095" lon="-72.399373">
        <ele>356.90</ele>
        <time>2021-10-07T17:02:45Z</time>
      </trkpt>
      <trkpt lat="5.352081" lon="-72.399312">
        <ele>356.90</ele>
        <time>2021-10-07T17:02:47Z</time>
      </trkpt>
      <trkpt lat="5.352070" lon="-72.399265">
        <ele>356.90</ele>
        <time>2021-10-07T17:02:48Z</time>
      </trkpt>
      <trkpt lat="5.352059" lon="-72.399220">
        <ele>357.30</ele>
        <time>2021-10-07T17:02:49Z</time>
      </trkpt>
      <trkpt lat="5.352050" lon="-72.399180">
        <ele>357.30</ele>
        <time>2021-10-07T17:02:50Z</time>
      </trkpt>
      <trkpt lat="5.352034" lon="-72.399105">
        <ele>357.10</ele>
        <time>2021-10-07T17:02:52Z</time>
      </trkpt>
      <trkpt lat="5.352025" lon="-72.399043">
        <ele>357.30</ele>
        <time>2021-10-07T17:02:54Z</time>
      </trkpt>
      <trkpt lat="5.352031" lon="-72.399002">
        <ele>356.80</ele>
        <time>2021-10-07T17:02:55Z</time>
      </trkpt>
      <trkpt lat="5.352037" lon="-72.398962">
        <ele>356.60</ele>
        <time>2021-10-07T17:02:56Z</time>
      </trkpt>
      <trkpt lat="5.352047" lon="-72.398888">
        <ele>356.10</ele>
        <time>2021-10-07T17:02:58Z</time>
      </trkpt>
      <trkpt lat="5.352052" lon="-72.398825">
        <ele>355.40</ele>
        <time>2021-10-07T17:02:59Z</time>
      </trkpt>
      <trkpt lat="5.352049" lon="-72.398766">
        <ele>355.00</ele>
        <time>2021-10-07T17:03:00Z</time>
      </trkpt>
      <trkpt lat="5.352015" lon="-72.398611">
        <ele>353.00</ele>
        <time>2021-10-07T17:03:02Z</time>
      </trkpt>
      <trkpt lat="5.352005" lon="-72.398566">
        <ele>352.60</ele>
        <time>2021-10-07T17:03:03Z</time>
      </trkpt>
      <trkpt lat="5.352021" lon="-72.398484">
        <ele>351.80</ele>
        <time>2021-10-07T17:03:05Z</time>
      </trkpt>
      <trkpt lat="5.352003" lon="-72.398389">
        <ele>351.30</ele>
        <time>2021-10-07T17:03:07Z</time>
      </trkpt>
      <trkpt lat="5.351991" lon="-72.398339">
        <ele>351.00</ele>
        <time>2021-10-07T17:03:08Z</time>
      </trkpt>
      <trkpt lat="5.351969" lon="-72.398257">
        <ele>351.20</ele>
        <time>2021-10-07T17:03:10Z</time>
      </trkpt>
      <trkpt lat="5.351949" lon="-72.398197">
        <ele>351.20</ele>
        <time>2021-10-07T17:03:12Z</time>
      </trkpt>
      <trkpt lat="5.351934" lon="-72.398152">
        <ele>351.90</ele>
        <time>2021-10-07T17:03:13Z</time>
      </trkpt>
      <trkpt lat="5.351924" lon="-72.398103">
        <ele>351.80</ele>
        <time>2021-10-07T17:03:14Z</time>
      </trkpt>
      <trkpt lat="5.351916" lon="-72.398057">
        <ele>351.70</ele>
        <time>2021-10-07T17:03:16Z</time>
      </trkpt>
      <trkpt lat="5.351911" lon="-72.398005">
        <ele>351.20</ele>
        <time>2021-10-07T17:03:17Z</time>
      </trkpt>
      <trkpt lat="5.351898" lon="-72.397925">
        <ele>350.90</ele>
        <time>2021-10-07T17:03:18Z</time>
      </trkpt>
      <trkpt lat="5.351888" lon="-72.397855">
        <ele>351.10</ele>
        <time>2021-10-07T17:03:20Z</time>
      </trkpt>
      <trkpt lat="5.351882" lon="-72.397790">
        <ele>351.20</ele>
        <time>2021-10-07T17:03:21Z</time>
      </trkpt>
      <trkpt lat="5.351883" lon="-72.397733">
        <ele>351.30</ele>
        <time>2021-10-07T17:03:22Z</time>
      </trkpt>
      <trkpt lat="5.351885" lon="-72.397683">
        <ele>351.30</ele>
        <time>2021-10-07T17:03:23Z</time>
      </trkpt>
      <trkpt lat="5.351885" lon="-72.397637">
        <ele>351.30</ele>
        <time>2021-10-07T17:03:24Z</time>
      </trkpt>
      <trkpt lat="5.351884" lon="-72.397574">
        <ele>351.10</ele>
        <time>2021-10-07T17:03:25Z</time>
      </trkpt>
      <trkpt lat="5.351880" lon="-72.397500">
        <ele>351.10</ele>
        <time>2021-10-07T17:03:27Z</time>
      </trkpt>
      <trkpt lat="5.351867" lon="-72.397383">
        <ele>351.30</ele>
        <time>2021-10-07T17:03:29Z</time>
      </trkpt>
      <trkpt lat="5.351859" lon="-72.397194">
        <ele>352.10</ele>
        <time>2021-10-07T17:03:31Z</time>
      </trkpt>
      <trkpt lat="5.351869" lon="-72.397118">
        <ele>351.80</ele>
        <time>2021-10-07T17:03:33Z</time>
      </trkpt>
      <trkpt lat="5.351876" lon="-72.397083">
        <ele>351.50</ele>
        <time>2021-10-07T17:03:34Z</time>
      </trkpt>
      <trkpt lat="5.351884" lon="-72.397035">
        <ele>351.30</ele>
        <time>2021-10-07T17:03:35Z</time>
      </trkpt>
      <trkpt lat="5.351898" lon="-72.396999">
        <ele>350.60</ele>
        <time>2021-10-07T17:03:37Z</time>
      </trkpt>
      <trkpt lat="5.351905" lon="-72.396968">
        <ele>350.60</ele>
        <time>2021-10-07T17:03:38Z</time>
      </trkpt>
      <trkpt lat="5.351910" lon="-72.396938">
        <ele>350.70</ele>
        <time>2021-10-07T17:03:39Z</time>
      </trkpt>
      <trkpt lat="5.351908" lon="-72.396896">
        <ele>350.80</ele>
        <time>2021-10-07T17:03:40Z</time>
      </trkpt>
      <trkpt lat="5.351906" lon="-72.396864">
        <ele>350.80</ele>
        <time>2021-10-07T17:03:41Z</time>
      </trkpt>
      <trkpt lat="5.351904" lon="-72.396827">
        <ele>351.00</ele>
        <time>2021-10-07T17:03:42Z</time>
      </trkpt>
      <trkpt lat="5.351902" lon="-72.396776">
        <ele>351.20</ele>
        <time>2021-10-07T17:03:44Z</time>
      </trkpt>
      <trkpt lat="5.351911" lon="-72.396733">
        <ele>351.50</ele>
        <time>2021-10-07T17:03:46Z</time>
      </trkpt>
      <trkpt lat="5.351920" lon="-72.396699">
        <ele>351.80</ele>
        <time>2021-10-07T17:03:48Z</time>
      </trkpt>
      <trkpt lat="5.351923" lon="-72.396685">
        <ele>351.80</ele>
        <time>2021-10-07T17:03:49Z</time>
      </trkpt>
      <trkpt lat="5.351926" lon="-72.396676">
        <ele>352.10</ele>
        <time>2021-10-07T17:03:50Z</time>
      </trkpt>
      <trkpt lat="5.351929" lon="-72.396670">
        <ele>352.10</ele>
        <time>2021-10-07T17:03:51Z</time>
      </trkpt>
      <trkpt lat="5.351925" lon="-72.396654">
        <ele>352.10</ele>
        <time>2021-10-07T17:03:54Z</time>
      </trkpt>
      <trkpt lat="5.351922" lon="-72.396645">
        <ele>352.10</ele>
        <time>2021-10-07T17:03:55Z</time>
      </trkpt>
      <trkpt lat="5.351919" lon="-72.396637">
        <ele>352.40</ele>
        <time>2021-10-07T17:03:57Z</time>
      </trkpt>
      <trkpt lat="5.351916" lon="-72.396629">
        <ele>352.40</ele>
        <time>2021-10-07T17:03:58Z</time>
      </trkpt>
      <trkpt lat="5.351900" lon="-72.396600">
        <ele>352.40</ele>
        <time>2021-10-07T17:03:59Z</time>
      </trkpt>
      <trkpt lat="5.351879" lon="-72.396560">
        <ele>354.00</ele>
        <time>2021-10-07T17:04:01Z</time>
      </trkpt>
      <trkpt lat="5.351853" lon="-72.396515">
        <ele>355.10</ele>
        <time>2021-10-07T17:04:02Z</time>
      </trkpt>
      <trkpt lat="5.351828" lon="-72.396468">
        <ele>354.30</ele>
        <time>2021-10-07T17:04:03Z</time>
      </trkpt>
      <trkpt lat="5.351795" lon="-72.396412">
        <ele>354.50</ele>
        <time>2021-10-07T17:04:05Z</time>
      </trkpt>
      <trkpt lat="5.351765" lon="-72.396367">
        <ele>354.60</ele>
        <time>2021-10-07T17:04:06Z</time>
      </trkpt>
      <trkpt lat="5.351744" lon="-72.396338">
        <ele>354.30</ele>
        <time>2021-10-07T17:04:07Z</time>
      </trkpt>
      <trkpt lat="5.351735" lon="-72.396317">
        <ele>354.30</ele>
        <time>2021-10-07T17:04:08Z</time>
      </trkpt>
      <trkpt lat="5.351719" lon="-72.396278">
        <ele>354.60</ele>
        <time>2021-10-07T17:04:10Z</time>
      </trkpt>
      <trkpt lat="5.351712" lon="-72.396246">
        <ele>354.40</ele>
        <time>2021-10-07T17:04:11Z</time>
      </trkpt>
      <trkpt lat="5.351704" lon="-72.396219">
        <ele>354.40</ele>
        <time>2021-10-07T17:04:13Z</time>
      </trkpt>
      <trkpt lat="5.351700" lon="-72.396191">
        <ele>354.20</ele>
        <time>2021-10-07T17:04:14Z</time>
      </trkpt>
      <trkpt lat="5.351693" lon="-72.396162">
        <ele>354.00</ele>
        <time>2021-10-07T17:04:15Z</time>
      </trkpt>
      <trkpt lat="5.351679" lon="-72.396118">
        <ele>353.80</ele>
        <time>2021-10-07T17:04:17Z</time>
      </trkpt>
      <trkpt lat="5.351676" lon="-72.396090">
        <ele>353.80</ele>
        <time>2021-10-07T17:04:18Z</time>
      </trkpt>
      <trkpt lat="5.351676" lon="-72.396069">
        <ele>353.40</ele>
        <time>2021-10-07T17:04:19Z</time>
      </trkpt>
      <trkpt lat="5.351683" lon="-72.396036">
        <ele>353.00</ele>
        <time>2021-10-07T17:04:21Z</time>
      </trkpt>
      <trkpt lat="5.351687" lon="-72.396010">
        <ele>353.00</ele>
        <time>2021-10-07T17:04:23Z</time>
      </trkpt>
      <trkpt lat="5.351687" lon="-72.396003">
        <ele>353.00</ele>
        <time>2021-10-07T17:04:24Z</time>
      </trkpt>
      <trkpt lat="5.351688" lon="-72.395999">
        <ele>353.00</ele>
        <time>2021-10-07T17:04:26Z</time>
      </trkpt>
      <trkpt lat="5.351691" lon="-72.395999">
        <ele>353.00</ele>
        <time>2021-10-07T17:04:28Z</time>
      </trkpt>
      <trkpt lat="5.351692" lon="-72.395999">
        <ele>353.00</ele>
        <time>2021-10-07T17:04:29Z</time>
      </trkpt>
      <trkpt lat="5.351694" lon="-72.395999">
        <ele>353.00</ele>
        <time>2021-10-07T17:04:31Z</time>
      </trkpt>
      <trkpt lat="5.351695" lon="-72.395998">
        <ele>353.00</ele>
        <time>2021-10-07T17:04:32Z</time>
      </trkpt>
      <trkpt lat="5.351697" lon="-72.395996">
        <ele>352.60</ele>
        <time>2021-10-07T17:04:34Z</time>
      </trkpt>
      <trkpt lat="5.351697" lon="-72.395992">
        <ele>352.60</ele>
        <time>2021-10-07T17:04:35Z</time>
      </trkpt>
      <trkpt lat="5.351698" lon="-72.395986">
        <ele>352.60</ele>
        <time>2021-10-07T17:04:37Z</time>
      </trkpt>
      <trkpt lat="5.351700" lon="-72.395983">
        <ele>352.60</ele>
        <time>2021-10-07T17:04:38Z</time>
      </trkpt>
      <trkpt lat="5.351706" lon="-72.395975">
        <ele>352.60</ele>
        <time>2021-10-07T17:04:40Z</time>
      </trkpt>
      <trkpt lat="5.351710" lon="-72.395970">
        <ele>352.60</ele>
        <time>2021-10-07T17:04:41Z</time>
      </trkpt>
      <trkpt lat="5.351713" lon="-72.395967">
        <ele>352.60</ele>
        <time>2021-10-07T17:04:42Z</time>
      </trkpt>
      <trkpt lat="5.351718" lon="-72.395963">
        <ele>352.60</ele>
        <time>2021-10-07T17:04:43Z</time>
      </trkpt>
      <trkpt lat="5.351721" lon="-72.395960">
        <ele>352.60</ele>
        <time>2021-10-07T17:04:45Z</time>
      </trkpt>
      <trkpt lat="5.351724" lon="-72.395958">
        <ele>352.60</ele>
        <time>2021-10-07T17:04:46Z</time>
      </trkpt>
      <trkpt lat="5.351728" lon="-72.395956">
        <ele>352.40</ele>
        <time>2021-10-07T17:04:48Z</time>
      </trkpt>
      <trkpt lat="5.351729" lon="-72.395955">
        <ele>352.40</ele>
        <time>2021-10-07T17:04:49Z</time>
      </trkpt>
      <trkpt lat="5.351729" lon="-72.395958">
        <ele>352.40</ele>
        <time>2021-10-07T17:04:50Z</time>
      </trkpt>
      <trkpt lat="5.351731" lon="-72.395968">
        <ele>352.40</ele>
        <time>2021-10-07T17:04:52Z</time>
      </trkpt>
      <trkpt lat="5.351736" lon="-72.395981">
        <ele>352.40</ele>
        <time>2021-10-07T17:04:53Z</time>
      </trkpt>
      <trkpt lat="5.351737" lon="-72.395987">
        <ele>352.40</ele>
        <time>2021-10-07T17:04:54Z</time>
      </trkpt>
      <trkpt lat="5.351741" lon="-72.395993">
        <ele>352.40</ele>
        <time>2021-10-07T17:04:55Z</time>
      </trkpt>
      <trkpt lat="5.351745" lon="-72.395996">
        <ele>352.40</ele>
        <time>2021-10-07T17:04:57Z</time>
      </trkpt>
      <trkpt lat="5.351748" lon="-72.396000">
        <ele>352.70</ele>
        <time>2021-10-07T17:04:59Z</time>
      </trkpt>
      <trkpt lat="5.351752" lon="-72.396003">
        <ele>352.70</ele>
        <time>2021-10-07T17:05:01Z</time>
      </trkpt>
      <trkpt lat="5.351756" lon="-72.396007">
        <ele>352.70</ele>
        <time>2021-10-07T17:05:02Z</time>
      </trkpt>
      <trkpt lat="5.351760" lon="-72.396010">
        <ele>352.70</ele>
        <time>2021-10-07T17:05:03Z</time>
      </trkpt>
      <trkpt lat="5.351763" lon="-72.396014">
        <ele>352.70</ele>
        <time>2021-10-07T17:05:04Z</time>
      </trkpt>
      <trkpt lat="5.351767" lon="-72.396017">
        <ele>352.70</ele>
        <time>2021-10-07T17:05:06Z</time>
      </trkpt>
      <trkpt lat="5.351771" lon="-72.396021">
        <ele>352.20</ele>
        <time>2021-10-07T17:05:07Z</time>
      </trkpt>
      <trkpt lat="5.351802" lon="-72.396038">
        <ele>352.20</ele>
        <time>2021-10-07T17:05:08Z</time>
      </trkpt>
      <trkpt lat="5.351812" lon="-72.396045">
        <ele>352.40</ele>
        <time>2021-10-07T17:05:09Z</time>
      </trkpt>
      <trkpt lat="5.351841" lon="-72.396070">
        <ele>351.60</ele>
        <time>2021-10-07T17:05:10Z</time>
      </trkpt>
      <trkpt lat="5.351850" lon="-72.396079">
        <ele>351.60</ele>
        <time>2021-10-07T17:05:11Z</time>
      </trkpt>
      <trkpt lat="5.351875" lon="-72.396104">
        <ele>350.90</ele>
        <time>2021-10-07T17:05:13Z</time>
      </trkpt>
      <trkpt lat="5.351880" lon="-72.396138">
        <ele>351.10</ele>
        <time>2021-10-07T17:05:14Z</time>
      </trkpt>
      <trkpt lat="5.351890" lon="-72.396185">
        <ele>351.40</ele>
        <time>2021-10-07T17:05:15Z</time>
      </trkpt>
      <trkpt lat="5.351899" lon="-72.396212">
        <ele>350.90</ele>
        <time>2021-10-07T17:05:16Z</time>
      </trkpt>
      <trkpt lat="5.351912" lon="-72.396246">
        <ele>350.90</ele>
        <time>2021-10-07T17:05:17Z</time>
      </trkpt>
      <trkpt lat="5.351926" lon="-72.396277">
        <ele>351.10</ele>
        <time>2021-10-07T17:05:18Z</time>
      </trkpt>
      <trkpt lat="5.351947" lon="-72.396325">
        <ele>350.40</ele>
        <time>2021-10-07T17:05:20Z</time>
      </trkpt>
      <trkpt lat="5.351959" lon="-72.396363">
        <ele>350.50</ele>
        <time>2021-10-07T17:05:22Z</time>
      </trkpt>
      <trkpt lat="5.351970" lon="-72.396393">
        <ele>350.60</ele>
        <time>2021-10-07T17:05:24Z</time>
      </trkpt>
      <trkpt lat="5.351985" lon="-72.396444">
        <ele>349.30</ele>
        <time>2021-10-07T17:05:26Z</time>
      </trkpt>
      <trkpt lat="5.351993" lon="-72.396472">
        <ele>349.30</ele>
        <time>2021-10-07T17:05:27Z</time>
      </trkpt>
      <trkpt lat="5.352004" lon="-72.396511">
        <ele>349.30</ele>
        <time>2021-10-07T17:05:29Z</time>
      </trkpt>
      <trkpt lat="5.352010" lon="-72.396545">
        <ele>349.20</ele>
        <time>2021-10-07T17:05:30Z</time>
      </trkpt>
      <trkpt lat="5.352012" lon="-72.396555">
        <ele>349.10</ele>
        <time>2021-10-07T17:05:31Z</time>
      </trkpt>
      <trkpt lat="5.352014" lon="-72.396572">
        <ele>349.10</ele>
        <time>2021-10-07T17:05:32Z</time>
      </trkpt>
      <trkpt lat="5.352010" lon="-72.396595">
        <ele>349.10</ele>
        <time>2021-10-07T17:05:34Z</time>
      </trkpt>
      <trkpt lat="5.351998" lon="-72.396609">
        <ele>349.00</ele>
        <time>2021-10-07T17:05:36Z</time>
      </trkpt>
      <trkpt lat="5.351994" lon="-72.396614">
        <ele>349.00</ele>
        <time>2021-10-07T17:05:37Z</time>
      </trkpt>
      <trkpt lat="5.351993" lon="-72.396620">
        <ele>349.00</ele>
        <time>2021-10-07T17:05:39Z</time>
      </trkpt>
      <trkpt lat="5.351993" lon="-72.396623">
        <ele>349.00</ele>
        <time>2021-10-07T17:05:40Z</time>
      </trkpt>
      <trkpt lat="5.351994" lon="-72.396631">
        <ele>349.00</ele>
        <time>2021-10-07T17:05:42Z</time>
      </trkpt>
      <trkpt lat="5.351995" lon="-72.396635">
        <ele>349.00</ele>
        <time>2021-10-07T17:05:43Z</time>
      </trkpt>
      <trkpt lat="5.352003" lon="-72.396644">
        <ele>348.90</ele>
        <time>2021-10-07T17:05:45Z</time>
      </trkpt>
      <trkpt lat="5.352022" lon="-72.396666">
        <ele>348.90</ele>
        <time>2021-10-07T17:05:47Z</time>
      </trkpt>
      <trkpt lat="5.352031" lon="-72.396679">
        <ele>347.10</ele>
        <time>2021-10-07T17:05:48Z</time>
      </trkpt>
      <trkpt lat="5.352042" lon="-72.396708">
        <ele>347.10</ele>
        <time>2021-10-07T17:05:50Z</time>
      </trkpt>
      <trkpt lat="5.352053" lon="-72.396743">
        <ele>347.10</ele>
        <time>2021-10-07T17:05:52Z</time>
      </trkpt>
      <trkpt lat="5.352076" lon="-72.396775">
        <ele>345.90</ele>
        <time>2021-10-07T17:05:54Z</time>
      </trkpt>
      <trkpt lat="5.352113" lon="-72.396820">
        <ele>345.00</ele>
        <time>2021-10-07T17:05:56Z</time>
      </trkpt>
      <trkpt lat="5.352126" lon="-72.396831">
        <ele>345.00</ele>
        <time>2021-10-07T17:05:57Z</time>
      </trkpt>
      <trkpt lat="5.352158" lon="-72.396855">
        <ele>343.90</ele>
        <time>2021-10-07T17:05:59Z</time>
      </trkpt>
      <trkpt lat="5.352177" lon="-72.396872">
        <ele>344.30</ele>
        <time>2021-10-07T17:06:00Z</time>
      </trkpt>
      <trkpt lat="5.352213" lon="-72.396907">
        <ele>343.80</ele>
        <time>2021-10-07T17:06:02Z</time>
      </trkpt>
      <trkpt lat="5.352259" lon="-72.396947">
        <ele>343.50</ele>
        <time>2021-10-07T17:06:04Z</time>
      </trkpt>
      <trkpt lat="5.352292" lon="-72.396981">
        <ele>342.80</ele>
        <time>2021-10-07T17:06:05Z</time>
      </trkpt>
      <trkpt lat="5.352329" lon="-72.397032">
        <ele>343.80</ele>
        <time>2021-10-07T17:06:07Z</time>
      </trkpt>
      <trkpt lat="5.352356" lon="-72.397087">
        <ele>344.40</ele>
        <time>2021-10-07T17:06:09Z</time>
      </trkpt>
      <trkpt lat="5.352363" lon="-72.397117">
        <ele>345.10</ele>
        <time>2021-10-07T17:06:10Z</time>
      </trkpt>
      <trkpt lat="5.352365" lon="-72.397145">
        <ele>345.10</ele>
        <time>2021-10-07T17:06:11Z</time>
      </trkpt>
      <trkpt lat="5.352371" lon="-72.397221">
        <ele>345.90</ele>
        <time>2021-10-07T17:06:13Z</time>
      </trkpt>
      <trkpt lat="5.352374" lon="-72.397313">
        <ele>346.40</ele>
        <time>2021-10-07T17:06:15Z</time>
      </trkpt>
      <trkpt lat="5.352375" lon="-72.397363">
        <ele>346.70</ele>
        <time>2021-10-07T17:06:16Z</time>
      </trkpt>
      <trkpt lat="5.352376" lon="-72.397460">
        <ele>347.50</ele>
        <time>2021-10-07T17:06:18Z</time>
      </trkpt>
      <trkpt lat="5.352403" lon="-72.397561">
        <ele>348.10</ele>
        <time>2021-10-07T17:06:20Z</time>
      </trkpt>
      <trkpt lat="5.352421" lon="-72.397614">
        <ele>348.00</ele>
        <time>2021-10-07T17:06:21Z</time>
      </trkpt>
      <trkpt lat="5.352438" lon="-72.397651">
        <ele>348.00</ele>
        <time>2021-10-07T17:06:22Z</time>
      </trkpt>
      <trkpt lat="5.352458" lon="-72.397693">
        <ele>347.70</ele>
        <time>2021-10-07T17:06:23Z</time>
      </trkpt>
      <trkpt lat="5.352506" lon="-72.397788">
        <ele>347.50</ele>
        <time>2021-10-07T17:06:25Z</time>
      </trkpt>
      <trkpt lat="5.352540" lon="-72.397892">
        <ele>348.00</ele>
        <time>2021-10-07T17:06:27Z</time>
      </trkpt>
      <trkpt lat="5.352553" lon="-72.397962">
        <ele>348.10</ele>
        <time>2021-10-07T17:06:28Z</time>
      </trkpt>
      <trkpt lat="5.352559" lon="-72.398037">
        <ele>348.20</ele>
        <time>2021-10-07T17:06:29Z</time>
      </trkpt>
      <trkpt lat="5.352558" lon="-72.398164">
        <ele>348.00</ele>
        <time>2021-10-07T17:06:31Z</time>
      </trkpt>
      <trkpt lat="5.352545" lon="-72.398269">
        <ele>348.00</ele>
        <time>2021-10-07T17:06:33Z</time>
      </trkpt>
      <trkpt lat="5.352552" lon="-72.398340">
        <ele>347.90</ele>
        <time>2021-10-07T17:06:35Z</time>
      </trkpt>
      <trkpt lat="5.352567" lon="-72.398391">
        <ele>347.90</ele>
        <time>2021-10-07T17:06:36Z</time>
      </trkpt>
      <trkpt lat="5.352584" lon="-72.398431">
        <ele>348.00</ele>
        <time>2021-10-07T17:06:37Z</time>
      </trkpt>
      <trkpt lat="5.352619" lon="-72.398512">
        <ele>348.00</ele>
        <time>2021-10-07T17:06:39Z</time>
      </trkpt>
      <trkpt lat="5.352629" lon="-72.398592">
        <ele>347.70</ele>
        <time>2021-10-07T17:06:41Z</time>
      </trkpt>
      <trkpt lat="5.352626" lon="-72.398639">
        <ele>347.60</ele>
        <time>2021-10-07T17:06:42Z</time>
      </trkpt>
      <trkpt lat="5.352625" lon="-72.398692">
        <ele>347.60</ele>
        <time>2021-10-07T17:06:43Z</time>
      </trkpt>
      <trkpt lat="5.352633" lon="-72.398805">
        <ele>347.80</ele>
        <time>2021-10-07T17:06:45Z</time>
      </trkpt>
      <trkpt lat="5.352654" lon="-72.398905">
        <ele>348.30</ele>
        <time>2021-10-07T17:06:47Z</time>
      </trkpt>
      <trkpt lat="5.352659" lon="-72.398947">
        <ele>348.50</ele>
        <time>2021-10-07T17:06:48Z</time>
      </trkpt>
      <trkpt lat="5.352669" lon="-72.399033">
        <ele>348.90</ele>
        <time>2021-10-07T17:06:50Z</time>
      </trkpt>
      <trkpt lat="5.352698" lon="-72.399101">
        <ele>349.60</ele>
        <time>2021-10-07T17:06:52Z</time>
      </trkpt>
      <trkpt lat="5.352737" lon="-72.399162">
        <ele>350.10</ele>
        <time>2021-10-07T17:06:54Z</time>
      </trkpt>
      <trkpt lat="5.352770" lon="-72.399216">
        <ele>350.70</ele>
        <time>2021-10-07T17:06:56Z</time>
      </trkpt>
      <trkpt lat="5.352784" lon="-72.399248">
        <ele>350.70</ele>
        <time>2021-10-07T17:06:57Z</time>
      </trkpt>
      <trkpt lat="5.352801" lon="-72.399332">
        <ele>350.70</ele>
        <time>2021-10-07T17:06:59Z</time>
      </trkpt>
      <trkpt lat="5.352807" lon="-72.399430">
        <ele>350.60</ele>
        <time>2021-10-07T17:07:01Z</time>
      </trkpt>
      <trkpt lat="5.352820" lon="-72.399514">
        <ele>350.70</ele>
        <time>2021-10-07T17:07:03Z</time>
      </trkpt>
      <trkpt lat="5.352844" lon="-72.399575">
        <ele>351.00</ele>
        <time>2021-10-07T17:07:05Z</time>
      </trkpt>
      <trkpt lat="5.352859" lon="-72.399607">
        <ele>351.40</ele>
        <time>2021-10-07T17:07:06Z</time>
      </trkpt>
      <trkpt lat="5.352877" lon="-72.399666">
        <ele>351.70</ele>
        <time>2021-10-07T17:07:08Z</time>
      </trkpt>
      <trkpt lat="5.352878" lon="-72.399697">
        <ele>351.80</ele>
        <time>2021-10-07T17:07:09Z</time>
      </trkpt>
      <trkpt lat="5.352863" lon="-72.399752">
        <ele>351.80</ele>
        <time>2021-10-07T17:07:11Z</time>
      </trkpt>
      <trkpt lat="5.352848" lon="-72.399801">
        <ele>351.90</ele>
        <time>2021-10-07T17:07:13Z</time>
      </trkpt>
      <trkpt lat="5.352854" lon="-72.399835">
        <ele>352.10</ele>
        <time>2021-10-07T17:07:15Z</time>
      </trkpt>
      <trkpt lat="5.352878" lon="-72.399872">
        <ele>352.40</ele>
        <time>2021-10-07T17:07:17Z</time>
      </trkpt>
      <trkpt lat="5.352894" lon="-72.399889">
        <ele>351.80</ele>
        <time>2021-10-07T17:07:18Z</time>
      </trkpt>
      <trkpt lat="5.352931" lon="-72.399946">
        <ele>352.80</ele>
        <time>2021-10-07T17:07:20Z</time>
      </trkpt>
      <trkpt lat="5.352952" lon="-72.399984">
        <ele>352.80</ele>
        <time>2021-10-07T17:07:21Z</time>
      </trkpt>
      <trkpt lat="5.352994" lon="-72.400077">
        <ele>354.20</ele>
        <time>2021-10-07T17:07:23Z</time>
      </trkpt>
      <trkpt lat="5.353007" lon="-72.400117">
        <ele>354.60</ele>
        <time>2021-10-07T17:07:24Z</time>
      </trkpt>
      <trkpt lat="5.353033" lon="-72.400200">
        <ele>354.70</ele>
        <time>2021-10-07T17:07:26Z</time>
      </trkpt>
      <trkpt lat="5.353043" lon="-72.400237">
        <ele>355.00</ele>
        <time>2021-10-07T17:07:27Z</time>
      </trkpt>
      <trkpt lat="5.353058" lon="-72.400290">
        <ele>355.20</ele>
        <time>2021-10-07T17:07:29Z</time>
      </trkpt>
      <trkpt lat="5.353080" lon="-72.400327">
        <ele>355.20</ele>
        <time>2021-10-07T17:07:31Z</time>
      </trkpt>
      <trkpt lat="5.353101" lon="-72.400355">
        <ele>354.90</ele>
        <time>2021-10-07T17:07:33Z</time>
      </trkpt>
      <trkpt lat="5.353124" lon="-72.400392">
        <ele>354.70</ele>
        <time>2021-10-07T17:07:35Z</time>
      </trkpt>
      <trkpt lat="5.353171" lon="-72.400442">
        <ele>354.20</ele>
        <time>2021-10-07T17:07:37Z</time>
      </trkpt>
      <trkpt lat="5.353232" lon="-72.400525">
        <ele>353.90</ele>
        <time>2021-10-07T17:07:39Z</time>
      </trkpt>
      <trkpt lat="5.353304" lon="-72.400629">
        <ele>354.10</ele>
        <time>2021-10-07T17:07:41Z</time>
      </trkpt>
      <trkpt lat="5.353397" lon="-72.400752">
        <ele>354.10</ele>
        <time>2021-10-07T17:07:43Z</time>
      </trkpt>
      <trkpt lat="5.353476" lon="-72.400861">
        <ele>354.10</ele>
        <time>2021-10-07T17:07:45Z</time>
      </trkpt>
      <trkpt lat="5.353506" lon="-72.400925">
        <ele>354.10</ele>
        <time>2021-10-07T17:07:46Z</time>
      </trkpt>
      <trkpt lat="5.353537" lon="-72.400988">
        <ele>353.60</ele>
        <time>2021-10-07T17:07:47Z</time>
      </trkpt>
      <trkpt lat="5.353566" lon="-72.401049">
        <ele>353.10</ele>
        <time>2021-10-07T17:07:48Z</time>
      </trkpt>
      <trkpt lat="5.353640" lon="-72.401137">
        <ele>352.60</ele>
        <time>2021-10-07T17:07:50Z</time>
      </trkpt>
      <trkpt lat="5.353669" lon="-72.401166">
        <ele>352.40</ele>
        <time>2021-10-07T17:07:51Z</time>
      </trkpt>
      <trkpt lat="5.353732" lon="-72.401241">
        <ele>352.20</ele>
        <time>2021-10-07T17:07:53Z</time>
      </trkpt>
      <trkpt lat="5.353775" lon="-72.401276">
        <ele>351.90</ele>
        <time>2021-10-07T17:07:55Z</time>
      </trkpt>
      <trkpt lat="5.353802" lon="-72.401284">
        <ele>351.80</ele>
        <time>2021-10-07T17:07:56Z</time>
      </trkpt>
      <trkpt lat="5.353854" lon="-72.401295">
        <ele>351.80</ele>
        <time>2021-10-07T17:07:58Z</time>
      </trkpt>
      <trkpt lat="5.353887" lon="-72.401300">
        <ele>351.80</ele>
        <time>2021-10-07T17:07:59Z</time>
      </trkpt>
      <trkpt lat="5.353910" lon="-72.401307">
        <ele>351.80</ele>
        <time>2021-10-07T17:08:00Z</time>
      </trkpt>
      <trkpt lat="5.353934" lon="-72.401324">
        <ele>352.00</ele>
        <time>2021-10-07T17:08:02Z</time>
      </trkpt>
      <trkpt lat="5.353955" lon="-72.401334">
        <ele>351.80</ele>
        <time>2021-10-07T17:08:03Z</time>
      </trkpt>
      <trkpt lat="5.353988" lon="-72.401359">
        <ele>351.80</ele>
        <time>2021-10-07T17:08:05Z</time>
      </trkpt>
      <trkpt lat="5.353994" lon="-72.401374">
        <ele>351.60</ele>
        <time>2021-10-07T17:08:06Z</time>
      </trkpt>
      <trkpt lat="5.354001" lon="-72.401390">
        <ele>351.60</ele>
        <time>2021-10-07T17:08:07Z</time>
      </trkpt>
      <trkpt lat="5.354008" lon="-72.401406">
        <ele>351.50</ele>
        <time>2021-10-07T17:08:08Z</time>
      </trkpt>
      <trkpt lat="5.354017" lon="-72.401420">
        <ele>351.50</ele>
        <time>2021-10-07T17:08:10Z</time>
      </trkpt>
      <trkpt lat="5.354020" lon="-72.401422">
        <ele>351.50</ele>
        <time>2021-10-07T17:08:11Z</time>
      </trkpt>
      <trkpt lat="5.354021" lon="-72.401422">
        <ele>351.50</ele>
        <time>2021-10-07T17:08:12Z</time>
      </trkpt>
      <trkpt lat="5.354028" lon="-72.401426">
        <ele>351.50</ele>
        <time>2021-10-07T17:08:14Z</time>
      </trkpt>
      <trkpt lat="5.354051" lon="-72.401447">
        <ele>351.20</ele>
        <time>2021-10-07T17:08:16Z</time>
      </trkpt>
      <trkpt lat="5.354065" lon="-72.401460">
        <ele>351.10</ele>
        <time>2021-10-07T17:08:18Z</time>
      </trkpt>
      <trkpt lat="5.354071" lon="-72.401456">
        <ele>351.10</ele>
        <time>2021-10-07T17:08:19Z</time>
      </trkpt>
      <trkpt lat="5.354078" lon="-72.401452">
        <ele>351.00</ele>
        <time>2021-10-07T17:08:21Z</time>
      </trkpt>
      <trkpt lat="5.354081" lon="-72.401456">
        <ele>351.00</ele>
        <time>2021-10-07T17:08:22Z</time>
      </trkpt>
      <trkpt lat="5.354083" lon="-72.401462">
        <ele>351.00</ele>
        <time>2021-10-07T17:08:23Z</time>
      </trkpt>
      <trkpt lat="5.354083" lon="-72.401463">
        <ele>351.00</ele>
        <time>2021-10-07T17:08:24Z</time>
      </trkpt>
      <trkpt lat="5.354083" lon="-72.401464">
        <ele>351.00</ele>
        <time>2021-10-07T17:08:25Z</time>
      </trkpt>
      <trkpt lat="5.354083" lon="-72.401465">
        <ele>351.00</ele>
        <time>2021-10-07T17:08:27Z</time>
      </trkpt>
      <trkpt lat="5.354082" lon="-72.401465">
        <ele>351.00</ele>
        <time>2021-10-07T17:08:29Z</time>
      </trkpt>
      <trkpt lat="5.354082" lon="-72.401465">
        <ele>351.00</ele>
        <time>2021-10-07T17:08:30Z</time>
      </trkpt>
      <trkpt lat="5.354082" lon="-72.401465">
        <ele>351.00</ele>
        <time>2021-10-07T17:08:32Z</time>
      </trkpt>
      <trkpt lat="5.354102" lon="-72.401474">
        <ele>351.00</ele>
        <time>2021-10-07T17:08:50Z</time>
      </trkpt>
      <trkpt lat="5.354101" lon="-72.401474">
        <ele>351.00</ele>
        <time>2021-10-07T17:08:52Z</time>
      </trkpt>
      <trkpt lat="5.354116" lon="-72.401480">
        <ele>351.00</ele>
        <time>2021-10-07T17:08:54Z</time>
      </trkpt>
      <trkpt lat="5.354139" lon="-72.401495">
        <ele>351.00</ele>
        <time>2021-10-07T17:08:56Z</time>
      </trkpt>
      <trkpt lat="5.354148" lon="-72.401507">
        <ele>351.00</ele>
        <time>2021-10-07T17:08:57Z</time>
      </trkpt>
      <trkpt lat="5.354159" lon="-72.401520">
        <ele>351.00</ele>
        <time>2021-10-07T17:08:58Z</time>
      </trkpt>
      <trkpt lat="5.354164" lon="-72.401528">
        <ele>351.20</ele>
        <time>2021-10-07T17:08:59Z</time>
      </trkpt>
      <trkpt lat="5.354168" lon="-72.401544">
        <ele>351.40</ele>
        <time>2021-10-07T17:09:00Z</time>
      </trkpt>
      <trkpt lat="5.354167" lon="-72.401583">
        <ele>351.60</ele>
        <time>2021-10-07T17:09:02Z</time>
      </trkpt>
      <trkpt lat="5.354164" lon="-72.401603">
        <ele>351.60</ele>
        <time>2021-10-07T17:09:03Z</time>
      </trkpt>
      <trkpt lat="5.354155" lon="-72.401634">
        <ele>351.60</ele>
        <time>2021-10-07T17:09:05Z</time>
      </trkpt>
      <trkpt lat="5.354148" lon="-72.401651">
        <ele>351.60</ele>
        <time>2021-10-07T17:09:06Z</time>
      </trkpt>
      <trkpt lat="5.354138" lon="-72.401676">
        <ele>352.00</ele>
        <time>2021-10-07T17:09:08Z</time>
      </trkpt>
      <trkpt lat="5.354135" lon="-72.401709">
        <ele>352.30</ele>
        <time>2021-10-07T17:09:10Z</time>
      </trkpt>
      <trkpt lat="5.354128" lon="-72.401755">
        <ele>352.70</ele>
        <time>2021-10-07T17:09:12Z</time>
      </trkpt>
      <trkpt lat="5.354125" lon="-72.401780">
        <ele>352.70</ele>
        <time>2021-10-07T17:09:13Z</time>
      </trkpt>
      <trkpt lat="5.354121" lon="-72.401842">
        <ele>353.10</ele>
        <time>2021-10-07T17:09:15Z</time>
      </trkpt>
      <trkpt lat="5.354120" lon="-72.401879">
        <ele>353.10</ele>
        <time>2021-10-07T17:09:16Z</time>
      </trkpt>
      <trkpt lat="5.354121" lon="-72.401949">
        <ele>353.00</ele>
        <time>2021-10-07T17:09:18Z</time>
      </trkpt>
      <trkpt lat="5.354139" lon="-72.402025">
        <ele>352.30</ele>
        <time>2021-10-07T17:09:20Z</time>
      </trkpt>
      <trkpt lat="5.354153" lon="-72.402068">
        <ele>351.90</ele>
        <time>2021-10-07T17:09:21Z</time>
      </trkpt>
      <trkpt lat="5.354171" lon="-72.402125">
        <ele>351.70</ele>
        <time>2021-10-07T17:09:22Z</time>
      </trkpt>
      <trkpt lat="5.354215" lon="-72.402239">
        <ele>350.80</ele>
        <time>2021-10-07T17:09:24Z</time>
      </trkpt>
      <trkpt lat="5.354231" lon="-72.402295">
        <ele>350.70</ele>
        <time>2021-10-07T17:09:25Z</time>
      </trkpt>
      <trkpt lat="5.354255" lon="-72.402411">
        <ele>351.10</ele>
        <time>2021-10-07T17:09:27Z</time>
      </trkpt>
      <trkpt lat="5.354275" lon="-72.402531">
        <ele>351.90</ele>
        <time>2021-10-07T17:09:29Z</time>
      </trkpt>
      <trkpt lat="5.354281" lon="-72.402589">
        <ele>352.40</ele>
        <time>2021-10-07T17:09:30Z</time>
      </trkpt>
      <trkpt lat="5.354284" lon="-72.402707">
        <ele>353.90</ele>
        <time>2021-10-07T17:09:32Z</time>
      </trkpt>
      <trkpt lat="5.354292" lon="-72.402824">
        <ele>354.50</ele>
        <time>2021-10-07T17:09:34Z</time>
      </trkpt>
      <trkpt lat="5.354321" lon="-72.402902">
        <ele>354.60</ele>
        <time>2021-10-07T17:09:36Z</time>
      </trkpt>
      <trkpt lat="5.354332" lon="-72.402922">
        <ele>354.70</ele>
        <time>2021-10-07T17:09:37Z</time>
      </trkpt>
      <trkpt lat="5.354354" lon="-72.402967">
        <ele>354.30</ele>
        <time>2021-10-07T17:09:39Z</time>
      </trkpt>
      <trkpt lat="5.354367" lon="-72.402995">
        <ele>354.30</ele>
        <time>2021-10-07T17:09:40Z</time>
      </trkpt>
      <trkpt lat="5.354405" lon="-72.403072">
        <ele>353.80</ele>
        <time>2021-10-07T17:09:42Z</time>
      </trkpt>
      <trkpt lat="5.354421" lon="-72.403119">
        <ele>353.10</ele>
        <time>2021-10-07T17:09:44Z</time>
      </trkpt>
      <trkpt lat="5.354441" lon="-72.403214">
        <ele>352.20</ele>
        <time>2021-10-07T17:09:46Z</time>
      </trkpt>
      <trkpt lat="5.354450" lon="-72.403348">
        <ele>351.80</ele>
        <time>2021-10-07T17:09:48Z</time>
      </trkpt>
      <trkpt lat="5.354457" lon="-72.403511">
        <ele>353.20</ele>
        <time>2021-10-07T17:09:50Z</time>
      </trkpt>
      <trkpt lat="5.354458" lon="-72.403583">
        <ele>353.70</ele>
        <time>2021-10-07T17:09:51Z</time>
      </trkpt>
      <trkpt lat="5.354451" lon="-72.403650">
        <ele>354.50</ele>
        <time>2021-10-07T17:09:52Z</time>
      </trkpt>
      <trkpt lat="5.354438" lon="-72.403706">
        <ele>354.80</ele>
        <time>2021-10-07T17:09:53Z</time>
      </trkpt>
      <trkpt lat="5.354414" lon="-72.403767">
        <ele>354.90</ele>
        <time>2021-10-07T17:09:55Z</time>
      </trkpt>
      <trkpt lat="5.354400" lon="-72.403802">
        <ele>354.90</ele>
        <time>2021-10-07T17:09:56Z</time>
      </trkpt>
      <trkpt lat="5.354365" lon="-72.403824">
        <ele>355.00</ele>
        <time>2021-10-07T17:09:58Z</time>
      </trkpt>
      <trkpt lat="5.354375" lon="-72.403891">
        <ele>355.10</ele>
        <time>2021-10-07T17:10:00Z</time>
      </trkpt>
      <trkpt lat="5.354375" lon="-72.403893">
        <ele>355.10</ele>
        <time>2021-10-07T17:10:01Z</time>
      </trkpt>
      <trkpt lat="5.354371" lon="-72.403893">
        <ele>355.10</ele>
        <time>2021-10-07T17:10:03Z</time>
      </trkpt>
      <trkpt lat="5.354357" lon="-72.403891">
        <ele>355.10</ele>
        <time>2021-10-07T17:10:04Z</time>
      </trkpt>
      <trkpt lat="5.354331" lon="-72.403861">
        <ele>355.40</ele>
        <time>2021-10-07T17:10:05Z</time>
      </trkpt>
      <trkpt lat="5.354270" lon="-72.403802">
        <ele>355.30</ele>
        <time>2021-10-07T17:10:07Z</time>
      </trkpt>
      <trkpt lat="5.354225" lon="-72.403767">
        <ele>355.70</ele>
        <time>2021-10-07T17:10:08Z</time>
      </trkpt>
      <trkpt lat="5.354184" lon="-72.403729">
        <ele>355.70</ele>
        <time>2021-10-07T17:10:09Z</time>
      </trkpt>
      <trkpt lat="5.354139" lon="-72.403679">
        <ele>356.00</ele>
        <time>2021-10-07T17:10:10Z</time>
      </trkpt>
      <trkpt lat="5.354103" lon="-72.403646">
        <ele>356.60</ele>
        <time>2021-10-07T17:10:12Z</time>
      </trkpt>
      <trkpt lat="5.354073" lon="-72.403623">
        <ele>357.60</ele>
        <time>2021-10-07T17:10:13Z</time>
      </trkpt>
      <trkpt lat="5.354036" lon="-72.403589">
        <ele>357.60</ele>
        <time>2021-10-07T17:10:14Z</time>
      </trkpt>
      <trkpt lat="5.354007" lon="-72.403558">
        <ele>358.90</ele>
        <time>2021-10-07T17:10:16Z</time>
      </trkpt>
      <trkpt lat="5.353986" lon="-72.403528">
        <ele>360.00</ele>
        <time>2021-10-07T17:10:17Z</time>
      </trkpt>
      <trkpt lat="5.353968" lon="-72.403493">
        <ele>359.70</ele>
        <time>2021-10-07T17:10:18Z</time>
      </trkpt>
      <trkpt lat="5.353944" lon="-72.403451">
        <ele>360.40</ele>
        <time>2021-10-07T17:10:19Z</time>
      </trkpt>
      <trkpt lat="5.353918" lon="-72.403414">
        <ele>360.10</ele>
        <time>2021-10-07T17:10:21Z</time>
      </trkpt>
      <trkpt lat="5.353899" lon="-72.403383">
        <ele>361.00</ele>
        <time>2021-10-07T17:10:22Z</time>
      </trkpt>
      <trkpt lat="5.353894" lon="-72.403375">
        <ele>360.80</ele>
        <time>2021-10-07T17:10:23Z</time>
      </trkpt>
      <trkpt lat="5.353875" lon="-72.403350">
        <ele>360.80</ele>
        <time>2021-10-07T17:10:24Z</time>
      </trkpt>
      <trkpt lat="5.353859" lon="-72.403330">
        <ele>361.40</ele>
        <time>2021-10-07T17:10:25Z</time>
      </trkpt>
      <trkpt lat="5.353831" lon="-72.403290">
        <ele>361.10</ele>
        <time>2021-10-07T17:10:27Z</time>
      </trkpt>
      <trkpt lat="5.353795" lon="-72.403236">
        <ele>361.30</ele>
        <time>2021-10-07T17:10:29Z</time>
      </trkpt>
      <trkpt lat="5.353776" lon="-72.403197">
        <ele>361.10</ele>
        <time>2021-10-07T17:10:30Z</time>
      </trkpt>
      <trkpt lat="5.353764" lon="-72.403158">
        <ele>360.30</ele>
        <time>2021-10-07T17:10:31Z</time>
      </trkpt>
      <trkpt lat="5.353755" lon="-72.403064">
        <ele>358.90</ele>
        <time>2021-10-07T17:10:33Z</time>
      </trkpt>
      <trkpt lat="5.353725" lon="-72.402953">
        <ele>359.00</ele>
        <time>2021-10-07T17:10:35Z</time>
      </trkpt>
      <trkpt lat="5.353707" lon="-72.402897">
        <ele>358.90</ele>
        <time>2021-10-07T17:10:36Z</time>
      </trkpt>
      <trkpt lat="5.353665" lon="-72.402789">
        <ele>359.40</ele>
        <time>2021-10-07T17:10:38Z</time>
      </trkpt>
      <trkpt lat="5.353639" lon="-72.402734">
        <ele>359.30</ele>
        <time>2021-10-07T17:10:39Z</time>
      </trkpt>
      <trkpt lat="5.353598" lon="-72.402627">
        <ele>358.40</ele>
        <time>2021-10-07T17:10:41Z</time>
      </trkpt>
      <trkpt lat="5.353577" lon="-72.402560">
        <ele>356.80</ele>
        <time>2021-10-07T17:10:42Z</time>
      </trkpt>
      <trkpt lat="5.353564" lon="-72.402515">
        <ele>356.50</ele>
        <time>2021-10-07T17:10:44Z</time>
      </trkpt>
      <trkpt lat="5.353546" lon="-72.402468">
        <ele>355.90</ele>
        <time>2021-10-07T17:10:45Z</time>
      </trkpt>
      <trkpt lat="5.353536" lon="-72.402440">
        <ele>355.90</ele>
        <time>2021-10-07T17:10:46Z</time>
      </trkpt>
      <trkpt lat="5.353529" lon="-72.402418">
        <ele>355.50</ele>
        <time>2021-10-07T17:10:47Z</time>
      </trkpt>
      <trkpt lat="5.353531" lon="-72.402416">
        <ele>355.50</ele>
        <time>2021-10-07T17:10:48Z</time>
      </trkpt>
      <trkpt lat="5.353531" lon="-72.402403">
        <ele>355.50</ele>
        <time>2021-10-07T17:10:50Z</time>
      </trkpt>
      <trkpt lat="5.353532" lon="-72.402385">
        <ele>355.20</ele>
        <time>2021-10-07T17:10:51Z</time>
      </trkpt>
      <trkpt lat="5.353534" lon="-72.402368">
        <ele>355.20</ele>
        <time>2021-10-07T17:10:52Z</time>
      </trkpt>
      <trkpt lat="5.353529" lon="-72.402339">
        <ele>354.90</ele>
        <time>2021-10-07T17:10:54Z</time>
      </trkpt>
      <trkpt lat="5.353511" lon="-72.402300">
        <ele>355.40</ele>
        <time>2021-10-07T17:10:56Z</time>
      </trkpt>
      <trkpt lat="5.353481" lon="-72.402259">
        <ele>355.40</ele>
        <time>2021-10-07T17:10:57Z</time>
      </trkpt>
      <trkpt lat="5.353462" lon="-72.402228">
        <ele>355.90</ele>
        <time>2021-10-07T17:10:58Z</time>
      </trkpt>
      <trkpt lat="5.353440" lon="-72.402195">
        <ele>355.90</ele>
        <time>2021-10-07T17:11:00Z</time>
      </trkpt>
      <trkpt lat="5.353426" lon="-72.402165">
        <ele>356.20</ele>
        <time>2021-10-07T17:11:01Z</time>
      </trkpt>
      <trkpt lat="5.353409" lon="-72.402132">
        <ele>356.00</ele>
        <time>2021-10-07T17:11:02Z</time>
      </trkpt>
      <trkpt lat="5.353372" lon="-72.402069">
        <ele>356.10</ele>
        <time>2021-10-07T17:11:04Z</time>
      </trkpt>
      <trkpt lat="5.353337" lon="-72.401995">
        <ele>356.10</ele>
        <time>2021-10-07T17:11:06Z</time>
      </trkpt>
      <trkpt lat="5.353313" lon="-72.401962">
        <ele>356.00</ele>
        <time>2021-10-07T17:11:07Z</time>
      </trkpt>
      <trkpt lat="5.353274" lon="-72.401902">
        <ele>356.80</ele>
        <time>2021-10-07T17:11:09Z</time>
      </trkpt>
      <trkpt lat="5.353255" lon="-72.401858">
        <ele>357.60</ele>
        <time>2021-10-07T17:11:10Z</time>
      </trkpt>
      <trkpt lat="5.353176" lon="-72.401699">
        <ele>359.00</ele>
        <time>2021-10-07T17:11:12Z</time>
      </trkpt>
      <trkpt lat="5.353140" lon="-72.401637">
        <ele>359.10</ele>
        <time>2021-10-07T17:11:13Z</time>
      </trkpt>
      <trkpt lat="5.353101" lon="-72.401582">
        <ele>359.90</ele>
        <time>2021-10-07T17:11:14Z</time>
      </trkpt>
      <trkpt lat="5.353041" lon="-72.401492">
        <ele>360.40</ele>
        <time>2021-10-07T17:11:16Z</time>
      </trkpt>
      <trkpt lat="5.353014" lon="-72.401459">
        <ele>360.10</ele>
        <time>2021-10-07T17:11:17Z</time>
      </trkpt>
      <trkpt lat="5.352978" lon="-72.401408">
        <ele>359.70</ele>
        <time>2021-10-07T17:11:19Z</time>
      </trkpt>
      <trkpt lat="5.352935" lon="-72.401343">
        <ele>358.80</ele>
        <time>2021-10-07T17:11:21Z</time>
      </trkpt>
      <trkpt lat="5.352916" lon="-72.401308">
        <ele>358.50</ele>
        <time>2021-10-07T17:11:22Z</time>
      </trkpt>
      <trkpt lat="5.352885" lon="-72.401251">
        <ele>358.00</ele>
        <time>2021-10-07T17:11:24Z</time>
      </trkpt>
      <trkpt lat="5.352858" lon="-72.401209">
        <ele>357.70</ele>
        <time>2021-10-07T17:11:25Z</time>
      </trkpt>
      <trkpt lat="5.352828" lon="-72.401157">
        <ele>357.60</ele>
        <time>2021-10-07T17:11:27Z</time>
      </trkpt>
      <trkpt lat="5.352814" lon="-72.401120">
        <ele>357.20</ele>
        <time>2021-10-07T17:11:28Z</time>
      </trkpt>
      <trkpt lat="5.352810" lon="-72.401088">
        <ele>356.90</ele>
        <time>2021-10-07T17:11:29Z</time>
      </trkpt>
      <trkpt lat="5.352812" lon="-72.401046">
        <ele>356.60</ele>
        <time>2021-10-07T17:11:31Z</time>
      </trkpt>
      <trkpt lat="5.352819" lon="-72.401025">
        <ele>356.60</ele>
        <time>2021-10-07T17:11:32Z</time>
      </trkpt>
      <trkpt lat="5.352827" lon="-72.401006">
        <ele>356.20</ele>
        <time>2021-10-07T17:11:34Z</time>
      </trkpt>
      <trkpt lat="5.352830" lon="-72.400989">
        <ele>356.20</ele>
        <time>2021-10-07T17:11:35Z</time>
      </trkpt>
      <trkpt lat="5.352829" lon="-72.400979">
        <ele>356.20</ele>
        <time>2021-10-07T17:11:36Z</time>
      </trkpt>
      <trkpt lat="5.352829" lon="-72.400973">
        <ele>355.80</ele>
        <time>2021-10-07T17:11:37Z</time>
      </trkpt>
      <trkpt lat="5.352829" lon="-72.400968">
        <ele>355.80</ele>
        <time>2021-10-07T17:11:38Z</time>
      </trkpt>
      <trkpt lat="5.352825" lon="-72.400950">
        <ele>355.80</ele>
        <time>2021-10-07T17:11:40Z</time>
      </trkpt>
      <trkpt lat="5.352813" lon="-72.400923">
        <ele>355.40</ele>
        <time>2021-10-07T17:11:42Z</time>
      </trkpt>
      <trkpt lat="5.352799" lon="-72.400892">
        <ele>355.40</ele>
        <time>2021-10-07T17:11:43Z</time>
      </trkpt>
      <trkpt lat="5.352787" lon="-72.400866">
        <ele>355.80</ele>
        <time>2021-10-07T17:11:44Z</time>
      </trkpt>
      <trkpt lat="5.352759" lon="-72.400834">
        <ele>355.90</ele>
        <time>2021-10-07T17:11:46Z</time>
      </trkpt>
      <trkpt lat="5.352747" lon="-72.400806">
        <ele>356.60</ele>
        <time>2021-10-07T17:11:47Z</time>
      </trkpt>
      <trkpt lat="5.352730" lon="-72.400782">
        <ele>357.00</ele>
        <time>2021-10-07T17:11:48Z</time>
      </trkpt>
      <trkpt lat="5.352724" lon="-72.400775">
        <ele>357.00</ele>
        <time>2021-10-07T17:11:49Z</time>
      </trkpt>
      <trkpt lat="5.352707" lon="-72.400758">
        <ele>358.30</ele>
        <time>2021-10-07T17:11:50Z</time>
      </trkpt>
      <trkpt lat="5.352680" lon="-72.400724">
        <ele>358.30</ele>
        <time>2021-10-07T17:11:52Z</time>
      </trkpt>
      <trkpt lat="5.352661" lon="-72.400692">
        <ele>359.30</ele>
        <time>2021-10-07T17:11:53Z</time>
      </trkpt>
      <trkpt lat="5.352656" lon="-72.400683">
        <ele>359.30</ele>
        <time>2021-10-07T17:11:54Z</time>
      </trkpt>
      <trkpt lat="5.352649" lon="-72.400655">
        <ele>359.50</ele>
        <time>2021-10-07T17:11:56Z</time>
      </trkpt>
      <trkpt lat="5.352651" lon="-72.400632">
        <ele>359.50</ele>
        <time>2021-10-07T17:11:57Z</time>
      </trkpt>
      <trkpt lat="5.352654" lon="-72.400599">
        <ele>359.50</ele>
        <time>2021-10-07T17:11:59Z</time>
      </trkpt>
      <trkpt lat="5.352654" lon="-72.400582">
        <ele>359.30</ele>
        <time>2021-10-07T17:12:00Z</time>
      </trkpt>
      <trkpt lat="5.352655" lon="-72.400569">
        <ele>359.30</ele>
        <time>2021-10-07T17:12:01Z</time>
      </trkpt>
      <trkpt lat="5.352653" lon="-72.400563">
        <ele>359.30</ele>
        <time>2021-10-07T17:12:02Z</time>
      </trkpt>
      <trkpt lat="5.352653" lon="-72.400544">
        <ele>359.00</ele>
        <time>2021-10-07T17:12:04Z</time>
      </trkpt>
      <trkpt lat="5.352651" lon="-72.400505">
        <ele>359.00</ele>
        <time>2021-10-07T17:12:06Z</time>
      </trkpt>
      <trkpt lat="5.352633" lon="-72.400482">
        <ele>358.70</ele>
        <time>2021-10-07T17:12:08Z</time>
      </trkpt>
      <trkpt lat="5.352629" lon="-72.400475">
        <ele>358.70</ele>
        <time>2021-10-07T17:12:09Z</time>
      </trkpt>
      <trkpt lat="5.352618" lon="-72.400456">
        <ele>358.60</ele>
        <time>2021-10-07T17:12:10Z</time>
      </trkpt>
      <trkpt lat="5.352594" lon="-72.400411">
        <ele>358.30</ele>
        <time>2021-10-07T17:12:12Z</time>
      </trkpt>
      <trkpt lat="5.352560" lon="-72.400368">
        <ele>358.40</ele>
        <time>2021-10-07T17:12:13Z</time>
      </trkpt>
      <trkpt lat="5.352532" lon="-72.400329">
        <ele>358.50</ele>
        <time>2021-10-07T17:12:15Z</time>
      </trkpt>
      <trkpt lat="5.352510" lon="-72.400297">
        <ele>358.50</ele>
        <time>2021-10-07T17:12:16Z</time>
      </trkpt>
      <trkpt lat="5.352479" lon="-72.400252">
        <ele>358.30</ele>
        <time>2021-10-07T17:12:18Z</time>
      </trkpt>
      <trkpt lat="5.352464" lon="-72.400229">
        <ele>357.80</ele>
        <time>2021-10-07T17:12:19Z</time>
      </trkpt>
      <trkpt lat="5.352444" lon="-72.400201">
        <ele>357.30</ele>
        <time>2021-10-07T17:12:20Z</time>
      </trkpt>
      <trkpt lat="5.352417" lon="-72.400158">
        <ele>356.90</ele>
        <time>2021-10-07T17:12:21Z</time>
      </trkpt>
      <trkpt lat="5.352395" lon="-72.400125">
        <ele>357.00</ele>
        <time>2021-10-07T17:12:22Z</time>
      </trkpt>
      <trkpt lat="5.352363" lon="-72.400082">
        <ele>357.10</ele>
        <time>2021-10-07T17:12:24Z</time>
      </trkpt>
      <trkpt lat="5.352333" lon="-72.400041">
        <ele>356.90</ele>
        <time>2021-10-07T17:12:25Z</time>
      </trkpt>
      <trkpt lat="5.352290" lon="-72.399983">
        <ele>356.70</ele>
        <time>2021-10-07T17:12:27Z</time>
      </trkpt>
      <trkpt lat="5.352260" lon="-72.399937">
        <ele>356.60</ele>
        <time>2021-10-07T17:12:28Z</time>
      </trkpt>
      <trkpt lat="5.352241" lon="-72.399906">
        <ele>356.60</ele>
        <time>2021-10-07T17:12:29Z</time>
      </trkpt>
      <trkpt lat="5.352207" lon="-72.399857">
        <ele>356.30</ele>
        <time>2021-10-07T17:12:31Z</time>
      </trkpt>
      <trkpt lat="5.352194" lon="-72.399819">
        <ele>356.60</ele>
        <time>2021-10-07T17:12:32Z</time>
      </trkpt>
      <trkpt lat="5.352178" lon="-72.399785">
        <ele>356.60</ele>
        <time>2021-10-07T17:12:34Z</time>
      </trkpt>
      <trkpt lat="5.352169" lon="-72.399735">
        <ele>356.60</ele>
        <time>2021-10-07T17:12:36Z</time>
      </trkpt>
      <trkpt lat="5.352165" lon="-72.399694">
        <ele>356.60</ele>
        <time>2021-10-07T17:12:37Z</time>
      </trkpt>
      <trkpt lat="5.352156" lon="-72.399637">
        <ele>356.60</ele>
        <time>2021-10-07T17:12:38Z</time>
      </trkpt>
      <trkpt lat="5.352145" lon="-72.399586">
        <ele>356.80</ele>
        <time>2021-10-07T17:12:39Z</time>
      </trkpt>
      <trkpt lat="5.352136" lon="-72.399537">
        <ele>356.80</ele>
        <time>2021-10-07T17:12:41Z</time>
      </trkpt>
      <trkpt lat="5.352127" lon="-72.399490">
        <ele>356.70</ele>
        <time>2021-10-07T17:12:42Z</time>
      </trkpt>
      <trkpt lat="5.352116" lon="-72.399448">
        <ele>356.60</ele>
        <time>2021-10-07T17:12:43Z</time>
      </trkpt>
      <trkpt lat="5.352105" lon="-72.399413">
        <ele>356.90</ele>
        <time>2021-10-07T17:12:44Z</time>
      </trkpt>
      <trkpt lat="5.352095" lon="-72.399373">
        <ele>356.90</ele>
        <time>2021-10-07T17:12:45Z</time>
      </trkpt>
      <trkpt lat="5.352081" lon="-72.399312">
        <ele>356.90</ele>
        <time>2021-10-07T17:12:47Z</time>
      </trkpt>
      <trkpt lat="5.352070" lon="-72.399265">
        <ele>356.90</ele>
        <time>2021-10-07T17:12:48Z</time>
      </trkpt>
      <trkpt lat="5.352059" lon="-72.399220">
        <ele>357.30</ele>
        <time>2021-10-07T17:12:49Z</time>
      </trkpt>
      <trkpt lat="5.352050" lon="-72.399180">
        <ele>357.30</ele>
        <time>2021-10-07T17:12:50Z</time>
      </trkpt>
      <trkpt lat="5.352034" lon="-72.399105">
        <ele>357.10</ele>
        <time>2021-10-07T17:12:52Z</time>
      </trkpt>
      <trkpt lat="5.352025" lon="-72.399043">
        <ele>357.30</ele>
        <time>2021-10-07T17:12:54Z</time>
      </trkpt>
      <trkpt lat="5.352031" lon="-72.399002">
        <ele>356.80</ele>
        <time>2021-10-07T17:12:55Z</time>
      </trkpt>
      <trkpt lat="5.352037" lon="-72.398962">
        <ele>356.60</ele>
        <time>2021-10-07T17:12:56Z</time>
      </trkpt>
      <trkpt lat="5.352047" lon="-72.398888">
        <ele>356.10</ele>
        <time>2021-10-07T17:12:58Z</time>
      </trkpt>
      <trkpt lat="5.352052" lon="-72.398825">
        <ele>355.40</ele>
        <time>2021-10-07T17:12:59Z</time>
      </trkpt>
      <trkpt lat="5.352049" lon="-72.398766">
        <ele>355.00</ele>
        <time>2021-10-07T17:13:00Z</time>
      </trkpt>
      <trkpt lat="5.352015" lon="-72.398611">
        <ele>353.00</ele>
        <time>2021-10-07T17:13:02Z</time>
      </trkpt>
      <trkpt lat="5.352005" lon="-72.398566">
        <ele>352.60</ele>
        <time>2021-10-07T17:13:03Z</time>
      </trkpt>
      <trkpt lat="5.352021" lon="-72.398484">
        <ele>351.80</ele>
        <time>2021-10-07T17:13:05Z</time>
      </trkpt>
      <trkpt lat="5.352003" lon="-72.398389">
        <ele>351.30</ele>
        <time>2021-10-07T17:13:07Z</time>
      </trkpt>
      <trkpt lat="5.351991" lon="-72.398339">
        <ele>351.00</ele>
        <time>2021-10-07T17:13:08Z</time>
      </trkpt>
      <trkpt lat="5.351969" lon="-72.398257">
        <ele>351.20</ele>
        <time>2021-10-07T17:13:10Z</time>
      </trkpt>
      <trkpt lat="5.351949" lon="-72.398197">
        <ele>351.20</ele>
        <time>2021-10-07T17:13:12Z</time>
      </trkpt>
      <trkpt lat="5.351934" lon="-72.398152">
        <ele>351.90</ele>
        <time>2021-10-07T17:13:13Z</time>
      </trkpt>
      <trkpt lat="5.351924" lon="-72.398103">
        <ele>351.80</ele>
        <time>2021-10-07T17:13:14Z</time>
      </trkpt>
      <trkpt lat="5.351916" lon="-72.398057">
        <ele>351.70</ele>
        <time>2021-10-07T17:13:16Z</time>
      </trkpt>
      <trkpt lat="5.351911" lon="-72.398005">
        <ele>351.20</ele>
        <time>2021-10-07T17:13:17Z</time>
      </trkpt>
      <trkpt lat="5.351898" lon="-72.397925">
        <ele>350.90</ele>
        <time>2021-10-07T17:13:18Z</time>
      </trkpt>
      <trkpt lat="5.351888" lon="-72.397855">
        <ele>351.10</ele>
        <time>2021-10-07T17:13:20Z</time>
      </trkpt>
      <trkpt lat="5.351882" lon="-72.397790">
        <ele>351.20</ele>
        <time>2021-10-07T17:13:21Z</time>
      </trkpt>
      <trkpt lat="5.351883" lon="-72.397733">
        <ele>351.30</ele>
        <time>2021-10-07T17:13:22Z</time>
      </trkpt>
      <trkpt lat="5.351885" lon="-72.397683">
        <ele>351.30</ele>
        <time>2021-10-07T17:13:23Z</time>
      </trkpt>
      <trkpt lat="5.351885" lon="-72.397637">
        <ele>351.30</ele>
        <time>2021-10-07T17:13:24Z</time>
      </trkpt>
      <trkpt lat="5.351884" lon="-72.397574">
        <ele>351.10</ele>
        <time>2021-10-07T17:13:25Z</time>
      </trkpt>
      <trkpt lat="5.351880" lon="-72.397500">
        <ele>351.10</ele>
        <time>2021-10-07T17:13:27Z</time>
      </trkpt>
      <trkpt lat="5.351867" lon="-72.397383">
        <ele>351.30</ele>
        <time>2021-10-07T17:13:29Z</time>
      </trkpt>
      <trkpt lat="5.351859" lon="-72.397194">
        <ele>352.10</ele>
        <time>2021-10-07T17:13:31Z</time>
      </trkpt>
      <trkpt lat="5.351869" lon="-72.397118">
        <ele>351.80</ele>
        <time>2021-10-07T17:13:33Z</time>
      </trkpt>
      <trkpt lat="5.351876" lon="-72.397083">
        <ele>351.50</ele>
        <time>2021-10-07T17:13:34Z</time>
      </trkpt>
      <trkpt lat="5.351884" lon="-72.397035">
        <ele>351.30</ele>
        <time>2021-10-07T17:13:35Z</time>
      </trkpt>
      <trkpt lat="5.351898" lon="-72.396999">
        <ele>350.60</ele>
        <time>2021-10-07T17:13:37Z</time>
      </trkpt>
      <trkpt lat="5.351905" lon="-72.396968">
        <ele>350.60</ele>
        <time>2021-10-07T17:13:38Z</time>
      </trkpt>
      <trkpt lat="5.351910" lon="-72.396938">
        <ele>350.70</ele>
        <time>2021-10-07T17:13:39Z</time>
      </trkpt>
      <trkpt lat="5.351908" lon="-72.396896">
        <ele>350.80</ele>
        <time>2021-10-07T17:13:40Z</time>
      </trkpt>
      <trkpt lat="5.351906" lon="-72.396864">
        <ele>350.80</ele>
        <time>2021-10-07T17:13:41Z</time>
      </trkpt>
      <trkpt lat="5.351904" lon="-72.396827">
        <ele>351.00</ele>
        <time>2021-10-07T17:13:42Z</time>
      </trkpt>
      <trkpt lat="5.351902" lon="-72.396776">
        <ele>351.20</ele>
        <time>2021-10-07T17:13:44Z</time>
      </trkpt>
      <trkpt lat="5.351911" lon="-72.396733">
        <ele>351.50</ele>
        <time>2021-10-07T17:13:46Z</time>
      </trkpt>
      <trkpt lat="5.351920" lon="-72.396699">
        <ele>351.80</ele>
        <time>2021-10-07T17:13:48Z</time>
      </trkpt>
      <trkpt lat="5.351923" lon="-72.396685">
        <ele>351.80</ele>
        <time>2021-10-07T17:13:49Z</time>
      </trkpt>
      <trkpt lat="5.351926" lon="-72.396676">
        <ele>352.10</ele>
        <time>2021-10-07T17:13:50Z</time>
      </trkpt>
      <trkpt lat="5.351929" lon="-72.396670">
        <ele>352.10</ele>
        <time>2021-10-07T17:13:51Z</time>
      </trkpt>
      <trkpt lat="5.351925" lon="-72.396654">
        <ele>352.10</ele>
        <time>2021-10-07T17:13:54Z</time>
      </trkpt>
      <trkpt lat="5.351922" lon="-72.396645">
        <ele>352.10</ele>
        <time>2021-10-07T17:13:55Z</time>
      </trkpt>
      <trkpt lat="5.351919" lon="-72.396637">
        <ele>352.40</ele>
        <time>2021-10-07T17:13:57Z</time>
      </trkpt>
      <trkpt lat="5.351916" lon="-72.396629">
        <ele>352.40</ele>
        <time>2021-10-07T17:13:58Z</time>
      </trkpt>
      <trkpt lat="5.351900" lon="-72.396600">
        <ele>352.40</ele>
        <time>2021-10-07T17:13:59Z</time>
      </trkpt>
      <trkpt lat="5.351879" lon="-72.396560">
        <ele>354.00</ele>
        <time>2021-10-07T17:14:01Z</time>
      </trkpt>
      <trkpt lat="5.351853" lon="-72.396515">
        <ele>355.10</ele>
        <time>2021-10-07T17:14:02Z</time>
      </trkpt>
      <trkpt lat="5.351828" lon="-72.396468">
        <ele>354.30</ele>
        <time>2021-10-07T17:14:03Z</time>
      </trkpt>
      <trkpt lat="5.351795" lon="-72.396412">
        <ele>354.50</ele>
        <time>2021-10-07T17:14:05Z</time>
      </trkpt>
      <trkpt lat="5.351765" lon="-72.396367">
        <ele>354.60</ele>
        <time>2021-10-07T17:14:06Z</time>
      </trkpt>
      <trkpt lat="5.351744" lon="-72.396338">
        <ele>354.30</ele>
        <time>2021-10-07T17:14:07Z</time>
      </trkpt>
      <trkpt lat="5.351735" lon="-72.396317">
        <ele>354.30</ele>
        <time>2021-10-07T17:14:08Z</time>
      </trkpt>
      <trkpt lat="5.351719" lon="-72.396278">
        <ele>354.60</ele>
        <time>2021-10-07T17:14:10Z</time>
      </trkpt>
      <trkpt lat="5.351712" lon="-72.396246">
        <ele>354.40</ele>
        <time>2021-10-07T17:14:11Z</time>
      </trkpt>
      <trkpt lat="5.351704" lon="-72.396219">
        <ele>354.40</ele>
        <time>2021-10-07T17:14:13Z</time>
      </trkpt>
      <trkpt lat="5.351700" lon="-72.396191">
        <ele>354.20</ele>
        <time>2021-10-07T17:14:14Z</time>
      </trkpt>
      <trkpt lat="5.351693" lon="-72.396162">
        <ele>354.00</ele>
        <time>2021-10-07T17:14:15Z</time>
      </trkpt>
      <trkpt lat="5.351679" lon="-72.396118">
        <ele>353.80</ele>
        <time>2021-10-07T17:14:17Z</time>
      </trkpt>
      <trkpt lat="5.351676" lon="-72.396090">
        <ele>353.80</ele>
        <time>2021-10-07T17:14:18Z</time>
      </trkpt>
      <trkpt lat="5.351676" lon="-72.396069">
        <ele>353.40</ele>
        <time>2021-10-07T17:14:19Z</time>
      </trkpt>
      <trkpt lat="5.351683" lon="-72.396036">
        <ele>353.00</ele>
        <time>2021-10-07T17:14:21Z</time>
      </trkpt>
      <trkpt lat="5.351687" lon="-72.396010">
        <ele>353.00</ele>
        <time>2021-10-07T17:14:23Z</time>
      </trkpt>
      <trkpt lat="5.351687" lon="-72.396003">
        <ele>353.00</ele>
        <time>2021-10-07T17:14:24Z</time>
      </trkpt>
      <trkpt lat="5.351688" lon="-72.395999">
        <ele>353.00</ele>
        <time>2021-10-07T17:14:26Z</time>
      </trkpt>
      <trkpt lat="5.351691" lon="-72.395999">
        <ele>353.00</ele>
        <time>2021-10-07T17:14:28Z</time>
      </trkpt>
      <trkpt lat="5.351692" lon="-72.395999">
        <ele>353.00</ele>
        <time>2021-10-07T17:14:29Z</time>
      </trkpt>
      <trkpt lat="5.351694" lon="-72.395999">
        <ele>353.00</ele>
        <time>2021-10-07T17:14:31Z</time>
      </trkpt>
      <trkpt lat="5.351695" lon="-72.395998">
        <ele>353.00</ele>
        <time>2021-10-07T17:14:32Z</time>
      </trkpt>
      <trkpt lat="5.351697" lon="-72.395996">
        <ele>352.60</ele>
        <time>2021-10-07T17:14:34Z</time>
      </trkpt>
      <trkpt lat="5.351697" lon="-72.395992">
        <ele>352.60</ele>
        <time>2021-10-07T17:14:35Z</time>
      </trkpt>
      <trkpt lat="5.351698" lon="-72.395986">
        <ele>352.60</ele>
        <time>2021-10-07T17:14:37Z</time>
      </trkpt>
      <trkpt lat="5.351700" lon="-72.395983">
        <ele>352.60</ele>
        <time>2021-10-07T17:14:38Z</time>
      </trkpt>
      <trkpt lat="5.351706" lon="-72.395975">
        <ele>352.60</ele>
        <time>2021-10-07T17:14:40Z</time>
      </trkpt>
      <trkpt lat="5.351710" lon="-72.395970">
        <ele>352.60</ele>
        <time>2021-10-07T17:14:41Z</time>
      </trkpt>
      <trkpt lat="5.351713" lon="-72.395967">
        <ele>352.60</ele>
        <time>2021-10-07T17:14:42Z</time>
      </trkpt>
      <trkpt lat="5.351718" lon="-72.395963">
        <ele>352.60</ele>
        <time>2021-10-07T17:14:43Z</time>
      </trkpt>
      <trkpt lat="5.351721" lon="-72.395960">
        <ele>352.60</ele>
        <time>2021-10-07T17:14:45Z</time>
      </trkpt>
      <trkpt lat="5.351724" lon="-72.395958">
        <ele>352.60</ele>
        <time>2021-10-07T17:14:46Z</time>
      </trkpt>
      <trkpt lat="5.351728" lon="-72.395956">
        <ele>352.40</ele>
        <time>2021-10-07T17:14:48Z</time>
      </trkpt>
      <trkpt lat="5.351729" lon="-72.395955">
        <ele>352.40</ele>
        <time>2021-10-07T17:14:49Z</time>
      </trkpt>
      <trkpt lat="5.351729" lon="-72.395958">
        <ele>352.40</ele>
        <time>2021-10-07T17:14:50Z</time>
      </trkpt>
      <trkpt lat="5.351731" lon="-72.395968">
        <ele>352.40</ele>
        <time>2021-10-07T17:14:52Z</time>
      </trkpt>
      <trkpt lat="5.351736" lon="-72.395981">
        <ele>352.40</ele>
        <time>2021-10-07T17:14:53Z</time>
      </trkpt>
      <trkpt lat="5.351737" lon="-72.395987">
        <ele>352.40</ele>
        <time>2021-10-07T17:14:54Z</time>
      </trkpt>
      <trkpt lat="5.351741" lon="-72.395993">
        <ele>352.40</ele>
        <time>2021-10-07T17:14:55Z</time>
      </trkpt>
      <trkpt lat="5.351745" lon="-72.395996">
        <ele>352.40</ele>
        <time>2021-10-07T17:14:57Z</time>
      </trkpt>
      <trkpt lat="5.351748" lon="-72.396000">
        <ele>352.70</ele>
        <time>2021-10-07T17:14:59Z</time>
      </trkpt>
      <trkpt lat="5.351752" lon="-72.396003">
        <ele>352.70</ele>
        <time>2021-10-07T17:15:01Z</time>
      </trkpt>
      <trkpt lat="5.351756" lon="-72.396007">
        <ele>352.70</ele>
        <time>2021-10-07T17:15:02Z</time>
      </trkpt>
      <trkpt lat="5.351760" lon="-72.396010">
        <ele>352.70</ele>
        <time>2021-10-07T17:15:03Z</time>
      </trkpt>
      <trkpt lat="5.351763" lon="-72.396014">
        <ele>352.70</ele>
        <time>2021-10-07T17:15:04Z</time>
      </trkpt>
      <trkpt lat="5.351767" lon="-72.396017">
        <ele>352.70</ele>
        <time>2021-10-07T17:15:06Z</time>
      </trkpt>
      <trkpt lat="5.351771" lon="-72.396021">
        <ele>352.20</ele>
        <time>2021-10-07T17:15:07Z</time>
      </trkpt>
      <trkpt lat="5.351802" lon="-72.396038">
        <ele>352.20</ele>
        <time>2021-10-07T17:15:08Z</time>
      </trkpt>
      <trkpt lat="5.351812" lon="-72.396045">
        <ele>352.40</ele>
        <time>2021-10-07T17:15:09Z</time>
      </trkpt>
      <trkpt lat="5.351841" lon="-72.396070">
        <ele>351.60</ele>
        <time>2021-10-07T17:15:10Z</time>
      </trkpt>
      <trkpt lat="5.351850" lon="-72.396079">
        <ele>351.60</ele>
        <time>2021-10-07T17:15:11Z</time>
      </trkpt>
      <trkpt lat="5.351875" lon="-72.396104">
        <ele>350.90</ele>
        <time>2021-10-07T17:15:13Z</time>
      </trkpt>
      <trkpt lat="5.351880" lon="-72.396138">
        <ele>351.10</ele>
        <time>2021-10-07T17:15:14Z</time>
      </trkpt>
      <trkpt lat="5.351890" lon="-72.396185">
        <ele>351.40</ele>
        <time>2021-10-07T17:15:15Z</time>
      </trkpt>
      <trkpt lat="5.351899" lon="-72.396212">
        <ele>350.90</ele>
        <time>2021-10-07T17:15:16Z</time>
      </trkpt>
      <trkpt lat="5.351912" lon="-72.396246">
        <ele>350.90</ele>
        <time>2021-10-07T17:15:17Z</time>
      </trkpt>
      <trkpt lat="5.351926" lon="-72.396277">
        <ele>351.10</ele>
        <time>2021-10-07T17:15:18Z</time>
      </trkpt>
      <trkpt lat="5.351947" lon="-72.396325">
        <ele>350.40</ele>
        <time>2021-10-07T17:15:20Z</time>
      </trkpt>
      <trkpt lat="5.351959" lon="-72.396363">
        <ele>350.50</ele>
        <time>2021-10-07T17:15:22Z</time>
      </trkpt>
      <trkpt lat="5.351970" lon="-72.396393">
        <ele>350.60</ele>
        <time>2021-10-07T17:15:24Z</time>
      </trkpt>
      <trkpt lat="5.351985" lon="-72.396444">
        <ele>349.30</ele>
        <time>2021-10-07T17:15:26Z</time>
      </trkpt>
      <trkpt lat="5.351993" lon="-72.396472">
        <ele>349.30</ele>
        <time>2021-10-07T17:15:27Z</time>
      </trkpt>
      <trkpt lat="5.352004" lon="-72.396511">
        <ele>349.30</ele>
        <time>2021-10-07T17:15:29Z</time>
      </trkpt>
      <trkpt lat="5.352010" lon="-72.396545">
        <ele>349.20</ele>
        <time>2021-10-07T17:15:30Z</time>
      </trkpt>
      <trkpt lat="5.352012" lon="-72.396555">
        <ele>349.10</ele>
        <time>2021-10-07T17:15:31Z</time>
      </trkpt>
      <trkpt lat="5.352014" lon="-72.396572">
        <ele>349.10</ele>
        <time>2021-10-07T17:15:32Z</time>
      </trkpt>
      <trkpt lat="5.352010" lon="-72.396595">
        <ele>349.10</ele>
        <time>2021-10-07T17:15:34Z</time>
      </trkpt>
      <trkpt lat="5.351998" lon="-72.396609">
        <ele>349.00</ele>
        <time>2021-10-07T17:15:36Z</time>
      </trkpt>
      <trkpt lat="5.351994" lon="-72.396614">
        <ele>349.00</ele>
        <time>2021-10-07T17:15:37Z</time>
      </trkpt>
      <trkpt lat="5.351993" lon="-72.396620">
        <ele>349.00</ele>
        <time>2021-10-07T17:15:39Z</time>
      </trkpt>
      <trkpt lat="5.351993" lon="-72.396623">
        <ele>349.00</ele>
        <time>2021-10-07T17:15:40Z</time>
      </trkpt>
      <trkpt lat="5.351994" lon="-72.396631">
        <ele>349.00</ele>
        <time>2021-10-07T17:15:42Z</time>
      </trkpt>
      <trkpt lat="5.351995" lon="-72.396635">
        <ele>349.00</ele>
        <time>2021-10-07T17:15:43Z</time>
      </trkpt>
      <trkpt lat="5.352003" lon="-72.396644">
        <ele>348.90</ele>
        <time>2021-10-07T17:15:45Z</time>
      </trkpt>
      <trkpt lat="5.352022" lon="-72.396666">
        <ele>348.90</ele>
        <time>2021-10-07T17:15:47Z</time>
      </trkpt>
      <trkpt lat="5.352031" lon="-72.396679">
        <ele>347.10</ele>
        <time>2021-10-07T17:15:48Z</time>
      </trkpt>
      <trkpt lat="5.352042" lon="-72.396708">
        <ele>347.10</ele>
        <time>2021-10-07T17:15:50Z</time>
      </trkpt>
      <trkpt lat="5.352053" lon="-72.396743">
        <ele>347.10</ele>
        <time>2021-10-07T17:15:52Z</time>
      </trkpt>
      <trkpt lat="5.352076" lon="-72.396775">
        <ele>345.90</ele>
        <time>2021-10-07T17:15:54Z</time>
      </trkpt>
      <trkpt lat="5.352113" lon="-72.396820">
        <ele>345.00</ele>
        <time>2021-10-07T17:15:56Z</time>
      </trkpt>
      <trkpt lat="5.352126" lon="-72.396831">
        <ele>345.00</ele>
        <time>2021-10-07T17:15:57Z</time>
      </trkpt>
      <trkpt lat="5.352158" lon="-72.396855">
        <ele>343.90</ele>
        <time>2021-10-07T17:15:59Z</time>
      </trkpt>
      <trkpt lat="5.352177" lon="-72.396872">
        <ele>344.30</ele>
        <time>2021-10-07T17:16:00Z</time>
      </trkpt>
      <trkpt lat="5.352213" lon="-72.396907">
        <ele>343.80</ele>
        <time>2021-10-07T17:16:02Z</time>
      </trkpt>
      <trkpt lat="5.352259" lon="-72.396947">
        <ele>343.50</ele>
        <time>2021-10-07T17:16:04Z</time>
      </trkpt>
      <trkpt lat="5.352292" lon="-72.396981">
        <ele>342.80</ele>
        <time>2021-10-07T17:16:05Z</time>
      </trkpt>
      <trkpt lat="5.352329" lon="-72.397032">
        <ele>343.80</ele>
        <time>2021-10-07T17:16:07Z</time>
      </trkpt>
      <trkpt lat="5.352356" lon="-72.397087">
        <ele>344.40</ele>
        <time>2021-10-07T17:16:09Z</time>
      </trkpt>
      <trkpt lat="5.352363" lon="-72.397117">
        <ele>345.10</ele>
        <time>2021-10-07T17:16:10Z</time>
      </trkpt>
      <trkpt lat="5.352365" lon="-72.397145">
        <ele>345.10</ele>
        <time>2021-10-07T17:16:11Z</time>
      </trkpt>
      <trkpt lat="5.352371" lon="-72.397221">
        <ele>345.90</ele>
        <time>2021-10-07T17:16:13Z</time>
      </trkpt>
      <trkpt lat="5.352374" lon="-72.397313">
        <ele>346.40</ele>
        <time>2021-10-07T17:16:15Z</time>
      </trkpt>
      <trkpt lat="5.352375" lon="-72.397363">
        <ele>346.70</ele>
        <time>2021-10-07T17:16:16Z</time>
      </trkpt>
      <trkpt lat="5.352376" lon="-72.397460">
        <ele>347.50</ele>
        <time>2021-10-07T17:16:18Z</time>
      </trkpt>
      <trkpt lat="5.352403" lon="-72.397561">
        <ele>348.10</ele>
        <time>2021-10-07T17:16:20Z</time>
      </trkpt>
      <trkpt lat="5.352421" lon="-72.397614">
        <ele>348.00</ele>
        <time>2021-10-07T17:16:21Z</time>
      </trkpt>
      <trkpt lat="5.352438" lon="-72.397651">
        <ele>348.00</ele>
        <time>2021-10-07T17:16:22Z</time>
      </trkpt>
      <trkpt lat="5.352458" lon="-72.397693">
        <ele>347.70</ele>
        <time>2021-10-07T17:16:23Z</time>
      </trkpt>
      <trkpt lat="5.352506" lon="-72.397788">
        <ele>347.50</ele>
        <time>2021-10-07T17:16:25Z</time>
      </trkpt>
      <trkpt lat="5.352540" lon="-72.397892">
        <ele>348.00</ele>
        <time>2021-10-07T17:16:27Z</time>
      </trkpt>
      <trkpt lat="5.352553" lon="-72.397962">
        <ele>348.10</ele>
        <time>2021-10-07T17:16:28Z</time>
      </trkpt>
      <trkpt lat="5.352559" lon="-72.398037">
        <ele>348.20</ele>
        <time>2021-10-07T17:16:29Z</time>
      </trkpt>
      <trkpt lat="5.352558" lon="-72.398164">
        <ele>348.00</ele>
        <time>2021-10-07T17:16:31Z</time>
      </trkpt>
      <trkpt lat="5.352545" lon="-72.398269">
        <ele>348.00</ele>
        <time>2021-10-07T17:16:33Z</time>
      </trkpt>
      <trkpt lat="5.352552" lon="-72.398340">
        <ele>347.90</ele>
        <time>2021-10-07T17:16:35Z</time>
      </trkpt>
      <trkpt lat="5.352567" lon="-72.398391">
        <ele>347.90</ele>
        <time>2021-10-07T17:16:36Z</time>
      </trkpt>
      <trkpt lat="5.352584" lon="-72.398431">
        <ele>348.00</ele>
        <time>2021-10-07T17:16:37Z</time>
      </trkpt>
      <trkpt lat="5.352619" lon="-72.398512">
        <ele>348.00</ele>
        <time>2021-10-07T17:16:39Z</time>
      </trkpt>
      <trkpt lat="5.352629" lon="-72.398592">
        <ele>347.70</ele>
        <time>2021-10-07T17:16:41Z</time>
      </trkpt>
      <trkpt lat="5.352626" lon="-72.398639">
        <ele>347.60</ele>
        <time>2021-10-07T17:16:42Z</time>
      </trkpt>
      <trkpt lat="5.352625" lon="-72.398692">
        <ele>347.60</ele>
        <time>2021-10-07T17:16:43Z</time>
      </trkpt>
      <trkpt lat="5.352633" lon="-72.398805">
        <ele>347.80</ele>
        <time>2021-10-07T17:16:45Z</time>
      </trkpt>
      <trkpt lat="5.352654" lon="-72.398905">
        <ele>348.30</ele>
        <time>2021-10-07T17:16:47Z</time>
      </trkpt>
      <trkpt lat="5.352659" lon="-72.398947">
        <ele>348.50</ele>
        <time>2021-10-07T17:16:48Z</time>
      </trkpt>
      <trkpt lat="5.352669" lon="-72.399033">
        <ele>348.90</ele>
        <time>2021-10-07T17:16:50Z</time>
      </trkpt>
      <trkpt lat="5.352698" lon="-72.399101">
        <ele>349.60</ele>
        <time>2021-10-07T17:16:52Z</time>
      </trkpt>
      <trkpt lat="5.352737" lon="-72.399162">
        <ele>350.10</ele>
        <time>2021-10-07T17:16:54Z</time>
      </trkpt>
      <trkpt lat="5.352770" lon="-72.399216">
        <ele>350.70</ele>
        <time>2021-10-07T17:16:56Z</time>
      </trkpt>
      <trkpt lat="5.352784" lon="-72.399248">
        <ele>350.70</ele>
        <time>2021-10-07T17:16:57Z</time>
      </trkpt>
      <trkpt lat="5.352801" lon="-72.399332">
        <ele>350.70</ele>
        <time>2021-10-07T17:16:59Z</time>
      </trkpt>
      <trkpt lat="5.352807" lon="-72.399430">
        <ele>350.60</ele>
        <time>2021-10-07T17:17:01Z</time>
      </trkpt>
      <trkpt lat="5.352820" lon="-72.399514">
        <ele>350.70</ele>
        <time>2021-10-07T17:17:03Z</time>
      </trkpt>
      <trkpt lat="5.352844" lon="-72.399575">
        <ele>351.00</ele>
        <time>2021-10-07T17:17:05Z</time>
      </trkpt>
      <trkpt lat="5.352859" lon="-72.399607">
        <ele>351.40</ele>
        <time>2021-10-07T17:17:06Z</time>
      </trkpt>
      <trkpt lat="5.352877" lon="-72.399666">
        <ele>351.70</ele>
        <time>2021-10-07T17:17:08Z</time>
      </trkpt>
      <trkpt lat="5.352878" lon="-72.399697">
        <ele>351.80</ele>
        <time>2021-10-07T17:17:09Z</time>
      </trkpt>
      <trkpt lat="5.352863" lon="-72.399752">
        <ele>351.80</ele>
        <time>2021-10-07T17:17:11Z</time>
      </trkpt>
      <trkpt lat="5.352848" lon="-72.399801">
        <ele>351.90</ele>
        <time>2021-10-07T17:17:13Z</time>
      </trkpt>
      <trkpt lat="5.352854" lon="-72.399835">
        <ele>352.10</ele>
        <time>2021-10-07T17:17:15Z</time>
      </trkpt>
      <trkpt lat="5.352878" lon="-72.399872">
        <ele>352.40</ele>
        <time>2021-10-07T17:17:17Z</time>
      </trkpt>
      <trkpt lat="5.352894" lon="-72.399889">
        <ele>351.80</ele>
        <time>2021-10-07T17:17:18Z</time>
      </trkpt>
      <trkpt lat="5.352931" lon="-72.399946">
        <ele>352.80</ele>
        <time>2021-10-07T17:17:20Z</time>
      </trkpt>
      <trkpt lat="5.352952" lon="-72.399984">
        <ele>352.80</ele>
        <time>2021-10-07T17:17:21Z</time>
      </trkpt>
      <trkpt lat="5.352994" lon="-72.400077">
        <ele>354.20</ele>
        <time>2021-10-07T17:17:23Z</time>
      </trkpt>
      <trkpt lat="5.353007" lon="-72.400117">
        <ele>354.60</ele>
        <time>2021-10-07T17:17:24Z</time>
      </trkpt>
      <trkpt lat="5.353033" lon="-72.400200">
        <ele>354.70</ele>
        <time>2021-10-07T17:17:26Z</time>
      </trkpt>
      <trkpt lat="5.353043" lon="-72.400237">
        <ele>355.00</ele>
        <time>2021-10-07T17:17:27Z</time>
      </trkpt>
      <trkpt lat="5.353058" lon="-72.400290">
        <ele>355.20</ele>
        <time>2021-10-07T17:17:29Z</time>
      </trkpt>
      <trkpt lat="5.353080" lon="-72.400327">
        <ele>355.20</ele>
        <time>2021-10-07T17:17:31Z</time>
      </trkpt>
      <trkpt lat="5.353101" lon="-72.400355">
        <ele>354.90</ele>
        <time>2021-10-07T17:17:33Z</time>
      </trkpt>
      <trkpt lat="5.353124" lon="-72.400392">
        <ele>354.70</ele>
        <time>2021-10-07T17:17:35Z</time>
      </trkpt>
      <trkpt lat="5.353171" lon="-72.400442">
        <ele>354.20</ele>
        <time>2021-10-07T17:17:37Z</time>
      </trkpt>
      <trkpt lat="5.353232" lon="-72.400525">
        <ele>353.90</ele>
        <time>2021-10-07T17:17:39Z</time>
      </trkpt>
      <trkpt lat="5.353304" lon="-72.400629">
        <ele>354.10</ele>
        <time>2021-10-07T17:17:41Z</time>
      </trkpt>
      <trkpt lat="5.353397" lon="-72.400752">
        <ele>354.10</ele>
        <time>2021-10-07T17:17:43Z</time>
      </trkpt>
      <trkpt lat="5.353476" lon="-72.400861">
        <ele>354.10</ele>
        <time>2021-10-07T17:17:45Z</time>
      </trkpt>
      <trkpt lat="5.353506" lon="-72.400925">
        <ele>354.10</ele>
        <time>2021-10-07T17:17:46Z</time>
      </trkpt>
      <trkpt lat="5.353537" lon="-72.400988">
        <ele>353.60</ele>
        <time>2021-10-07T17:17:47Z</time>
      </trkpt>
      <trkpt lat="5.353566" lon="-72.401049">
        <ele>353.10</ele>
        <time>2021-10-07T17:17:48Z</time>
      </trkpt>
      <trkpt lat="5.353640" lon="-72.401137">
        <ele>352.60</ele>
        <time>2021-10-07T17:17:50Z</time>
      </trkpt>
      <trkpt lat="5.353669" lon="-72.401166">
        <ele>352.40</ele>
        <time>2021-10-07T17:17:51Z</time>
      </trkpt>
      <trkpt lat="5.353732" lon="-72.401241">
        <ele>352.20</ele>
        <time>2021-10-07T17:17:53Z</time>
      </trkpt>
      <trkpt lat="5.353775" lon="-72.401276">
        <ele>351.90</ele>
        <time>2021-10-07T17:17:55Z</time>
      </trkpt>
      <trkpt lat="5.353802" lon="-72.401284">
        <ele>351.80</ele>
        <time>2021-10-07T17:17:56Z</time>
      </trkpt>
      <trkpt lat="5.353854" lon="-72.401295">
        <ele>351.80</ele>
        <time>2021-10-07T17:17:58Z</time>
      </trkpt>
      <trkpt lat="5.353887" lon="-72.401300">
        <ele>351.80</ele>
        <time>2021-10-07T17:17:59Z</time>
      </trkpt>
      <trkpt lat="5.353910" lon="-72.401307">
        <ele>351.80</ele>
        <time>2021-10-07T17:18:00Z</time>
      </trkpt>
      <trkpt lat="5.353934" lon="-72.401324">
        <ele>352.00</ele>
        <time>2021-10-07T17:18:02Z</time>
      </trkpt>
      <trkpt lat="5.353955" lon="-72.401334">
        <ele>351.80</ele>
        <time>2021-10-07T17:18:03Z</time>
      </trkpt>
      <trkpt lat="5.353988" lon="-72.401359">
        <ele>351.80</ele>
        <time>2021-10-07T17:18:05Z</time>
      </trkpt>
      <trkpt lat="5.353994" lon="-72.401374">
        <ele>351.60</ele>
        <time>2021-10-07T17:18:06Z</time>
      </trkpt>
      <trkpt lat="5.354001" lon="-72.401390">
        <ele>351.60</ele>
        <time>2021-10-07T17:18:07Z</time>
      </trkpt>
      <trkpt lat="5.354008" lon="-72.401406">
        <ele>351.50</ele>
        <time>2021-10-07T17:18:08Z</time>
      </trkpt>
      <trkpt lat="5.354017" lon="-72.401420">
        <ele>351.50</ele>
        <time>2021-10-07T17:18:10Z</time>
      </trkpt>
      <trkpt lat="5.354020" lon="-72.401422">
        <ele>351.50</ele>
        <time>2021-10-07T17:18:11Z</time>
      </trkpt>
      <trkpt lat="5.354021" lon="-72.401422">
        <ele>351.50</ele>
        <time>2021-10-07T17:18:12Z</time>
      </trkpt>
      <trkpt lat="5.354028" lon="-72.401426">
        <ele>351.50</ele>
        <time>2021-10-07T17:18:14Z</time>
      </trkpt>
      <trkpt lat="5.354051" lon="-72.401447">
        <ele>351.20</ele>
        <time>2021-10-07T17:18:16Z</time>
      </trkpt>
      <trkpt lat="5.354065" lon="-72.401460">
        <ele>351.10</ele>
        <time>2021-10-07T17:18:18Z</time>
      </trkpt>
      <trkpt lat="5.354071" lon="-72.401456">
        <ele>351.10</ele>
        <time>2021-10-07T17:18:19Z</time>
      </trkpt>
      <trkpt lat="5.354078" lon="-72.401452">
        <ele>351.00</ele>
        <time>2021-10-07T17:18:21Z</time>
      </trkpt>
      <trkpt lat="5.354081" lon="-72.401456">
        <ele>351.00</ele>
        <time>2021-10-07T17:18:22Z</time>
      </trkpt>
      <trkpt lat="5.354083" lon="-72.401462">
        <ele>351.00</ele>
        <time>2021-10-07T17:18:23Z</time>
      </trkpt>
      <trkpt lat="5.354083" lon="-72.401463">
        <ele>351.00</ele>
        <time>2021-10-07T17:18:24Z</time>
      </trkpt>
      <trkpt lat="5.354083" lon="-72.401464">
        <ele>351.00</ele>
        <time>2021-10-07T17:18:25Z</time>
      </trkpt>
      <trkpt lat="5.354083" lon="-72.401465">
        <ele>351.00</ele>
        <time>2021-10-07T17:18:27Z</time>
      </trkpt>
      <trkpt lat="5.354082" lon="-72.401465">
        <ele>351.00</ele>
        <time>2021-10-07T17:18:29Z</time>
      </trkpt>
      <trkpt lat="5.354082" lon="-72.401465">
        <ele>351.00</ele>
        <time>2021-10-07T17:18:30Z</time>
      </trkpt>
      <trkpt lat="5.354082" lon="-72.401465">
        <ele>351.00</ele>
        <time>2021-10-07T17:18:32Z</time>
      </trkpt>
      <trkpt lat="5.354102" lon="-72.401474">
        <ele>351.00</ele>
        <time>2021-10-07T17:18:50Z</time>
      </trkpt>
      <trkpt lat="5.354101" lon="-72.401474">
        <ele>351.00</ele>
        <time>2021-10-07T17:18:52Z</time>
      </trkpt>
      <trkpt lat="5.354116" lon="-72.401480">
        <ele>351.00</ele>
        <time>2021-10-07T17:18:54Z</time>
      </trkpt>
      <trkpt lat="5.354139" lon="-72.401495">
        <ele>351.00</ele>
        <time>2021-10-07T17:18:56Z</time>
      </trkpt>
      <trkpt lat="5.354148" lon="-72.401507">
        <ele>351.00</ele>
        <time>2021-10-07T17:18:57Z</time>
      </trkpt>
      <trkpt lat="5.354159" lon="-72.401520">
        <ele>351.00</ele>
        <time>2021-10-07T17:18:58Z</time>
      </trkpt>
      <trkpt lat="5.354164" lon="-72.401528">
        <ele>351.20</ele>
        <time>2021-10-07T17:18:59Z</time>
      </trkpt>
      <trkpt lat="5.354168" lon="-72.401544">
        <ele>351.40</ele>
        <time>2021-10-07T17:19:00Z</time>
      </trkpt>
      <trkpt lat="5.354167" lon="-72.401583">
        <ele>351.60</ele>
        <time>2021-10-07T17:19:02Z</time>
      </trkpt>
      <trkpt lat="5.354164" lon="-72.401603">
        <ele>351.60</ele>
        <time>2021-10-07T17:19:03Z</time>
      </trkpt>
      <trkpt lat="5.354155" lon="-72.401634">
        <ele>351.60</ele>
        <time>2021-10-07T17:19:05Z</time>
      </trkpt>
      <trkpt lat="5.354148" lon="-72.401651">
        <ele>351.60</ele>
        <time>2021-10-07T17:19:06Z</time>
      </trkpt>
      <trkpt lat="5.354138" lon="-72.401676">
        <ele>352.00</ele>
        <time>2021-10-07T17:19:08Z</time>
      </trkpt>
      <trkpt lat="5.354135" lon="-72.401709">
        <ele>352.30</ele>
        <time>2021-10-07T17:19:10Z</time>
      </trkpt>
      <trkpt lat="5.354128" lon="-72.401755">
        <ele>352.70</ele>
        <time>2021-10-07T17:19:12Z</time>
      </trkpt>
      <trkpt lat="5.354125" lon="-72.401780">
        <ele>352.70</ele>
        <time>2021-10-07T17:19:13Z</time>
      </trkpt>
      <trkpt lat="5.354121" lon="-72.401842">
        <ele>353.10</ele>
        <time>2021-10-07T17:19:15Z</time>
      </trkpt>
      <trkpt lat="5.354120" lon="-72.401879">
        <ele>353.10</ele>
        <time>2021-10-07T17:19:16Z</time>
      </trkpt>
      <trkpt lat="5.354121" lon="-72.401949">
        <ele>353.00</ele>
        <time>2021-10-07T17:19:18Z</time>
      </trkpt>
      <trkpt lat="5.354139" lon="-72.402025">
        <ele>352.30</ele>
        <time>2021-10-07T17:19:20Z</time>
      </trkpt>
      <trkpt lat="5.354153" lon="-72.402068">
        <ele>351.90</ele>
        <time>2021-10-07T17:19:21Z</time>
      </trkpt>
      <trkpt lat="5.354171" lon="-72.402125">
        <ele>351.70</ele>
        <time>2021-10-07T17:19:22Z</time>
      </trkpt>
      <trkpt lat="5.354215" lon="-72.402239">
        <ele>350.80</ele>
        <time>2021-10-07T17:19:24Z</time>
      </trkpt>
      <trkpt lat="5.354231" lon="-72.402295">
        <ele>350.70</ele>
        <time>2021-10-07T17:19:25Z</time>
      </trkpt>
      <trkpt lat="5.354255" lon="-72.402411">
        <ele>351.10</ele>
        <time>2021-10-07T17:19:27Z</time>
      </trkpt>
      <trkpt lat="5.354275" lon="-72.402531">
        <ele>351.90</ele>
        <time>2021-10-07T17:19:29Z</time>
      </trkpt>
      <trkpt lat="5.354281" lon="-72.402589">
        <ele>352.40</ele>
        <time>2021-10-07T17:19:30Z</time>
      </trkpt>
      <trkpt lat="5.354284" lon="-72.402707">
        <ele>353.90</ele>
        <time>2021-10-07T17:19:32Z</time>
      </trkpt>
      <trkpt lat="5.354292" lon="-72.402824">
        <ele>354.50</ele>
        <time>2021-10-07T17:19:34Z</time>
      </trkpt>
      <trkpt lat="5.354321" lon="-72.402902">
        <ele>354.60</ele>
        <time>2021-10-07T17:19:36Z</time>
      </trkpt>
      <trkpt lat="5.354332" lon="-72.402922">
        <ele>354.70</ele>
        <time>2021-10-07T17:19:37Z</time>
      </trkpt>
      <trkpt lat="5.354354" lon="-72.402967">
        <ele>354.30</ele>
        <time>2021-10-07T17:19:39Z</time>
      </trkpt>
      <trkpt lat="5.354367" lon="-72.402995">
        <ele>354.30</ele>
        <time>2021-10-07T17:19:40Z</time>
      </trkpt>
      <trkpt lat="5.354405" lon="-72.403072">
        <ele>353.80</ele>
        <time>2021-10-07T17:19:42Z</time>
      </trkpt>
      <trkpt lat="5.354421" lon="-72.403119">
        <ele>353.10</ele>
        <time>2021-10-07T17:19:44Z</time>
      </trkpt>
      <trkpt lat="5.354441" lon="-72.403214">
        <ele>352.20</ele>
        <time>2021-10-07T17:19:46Z</time>
      </trkpt>
      <trkpt lat="5.354450" lon="-72.403348">
        <ele>351.80</ele>
        <time>2021-10-07T17:19:48Z</time>
      </trkpt>
      <trkpt lat="5.354457" lon="-72.403511">
        <ele>353.20</ele>
        <time>2021-10-07T17:19:50Z</time>
      </trkpt>
      <trkpt lat="5.354458" lon="-72.403583">
        <ele>353.70</ele>
        <time>2021-10-07T17:19:51Z</time>
      </trkpt>
      <trkpt lat="5.354451" lon="-72.403650">
        <ele>354.50</ele>
        <time>2021-10-07T17:19:52Z</time>
      </trkpt>
      <trkpt lat="5.354438" lon="-72.403706">
        <ele>354.80</ele>
        <time>2021-10-07T17:19:53Z</time>
      </trkpt>
      <trkpt lat="5.354414" lon="-72.403767">
        <ele>354.90</ele>
        <time>2021-10-07T17:19:55Z</time>
      </trkpt>
      <trkpt lat="5.354400" lon="-72.403802">
        <ele>354.90</ele>
        <time>2021-10-07T17:19:56Z</time>
      </trkpt>
      <trkpt lat="5.354365" lon="-72.403824">
        <ele>355.00</ele>
        <time>2021-10-07T17:19:58Z</time>
      </trkpt>
      <trkpt lat="5.354375" lon="-72.403891">
        <ele>355.10</ele>
        <time>2021-10-07T17:19:59Z</time>
      </trkpt>
      <trkpt lat="5.354375" lon="-72.403893">
        <ele>355.10</ele>
        <time>2021-10-07T17:20:00Z</time>
      </trkpt>
      <trkpt lat="5.354371" lon="-72.403893">
        <ele>355.10</ele>
        <time>2021-10-07T17:20:02Z</time>
      </trkpt>
      <trkpt lat="5.354357" lon="-72.403891">
        <ele>355.10</ele>
        <time>2021-10-07T17:20:03Z</time>
      </trkpt>
      <trkpt lat="5.354331" lon="-72.403861">
        <ele>355.40</ele>
        <time>2021-10-07T17:20:04Z</time>
      </trkpt>
      <trkpt lat="5.354270" lon="-72.403802">
        <ele>355.30</ele>
        <time>2021-10-07T17:20:06Z</time>
      </trkpt>
      <trkpt lat="5.354225" lon="-72.403767">
        <ele>355.70</ele>
        <time>2021-10-07T17:20:07Z</time>
      </trkpt>
      <trkpt lat="5.354184" lon="-72.403729">
        <ele>355.70</ele>
        <time>2021-10-07T17:20:08Z</time>
      </trkpt>
      <trkpt lat="5.354139" lon="-72.403679">
        <ele>356.00</ele>
        <time>2021-10-07T17:20:09Z</time>
      </trkpt>
      <trkpt lat="5.354103" lon="-72.403646">
        <ele>356.60</ele>
        <time>2021-10-07T17:20:11Z</time>
      </trkpt>
      <trkpt lat="5.354073" lon="-72.403623">
        <ele>357.60</ele>
        <time>2021-10-07T17:20:12Z</time>
      </trkpt>
      <trkpt lat="5.354036" lon="-72.403589">
        <ele>357.60</ele>
        <time>2021-10-07T17:20:13Z</time>
      </trkpt>
      <trkpt lat="5.354007" lon="-72.403558">
        <ele>358.90</ele>
        <time>2021-10-07T17:20:15Z</time>
      </trkpt>
      <trkpt lat="5.353986" lon="-72.403528">
        <ele>360.00</ele>
        <time>2021-10-07T17:20:16Z</time>
      </trkpt>
      <trkpt lat="5.353968" lon="-72.403493">
        <ele>359.70</ele>
        <time>2021-10-07T17:20:17Z</time>
      </trkpt>
      <trkpt lat="5.353944" lon="-72.403451">
        <ele>360.40</ele>
        <time>2021-10-07T17:20:18Z</time>
      </trkpt>
      <trkpt lat="5.353918" lon="-72.403414">
        <ele>360.10</ele>
        <time>2021-10-07T17:20:20Z</time>
      </trkpt>
      <trkpt lat="5.353899" lon="-72.403383">
        <ele>361.00</ele>
        <time>2021-10-07T17:20:21Z</time>
      </trkpt>
      <trkpt lat="5.353894" lon="-72.403375">
        <ele>360.80</ele>
        <time>2021-10-07T17:20:22Z</time>
      </trkpt>
      <trkpt lat="5.353875" lon="-72.403350">
        <ele>360.80</ele>
        <time>2021-10-07T17:20:23Z</time>
      </trkpt>
      <trkpt lat="5.353859" lon="-72.403330">
        <ele>361.40</ele>
        <time>2021-10-07T17:20:24Z</time>
      </trkpt>
      <trkpt lat="5.353831" lon="-72.403290">
        <ele>361.10</ele>
        <time>2021-10-07T17:20:26Z</time>
      </trkpt>
      <trkpt lat="5.353795" lon="-72.403236">
        <ele>361.30</ele>
        <time>2021-10-07T17:20:28Z</time>
      </trkpt>
      <trkpt lat="5.353776" lon="-72.403197">
        <ele>361.10</ele>
        <time>2021-10-07T17:20:29Z</time>
      </trkpt>
      <trkpt lat="5.353764" lon="-72.403158">
        <ele>360.30</ele>
        <time>2021-10-07T17:20:30Z</time>
      </trkpt>
      <trkpt lat="5.353755" lon="-72.403064">
        <ele>358.90</ele>
        <time>2021-10-07T17:20:32Z</time>
      </trkpt>
      <trkpt lat="5.353725" lon="-72.402953">
        <ele>359.00</ele>
        <time>2021-10-07T17:20:34Z</time>
      </trkpt>
      <trkpt lat="5.353707" lon="-72.402897">
        <ele>358.90</ele>
        <time>2021-10-07T17:20:35Z</time>
      </trkpt>
      <trkpt lat="5.353665" lon="-72.402789">
        <ele>359.40</ele>
        <time>2021-10-07T17:20:37Z</time>
      </trkpt>
      <trkpt lat="5.353639" lon="-72.402734">
        <ele>359.30</ele>
        <time>2021-10-07T17:20:38Z</time>
      </trkpt>
      <trkpt lat="5.353598" lon="-72.402627">
        <ele>358.40</ele>
        <time>2021-10-07T17:20:40Z</time>
      </trkpt>
      <trkpt lat="5.353577" lon="-72.402560">
        <ele>356.80</ele>
        <time>2021-10-07T17:20:41Z</time>
      </trkpt>
      <trkpt lat="5.353564" lon="-72.402515">
        <ele>356.50</ele>
        <time>2021-10-07T17:20:43Z</time>
      </trkpt>
      <trkpt lat="5.353546" lon="-72.402468">
        <ele>355.90</ele>
        <time>2021-10-07T17:20:44Z</time>
      </trkpt>
      <trkpt lat="5.353536" lon="-72.402440">
        <ele>355.90</ele>
        <time>2021-10-07T17:20:45Z</time>
      </trkpt>
      <trkpt lat="5.353529" lon="-72.402418">
        <ele>355.50</ele>
        <time>2021-10-07T17:20:46Z</time>
      </trkpt>
      <trkpt lat="5.353531" lon="-72.402416">
        <ele>355.50</ele>
        <time>2021-10-07T17:20:47Z</time>
      </trkpt>
      <trkpt lat="5.353531" lon="-72.402403">
        <ele>355.50</ele>
        <time>2021-10-07T17:20:49Z</time>
      </trkpt>
      <trkpt lat="5.353532" lon="-72.402385">
        <ele>355.20</ele>
        <time>2021-10-07T17:20:50Z</time>
      </trkpt>
      <trkpt lat="5.353534" lon="-72.402368">
        <ele>355.20</ele>
        <time>2021-10-07T17:20:51Z</time>
      </trkpt>
      <trkpt lat="5.353529" lon="-72.402339">
        <ele>354.90</ele>
        <time>2021-10-07T17:20:53Z</time>
      </trkpt>
      <trkpt lat="5.353511" lon="-72.402300">
        <ele>355.40</ele>
        <time>2021-10-07T17:20:55Z</time>
      </trkpt>
      <trkpt lat="5.353481" lon="-72.402259">
        <ele>355.40</ele>
        <time>2021-10-07T17:20:56Z</time>
      </trkpt>
      <trkpt lat="5.353462" lon="-72.402228">
        <ele>355.90</ele>
        <time>2021-10-07T17:20:57Z</time>
      </trkpt>
      <trkpt lat="5.353440" lon="-72.402195">
        <ele>355.90</ele>
        <time>2021-10-07T17:20:59Z</time>
      </trkpt>
      <trkpt lat="5.353426" lon="-72.402165">
        <ele>356.20</ele>
        <time>2021-10-07T17:21:00Z</time>
      </trkpt>
      <trkpt lat="5.353409" lon="-72.402132">
        <ele>356.00</ele>
        <time>2021-10-07T17:21:01Z</time>
      </trkpt>
      <trkpt lat="5.353372" lon="-72.402069">
        <ele>356.10</ele>
        <time>2021-10-07T17:21:03Z</time>
      </trkpt>
      <trkpt lat="5.353337" lon="-72.401995">
        <ele>356.10</ele>
        <time>2021-10-07T17:21:05Z</time>
      </trkpt>
      <trkpt lat="5.353313" lon="-72.401962">
        <ele>356.00</ele>
        <time>2021-10-07T17:21:06Z</time>
      </trkpt>
      <trkpt lat="5.353274" lon="-72.401902">
        <ele>356.80</ele>
        <time>2021-10-07T17:21:08Z</time>
      </trkpt>
      <trkpt lat="5.353255" lon="-72.401858">
        <ele>357.60</ele>
        <time>2021-10-07T17:21:09Z</time>
      </trkpt>
      <trkpt lat="5.353176" lon="-72.401699">
        <ele>359.00</ele>
        <time>2021-10-07T17:21:11Z</time>
      </trkpt>
      <trkpt lat="5.353140" lon="-72.401637">
        <ele>359.10</ele>
        <time>2021-10-07T17:21:12Z</time>
      </trkpt>
      <trkpt lat="5.353101" lon="-72.401582">
        <ele>359.90</ele>
        <time>2021-10-07T17:21:13Z</time>
      </trkpt>
      <trkpt lat="5.353041" lon="-72.401492">
        <ele>360.40</ele>
        <time>2021-10-07T17:21:15Z</time>
      </trkpt>
      <trkpt lat="5.353014" lon="-72.401459">
        <ele>360.10</ele>
        <time>2021-10-07T17:21:16Z</time>
      </trkpt>
      <trkpt lat="5.352978" lon="-72.401408">
        <ele>359.70</ele>
        <time>2021-10-07T17:21:18Z</time>
      </trkpt>
      <trkpt lat="5.352935" lon="-72.401343">
        <ele>358.80</ele>
        <time>2021-10-07T17:21:20Z</time>
      </trkpt>
      <trkpt lat="5.352916" lon="-72.401308">
        <ele>358.50</ele>
        <time>2021-10-07T17:21:21Z</time>
      </trkpt>
      <trkpt lat="5.352885" lon="-72.401251">
        <ele>358.00</ele>
        <time>2021-10-07T17:21:23Z</time>
      </trkpt>
      <trkpt lat="5.352858" lon="-72.401209">
        <ele>357.70</ele>
        <time>2021-10-07T17:21:24Z</time>
      </trkpt>
      <trkpt lat="5.352828" lon="-72.401157">
        <ele>357.60</ele>
        <time>2021-10-07T17:21:26Z</time>
      </trkpt>
      <trkpt lat="5.352814" lon="-72.401120">
        <ele>357.20</ele>
        <time>2021-10-07T17:21:27Z</time>
      </trkpt>
      <trkpt lat="5.352810" lon="-72.401088">
        <ele>356.90</ele>
        <time>2021-10-07T17:21:28Z</time>
      </trkpt>
      <trkpt lat="5.352812" lon="-72.401046">
        <ele>356.60</ele>
        <time>2021-10-07T17:21:30Z</time>
      </trkpt>
      <trkpt lat="5.352819" lon="-72.401025">
        <ele>356.60</ele>
        <time>2021-10-07T17:21:31Z</time>
      </trkpt>
      <trkpt lat="5.352827" lon="-72.401006">
        <ele>356.20</ele>
        <time>2021-10-07T17:21:33Z</time>
      </trkpt>
      <trkpt lat="5.352830" lon="-72.400989">
        <ele>356.20</ele>
        <time>2021-10-07T17:21:34Z</time>
      </trkpt>
      <trkpt lat="5.352829" lon="-72.400979">
        <ele>356.20</ele>
        <time>2021-10-07T17:21:35Z</time>
      </trkpt>
      <trkpt lat="5.352829" lon="-72.400973">
        <ele>355.80</ele>
        <time>2021-10-07T17:21:36Z</time>
      </trkpt>
      <trkpt lat="5.352829" lon="-72.400968">
        <ele>355.80</ele>
        <time>2021-10-07T17:21:37Z</time>
      </trkpt>
      <trkpt lat="5.352825" lon="-72.400950">
        <ele>355.80</ele>
        <time>2021-10-07T17:21:39Z</time>
      </trkpt>
      <trkpt lat="5.352813" lon="-72.400923">
        <ele>355.40</ele>
        <time>2021-10-07T17:21:41Z</time>
      </trkpt>
      <trkpt lat="5.352799" lon="-72.400892">
        <ele>355.40</ele>
        <time>2021-10-07T17:21:42Z</time>
      </trkpt>
      <trkpt lat="5.352787" lon="-72.400866">
        <ele>355.80</ele>
        <time>2021-10-07T17:21:43Z</time>
      </trkpt>
      <trkpt lat="5.352759" lon="-72.400834">
        <ele>355.90</ele>
        <time>2021-10-07T17:21:45Z</time>
      </trkpt>
      <trkpt lat="5.352747" lon="-72.400806">
        <ele>356.60</ele>
        <time>2021-10-07T17:21:46Z</time>
      </trkpt>
      <trkpt lat="5.352730" lon="-72.400782">
        <ele>357.00</ele>
        <time>2021-10-07T17:21:47Z</time>
      </trkpt>
      <trkpt lat="5.352724" lon="-72.400775">
        <ele>357.00</ele>
        <time>2021-10-07T17:21:48Z</time>
      </trkpt>
      <trkpt lat="5.352707" lon="-72.400758">
        <ele>358.30</ele>
        <time>2021-10-07T17:21:49Z</time>
      </trkpt>
      <trkpt lat="5.352680" lon="-72.400724">
        <ele>358.30</ele>
        <time>2021-10-07T17:21:51Z</time>
      </trkpt>
      <trkpt lat="5.352661" lon="-72.400692">
        <ele>359.30</ele>
        <time>2021-10-07T17:21:52Z</time>
      </trkpt>
      <trkpt lat="5.352656" lon="-72.400683">
        <ele>359.30</ele>
        <time>2021-10-07T17:21:53Z</time>
      </trkpt>
      <trkpt lat="5.352649" lon="-72.400655">
        <ele>359.50</ele>
        <time>2021-10-07T17:21:55Z</time>
      </trkpt>
      <trkpt lat="5.352651" lon="-72.400632">
        <ele>359.50</ele>
        <time>2021-10-07T17:21:56Z</time>
      </trkpt>
      <trkpt lat="5.352654" lon="-72.400599">
        <ele>359.50</ele>
        <time>2021-10-07T17:21:58Z</time>
      </trkpt>
      <trkpt lat="5.352654" lon="-72.400582">
        <ele>359.30</ele>
        <time>2021-10-07T17:21:59Z</time>
      </trkpt>
      <trkpt lat="5.352655" lon="-72.400569">
        <ele>359.30</ele>
        <time>2021-10-07T17:22:00Z</time>
      </trkpt>
      <trkpt lat="5.352653" lon="-72.400563">
        <ele>359.30</ele>
        <time>2021-10-07T17:22:01Z</time>
      </trkpt>
      <trkpt lat="5.352653" lon="-72.400544">
        <ele>359.00</ele>
        <time>2021-10-07T17:22:03Z</time>
      </trkpt>
      <trkpt lat="5.352651" lon="-72.400505">
        <ele>359.00</ele>
        <time>2021-10-07T17:22:05Z</time>
      </trkpt>
      <trkpt lat="5.352633" lon="-72.400482">
        <ele>358.70</ele>
        <time>2021-10-07T17:22:07Z</time>
      </trkpt>
      <trkpt lat="5.352629" lon="-72.400475">
        <ele>358.70</ele>
        <time>2021-10-07T17:22:08Z</time>
      </trkpt>
      <trkpt lat="5.352618" lon="-72.400456">
        <ele>358.60</ele>
        <time>2021-10-07T17:22:09Z</time>
      </trkpt>
      <trkpt lat="5.352594" lon="-72.400411">
        <ele>358.30</ele>
        <time>2021-10-07T17:22:11Z</time>
      </trkpt>
      <trkpt lat="5.352560" lon="-72.400368">
        <ele>358.40</ele>
        <time>2021-10-07T17:22:12Z</time>
      </trkpt>
      <trkpt lat="5.352532" lon="-72.400329">
        <ele>358.50</ele>
        <time>2021-10-07T17:22:14Z</time>
      </trkpt>
      <trkpt lat="5.352510" lon="-72.400297">
        <ele>358.50</ele>
        <time>2021-10-07T17:22:15Z</time>
      </trkpt>
      <trkpt lat="5.352479" lon="-72.400252">
        <ele>358.30</ele>
        <time>2021-10-07T17:22:17Z</time>
      </trkpt>
      <trkpt lat="5.352464" lon="-72.400229">
        <ele>357.80</ele>
        <time>2021-10-07T17:22:18Z</time>
      </trkpt>
      <trkpt lat="5.352444" lon="-72.400201">
        <ele>357.30</ele>
        <time>2021-10-07T17:22:19Z</time>
      </trkpt>
      <trkpt lat="5.352417" lon="-72.400158">
        <ele>356.90</ele>
        <time>2021-10-07T17:22:20Z</time>
      </trkpt>
      <trkpt lat="5.352395" lon="-72.400125">
        <ele>357.00</ele>
        <time>2021-10-07T17:22:21Z</time>
      </trkpt>
      <trkpt lat="5.352363" lon="-72.400082">
        <ele>357.10</ele>
        <time>2021-10-07T17:22:23Z</time>
      </trkpt>
      <trkpt lat="5.352333" lon="-72.400041">
        <ele>356.90</ele>
        <time>2021-10-07T17:22:24Z</time>
      </trkpt>
      <trkpt lat="5.352290" lon="-72.399983">
        <ele>356.70</ele>
        <time>2021-10-07T17:22:26Z</time>
      </trkpt>
      <trkpt lat="5.352260" lon="-72.399937">
        <ele>356.60</ele>
        <time>2021-10-07T17:22:27Z</time>
      </trkpt>
      <trkpt lat="5.352241" lon="-72.399906">
        <ele>356.60</ele>
        <time>2021-10-07T17:22:28Z</time>
      </trkpt>
      <trkpt lat="5.352207" lon="-72.399857">
        <ele>356.30</ele>
        <time>2021-10-07T17:22:30Z</time>
      </trkpt>
      <trkpt lat="5.352194" lon="-72.399819">
        <ele>356.60</ele>
        <time>2021-10-07T17:22:31Z</time>
      </trkpt>
      <trkpt lat="5.352178" lon="-72.399785">
        <ele>356.60</ele>
        <time>2021-10-07T17:22:33Z</time>
      </trkpt>
      <trkpt lat="5.352169" lon="-72.399735">
        <ele>356.60</ele>
        <time>2021-10-07T17:22:35Z</time>
      </trkpt>
      <trkpt lat="5.352165" lon="-72.399694">
        <ele>356.60</ele>
        <time>2021-10-07T17:22:36Z</time>
      </trkpt>
      <trkpt lat="5.352156" lon="-72.399637">
        <ele>356.60</ele>
        <time>2021-10-07T17:22:37Z</time>
      </trkpt>
      <trkpt lat="5.352145" lon="-72.399586">
        <ele>356.80</ele>
        <time>2021-10-07T17:22:38Z</time>
      </trkpt>
      <trkpt lat="5.352136" lon="-72.399537">
        <ele>356.80</ele>
        <time>2021-10-07T17:22:40Z</time>
      </trkpt>
      <trkpt lat="5.352127" lon="-72.399490">
        <ele>356.70</ele>
        <time>2021-10-07T17:22:41Z</time>
      </trkpt>
      <trkpt lat="5.352116" lon="-72.399448">
        <ele>356.60</ele>
        <time>2021-10-07T17:22:42Z</time>
      </trkpt>
      <trkpt lat="5.352105" lon="-72.399413">
        <ele>356.90</ele>
        <time>2021-10-07T17:22:43Z</time>
      </trkpt>
      <trkpt lat="5.352095" lon="-72.399373">
        <ele>356.90</ele>
        <time>2021-10-07T17:22:44Z</time>
      </trkpt>
      <trkpt lat="5.352081" lon="-72.399312">
        <ele>356.90</ele>
        <time>2021-10-07T17:22:46Z</time>
      </trkpt>
      <trkpt lat="5.352070" lon="-72.399265">
        <ele>356.90</ele>
        <time>2021-10-07T17:22:47Z</time>
      </trkpt>
      <trkpt lat="5.352059" lon="-72.399220">
        <ele>357.30</ele>
        <time>2021-10-07T17:22:48Z</time>
      </trkpt>
      <trkpt lat="5.352050" lon="-72.399180">
        <ele>357.30</ele>
        <time>2021-10-07T17:22:49Z</time>
      </trkpt>
      <trkpt lat="5.352034" lon="-72.399105">
        <ele>357.10</ele>
        <time>2021-10-07T17:22:51Z</time>
      </trkpt>
      <trkpt lat="5.352025" lon="-72.399043">
        <ele>357.30</ele>
        <time>2021-10-07T17:22:53Z</time>
      </trkpt>
      <trkpt lat="5.352031" lon="-72.399002">
        <ele>356.80</ele>
        <time>2021-10-07T17:22:54Z</time>
      </trkpt>
      <trkpt lat="5.352037" lon="-72.398962">
        <ele>356.60</ele>
        <time>2021-10-07T17:22:55Z</time>
      </trkpt>
      <trkpt lat="5.352047" lon="-72.398888">
        <ele>356.10</ele>
        <time>2021-10-07T17:22:57Z</time>
      </trkpt>
      <trkpt lat="5.352052" lon="-72.398825">
        <ele>355.40</ele>
        <time>2021-10-07T17:22:58Z</time>
      </trkpt>
      <trkpt lat="5.352049" lon="-72.398766">
        <ele>355.00</ele>
        <time>2021-10-07T17:22:59Z</time>
      </trkpt>
      <trkpt lat="5.352015" lon="-72.398611">
        <ele>353.00</ele>
        <time>2021-10-07T17:23:01Z</time>
      </trkpt>
      <trkpt lat="5.352005" lon="-72.398566">
        <ele>352.60</ele>
        <time>2021-10-07T17:23:02Z</time>
      </trkpt>
      <trkpt lat="5.352021" lon="-72.398484">
        <ele>351.80</ele>
        <time>2021-10-07T17:23:04Z</time>
      </trkpt>
      <trkpt lat="5.352003" lon="-72.398389">
        <ele>351.30</ele>
        <time>2021-10-07T17:23:06Z</time>
      </trkpt>
      <trkpt lat="5.351991" lon="-72.398339">
        <ele>351.00</ele>
        <time>2021-10-07T17:23:07Z</time>
      </trkpt>
      <trkpt lat="5.351969" lon="-72.398257">
        <ele>351.20</ele>
        <time>2021-10-07T17:23:09Z</time>
      </trkpt>
      <trkpt lat="5.351949" lon="-72.398197">
        <ele>351.20</ele>
        <time>2021-10-07T17:23:11Z</time>
      </trkpt>
      <trkpt lat="5.351934" lon="-72.398152">
        <ele>351.90</ele>
        <time>2021-10-07T17:23:12Z</time>
      </trkpt>
      <trkpt lat="5.351924" lon="-72.398103">
        <ele>351.80</ele>
        <time>2021-10-07T17:23:13Z</time>
      </trkpt>
      <trkpt lat="5.351916" lon="-72.398057">
        <ele>351.70</ele>
        <time>2021-10-07T17:23:15Z</time>
      </trkpt>
      <trkpt lat="5.351911" lon="-72.398005">
        <ele>351.20</ele>
        <time>2021-10-07T17:23:16Z</time>
      </trkpt>
      <trkpt lat="5.351898" lon="-72.397925">
        <ele>350.90</ele>
        <time>2021-10-07T17:23:17Z</time>
      </trkpt>
      <trkpt lat="5.351888" lon="-72.397855">
        <ele>351.10</ele>
        <time>2021-10-07T17:23:19Z</time>
      </trkpt>
      <trkpt lat="5.351882" lon="-72.397790">
        <ele>351.20</ele>
        <time>2021-10-07T17:23:20Z</time>
      </trkpt>
      <trkpt lat="5.351883" lon="-72.397733">
        <ele>351.30</ele>
        <time>2021-10-07T17:23:21Z</time>
      </trkpt>
      <trkpt lat="5.351885" lon="-72.397683">
        <ele>351.30</ele>
        <time>2021-10-07T17:23:22Z</time>
      </trkpt>
      <trkpt lat="5.351885" lon="-72.397637">
        <ele>351.30</ele>
        <time>2021-10-07T17:23:23Z</time>
      </trkpt>
      <trkpt lat="5.351884" lon="-72.397574">
        <ele>351.10</ele>
        <time>2021-10-07T17:23:24Z</time>
      </trkpt>
      <trkpt lat="5.351880" lon="-72.397500">
        <ele>351.10</ele>
        <time>2021-10-07T17:23:26Z</time>
      </trkpt>
      <trkpt lat="5.351867" lon="-72.397383">
        <ele>351.30</ele>
        <time>2021-10-07T17:23:28Z</time>
      </trkpt>
      <trkpt lat="5.351859" lon="-72.397194">
        <ele>352.10</ele>
        <time>2021-10-07T17:23:30Z</time>
      </trkpt>
      <trkpt lat="5.351869" lon="-72.397118">
        <ele>351.80</ele>
        <time>2021-10-07T17:23:32Z</time>
      </trkpt>
      <trkpt lat="5.351876" lon="-72.397083">
        <ele>351.50</ele>
        <time>2021-10-07T17:23:33Z</time>
      </trkpt>
      <trkpt lat="5.351884" lon="-72.397035">
        <ele>351.30</ele>
        <time>2021-10-07T17:23:34Z</time>
      </trkpt>
      <trkpt lat="5.351898" lon="-72.396999">
        <ele>350.60</ele>
        <time>2021-10-07T17:23:36Z</time>
      </trkpt>
      <trkpt lat="5.351905" lon="-72.396968">
        <ele>350.60</ele>
        <time>2021-10-07T17:23:37Z</time>
      </trkpt>
      <trkpt lat="5.351910" lon="-72.396938">
        <ele>350.70</ele>
        <time>2021-10-07T17:23:38Z</time>
      </trkpt>
      <trkpt lat="5.351908" lon="-72.396896">
        <ele>350.80</ele>
        <time>2021-10-07T17:23:39Z</time>
      </trkpt>
      <trkpt lat="5.351906" lon="-72.396864">
        <ele>350.80</ele>
        <time>2021-10-07T17:23:40Z</time>
      </trkpt>
      <trkpt lat="5.351904" lon="-72.396827">
        <ele>351.00</ele>
        <time>2021-10-07T17:23:41Z</time>
      </trkpt>
      <trkpt lat="5.351902" lon="-72.396776">
        <ele>351.20</ele>
        <time>2021-10-07T17:23:43Z</time>
      </trkpt>
      <trkpt lat="5.351911" lon="-72.396733">
        <ele>351.50</ele>
        <time>2021-10-07T17:23:45Z</time>
      </trkpt>
      <trkpt lat="5.351920" lon="-72.396699">
        <ele>351.80</ele>
        <time>2021-10-07T17:23:47Z</time>
      </trkpt>
      <trkpt lat="5.351923" lon="-72.396685">
        <ele>351.80</ele>
        <time>2021-10-07T17:23:48Z</time>
      </trkpt>
      <trkpt lat="5.351926" lon="-72.396676">
        <ele>352.10</ele>
        <time>2021-10-07T17:23:49Z</time>
      </trkpt>
      <trkpt lat="5.351929" lon="-72.396670">
        <ele>352.10</ele>
        <time>2021-10-07T17:23:50Z</time>
      </trkpt>
      <trkpt lat="5.351925" lon="-72.396654">
        <ele>352.10</ele>
        <time>2021-10-07T17:23:53Z</time>
      </trkpt>
      <trkpt lat="5.351922" lon="-72.396645">
        <ele>352.10</ele>
        <time>2021-10-07T17:23:54Z</time>
      </trkpt>
      <trkpt lat="5.351919" lon="-72.396637">
        <ele>352.40</ele>
        <time>2021-10-07T17:23:56Z</time>
      </trkpt>
      <trkpt lat="5.351916" lon="-72.396629">
        <ele>352.40</ele>
        <time>2021-10-07T17:23:57Z</time>
      </trkpt>
      <trkpt lat="5.351900" lon="-72.396600">
        <ele>352.40</ele>
        <time>2021-10-07T17:23:58Z</time>
      </trkpt>
      <trkpt lat="5.351879" lon="-72.396560">
        <ele>354.00</ele>
        <time>2021-10-07T17:24:00Z</time>
      </trkpt>
      <trkpt lat="5.351853" lon="-72.396515">
        <ele>355.10</ele>
        <time>2021-10-07T17:24:01Z</time>
      </trkpt>
      <trkpt lat="5.351828" lon="-72.396468">
        <ele>354.30</ele>
        <time>2021-10-07T17:24:02Z</time>
      </trkpt>
      <trkpt lat="5.351795" lon="-72.396412">
        <ele>354.50</ele>
        <time>2021-10-07T17:24:04Z</time>
      </trkpt>
      <trkpt lat="5.351765" lon="-72.396367">
        <ele>354.60</ele>
        <time>2021-10-07T17:24:05Z</time>
      </trkpt>
      <trkpt lat="5.351744" lon="-72.396338">
        <ele>354.30</ele>
        <time>2021-10-07T17:24:06Z</time>
      </trkpt>
      <trkpt lat="5.351735" lon="-72.396317">
        <ele>354.30</ele>
        <time>2021-10-07T17:24:07Z</time>
      </trkpt>
      <trkpt lat="5.351719" lon="-72.396278">
        <ele>354.60</ele>
        <time>2021-10-07T17:24:09Z</time>
      </trkpt>
      <trkpt lat="5.351712" lon="-72.396246">
        <ele>354.40</ele>
        <time>2021-10-07T17:24:10Z</time>
      </trkpt>
      <trkpt lat="5.351704" lon="-72.396219">
        <ele>354.40</ele>
        <time>2021-10-07T17:24:12Z</time>
      </trkpt>
      <trkpt lat="5.351700" lon="-72.396191">
        <ele>354.20</ele>
        <time>2021-10-07T17:24:13Z</time>
      </trkpt>
      <trkpt lat="5.351693" lon="-72.396162">
        <ele>354.00</ele>
        <time>2021-10-07T17:24:14Z</time>
      </trkpt>
      <trkpt lat="5.351679" lon="-72.396118">
        <ele>353.80</ele>
        <time>2021-10-07T17:24:16Z</time>
      </trkpt>
      <trkpt lat="5.351676" lon="-72.396090">
        <ele>353.80</ele>
        <time>2021-10-07T17:24:17Z</time>
      </trkpt>
      <trkpt lat="5.351676" lon="-72.396069">
        <ele>353.40</ele>
        <time>2021-10-07T17:24:18Z</time>
      </trkpt>
      <trkpt lat="5.351683" lon="-72.396036">
        <ele>353.00</ele>
        <time>2021-10-07T17:24:20Z</time>
      </trkpt>
      <trkpt lat="5.351687" lon="-72.396010">
        <ele>353.00</ele>
        <time>2021-10-07T17:24:22Z</time>
      </trkpt>
      <trkpt lat="5.351687" lon="-72.396003">
        <ele>353.00</ele>
        <time>2021-10-07T17:24:23Z</time>
      </trkpt>
      <trkpt lat="5.351688" lon="-72.395999">
        <ele>353.00</ele>
        <time>2021-10-07T17:24:25Z</time>
      </trkpt>
      <trkpt lat="5.351691" lon="-72.395999">
        <ele>353.00</ele>
        <time>2021-10-07T17:24:27Z</time>
      </trkpt>
      <trkpt lat="5.351692" lon="-72.395999">
        <ele>353.00</ele>
        <time>2021-10-07T17:24:28Z</time>
      </trkpt>
      <trkpt lat="5.351694" lon="-72.395999">
        <ele>353.00</ele>
        <time>2021-10-07T17:24:30Z</time>
      </trkpt>
      <trkpt lat="5.351695" lon="-72.395998">
        <ele>353.00</ele>
        <time>2021-10-07T17:24:31Z</time>
      </trkpt>
      <trkpt lat="5.351697" lon="-72.395996">
        <ele>352.60</ele>
        <time>2021-10-07T17:24:33Z</time>
      </trkpt>
      <trkpt lat="5.351697" lon="-72.395992">
        <ele>352.60</ele>
        <time>2021-10-07T17:24:34Z</time>
      </trkpt>
      <trkpt lat="5.351698" lon="-72.395986">
        <ele>352.60</ele>
        <time>2021-10-07T17:24:36Z</time>
      </trkpt>
      <trkpt lat="5.351700" lon="-72.395983">
        <ele>352.60</ele>
        <time>2021-10-07T17:24:37Z</time>
      </trkpt>
      <trkpt lat="5.351706" lon="-72.395975">
        <ele>352.60</ele>
        <time>2021-10-07T17:24:39Z</time>
      </trkpt>
      <trkpt lat="5.351710" lon="-72.395970">
        <ele>352.60</ele>
        <time>2021-10-07T17:24:40Z</time>
      </trkpt>
      <trkpt lat="5.351713" lon="-72.395967">
        <ele>352.60</ele>
        <time>2021-10-07T17:24:41Z</time>
      </trkpt>
      <trkpt lat="5.351718" lon="-72.395963">
        <ele>352.60</ele>
        <time>2021-10-07T17:24:42Z</time>
      </trkpt>
      <trkpt lat="5.351721" lon="-72.395960">
        <ele>352.60</ele>
        <time>2021-10-07T17:24:44Z</time>
      </trkpt>
      <trkpt lat="5.351724" lon="-72.395958">
        <ele>352.60</ele>
        <time>2021-10-07T17:24:45Z</time>
      </trkpt>
      <trkpt lat="5.351728" lon="-72.395956">
        <ele>352.40</ele>
        <time>2021-10-07T17:24:47Z</time>
      </trkpt>
      <trkpt lat="5.351729" lon="-72.395955">
        <ele>352.40</ele>
        <time>2021-10-07T17:24:48Z</time>
      </trkpt>
      <trkpt lat="5.351729" lon="-72.395958">
        <ele>352.40</ele>
        <time>2021-10-07T17:24:49Z</time>
      </trkpt>
      <trkpt lat="5.351731" lon="-72.395968">
        <ele>352.40</ele>
        <time>2021-10-07T17:24:51Z</time>
      </trkpt>
      <trkpt lat="5.351736" lon="-72.395981">
        <ele>352.40</ele>
        <time>2021-10-07T17:24:52Z</time>
      </trkpt>
      <trkpt lat="5.351737" lon="-72.395987">
        <ele>352.40</ele>
        <time>2021-10-07T17:24:53Z</time>
      </trkpt>
      <trkpt lat="5.351741" lon="-72.395993">
        <ele>352.40</ele>
        <time>2021-10-07T17:24:54Z</time>
      </trkpt>
      <trkpt lat="5.351745" lon="-72.395996">
        <ele>352.40</ele>
        <time>2021-10-07T17:24:56Z</time>
      </trkpt>
      <trkpt lat="5.351748" lon="-72.396000">
        <ele>352.70</ele>
        <time>2021-10-07T17:24:58Z</time>
      </trkpt>
      <trkpt lat="5.351752" lon="-72.396003">
        <ele>352.70</ele>
        <time>2021-10-07T17:25:00Z</time>
      </trkpt>
      <trkpt lat="5.351756" lon="-72.396007">
        <ele>352.70</ele>
        <time>2021-10-07T17:25:01Z</time>
      </trkpt>
      <trkpt lat="5.351760" lon="-72.396010">
        <ele>352.70</ele>
        <time>2021-10-07T17:25:02Z</time>
      </trkpt>
      <trkpt lat="5.351763" lon="-72.396014">
        <ele>352.70</ele>
        <time>2021-10-07T17:25:03Z</time>
      </trkpt>
      <trkpt lat="5.351767" lon="-72.396017">
        <ele>352.70</ele>
        <time>2021-10-07T17:25:05Z</time>
      </trkpt>
      <trkpt lat="5.351771" lon="-72.396021">
        <ele>352.20</ele>
        <time>2021-10-07T17:25:06Z</time>
      </trkpt>
      <trkpt lat="5.351802" lon="-72.396038">
        <ele>352.20</ele>
        <time>2021-10-07T17:25:07Z</time>
      </trkpt>
      <trkpt lat="5.351812" lon="-72.396045">
        <ele>352.40</ele>
        <time>2021-10-07T17:25:08Z</time>
      </trkpt>
      <trkpt lat="5.351841" lon="-72.396070">
        <ele>351.60</ele>
        <time>2021-10-07T17:25:09Z</time>
      </trkpt>
      <trkpt lat="5.351850" lon="-72.396079">
        <ele>351.60</ele>
        <time>2021-10-07T17:25:10Z</time>
      </trkpt>
      <trkpt lat="5.351875" lon="-72.396104">
        <ele>350.90</ele>
        <time>2021-10-07T17:25:12Z</time>
      </trkpt>
      <trkpt lat="5.351880" lon="-72.396138">
        <ele>351.10</ele>
        <time>2021-10-07T17:25:13Z</time>
      </trkpt>
      <trkpt lat="5.351890" lon="-72.396185">
        <ele>351.40</ele>
        <time>2021-10-07T17:25:14Z</time>
      </trkpt>
      <trkpt lat="5.351899" lon="-72.396212">
        <ele>350.90</ele>
        <time>2021-10-07T17:25:15Z</time>
      </trkpt>
      <trkpt lat="5.351912" lon="-72.396246">
        <ele>350.90</ele>
        <time>2021-10-07T17:25:16Z</time>
      </trkpt>
      <trkpt lat="5.351926" lon="-72.396277">
        <ele>351.10</ele>
        <time>2021-10-07T17:25:17Z</time>
      </trkpt>
      <trkpt lat="5.351947" lon="-72.396325">
        <ele>350.40</ele>
        <time>2021-10-07T17:25:19Z</time>
      </trkpt>
      <trkpt lat="5.351959" lon="-72.396363">
        <ele>350.50</ele>
        <time>2021-10-07T17:25:21Z</time>
      </trkpt>
      <trkpt lat="5.351970" lon="-72.396393">
        <ele>350.60</ele>
        <time>2021-10-07T17:25:23Z</time>
      </trkpt>
      <trkpt lat="5.351985" lon="-72.396444">
        <ele>349.30</ele>
        <time>2021-10-07T17:25:25Z</time>
      </trkpt>
      <trkpt lat="5.351993" lon="-72.396472">
        <ele>349.30</ele>
        <time>2021-10-07T17:25:26Z</time>
      </trkpt>
      <trkpt lat="5.352004" lon="-72.396511">
        <ele>349.30</ele>
        <time>2021-10-07T17:25:28Z</time>
      </trkpt>
      <trkpt lat="5.352010" lon="-72.396545">
        <ele>349.20</ele>
        <time>2021-10-07T17:25:29Z</time>
      </trkpt>
      <trkpt lat="5.352012" lon="-72.396555">
        <ele>349.10</ele>
        <time>2021-10-07T17:25:30Z</time>
      </trkpt>
      <trkpt lat="5.352014" lon="-72.396572">
        <ele>349.10</ele>
        <time>2021-10-07T17:25:31Z</time>
      </trkpt>
      <trkpt lat="5.352010" lon="-72.396595">
        <ele>349.10</ele>
        <time>2021-10-07T17:25:33Z</time>
      </trkpt>
      <trkpt lat="5.351998" lon="-72.396609">
        <ele>349.00</ele>
        <time>2021-10-07T17:25:35Z</time>
      </trkpt>
      <trkpt lat="5.351994" lon="-72.396614">
        <ele>349.00</ele>
        <time>2021-10-07T17:25:36Z</time>
      </trkpt>
      <trkpt lat="5.351993" lon="-72.396620">
        <ele>349.00</ele>
        <time>2021-10-07T17:25:38Z</time>
      </trkpt>
      <trkpt lat="5.351993" lon="-72.396623">
        <ele>349.00</ele>
        <time>2021-10-07T17:25:39Z</time>
      </trkpt>
      <trkpt lat="5.351994" lon="-72.396631">
        <ele>349.00</ele>
        <time>2021-10-07T17:25:41Z</time>
      </trkpt>
      <trkpt lat="5.351995" lon="-72.396635">
        <ele>349.00</ele>
        <time>2021-10-07T17:25:42Z</time>
      </trkpt>
      <trkpt lat="5.352003" lon="-72.396644">
        <ele>348.90</ele>
        <time>2021-10-07T17:25:44Z</time>
      </trkpt>
      <trkpt lat="5.352022" lon="-72.396666">
        <ele>348.90</ele>
        <time>2021-10-07T17:25:46Z</time>
      </trkpt>
      <trkpt lat="5.352031" lon="-72.396679">
        <ele>347.10</ele>
        <time>2021-10-07T17:25:47Z</time>
      </trkpt>
      <trkpt lat="5.352042" lon="-72.396708">
        <ele>347.10</ele>
        <time>2021-10-07T17:25:49Z</time>
      </trkpt>
      <trkpt lat="5.352053" lon="-72.396743">
        <ele>347.10</ele>
        <time>2021-10-07T17:25:51Z</time>
      </trkpt>
      <trkpt lat="5.352076" lon="-72.396775">
        <ele>345.90</ele>
        <time>2021-10-07T17:25:53Z</time>
      </trkpt>
      <trkpt lat="5.352113" lon="-72.396820">
        <ele>345.00</ele>
        <time>2021-10-07T17:25:55Z</time>
      </trkpt>
      <trkpt lat="5.352126" lon="-72.396831">
        <ele>345.00</ele>
        <time>2021-10-07T17:25:56Z</time>
      </trkpt>
      <trkpt lat="5.352158" lon="-72.396855">
        <ele>343.90</ele>
        <time>2021-10-07T17:25:58Z</time>
      </trkpt>
      <trkpt lat="5.352177" lon="-72.396872">
        <ele>344.30</ele>
        <time>2021-10-07T17:25:59Z</time>
      </trkpt>
      <trkpt lat="5.352213" lon="-72.396907">
        <ele>343.80</ele>
        <time>2021-10-07T17:26:01Z</time>
      </trkpt>
      <trkpt lat="5.352259" lon="-72.396947">
        <ele>343.50</ele>
        <time>2021-10-07T17:26:03Z</time>
      </trkpt>
      <trkpt lat="5.352292" lon="-72.396981">
        <ele>342.80</ele>
        <time>2021-10-07T17:26:04Z</time>
      </trkpt>
      <trkpt lat="5.352329" lon="-72.397032">
        <ele>343.80</ele>
        <time>2021-10-07T17:26:06Z</time>
      </trkpt>
      <trkpt lat="5.352356" lon="-72.397087">
        <ele>344.40</ele>
        <time>2021-10-07T17:26:08Z</time>
      </trkpt>
      <trkpt lat="5.352363" lon="-72.397117">
        <ele>345.10</ele>
        <time>2021-10-07T17:26:09Z</time>
      </trkpt>
      <trkpt lat="5.352365" lon="-72.397145">
        <ele>345.10</ele>
        <time>2021-10-07T17:26:10Z</time>
      </trkpt>
      <trkpt lat="5.352371" lon="-72.397221">
        <ele>345.90</ele>
        <time>2021-10-07T17:26:12Z</time>
      </trkpt>
      <trkpt lat="5.352374" lon="-72.397313">
        <ele>346.40</ele>
        <time>2021-10-07T17:26:14Z</time>
      </trkpt>
      <trkpt lat="5.352375" lon="-72.397363">
        <ele>346.70</ele>
        <time>2021-10-07T17:26:15Z</time>
      </trkpt>
      <trkpt lat="5.352376" lon="-72.397460">
        <ele>347.50</ele>
        <time>2021-10-07T17:26:17Z</time>
      </trkpt>
      <trkpt lat="5.352403" lon="-72.397561">
        <ele>348.10</ele>
        <time>2021-10-07T17:26:19Z</time>
      </trkpt>
      <trkpt lat="5.352421" lon="-72.397614">
        <ele>348.00</ele>
        <time>2021-10-07T17:26:20Z</time>
      </trkpt>
      <trkpt lat="5.352438" lon="-72.397651">
        <ele>348.00</ele>
        <time>2021-10-07T17:26:21Z</time>
      </trkpt>
      <trkpt lat="5.352458" lon="-72.397693">
        <ele>347.70</ele>
        <time>2021-10-07T17:26:22Z</time>
      </trkpt>
      <trkpt lat="5.352506" lon="-72.397788">
        <ele>347.50</ele>
        <time>2021-10-07T17:26:24Z</time>
      </trkpt>
      <trkpt lat="5.352540" lon="-72.397892">
        <ele>348.00</ele>
        <time>2021-10-07T17:26:26Z</time>
      </trkpt>
      <trkpt lat="5.352553" lon="-72.397962">
        <ele>348.10</ele>
        <time>2021-10-07T17:26:27Z</time>
      </trkpt>
      <trkpt lat="5.352559" lon="-72.398037">
        <ele>348.20</ele>
        <time>2021-10-07T17:26:28Z</time>
      </trkpt>
      <trkpt lat="5.352558" lon="-72.398164">
        <ele>348.00</ele>
        <time>2021-10-07T17:26:30Z</time>
      </trkpt>
      <trkpt lat="5.352545" lon="-72.398269">
        <ele>348.00</ele>
        <time>2021-10-07T17:26:32Z</time>
      </trkpt>
      <trkpt lat="5.352552" lon="-72.398340">
        <ele>347.90</ele>
        <time>2021-10-07T17:26:34Z</time>
      </trkpt>
      <trkpt lat="5.352567" lon="-72.398391">
        <ele>347.90</ele>
        <time>2021-10-07T17:26:35Z</time>
      </trkpt>
      <trkpt lat="5.352584" lon="-72.398431">
        <ele>348.00</ele>
        <time>2021-10-07T17:26:36Z</time>
      </trkpt>
      <trkpt lat="5.352619" lon="-72.398512">
        <ele>348.00</ele>
        <time>2021-10-07T17:26:38Z</time>
      </trkpt>
      <trkpt lat="5.352629" lon="-72.398592">
        <ele>347.70</ele>
        <time>2021-10-07T17:26:40Z</time>
      </trkpt>
      <trkpt lat="5.352626" lon="-72.398639">
        <ele>347.60</ele>
        <time>2021-10-07T17:26:41Z</time>
      </trkpt>
      <trkpt lat="5.352625" lon="-72.398692">
        <ele>347.60</ele>
        <time>2021-10-07T17:26:42Z</time>
      </trkpt>
      <trkpt lat="5.352633" lon="-72.398805">
        <ele>347.80</ele>
        <time>2021-10-07T17:26:44Z</time>
      </trkpt>
      <trkpt lat="5.352654" lon="-72.398905">
        <ele>348.30</ele>
        <time>2021-10-07T17:26:46Z</time>
      </trkpt>
      <trkpt lat="5.352659" lon="-72.398947">
        <ele>348.50</ele>
        <time>2021-10-07T17:26:47Z</time>
      </trkpt>
      <trkpt lat="5.352669" lon="-72.399033">
        <ele>348.90</ele>
        <time>2021-10-07T17:26:49Z</time>
      </trkpt>
      <trkpt lat="5.352698" lon="-72.399101">
        <ele>349.60</ele>
        <time>2021-10-07T17:26:51Z</time>
      </trkpt>
      <trkpt lat="5.352737" lon="-72.399162">
        <ele>350.10</ele>
        <time>2021-10-07T17:26:53Z</time>
      </trkpt>
      <trkpt lat="5.352770" lon="-72.399216">
        <ele>350.70</ele>
        <time>2021-10-07T17:26:55Z</time>
      </trkpt>
      <trkpt lat="5.352784" lon="-72.399248">
        <ele>350.70</ele>
        <time>2021-10-07T17:26:56Z</time>
      </trkpt>
      <trkpt lat="5.352801" lon="-72.399332">
        <ele>350.70</ele>
        <time>2021-10-07T17:26:58Z</time>
      </trkpt>
      <trkpt lat="5.352807" lon="-72.399430">
        <ele>350.60</ele>
        <time>2021-10-07T17:27:00Z</time>
      </trkpt>
      <trkpt lat="5.352820" lon="-72.399514">
        <ele>350.70</ele>
        <time>2021-10-07T17:27:02Z</time>
      </trkpt>
      <trkpt lat="5.352844" lon="-72.399575">
        <ele>351.00</ele>
        <time>2021-10-07T17:27:04Z</time>
      </trkpt>
      <trkpt lat="5.352859" lon="-72.399607">
        <ele>351.40</ele>
        <time>2021-10-07T17:27:05Z</time>
      </trkpt>
      <trkpt lat="5.352877" lon="-72.399666">
        <ele>351.70</ele>
        <time>2021-10-07T17:27:07Z</time>
      </trkpt>
      <trkpt lat="5.352878" lon="-72.399697">
        <ele>351.80</ele>
        <time>2021-10-07T17:27:08Z</time>
      </trkpt>
      <trkpt lat="5.352863" lon="-72.399752">
        <ele>351.80</ele>
        <time>2021-10-07T17:27:10Z</time>
      </trkpt>
      <trkpt lat="5.352848" lon="-72.399801">
        <ele>351.90</ele>
        <time>2021-10-07T17:27:12Z</time>
      </trkpt>
      <trkpt lat="5.352854" lon="-72.399835">
        <ele>352.10</ele>
        <time>2021-10-07T17:27:14Z</time>
      </trkpt>
      <trkpt lat="5.352878" lon="-72.399872">
        <ele>352.40</ele>
        <time>2021-10-07T17:27:16Z</time>
      </trkpt>
      <trkpt lat="5.352894" lon="-72.399889">
        <ele>351.80</ele>
        <time>2021-10-07T17:27:17Z</time>
      </trkpt>
      <trkpt lat="5.352931" lon="-72.399946">
        <ele>352.80</ele>
        <time>2021-10-07T17:27:19Z</time>
      </trkpt>
      <trkpt lat="5.352952" lon="-72.399984">
        <ele>352.80</ele>
        <time>2021-10-07T17:27:20Z</time>
      </trkpt>
      <trkpt lat="5.352994" lon="-72.400077">
        <ele>354.20</ele>
        <time>2021-10-07T17:27:22Z</time>
      </trkpt>
      <trkpt lat="5.353007" lon="-72.400117">
        <ele>354.60</ele>
        <time>2021-10-07T17:27:23Z</time>
      </trkpt>
      <trkpt lat="5.353033" lon="-72.400200">
        <ele>354.70</ele>
        <time>2021-10-07T17:27:25Z</time>
      </trkpt>
      <trkpt lat="5.353043" lon="-72.400237">
        <ele>355.00</ele>
        <time>2021-10-07T17:27:26Z</time>
      </trkpt>
      <trkpt lat="5.353058" lon="-72.400290">
        <ele>355.20</ele>
        <time>2021-10-07T17:27:28Z</time>
      </trkpt>
      <trkpt lat="5.353080" lon="-72.400327">
        <ele>355.20</ele>
        <time>2021-10-07T17:27:30Z</time>
      </trkpt>
      <trkpt lat="5.353101" lon="-72.400355">
        <ele>354.90</ele>
        <time>2021-10-07T17:27:32Z</time>
      </trkpt>
      <trkpt lat="5.353124" lon="-72.400392">
        <ele>354.70</ele>
        <time>2021-10-07T17:27:34Z</time>
      </trkpt>
      <trkpt lat="5.353171" lon="-72.400442">
        <ele>354.20</ele>
        <time>2021-10-07T17:27:36Z</time>
      </trkpt>
      <trkpt lat="5.353232" lon="-72.400525">
        <ele>353.90</ele>
        <time>2021-10-07T17:27:38Z</time>
      </trkpt>
      <trkpt lat="5.353304" lon="-72.400629">
        <ele>354.10</ele>
        <time>2021-10-07T17:27:40Z</time>
      </trkpt>
      <trkpt lat="5.353397" lon="-72.400752">
        <ele>354.10</ele>
        <time>2021-10-07T17:27:42Z</time>
      </trkpt>
      <trkpt lat="5.353476" lon="-72.400861">
        <ele>354.10</ele>
        <time>2021-10-07T17:27:44Z</time>
      </trkpt>
      <trkpt lat="5.353506" lon="-72.400925">
        <ele>354.10</ele>
        <time>2021-10-07T17:27:45Z</time>
      </trkpt>
      <trkpt lat="5.353537" lon="-72.400988">
        <ele>353.60</ele>
        <time>2021-10-07T17:27:46Z</time>
      </trkpt>
      <trkpt lat="5.353566" lon="-72.401049">
        <ele>353.10</ele>
        <time>2021-10-07T17:27:47Z</time>
      </trkpt>
      <trkpt lat="5.353640" lon="-72.401137">
        <ele>352.60</ele>
        <time>2021-10-07T17:27:49Z</time>
      </trkpt>
      <trkpt lat="5.353669" lon="-72.401166">
        <ele>352.40</ele>
        <time>2021-10-07T17:27:50Z</time>
      </trkpt>
      <trkpt lat="5.353732" lon="-72.401241">
        <ele>352.20</ele>
        <time>2021-10-07T17:27:52Z</time>
      </trkpt>
      <trkpt lat="5.353775" lon="-72.401276">
        <ele>351.90</ele>
        <time>2021-10-07T17:27:54Z</time>
      </trkpt>
      <trkpt lat="5.353802" lon="-72.401284">
        <ele>351.80</ele>
        <time>2021-10-07T17:27:55Z</time>
      </trkpt>
      <trkpt lat="5.353854" lon="-72.401295">
        <ele>351.80</ele>
        <time>2021-10-07T17:27:57Z</time>
      </trkpt>
      <trkpt lat="5.353887" lon="-72.401300">
        <ele>351.80</ele>
        <time>2021-10-07T17:27:58Z</time>
      </trkpt>
      <trkpt lat="5.353910" lon="-72.401307">
        <ele>351.80</ele>
        <time>2021-10-07T17:27:59Z</time>
      </trkpt>
      <trkpt lat="5.353934" lon="-72.401324">
        <ele>352.00</ele>
        <time>2021-10-07T17:28:01Z</time>
      </trkpt>
      <trkpt lat="5.353955" lon="-72.401334">
        <ele>351.80</ele>
        <time>2021-10-07T17:28:02Z</time>
      </trkpt>
      <trkpt lat="5.353988" lon="-72.401359">
        <ele>351.80</ele>
        <time>2021-10-07T17:28:04Z</time>
      </trkpt>
      <trkpt lat="5.353994" lon="-72.401374">
        <ele>351.60</ele>
        <time>2021-10-07T17:28:05Z</time>
      </trkpt>
      <trkpt lat="5.354001" lon="-72.401390">
        <ele>351.60</ele>
        <time>2021-10-07T17:28:06Z</time>
      </trkpt>
      <trkpt lat="5.354008" lon="-72.401406">
        <ele>351.50</ele>
        <time>2021-10-07T17:28:07Z</time>
      </trkpt>
      <trkpt lat="5.354017" lon="-72.401420">
        <ele>351.50</ele>
        <time>2021-10-07T17:28:09Z</time>
      </trkpt>
      <trkpt lat="5.354020" lon="-72.401422">
        <ele>351.50</ele>
        <time>2021-10-07T17:28:10Z</time>
      </trkpt>
      <trkpt lat="5.354021" lon="-72.401422">
        <ele>351.50</ele>
        <time>2021-10-07T17:28:11Z</time>
      </trkpt>
      <trkpt lat="5.354028" lon="-72.401426">
        <ele>351.50</ele>
        <time>2021-10-07T17:28:13Z</time>
      </trkpt>
      <trkpt lat="5.354051" lon="-72.401447">
        <ele>351.20</ele>
        <time>2021-10-07T17:28:15Z</time>
      </trkpt>
      <trkpt lat="5.354065" lon="-72.401460">
        <ele>351.10</ele>
        <time>2021-10-07T17:28:17Z</time>
      </trkpt>
      <trkpt lat="5.354071" lon="-72.401456">
        <ele>351.10</ele>
        <time>2021-10-07T17:28:18Z</time>
      </trkpt>
      <trkpt lat="5.354078" lon="-72.401452">
        <ele>351.00</ele>
        <time>2021-10-07T17:28:20Z</time>
      </trkpt>
      <trkpt lat="5.354081" lon="-72.401456">
        <ele>351.00</ele>
        <time>2021-10-07T17:28:21Z</time>
      </trkpt>
      <trkpt lat="5.354083" lon="-72.401462">
        <ele>351.00</ele>
        <time>2021-10-07T17:28:22Z</time>
      </trkpt>
      <trkpt lat="5.354083" lon="-72.401463">
        <ele>351.00</ele>
        <time>2021-10-07T17:28:23Z</time>
      </trkpt>
      <trkpt lat="5.354083" lon="-72.401464">
        <ele>351.00</ele>
        <time>2021-10-07T17:28:24Z</time>
      </trkpt>
      <trkpt lat="5.354083" lon="-72.401465">
        <ele>351.00</ele>
        <time>2021-10-07T17:28:26Z</time>
      </trkpt>
      <trkpt lat="5.354082" lon="-72.401465">
        <ele>351.00</ele>
        <time>2021-10-07T17:28:28Z</time>
      </trkpt>
      <trkpt lat="5.354082" lon="-72.401465">
        <ele>351.00</ele>
        <time>2021-10-07T17:28:29Z</time>
      </trkpt>
      <trkpt lat="5.354082" lon="-72.401465">
        <ele>351.00</ele>
        <time>2021-10-07T17:28:31Z</time>
      </trkpt>
      <trkpt lat="5.354102" lon="-72.401474">
        <ele>351.00</ele>
        <time>2021-10-07T17:28:49Z</time>
      </trkpt>
      <trkpt lat="5.354101" lon="-72.401474">
        <ele>351.00</ele>
        <time>2021-10-07T17:28:51Z</time>
      </trkpt>
      <trkpt lat="5.354116" lon="-72.401480">
        <ele>351.00</ele>
        <time>2021-10-07T17:28:53Z</time>
      </trkpt>
      <trkpt lat="5.354139" lon="-72.401495">
        <ele>351.00</ele>
        <time>2021-10-07T17:28:55Z</time>
      </trkpt>
      <trkpt lat="5.354148" lon="-72.401507">
        <ele>351.00</ele>
        <time>2021-10-07T17:28:56Z</time>
      </trkpt>
      <trkpt lat="5.354159" lon="-72.401520">
        <ele>351.00</ele>
        <time>2021-10-07T17:28:57Z</time>
      </trkpt>
      <trkpt lat="5.354164" lon="-72.401528">
        <ele>351.20</ele>
        <time>2021-10-07T17:28:58Z</time>
      </trkpt>
      <trkpt lat="5.354168" lon="-72.401544">
        <ele>351.40</ele>
        <time>2021-10-07T17:28:59Z</time>
      </trkpt>
      <trkpt lat="5.354167" lon="-72.401583">
        <ele>351.60</ele>
        <time>2021-10-07T17:29:01Z</time>
      </trkpt>
      <trkpt lat="5.354164" lon="-72.401603">
        <ele>351.60</ele>
        <time>2021-10-07T17:29:02Z</time>
      </trkpt>
      <trkpt lat="5.354155" lon="-72.401634">
        <ele>351.60</ele>
        <time>2021-10-07T17:29:04Z</time>
      </trkpt>
      <trkpt lat="5.354148" lon="-72.401651">
        <ele>351.60</ele>
        <time>2021-10-07T17:29:05Z</time>
      </trkpt>
      <trkpt lat="5.354138" lon="-72.401676">
        <ele>352.00</ele>
        <time>2021-10-07T17:29:07Z</time>
      </trkpt>
      <trkpt lat="5.354135" lon="-72.401709">
        <ele>352.30</ele>
        <time>2021-10-07T17:29:09Z</time>
      </trkpt>
      <trkpt lat="5.354128" lon="-72.401755">
        <ele>352.70</ele>
        <time>2021-10-07T17:29:11Z</time>
      </trkpt>
      <trkpt lat="5.354125" lon="-72.401780">
        <ele>352.70</ele>
        <time>2021-10-07T17:29:12Z</time>
      </trkpt>
      <trkpt lat="5.354121" lon="-72.401842">
        <ele>353.10</ele>
        <time>2021-10-07T17:29:14Z</time>
      </trkpt>
      <trkpt lat="5.354120" lon="-72.401879">
        <ele>353.10</ele>
        <time>2021-10-07T17:29:15Z</time>
      </trkpt>
      <trkpt lat="5.354121" lon="-72.401949">
        <ele>353.00</ele>
        <time>2021-10-07T17:29:17Z</time>
      </trkpt>
      <trkpt lat="5.354139" lon="-72.402025">
        <ele>352.30</ele>
        <time>2021-10-07T17:29:19Z</time>
      </trkpt>
      <trkpt lat="5.354153" lon="-72.402068">
        <ele>351.90</ele>
        <time>2021-10-07T17:29:20Z</time>
      </trkpt>
      <trkpt lat="5.354171" lon="-72.402125">
        <ele>351.70</ele>
        <time>2021-10-07T17:29:21Z</time>
      </trkpt>
      <trkpt lat="5.354215" lon="-72.402239">
        <ele>350.80</ele>
        <time>2021-10-07T17:29:23Z</time>
      </trkpt>
      <trkpt lat="5.354231" lon="-72.402295">
        <ele>350.70</ele>
        <time>2021-10-07T17:29:24Z</time>
      </trkpt>
      <trkpt lat="5.354255" lon="-72.402411">
        <ele>351.10</ele>
        <time>2021-10-07T17:29:26Z</time>
      </trkpt>
      <trkpt lat="5.354275" lon="-72.402531">
        <ele>351.90</ele>
        <time>2021-10-07T17:29:28Z</time>
      </trkpt>
      <trkpt lat="5.354281" lon="-72.402589">
        <ele>352.40</ele>
        <time>2021-10-07T17:29:29Z</time>
      </trkpt>
      <trkpt lat="5.354284" lon="-72.402707">
        <ele>353.90</ele>
        <time>2021-10-07T17:29:31Z</time>
      </trkpt>
      <trkpt lat="5.354292" lon="-72.402824">
        <ele>354.50</ele>
        <time>2021-10-07T17:29:33Z</time>
      </trkpt>
      <trkpt lat="5.354321" lon="-72.402902">
        <ele>354.60</ele>
        <time>2021-10-07T17:29:35Z</time>
      </trkpt>
      <trkpt lat="5.354332" lon="-72.402922">
        <ele>354.70</ele>
        <time>2021-10-07T17:29:36Z</time>
      </trkpt>
      <trkpt lat="5.354354" lon="-72.402967">
        <ele>354.30</ele>
        <time>2021-10-07T17:29:38Z</time>
      </trkpt>
      <trkpt lat="5.354367" lon="-72.402995">
        <ele>354.30</ele>
        <time>2021-10-07T17:29:39Z</time>
      </trkpt>
      <trkpt lat="5.354405" lon="-72.403072">
        <ele>353.80</ele>
        <time>2021-10-07T17:29:41Z</time>
      </trkpt>
      <trkpt lat="5.354421" lon="-72.403119">
        <ele>353.10</ele>
        <time>2021-10-07T17:29:43Z</time>
      </trkpt>
      <trkpt lat="5.354441" lon="-72.403214">
        <ele>352.20</ele>
        <time>2021-10-07T17:29:45Z</time>
      </trkpt>
      <trkpt lat="5.354450" lon="-72.403348">
        <ele>351.80</ele>
        <time>2021-10-07T17:29:47Z</time>
      </trkpt>
      <trkpt lat="5.354457" lon="-72.403511">
        <ele>353.20</ele>
        <time>2021-10-07T17:29:49Z</time>
      </trkpt>
      <trkpt lat="5.354458" lon="-72.403583">
        <ele>353.70</ele>
        <time>2021-10-07T17:29:50Z</time>
      </trkpt>
      <trkpt lat="5.354451" lon="-72.403650">
        <ele>354.50</ele>
        <time>2021-10-07T17:29:51Z</time>
      </trkpt>
      <trkpt lat="5.354438" lon="-72.403706">
        <ele>354.80</ele>
        <time>2021-10-07T17:29:52Z</time>
      </trkpt>
      <trkpt lat="5.354414" lon="-72.403767">
        <ele>354.90</ele>
        <time>2021-10-07T17:29:54Z</time>
      </trkpt>
      <trkpt lat="5.354400" lon="-72.403802">
        <ele>354.90</ele>
        <time>2021-10-07T17:29:55Z</time>
      </trkpt>
      <trkpt lat="5.354365" lon="-72.403824">
        <ele>355.00</ele>
        <time>2021-10-07T17:29:57Z</time>
      </trkpt>
      <trkpt lat="5.354375" lon="-72.403891">
        <ele>355.10</ele>
        <time>2021-10-07T17:30:00Z</time>
      </trkpt>
      <trkpt lat="5.354375" lon="-72.403893">
        <ele>355.10</ele>
        <time>2021-10-07T17:30:01Z</time>
      </trkpt>
      <trkpt lat="5.354371" lon="-72.403893">
        <ele>355.10</ele>
        <time>2021-10-07T17:30:03Z</time>
      </trkpt>
      <trkpt lat="5.354357" lon="-72.403891">
        <ele>355.10</ele>
        <time>2021-10-07T17:30:04Z</time>
      </trkpt>
      <trkpt lat="5.354331" lon="-72.403861">
        <ele>355.40</ele>
        <time>2021-10-07T17:30:05Z</time>
      </trkpt>
      <trkpt lat="5.354270" lon="-72.403802">
        <ele>355.30</ele>
        <time>2021-10-07T17:30:07Z</time>
      </trkpt>
      <trkpt lat="5.354225" lon="-72.403767">
        <ele>355.70</ele>
        <time>2021-10-07T17:30:08Z</time>
      </trkpt>
      <trkpt lat="5.354184" lon="-72.403729">
        <ele>355.70</ele>
        <time>2021-10-07T17:30:09Z</time>
      </trkpt>
      <trkpt lat="5.354139" lon="-72.403679">
        <ele>356.00</ele>
        <time>2021-10-07T17:30:10Z</time>
      </trkpt>
      <trkpt lat="5.354103" lon="-72.403646">
        <ele>356.60</ele>
        <time>2021-10-07T17:30:12Z</time>
      </trkpt>
      <trkpt lat="5.354073" lon="-72.403623">
        <ele>357.60</ele>
        <time>2021-10-07T17:30:13Z</time>
      </trkpt>
      <trkpt lat="5.354036" lon="-72.403589">
        <ele>357.60</ele>
        <time>2021-10-07T17:30:14Z</time>
      </trkpt>
      <trkpt lat="5.354007" lon="-72.403558">
        <ele>358.90</ele>
        <time>2021-10-07T17:30:16Z</time>
      </trkpt>
      <trkpt lat="5.353986" lon="-72.403528">
        <ele>360.00</ele>
        <time>2021-10-07T17:30:17Z</time>
      </trkpt>
      <trkpt lat="5.353968" lon="-72.403493">
        <ele>359.70</ele>
        <time>2021-10-07T17:30:18Z</time>
      </trkpt>
      <trkpt lat="5.353944" lon="-72.403451">
        <ele>360.40</ele>
        <time>2021-10-07T17:30:19Z</time>
      </trkpt>
      <trkpt lat="5.353918" lon="-72.403414">
        <ele>360.10</ele>
        <time>2021-10-07T17:30:21Z</time>
      </trkpt>
      <trkpt lat="5.353899" lon="-72.403383">
        <ele>361.00</ele>
        <time>2021-10-07T17:30:22Z</time>
      </trkpt>
      <trkpt lat="5.353894" lon="-72.403375">
        <ele>360.80</ele>
        <time>2021-10-07T17:30:23Z</time>
      </trkpt>
      <trkpt lat="5.353875" lon="-72.403350">
        <ele>360.80</ele>
        <time>2021-10-07T17:30:24Z</time>
      </trkpt>
      <trkpt lat="5.353859" lon="-72.403330">
        <ele>361.40</ele>
        <time>2021-10-07T17:30:25Z</time>
      </trkpt>
      <trkpt lat="5.353831" lon="-72.403290">
        <ele>361.10</ele>
        <time>2021-10-07T17:30:27Z</time>
      </trkpt>
      <trkpt lat="5.353795" lon="-72.403236">
        <ele>361.30</ele>
        <time>2021-10-07T17:30:29Z</time>
      </trkpt>
      <trkpt lat="5.353776" lon="-72.403197">
        <ele>361.10</ele>
        <time>2021-10-07T17:30:30Z</time>
      </trkpt>
      <trkpt lat="5.353764" lon="-72.403158">
        <ele>360.30</ele>
        <time>2021-10-07T17:30:31Z</time>
      </trkpt>
      <trkpt lat="5.353755" lon="-72.403064">
        <ele>358.90</ele>
        <time>2021-10-07T17:30:33Z</time>
      </trkpt>
      <trkpt lat="5.353725" lon="-72.402953">
        <ele>359.00</ele>
        <time>2021-10-07T17:30:35Z</time>
      </trkpt>
      <trkpt lat="5.353707" lon="-72.402897">
        <ele>358.90</ele>
        <time>2021-10-07T17:30:36Z</time>
      </trkpt>
      <trkpt lat="5.353665" lon="-72.402789">
        <ele>359.40</ele>
        <time>2021-10-07T17:30:38Z</time>
      </trkpt>
      <trkpt lat="5.353639" lon="-72.402734">
        <ele>359.30</ele>
        <time>2021-10-07T17:30:39Z</time>
      </trkpt>
      <trkpt lat="5.353598" lon="-72.402627">
        <ele>358.40</ele>
        <time>2021-10-07T17:30:41Z</time>
      </trkpt>
      <trkpt lat="5.353577" lon="-72.402560">
        <ele>356.80</ele>
        <time>2021-10-07T17:30:42Z</time>
      </trkpt>
      <trkpt lat="5.353564" lon="-72.402515">
        <ele>356.50</ele>
        <time>2021-10-07T17:30:44Z</time>
      </trkpt>
      <trkpt lat="5.353546" lon="-72.402468">
        <ele>355.90</ele>
        <time>2021-10-07T17:30:45Z</time>
      </trkpt>
      <trkpt lat="5.353536" lon="-72.402440">
        <ele>355.90</ele>
        <time>2021-10-07T17:30:46Z</time>
      </trkpt>
      <trkpt lat="5.353529" lon="-72.402418">
        <ele>355.50</ele>
        <time>2021-10-07T17:30:47Z</time>
      </trkpt>
      <trkpt lat="5.353531" lon="-72.402416">
        <ele>355.50</ele>
        <time>2021-10-07T17:30:48Z</time>
      </trkpt>
      <trkpt lat="5.353531" lon="-72.402403">
        <ele>355.50</ele>
        <time>2021-10-07T17:30:50Z</time>
      </trkpt>
      <trkpt lat="5.353532" lon="-72.402385">
        <ele>355.20</ele>
        <time>2021-10-07T17:30:51Z</time>
      </trkpt>
      <trkpt lat="5.353534" lon="-72.402368">
        <ele>355.20</ele>
        <time>2021-10-07T17:30:52Z</time>
      </trkpt>
      <trkpt lat="5.353529" lon="-72.402339">
        <ele>354.90</ele>
        <time>2021-10-07T17:30:54Z</time>
      </trkpt>
      <trkpt lat="5.353511" lon="-72.402300">
        <ele>355.40</ele>
        <time>2021-10-07T17:30:56Z</time>
      </trkpt>
      <trkpt lat="5.353481" lon="-72.402259">
        <ele>355.40</ele>
        <time>2021-10-07T17:30:57Z</time>
      </trkpt>
      <trkpt lat="5.353462" lon="-72.402228">
        <ele>355.90</ele>
        <time>2021-10-07T17:30:58Z</time>
      </trkpt>
      <trkpt lat="5.353440" lon="-72.402195">
        <ele>355.90</ele>
        <time>2021-10-07T17:31:00Z</time>
      </trkpt>
      <trkpt lat="5.353426" lon="-72.402165">
        <ele>356.20</ele>
        <time>2021-10-07T17:31:01Z</time>
      </trkpt>
      <trkpt lat="5.353409" lon="-72.402132">
        <ele>356.00</ele>
        <time>2021-10-07T17:31:02Z</time>
      </trkpt>
      <trkpt lat="5.353372" lon="-72.402069">
        <ele>356.10</ele>
        <time>2021-10-07T17:31:04Z</time>
      </trkpt>
      <trkpt lat="5.353337" lon="-72.401995">
        <ele>356.10</ele>
        <time>2021-10-07T17:31:06Z</time>
      </trkpt>
      <trkpt lat="5.353313" lon="-72.401962">
        <ele>356.00</ele>
        <time>2021-10-07T17:31:07Z</time>
      </trkpt>
      <trkpt lat="5.353274" lon="-72.401902">
        <ele>356.80</ele>
        <time>2021-10-07T17:31:09Z</time>
      </trkpt>
      <trkpt lat="5.353255" lon="-72.401858">
        <ele>357.60</ele>
        <time>2021-10-07T17:31:10Z</time>
      </trkpt>
      <trkpt lat="5.353176" lon="-72.401699">
        <ele>359.00</ele>
        <time>2021-10-07T17:31:12Z</time>
      </trkpt>
      <trkpt lat="5.353140" lon="-72.401637">
        <ele>359.10</ele>
        <time>2021-10-07T17:31:13Z</time>
      </trkpt>
      <trkpt lat="5.353101" lon="-72.401582">
        <ele>359.90</ele>
        <time>2021-10-07T17:31:14Z</time>
      </trkpt>
      <trkpt lat="5.353041" lon="-72.401492">
        <ele>360.40</ele>
        <time>2021-10-07T17:31:16Z</time>
      </trkpt>
      <trkpt lat="5.353014" lon="-72.401459">
        <ele>360.10</ele>
        <time>2021-10-07T17:31:17Z</time>
      </trkpt>
      <trkpt lat="5.352978" lon="-72.401408">
        <ele>359.70</ele>
        <time>2021-10-07T17:31:19Z</time>
      </trkpt>
      <trkpt lat="5.352935" lon="-72.401343">
        <ele>358.80</ele>
        <time>2021-10-07T17:31:21Z</time>
      </trkpt>
      <trkpt lat="5.352916" lon="-72.401308">
        <ele>358.50</ele>
        <time>2021-10-07T17:31:22Z</time>
      </trkpt>
      <trkpt lat="5.352885" lon="-72.401251">
        <ele>358.00</ele>
        <time>2021-10-07T17:31:24Z</time>
      </trkpt>
      <trkpt lat="5.352858" lon="-72.401209">
        <ele>357.70</ele>
        <time>2021-10-07T17:31:25Z</time>
      </trkpt>
      <trkpt lat="5.352828" lon="-72.401157">
        <ele>357.60</ele>
        <time>2021-10-07T17:31:27Z</time>
      </trkpt>
      <trkpt lat="5.352814" lon="-72.401120">
        <ele>357.20</ele>
        <time>2021-10-07T17:31:28Z</time>
      </trkpt>
      <trkpt lat="5.352810" lon="-72.401088">
        <ele>356.90</ele>
        <time>2021-10-07T17:31:29Z</time>
      </trkpt>
      <trkpt lat="5.352812" lon="-72.401046">
        <ele>356.60</ele>
        <time>2021-10-07T17:31:31Z</time>
      </trkpt>
      <trkpt lat="5.352819" lon="-72.401025">
        <ele>356.60</ele>
        <time>2021-10-07T17:31:32Z</time>
      </trkpt>
      <trkpt lat="5.352827" lon="-72.401006">
        <ele>356.20</ele>
        <time>2021-10-07T17:31:34Z</time>
      </trkpt>
      <trkpt lat="5.352830" lon="-72.400989">
        <ele>356.20</ele>
        <time>2021-10-07T17:31:35Z</time>
      </trkpt>
      <trkpt lat="5.352829" lon="-72.400979">
        <ele>356.20</ele>
        <time>2021-10-07T17:31:36Z</time>
      </trkpt>
      <trkpt lat="5.352829" lon="-72.400973">
        <ele>355.80</ele>
        <time>2021-10-07T17:31:37Z</time>
      </trkpt>
      <trkpt lat="5.352829" lon="-72.400968">
        <ele>355.80</ele>
        <time>2021-10-07T17:31:38Z</time>
      </trkpt>
      <trkpt lat="5.352825" lon="-72.400950">
        <ele>355.80</ele>
        <time>2021-10-07T17:31:40Z</time>
      </trkpt>
      <trkpt lat="5.352813" lon="-72.400923">
        <ele>355.40</ele>
        <time>2021-10-07T17:31:42Z</time>
      </trkpt>
      <trkpt lat="5.352799" lon="-72.400892">
        <ele>355.40</ele>
        <time>2021-10-07T17:31:43Z</time>
      </trkpt>
      <trkpt lat="5.352787" lon="-72.400866">
        <ele>355.80</ele>
        <time>2021-10-07T17:31:44Z</time>
      </trkpt>
      <trkpt lat="5.352759" lon="-72.400834">
        <ele>355.90</ele>
        <time>2021-10-07T17:31:46Z</time>
      </trkpt>
      <trkpt lat="5.352747" lon="-72.400806">
        <ele>356.60</ele>
        <time>2021-10-07T17:31:47Z</time>
      </trkpt>
      <trkpt lat="5.352730" lon="-72.400782">
        <ele>357.00</ele>
        <time>2021-10-07T17:31:48Z</time>
      </trkpt>
      <trkpt lat="5.352724" lon="-72.400775">
        <ele>357.00</ele>
        <time>2021-10-07T17:31:49Z</time>
      </trkpt>
      <trkpt lat="5.352707" lon="-72.400758">
        <ele>358.30</ele>
        <time>2021-10-07T17:31:50Z</time>
      </trkpt>
      <trkpt lat="5.352680" lon="-72.400724">
        <ele>358.30</ele>
        <time>2021-10-07T17:31:52Z</time>
      </trkpt>
      <trkpt lat="5.352661" lon="-72.400692">
        <ele>359.30</ele>
        <time>2021-10-07T17:31:53Z</time>
      </trkpt>
      <trkpt lat="5.352656" lon="-72.400683">
        <ele>359.30</ele>
        <time>2021-10-07T17:31:54Z</time>
      </trkpt>
      <trkpt lat="5.352649" lon="-72.400655">
        <ele>359.50</ele>
        <time>2021-10-07T17:31:56Z</time>
      </trkpt>
      <trkpt lat="5.352651" lon="-72.400632">
        <ele>359.50</ele>
        <time>2021-10-07T17:31:57Z</time>
      </trkpt>
      <trkpt lat="5.352654" lon="-72.400599">
        <ele>359.50</ele>
        <time>2021-10-07T17:31:59Z</time>
      </trkpt>
      <trkpt lat="5.352654" lon="-72.400582">
        <ele>359.30</ele>
        <time>2021-10-07T17:32:00Z</time>
      </trkpt>
      <trkpt lat="5.352655" lon="-72.400569">
        <ele>359.30</ele>
        <time>2021-10-07T17:32:01Z</time>
      </trkpt>
      <trkpt lat="5.352653" lon="-72.400563">
        <ele>359.30</ele>
        <time>2021-10-07T17:32:02Z</time>
      </trkpt>
      <trkpt lat="5.352653" lon="-72.400544">
        <ele>359.00</ele>
        <time>2021-10-07T17:32:04Z</time>
      </trkpt>
      <trkpt lat="5.352651" lon="-72.400505">
        <ele>359.00</ele>
        <time>2021-10-07T17:32:06Z</time>
      </trkpt>
      <trkpt lat="5.352633" lon="-72.400482">
        <ele>358.70</ele>
        <time>2021-10-07T17:32:08Z</time>
      </trkpt>
      <trkpt lat="5.352629" lon="-72.400475">
        <ele>358.70</ele>
        <time>2021-10-07T17:32:09Z</time>
      </trkpt>
      <trkpt lat="5.352618" lon="-72.400456">
        <ele>358.60</ele>
        <time>2021-10-07T17:32:10Z</time>
      </trkpt>
      <trkpt lat="5.352594" lon="-72.400411">
        <ele>358.30</ele>
        <time>2021-10-07T17:32:12Z</time>
      </trkpt>
      <trkpt lat="5.352560" lon="-72.400368">
        <ele>358.40</ele>
        <time>2021-10-07T17:32:13Z</time>
      </trkpt>
      <trkpt lat="5.352532" lon="-72.400329">
        <ele>358.50</ele>
        <time>2021-10-07T17:32:15Z</time>
      </trkpt>
      <trkpt lat="5.352510" lon="-72.400297">
        <ele>358.50</ele>
        <time>2021-10-07T17:32:16Z</time>
      </trkpt>
      <trkpt lat="5.352479" lon="-72.400252">
        <ele>358.30</ele>
        <time>2021-10-07T17:32:18Z</time>
      </trkpt>
      <trkpt lat="5.352464" lon="-72.400229">
        <ele>357.80</ele>
        <time>2021-10-07T17:32:19Z</time>
      </trkpt>
      <trkpt lat="5.352444" lon="-72.400201">
        <ele>357.30</ele>
        <time>2021-10-07T17:32:20Z</time>
      </trkpt>
      <trkpt lat="5.352417" lon="-72.400158">
        <ele>356.90</ele>
        <time>2021-10-07T17:32:21Z</time>
      </trkpt>
      <trkpt lat="5.352395" lon="-72.400125">
        <ele>357.00</ele>
        <time>2021-10-07T17:32:22Z</time>
      </trkpt>
      <trkpt lat="5.352363" lon="-72.400082">
        <ele>357.10</ele>
        <time>2021-10-07T17:32:24Z</time>
      </trkpt>
      <trkpt lat="5.352333" lon="-72.400041">
        <ele>356.90</ele>
        <time>2021-10-07T17:32:25Z</time>
      </trkpt>
      <trkpt lat="5.352290" lon="-72.399983">
        <ele>356.70</ele>
        <time>2021-10-07T17:32:27Z</time>
      </trkpt>
      <trkpt lat="5.352260" lon="-72.399937">
        <ele>356.60</ele>
        <time>2021-10-07T17:32:28Z</time>
      </trkpt>
      <trkpt lat="5.352241" lon="-72.399906">
        <ele>356.60</ele>
        <time>2021-10-07T17:32:29Z</time>
      </trkpt>
      <trkpt lat="5.352207" lon="-72.399857">
        <ele>356.30</ele>
        <time>2021-10-07T17:32:31Z</time>
      </trkpt>
      <trkpt lat="5.352194" lon="-72.399819">
        <ele>356.60</ele>
        <time>2021-10-07T17:32:32Z</time>
      </trkpt>
      <trkpt lat="5.352178" lon="-72.399785">
        <ele>356.60</ele>
        <time>2021-10-07T17:32:34Z</time>
      </trkpt>
      <trkpt lat="5.352169" lon="-72.399735">
        <ele>356.60</ele>
        <time>2021-10-07T17:32:36Z</time>
      </trkpt>
      <trkpt lat="5.352165" lon="-72.399694">
        <ele>356.60</ele>
        <time>2021-10-07T17:32:37Z</time>
      </trkpt>
      <trkpt lat="5.352156" lon="-72.399637">
        <ele>356.60</ele>
        <time>2021-10-07T17:32:38Z</time>
      </trkpt>
      <trkpt lat="5.352145" lon="-72.399586">
        <ele>356.80</ele>
        <time>2021-10-07T17:32:39Z</time>
      </trkpt>
      <trkpt lat="5.352136" lon="-72.399537">
        <ele>356.80</ele>
        <time>2021-10-07T17:32:41Z</time>
      </trkpt>
      <trkpt lat="5.352127" lon="-72.399490">
        <ele>356.70</ele>
        <time>2021-10-07T17:32:42Z</time>
      </trkpt>
      <trkpt lat="5.352116" lon="-72.399448">
        <ele>356.60</ele>
        <time>2021-10-07T17:32:43Z</time>
      </trkpt>
      <trkpt lat="5.352105" lon="-72.399413">
        <ele>356.90</ele>
        <time>2021-10-07T17:32:44Z</time>
      </trkpt>
      <trkpt lat="5.352095" lon="-72.399373">
        <ele>356.90</ele>
        <time>2021-10-07T17:32:45Z</time>
      </trkpt>
      <trkpt lat="5.352081" lon="-72.399312">
        <ele>356.90</ele>
        <time>2021-10-07T17:32:47Z</time>
      </trkpt>
      <trkpt lat="5.352070" lon="-72.399265">
        <ele>356.90</ele>
        <time>2021-10-07T17:32:48Z</time>
      </trkpt>
      <trkpt lat="5.352059" lon="-72.399220">
        <ele>357.30</ele>
        <time>2021-10-07T17:32:49Z</time>
      </trkpt>
      <trkpt lat="5.352050" lon="-72.399180">
        <ele>357.30</ele>
        <time>2021-10-07T17:32:50Z</time>
      </trkpt>
      <trkpt lat="5.352034" lon="-72.399105">
        <ele>357.10</ele>
        <time>2021-10-07T17:32:52Z</time>
      </trkpt>
      <trkpt lat="5.352025" lon="-72.399043">
        <ele>357.30</ele>
        <time>2021-10-07T17:32:54Z</time>
      </trkpt>
      <trkpt lat="5.352031" lon="-72.399002">
        <ele>356.80</ele>
        <time>2021-10-07T17:32:55Z</time>
      </trkpt>
      <trkpt lat="5.352037" lon="-72.398962">
        <ele>356.60</ele>
        <time>2021-10-07T17:32:56Z</time>
      </trkpt>
      <trkpt lat="5.352047" lon="-72.398888">
        <ele>356.10</ele>
        <time>2021-10-07T17:32:58Z</time>
      </trkpt>
      <trkpt lat="5.352052" lon="-72.398825">
        <ele>355.40</ele>
        <time>2021-10-07T17:32:59Z</time>
      </trkpt>
      <trkpt lat="5.352049" lon="-72.398766">
        <ele>355.00</ele>
        <time>2021-10-07T17:33:00Z</time>
      </trkpt>
      <trkpt lat="5.352015" lon="-72.398611">
        <ele>353.00</ele>
        <time>2021-10-07T17:33:02Z</time>
      </trkpt>
      <trkpt lat="5.352005" lon="-72.398566">
        <ele>352.60</ele>
        <time>2021-10-07T17:33:03Z</time>
      </trkpt>
      <trkpt lat="5.352021" lon="-72.398484">
        <ele>351.80</ele>
        <time>2021-10-07T17:33:05Z</time>
      </trkpt>
      <trkpt lat="5.352003" lon="-72.398389">
        <ele>351.30</ele>
        <time>2021-10-07T17:33:07Z</time>
      </trkpt>
      <trkpt lat="5.351991" lon="-72.398339">
        <ele>351.00</ele>
        <time>2021-10-07T17:33:08Z</time>
      </trkpt>
      <trkpt lat="5.351969" lon="-72.398257">
        <ele>351.20</ele>
        <time>2021-10-07T17:33:10Z</time>
      </trkpt>
      <trkpt lat="5.351949" lon="-72.398197">
        <ele>351.20</ele>
        <time>2021-10-07T17:33:12Z</time>
      </trkpt>
      <trkpt lat="5.351934" lon="-72.398152">
        <ele>351.90</ele>
        <time>2021-10-07T17:33:13Z</time>
      </trkpt>
      <trkpt lat="5.351924" lon="-72.398103">
        <ele>351.80</ele>
        <time>2021-10-07T17:33:14Z</time>
      </trkpt>
      <trkpt lat="5.351916" lon="-72.398057">
        <ele>351.70</ele>
        <time>2021-10-07T17:33:16Z</time>
      </trkpt>
      <trkpt lat="5.351911" lon="-72.398005">
        <ele>351.20</ele>
        <time>2021-10-07T17:33:17Z</time>
      </trkpt>
      <trkpt lat="5.351898" lon="-72.397925">
        <ele>350.90</ele>
        <time>2021-10-07T17:33:18Z</time>
      </trkpt>
      <trkpt lat="5.351888" lon="-72.397855">
        <ele>351.10</ele>
        <time>2021-10-07T17:33:20Z</time>
      </trkpt>
      <trkpt lat="5.351882" lon="-72.397790">
        <ele>351.20</ele>
        <time>2021-10-07T17:33:21Z</time>
      </trkpt>
      <trkpt lat="5.351883" lon="-72.397733">
        <ele>351.30</ele>
        <time>2021-10-07T17:33:22Z</time>
      </trkpt>
      <trkpt lat="5.351885" lon="-72.397683">
        <ele>351.30</ele>
        <time>2021-10-07T17:33:23Z</time>
      </trkpt>
      <trkpt lat="5.351885" lon="-72.397637">
        <ele>351.30</ele>
        <time>2021-10-07T17:33:24Z</time>
      </trkpt>
      <trkpt lat="5.351884" lon="-72.397574">
        <ele>351.10</ele>
        <time>2021-10-07T17:33:25Z</time>
      </trkpt>
      <trkpt lat="5.351880" lon="-72.397500">
        <ele>351.10</ele>
        <time>2021-10-07T17:33:27Z</time>
      </trkpt>
      <trkpt lat="5.351867" lon="-72.397383">
        <ele>351.30</ele>
        <time>2021-10-07T17:33:29Z</time>
      </trkpt>
      <trkpt lat="5.351859" lon="-72.397194">
        <ele>352.10</ele>
        <time>2021-10-07T17:33:31Z</time>
      </trkpt>
      <trkpt lat="5.351869" lon="-72.397118">
        <ele>351.80</ele>
        <time>2021-10-07T17:33:33Z</time>
      </trkpt>
      <trkpt lat="5.351876" lon="-72.397083">
        <ele>351.50</ele>
        <time>2021-10-07T17:33:34Z</time>
      </trkpt>
      <trkpt lat="5.351884" lon="-72.397035">
        <ele>351.30</ele>
        <time>2021-10-07T17:33:35Z</time>
      </trkpt>
      <trkpt lat="5.351898" lon="-72.396999">
        <ele>350.60</ele>
        <time>2021-10-07T17:33:37Z</time>
      </trkpt>
      <trkpt lat="5.351905" lon="-72.396968">
        <ele>350.60</ele>
        <time>2021-10-07T17:33:38Z</time>
      </trkpt>
      <trkpt lat="5.351910" lon="-72.396938">
        <ele>350.70</ele>
        <time>2021-10-07T17:33:39Z</time>
      </trkpt>
      <trkpt lat="5.351908" lon="-72.396896">
        <ele>350.80</ele>
        <time>2021-10-07T17:33:40Z</time>
      </trkpt>
      <trkpt lat="5.351906" lon="-72.396864">
        <ele>350.80</ele>
        <time>2021-10-07T17:33:41Z</time>
      </trkpt>
      <trkpt lat="5.351904" lon="-72.396827">
        <ele>351.00</ele>
        <time>2021-10-07T17:33:42Z</time>
      </trkpt>
      <trkpt lat="5.351902" lon="-72.396776">
        <ele>351.20</ele>
        <time>2021-10-07T17:33:44Z</time>
      </trkpt>
      <trkpt lat="5.351911" lon="-72.396733">
        <ele>351.50</ele>
        <time>2021-10-07T17:33:46Z</time>
      </trkpt>
      <trkpt lat="5.351920" lon="-72.396699">
        <ele>351.80</ele>
        <time>2021-10-07T17:33:48Z</time>
      </trkpt>
      <trkpt lat="5.351923" lon="-72.396685">
        <ele>351.80</ele>
        <time>2021-10-07T17:33:49Z</time>
      </trkpt>
      <trkpt lat="5.351926" lon="-72.396676">
        <ele>352.10</ele>
        <time>2021-10-07T17:33:50Z</time>
      </trkpt>
      <trkpt lat="5.351929" lon="-72.396670">
        <ele>352.10</ele>
        <time>2021-10-07T17:33:51Z</time>
      </trkpt>
      <trkpt lat="5.351925" lon="-72.396654">
        <ele>352.10</ele>
        <time>2021-10-07T17:33:54Z</time>
      </trkpt>
      <trkpt lat="5.351922" lon="-72.396645">
        <ele>352.10</ele>
        <time>2021-10-07T17:33:55Z</time>
      </trkpt>
      <trkpt lat="5.351919" lon="-72.396637">
        <ele>352.40</ele>
        <time>2021-10-07T17:33:57Z</time>
      </trkpt>
      <trkpt lat="5.351916" lon="-72.396629">
        <ele>352.40</ele>
        <time>2021-10-07T17:33:58Z</time>
      </trkpt>
      <trkpt lat="5.351900" lon="-72.396600">
        <ele>352.40</ele>
        <time>2021-10-07T17:33:59Z</time>
      </trkpt>
      <trkpt lat="5.351879" lon="-72.396560">
        <ele>354.00</ele>
        <time>2021-10-07T17:34:01Z</time>
      </trkpt>
      <trkpt lat="5.351853" lon="-72.396515">
        <ele>355.10</ele>
        <time>2021-10-07T17:34:02Z</time>
      </trkpt>
      <trkpt lat="5.351828" lon="-72.396468">
        <ele>354.30</ele>
        <time>2021-10-07T17:34:03Z</time>
      </trkpt>
      <trkpt lat="5.351795" lon="-72.396412">
        <ele>354.50</ele>
        <time>2021-10-07T17:34:05Z</time>
      </trkpt>
      <trkpt lat="5.351765" lon="-72.396367">
        <ele>354.60</ele>
        <time>2021-10-07T17:34:06Z</time>
      </trkpt>
      <trkpt lat="5.351744" lon="-72.396338">
        <ele>354.30</ele>
        <time>2021-10-07T17:34:07Z</time>
      </trkpt>
      <trkpt lat="5.351735" lon="-72.396317">
        <ele>354.30</ele>
        <time>2021-10-07T17:34:08Z</time>
      </trkpt>
      <trkpt lat="5.351719" lon="-72.396278">
        <ele>354.60</ele>
        <time>2021-10-07T17:34:10Z</time>
      </trkpt>
      <trkpt lat="5.351712" lon="-72.396246">
        <ele>354.40</ele>
        <time>2021-10-07T17:34:11Z</time>
      </trkpt>
      <trkpt lat="5.351704" lon="-72.396219">
        <ele>354.40</ele>
        <time>2021-10-07T17:34:13Z</time>
      </trkpt>
      <trkpt lat="5.351700" lon="-72.396191">
        <ele>354.20</ele>
        <time>2021-10-07T17:34:14Z</time>
      </trkpt>
      <trkpt lat="5.351693" lon="-72.396162">
        <ele>354.00</ele>
        <time>2021-10-07T17:34:15Z</time>
      </trkpt>
      <trkpt lat="5.351679" lon="-72.396118">
        <ele>353.80</ele>
        <time>2021-10-07T17:34:17Z</time>
      </trkpt>
      <trkpt lat="5.351676" lon="-72.396090">
        <ele>353.80</ele>
        <time>2021-10-07T17:34:18Z</time>
      </trkpt>
      <trkpt lat="5.351676" lon="-72.396069">
        <ele>353.40</ele>
        <time>2021-10-07T17:34:19Z</time>
      </trkpt>
      <trkpt lat="5.351683" lon="-72.396036">
        <ele>353.00</ele>
        <time>2021-10-07T17:34:21Z</time>
      </trkpt>
      <trkpt lat="5.351687" lon="-72.396010">
        <ele>353.00</ele>
        <time>2021-10-07T17:34:23Z</time>
      </trkpt>
      <trkpt lat="5.351687" lon="-72.396003">
        <ele>353.00</ele>
        <time>2021-10-07T17:34:24Z</time>
      </trkpt>
      <trkpt lat="5.351688" lon="-72.395999">
        <ele>353.00</ele>
        <time>2021-10-07T17:34:26Z</time>
      </trkpt>
      <trkpt lat="5.351691" lon="-72.395999">
        <ele>353.00</ele>
        <time>2021-10-07T17:34:28Z</time>
      </trkpt>
      <trkpt lat="5.351692" lon="-72.395999">
        <ele>353.00</ele>
        <time>2021-10-07T17:34:29Z</time>
      </trkpt>
      <trkpt lat="5.351694" lon="-72.395999">
        <ele>353.00</ele>
        <time>2021-10-07T17:34:31Z</time>
      </trkpt>
      <trkpt lat="5.351695" lon="-72.395998">
        <ele>353.00</ele>
        <time>2021-10-07T17:34:32Z</time>
      </trkpt>
      <trkpt lat="5.351697" lon="-72.395996">
        <ele>352.60</ele>
        <time>2021-10-07T17:34:34Z</time>
      </trkpt>
      <trkpt lat="5.351697" lon="-72.395992">
        <ele>352.60</ele>
        <time>2021-10-07T17:34:35Z</time>
      </trkpt>
      <trkpt lat="5.351698" lon="-72.395986">
        <ele>352.60</ele>
        <time>2021-10-07T17:34:37Z</time>
      </trkpt>
      <trkpt lat="5.351700" lon="-72.395983">
        <ele>352.60</ele>
        <time>2021-10-07T17:34:38Z</time>
      </trkpt>
      <trkpt lat="5.351706" lon="-72.395975">
        <ele>352.60</ele>
        <time>2021-10-07T17:34:40Z</time>
      </trkpt>
      <trkpt lat="5.351710" lon="-72.395970">
        <ele>352.60</ele>
        <time>2021-10-07T17:34:41Z</time>
      </trkpt>
      <trkpt lat="5.351713" lon="-72.395967">
        <ele>352.60</ele>
        <time>2021-10-07T17:34:42Z</time>
      </trkpt>
      <trkpt lat="5.351718" lon="-72.395963">
        <ele>352.60</ele>
        <time>2021-10-07T17:34:43Z</time>
      </trkpt>
      <trkpt lat="5.351721" lon="-72.395960">
        <ele>352.60</ele>
        <time>2021-10-07T17:34:45Z</time>
      </trkpt>
      <trkpt lat="5.351724" lon="-72.395958">
        <ele>352.60</ele>
        <time>2021-10-07T17:34:46Z</time>
      </trkpt>
      <trkpt lat="5.351728" lon="-72.395956">
        <ele>352.40</ele>
        <time>2021-10-07T17:34:48Z</time>
      </trkpt>
      <trkpt lat="5.351729" lon="-72.395955">
        <ele>352.40</ele>
        <time>2021-10-07T17:34:49Z</time>
      </trkpt>
      <trkpt lat="5.351729" lon="-72.395958">
        <ele>352.40</ele>
        <time>2021-10-07T17:34:50Z</time>
      </trkpt>
      <trkpt lat="5.351731" lon="-72.395968">
        <ele>352.40</ele>
        <time>2021-10-07T17:34:52Z</time>
      </trkpt>
      <trkpt lat="5.351736" lon="-72.395981">
        <ele>352.40</ele>
        <time>2021-10-07T17:34:53Z</time>
      </trkpt>
      <trkpt lat="5.351737" lon="-72.395987">
        <ele>352.40</ele>
        <time>2021-10-07T17:34:54Z</time>
      </trkpt>
      <trkpt lat="5.351741" lon="-72.395993">
        <ele>352.40</ele>
        <time>2021-10-07T17:34:55Z</time>
      </trkpt>
      <trkpt lat="5.351745" lon="-72.395996">
        <ele>352.40</ele>
        <time>2021-10-07T17:34:57Z</time>
      </trkpt>
      <trkpt lat="5.351748" lon="-72.396000">
        <ele>352.70</ele>
        <time>2021-10-07T17:34:59Z</time>
      </trkpt>
      <trkpt lat="5.351752" lon="-72.396003">
        <ele>352.70</ele>
        <time>2021-10-07T17:35:01Z</time>
      </trkpt>
      <trkpt lat="5.351756" lon="-72.396007">
        <ele>352.70</ele>
        <time>2021-10-07T17:35:02Z</time>
      </trkpt>
      <trkpt lat="5.351760" lon="-72.396010">
        <ele>352.70</ele>
        <time>2021-10-07T17:35:03Z</time>
      </trkpt>
      <trkpt lat="5.351763" lon="-72.396014">
        <ele>352.70</ele>
        <time>2021-10-07T17:35:04Z</time>
      </trkpt>
      <trkpt lat="5.351767" lon="-72.396017">
        <ele>352.70</ele>
        <time>2021-10-07T17:35:06Z</time>
      </trkpt>
      <trkpt lat="5.351771" lon="-72.396021">
        <ele>352.20</ele>
        <time>2021-10-07T17:35:07Z</time>
      </trkpt>
      <trkpt lat="5.351802" lon="-72.396038">
        <ele>352.20</ele>
        <time>2021-10-07T17:35:08Z</time>
      </trkpt>
      <trkpt lat="5.351812" lon="-72.396045">
        <ele>352.40</ele>
        <time>2021-10-07T17:35:09Z</time>
      </trkpt>
      <trkpt lat="5.351841" lon="-72.396070">
        <ele>351.60</ele>
        <time>2021-10-07T17:35:10Z</time>
      </trkpt>
      <trkpt lat="5.351850" lon="-72.396079">
        <ele>351.60</ele>
        <time>2021-10-07T17:35:11Z</time>
      </trkpt>
      <trkpt lat="5.351875" lon="-72.396104">
        <ele>350.90</ele>
        <time>2021-10-07T17:35:13Z</time>
      </trkpt>
      <trkpt lat="5.351880" lon="-72.396138">
        <ele>351.10</ele>
        <time>2021-10-07T17:35:14Z</time>
      </trkpt>
      <trkpt lat="5.351890" lon="-72.396185">
        <ele>351.40</ele>
        <time>2021-10-07T17:35:15Z</time>
      </trkpt>
      <trkpt lat="5.351899" lon="-72.396212">
        <ele>350.90</ele>
        <time>2021-10-07T17:35:16Z</time>
      </trkpt>
      <trkpt lat="5.351912" lon="-72.396246">
        <ele>350.90</ele>
        <time>2021-10-07T17:35:17Z</time>
      </trkpt>
      <trkpt lat="5.351926" lon="-72.396277">
        <ele>351.10</ele>
        <time>2021-10-07T17:35:18Z</time>
      </trkpt>
      <trkpt lat="5.351947" lon="-72.396325">
        <ele>350.40</ele>
        <time>2021-10-07T17:35:20Z</time>
      </trkpt>
      <trkpt lat="5.351959" lon="-72.396363">
        <ele>350.50</ele>
        <time>2021-10-07T17:35:22Z</time>
      </trkpt>
      <trkpt lat="5.351970" lon="-72.396393">
        <ele>350.60</ele>
        <time>2021-10-07T17:35:24Z</time>
      </trkpt>
      <trkpt lat="5.351985" lon="-72.396444">
        <ele>349.30</ele>
        <time>2021-10-07T17:35:26Z</time>
      </trkpt>
      <trkpt lat="5.351993" lon="-72.396472">
        <ele>349.30</ele>
        <time>2021-10-07T17:35:27Z</time>
      </trkpt>
      <trkpt lat="5.352004" lon="-72.396511">
        <ele>349.30</ele>
        <time>2021-10-07T17:35:29Z</time>
      </trkpt>
      <trkpt lat="5.352010" lon="-72.396545">
        <ele>349.20</ele>
        <time>2021-10-07T17:35:30Z</time>
      </trkpt>
      <trkpt lat="5.352012" lon="-72.396555">
        <ele>349.10</ele>
        <time>2021-10-07T17:35:31Z</time>
      </trkpt>
      <trkpt lat="5.352014" lon="-72.396572">
        <ele>349.10</ele>
        <time>2021-10-07T17:35:32Z</time>
      </trkpt>
      <trkpt lat="5.352010" lon="-72.396595">
        <ele>349.10</ele>
        <time>2021-10-07T17:35:34Z</time>
      </trkpt>
      <trkpt lat="5.351998" lon="-72.396609">
        <ele>349.00</ele>
        <time>2021-10-07T17:35:36Z</time>
      </trkpt>
      <trkpt lat="5.351994" lon="-72.396614">
        <ele>349.00</ele>
        <time>2021-10-07T17:35:37Z</time>
      </trkpt>
      <trkpt lat="5.351993" lon="-72.396620">
        <ele>349.00</ele>
        <time>2021-10-07T17:35:39Z</time>
      </trkpt>
      <trkpt lat="5.351993" lon="-72.396623">
        <ele>349.00</ele>
        <time>2021-10-07T17:35:40Z</time>
      </trkpt>
      <trkpt lat="5.351994" lon="-72.396631">
        <ele>349.00</ele>
        <time>2021-10-07T17:35:42Z</time>
      </trkpt>
      <trkpt lat="5.351995" lon="-72.396635">
        <ele>349.00</ele>
        <time>2021-10-07T17:35:43Z</time>
      </trkpt>
      <trkpt lat="5.352003" lon="-72.396644">
        <ele>348.90</ele>
        <time>2021-10-07T17:35:45Z</time>
      </trkpt>
      <trkpt lat="5.352022" lon="-72.396666">
        <ele>348.90</ele>
        <time>2021-10-07T17:35:47Z</time>
      </trkpt>
      <trkpt lat="5.352031" lon="-72.396679">
        <ele>347.10</ele>
        <time>2021-10-07T17:35:48Z</time>
      </trkpt>
      <trkpt lat="5.352042" lon="-72.396708">
        <ele>347.10</ele>
        <time>2021-10-07T17:35:50Z</time>
      </trkpt>
      <trkpt lat="5.352053" lon="-72.396743">
        <ele>347.10</ele>
        <time>2021-10-07T17:35:52Z</time>
      </trkpt>
      <trkpt lat="5.352076" lon="-72.396775">
        <ele>345.90</ele>
        <time>2021-10-07T17:35:54Z</time>
      </trkpt>
      <trkpt lat="5.352113" lon="-72.396820">
        <ele>345.00</ele>
        <time>2021-10-07T17:35:56Z</time>
      </trkpt>
      <trkpt lat="5.352126" lon="-72.396831">
        <ele>345.00</ele>
        <time>2021-10-07T17:35:57Z</time>
      </trkpt>
      <trkpt lat="5.352158" lon="-72.396855">
        <ele>343.90</ele>
        <time>2021-10-07T17:35:59Z</time>
      </trkpt>
      <trkpt lat="5.352177" lon="-72.396872">
        <ele>344.30</ele>
        <time>2021-10-07T17:36:00Z</time>
      </trkpt>
      <trkpt lat="5.352213" lon="-72.396907">
        <ele>343.80</ele>
        <time>2021-10-07T17:36:02Z</time>
      </trkpt>
      <trkpt lat="5.352259" lon="-72.396947">
        <ele>343.50</ele>
        <time>2021-10-07T17:36:04Z</time>
      </trkpt>
      <trkpt lat="5.352292" lon="-72.396981">
        <ele>342.80</ele>
        <time>2021-10-07T17:36:05Z</time>
      </trkpt>
      <trkpt lat="5.352329" lon="-72.397032">
        <ele>343.80</ele>
        <time>2021-10-07T17:36:07Z</time>
      </trkpt>
      <trkpt lat="5.352356" lon="-72.397087">
        <ele>344.40</ele>
        <time>2021-10-07T17:36:09Z</time>
      </trkpt>
      <trkpt lat="5.352363" lon="-72.397117">
        <ele>345.10</ele>
        <time>2021-10-07T17:36:10Z</time>
      </trkpt>
      <trkpt lat="5.352365" lon="-72.397145">
        <ele>345.10</ele>
        <time>2021-10-07T17:36:11Z</time>
      </trkpt>
      <trkpt lat="5.352371" lon="-72.397221">
        <ele>345.90</ele>
        <time>2021-10-07T17:36:13Z</time>
      </trkpt>
      <trkpt lat="5.352374" lon="-72.397313">
        <ele>346.40</ele>
        <time>2021-10-07T17:36:15Z</time>
      </trkpt>
      <trkpt lat="5.352375" lon="-72.397363">
        <ele>346.70</ele>
        <time>2021-10-07T17:36:16Z</time>
      </trkpt>
      <trkpt lat="5.352376" lon="-72.397460">
        <ele>347.50</ele>
        <time>2021-10-07T17:36:18Z</time>
      </trkpt>
      <trkpt lat="5.352403" lon="-72.397561">
        <ele>348.10</ele>
        <time>2021-10-07T17:36:20Z</time>
      </trkpt>
      <trkpt lat="5.352421" lon="-72.397614">
        <ele>348.00</ele>
        <time>2021-10-07T17:36:21Z</time>
      </trkpt>
      <trkpt lat="5.352438" lon="-72.397651">
        <ele>348.00</ele>
        <time>2021-10-07T17:36:22Z</time>
      </trkpt>
      <trkpt lat="5.352458" lon="-72.397693">
        <ele>347.70</ele>
        <time>2021-10-07T17:36:23Z</time>
      </trkpt>
      <trkpt lat="5.352506" lon="-72.397788">
        <ele>347.50</ele>
        <time>2021-10-07T17:36:25Z</time>
      </trkpt>
      <trkpt lat="5.352540" lon="-72.397892">
        <ele>348.00</ele>
        <time>2021-10-07T17:36:27Z</time>
      </trkpt>
      <trkpt lat="5.352553" lon="-72.397962">
        <ele>348.10</ele>
        <time>2021-10-07T17:36:28Z</time>
      </trkpt>
      <trkpt lat="5.352559" lon="-72.398037">
        <ele>348.20</ele>
        <time>2021-10-07T17:36:29Z</time>
      </trkpt>
      <trkpt lat="5.352558" lon="-72.398164">
        <ele>348.00</ele>
        <time>2021-10-07T17:36:31Z</time>
      </trkpt>
      <trkpt lat="5.352545" lon="-72.398269">
        <ele>348.00</ele>
        <time>2021-10-07T17:36:33Z</time>
      </trkpt>
      <trkpt lat="5.352552" lon="-72.398340">
        <ele>347.90</ele>
        <time>2021-10-07T17:36:35Z</time>
      </trkpt>
      <trkpt lat="5.352567" lon="-72.398391">
        <ele>347.90</ele>
        <time>2021-10-07T17:36:36Z</time>
      </trkpt>
      <trkpt lat="5.352584" lon="-72.398431">
        <ele>348.00</ele>
        <time>2021-10-07T17:36:37Z</time>
      </trkpt>
      <trkpt lat="5.352619" lon="-72.398512">
        <ele>348.00</ele>
        <time>2021-10-07T17:36:39Z</time>
      </trkpt>
      <trkpt lat="5.352629" lon="-72.398592">
        <ele>347.70</ele>
        <time>2021-10-07T17:36:41Z</time>
      </trkpt>
      <trkpt lat="5.352626" lon="-72.398639">
        <ele>347.60</ele>
        <time>2021-10-07T17:36:42Z</time>
      </trkpt>
      <trkpt lat="5.352625" lon="-72.398692">
        <ele>347.60</ele>
        <time>2021-10-07T17:36:43Z</time>
      </trkpt>
      <trkpt lat="5.352633" lon="-72.398805">
        <ele>347.80</ele>
        <time>2021-10-07T17:36:45Z</time>
      </trkpt>
      <trkpt lat="5.352654" lon="-72.398905">
        <ele>348.30</ele>
        <time>2021-10-07T17:36:47Z</time>
      </trkpt>
      <trkpt lat="5.352659" lon="-72.398947">
        <ele>348.50</ele>
        <time>2021-10-07T17:36:48Z</time>
      </trkpt>
      <trkpt lat="5.352669" lon="-72.399033">
        <ele>348.90</ele>
        <time>2021-10-07T17:36:50Z</time>
      </trkpt>
      <trkpt lat="5.352698" lon="-72.399101">
        <ele>349.60</ele>
        <time>2021-10-07T17:36:52Z</time>
      </trkpt>
      <trkpt lat="5.352737" lon="-72.399162">
        <ele>350.10</ele>
        <time>2021-10-07T17:36:54Z</time>
      </trkpt>
      <trkpt lat="5.352770" lon="-72.399216">
        <ele>350.70</ele>
        <time>2021-10-07T17:36:56Z</time>
      </trkpt>
      <trkpt lat="5.352784" lon="-72.399248">
        <ele>350.70</ele>
        <time>2021-10-07T17:36:57Z</time>
      </trkpt>
      <trkpt lat="5.352801" lon="-72.399332">
        <ele>350.70</ele>
        <time>2021-10-07T17:36:59Z</time>
      </trkpt>
      <trkpt lat="5.352807" lon="-72.399430">
        <ele>350.60</ele>
        <time>2021-10-07T17:37:01Z</time>
      </trkpt>
      <trkpt lat="5.352820" lon="-72.399514">
        <ele>350.70</ele>
        <time>2021-10-07T17:37:03Z</time>
      </trkpt>
      <trkpt lat="5.352844" lon="-72.399575">
        <ele>351.00</ele>
        <time>2021-10-07T17:37:05Z</time>
      </trkpt>
      <trkpt lat="5.352859" lon="-72.399607">
        <ele>351.40</ele>
        <time>2021-10-07T17:37:06Z</time>
      </trkpt>
      <trkpt lat="5.352877" lon="-72.399666">
        <ele>351.70</ele>
        <time>2021-10-07T17:37:08Z</time>
      </trkpt>
      <trkpt lat="5.352878" lon="-72.399697">
        <ele>351.80</ele>
        <time>2021-10-07T17:37:09Z</time>
      </trkpt>
      <trkpt lat="5.352863" lon="-72.399752">
        <ele>351.80</ele>
        <time>2021-10-07T17:37:11Z</time>
      </trkpt>
      <trkpt lat="5.352848" lon="-72.399801">
        <ele>351.90</ele>
        <time>2021-10-07T17:37:13Z</time>
      </trkpt>
      <trkpt lat="5.352854" lon="-72.399835">
        <ele>352.10</ele>
        <time>2021-10-07T17:37:15Z</time>
      </trkpt>
      <trkpt lat="5.352878" lon="-72.399872">
        <ele>352.40</ele>
        <time>2021-10-07T17:37:17Z</time>
      </trkpt>
      <trkpt lat="5.352894" lon="-72.399889">
        <ele>351.80</ele>
        <time>2021-10-07T17:37:18Z</time>
      </trkpt>
      <trkpt lat="5.352931" lon="-72.399946">
        <ele>352.80</ele>
        <time>2021-10-07T17:37:20Z</time>
      </trkpt>
      <trkpt lat="5.352952" lon="-72.399984">
        <ele>352.80</ele>
        <time>2021-10-07T17:37:21Z</time>
      </trkpt>
      <trkpt lat="5.352994" lon="-72.400077">
        <ele>354.20</ele>
        <time>2021-10-07T17:37:23Z</time>
      </trkpt>
      <trkpt lat="5.353007" lon="-72.400117">
        <ele>354.60</ele>
        <time>2021-10-07T17:37:24Z</time>
      </trkpt>
      <trkpt lat="5.353033" lon="-72.400200">
        <ele>354.70</ele>
        <time>2021-10-07T17:37:26Z</time>
      </trkpt>
      <trkpt lat="5.353043" lon="-72.400237">
        <ele>355.00</ele>
        <time>2021-10-07T17:37:27Z</time>
      </trkpt>
      <trkpt lat="5.353058" lon="-72.400290">
        <ele>355.20</ele>
        <time>2021-10-07T17:37:29Z</time>
      </trkpt>
      <trkpt lat="5.353080" lon="-72.400327">
        <ele>355.20</ele>
        <time>2021-10-07T17:37:31Z</time>
      </trkpt>
      <trkpt lat="5.353101" lon="-72.400355">
        <ele>354.90</ele>
        <time>2021-10-07T17:37:33Z</time>
      </trkpt>
      <trkpt lat="5.353124" lon="-72.400392">
        <ele>354.70</ele>
        <time>2021-10-07T17:37:35Z</time>
      </trkpt>
      <trkpt lat="5.353171" lon="-72.400442">
        <ele>354.20</ele>
        <time>2021-10-07T17:37:37Z</time>
      </trkpt>
      <trkpt lat="5.353232" lon="-72.400525">
        <ele>353.90</ele>
        <time>2021-10-07T17:37:39Z</time>
      </trkpt>
      <trkpt lat="5.353304" lon="-72.400629">
        <ele>354.10</ele>
        <time>2021-10-07T17:37:41Z</time>
      </trkpt>
      <trkpt lat="5.353397" lon="-72.400752">
        <ele>354.10</ele>
        <time>2021-10-07T17:37:43Z</time>
      </trkpt>
      <trkpt lat="5.353476" lon="-72.400861">
        <ele>354.10</ele>
        <time>2021-10-07T17:37:45Z</time>
      </trkpt>
      <trkpt lat="5.353506" lon="-72.400925">
        <ele>354.10</ele>
        <time>2021-10-07T17:37:46Z</time>
      </trkpt>
      <trkpt lat="5.353537" lon="-72.400988">
        <ele>353.60</ele>
        <time>2021-10-07T17:37:47Z</time>
      </trkpt>
      <trkpt lat="5.353566" lon="-72.401049">
        <ele>353.10</ele>
        <time>2021-10-07T17:37:48Z</time>
      </trkpt>
      <trkpt lat="5.353640" lon="-72.401137">
        <ele>352.60</ele>
        <time>2021-10-07T17:37:50Z</time>
      </trkpt>
      <trkpt lat="5.353669" lon="-72.401166">
        <ele>352.40</ele>
        <time>2021-10-07T17:37:51Z</time>
      </trkpt>
      <trkpt lat="5.353732" lon="-72.401241">
        <ele>352.20</ele>
        <time>2021-10-07T17:37:53Z</time>
      </trkpt>
      <trkpt lat="5.353775" lon="-72.401276">
        <ele>351.90</ele>
        <time>2021-10-07T17:37:55Z</time>
      </trkpt>
      <trkpt lat="5.353802" lon="-72.401284">
        <ele>351.80</ele>
        <time>2021-10-07T17:37:56Z</time>
      </trkpt>
      <trkpt lat="5.353854" lon="-72.401295">
        <ele>351.80</ele>
        <time>2021-10-07T17:37:58Z</time>
      </trkpt>
      <trkpt lat="5.353887" lon="-72.401300">
        <ele>351.80</ele>
        <time>2021-10-07T17:37:59Z</time>
      </trkpt>
      <trkpt lat="5.353910" lon="-72.401307">
        <ele>351.80</ele>
        <time>2021-10-07T17:38:00Z</time>
      </trkpt>
      <trkpt lat="5.353934" lon="-72.401324">
        <ele>352.00</ele>
        <time>2021-10-07T17:38:02Z</time>
      </trkpt>
      <trkpt lat="5.353955" lon="-72.401334">
        <ele>351.80</ele>
        <time>2021-10-07T17:38:03Z</time>
      </trkpt>
      <trkpt lat="5.353988" lon="-72.401359">
        <ele>351.80</ele>
        <time>2021-10-07T17:38:05Z</time>
      </trkpt>
      <trkpt lat="5.353994" lon="-72.401374">
        <ele>351.60</ele>
        <time>2021-10-07T17:38:06Z</time>
      </trkpt>
      <trkpt lat="5.354001" lon="-72.401390">
        <ele>351.60</ele>
        <time>2021-10-07T17:38:07Z</time>
      </trkpt>
      <trkpt lat="5.354008" lon="-72.401406">
        <ele>351.50</ele>
        <time>2021-10-07T17:38:08Z</time>
      </trkpt>
      <trkpt lat="5.354017" lon="-72.401420">
        <ele>351.50</ele>
        <time>2021-10-07T17:38:10Z</time>
      </trkpt>
      <trkpt lat="5.354020" lon="-72.401422">
        <ele>351.50</ele>
        <time>2021-10-07T17:38:11Z</time>
      </trkpt>
      <trkpt lat="5.354021" lon="-72.401422">
        <ele>351.50</ele>
        <time>2021-10-07T17:38:12Z</time>
      </trkpt>
      <trkpt lat="5.354028" lon="-72.401426">
        <ele>351.50</ele>
        <time>2021-10-07T17:38:14Z</time>
      </trkpt>
      <trkpt lat="5.354051" lon="-72.401447">
        <ele>351.20</ele>
        <time>2021-10-07T17:38:16Z</time>
      </trkpt>
      <trkpt lat="5.354065" lon="-72.401460">
        <ele>351.10</ele>
        <time>2021-10-07T17:38:18Z</time>
      </trkpt>
      <trkpt lat="5.354071" lon="-72.401456">
        <ele>351.10</ele>
        <time>2021-10-07T17:38:19Z</time>
      </trkpt>
      <trkpt lat="5.354078" lon="-72.401452">
        <ele>351.00</ele>
        <time>2021-10-07T17:38:21Z</time>
      </trkpt>
      <trkpt lat="5.354081" lon="-72.401456">
        <ele>351.00</ele>
        <time>2021-10-07T17:38:22Z</time>
      </trkpt>
      <trkpt lat="5.354083" lon="-72.401462">
        <ele>351.00</ele>
        <time>2021-10-07T17:38:23Z</time>
      </trkpt>
      <trkpt lat="5.354083" lon="-72.401463">
        <ele>351.00</ele>
        <time>2021-10-07T17:38:24Z</time>
      </trkpt>
      <trkpt lat="5.354083" lon="-72.401464">
        <ele>351.00</ele>
        <time>2021-10-07T17:38:25Z</time>
      </trkpt>
      <trkpt lat="5.354083" lon="-72.401465">
        <ele>351.00</ele>
        <time>2021-10-07T17:38:27Z</time>
      </trkpt>
      <trkpt lat="5.354082" lon="-72.401465">
        <ele>351.00</ele>
        <time>2021-10-07T17:38:29Z</time>
      </trkpt>
      <trkpt lat="5.354082" lon="-72.401465">
        <ele>351.00</ele>
        <time>2021-10-07T17:38:30Z</time>
      </trkpt>
      <trkpt lat="5.354082" lon="-72.401465">
        <ele>351.00</ele>
        <time>2021-10-07T17:38:32Z</time>
      </trkpt>
      <trkpt lat="5.354102" lon="-72.401474">
        <ele>351.00</ele>
        <time>2021-10-07T17:38:50Z</time>
      </trkpt>
      <trkpt lat="5.354101" lon="-72.401474">
        <ele>351.00</ele>
        <time>2021-10-07T17:38:52Z</time>
      </trkpt>
      <trkpt lat="5.354116" lon="-72.401480">
        <ele>351.00</ele>
        <time>2021-10-07T17:38:54Z</time>
      </trkpt>
      <trkpt lat="5.354139" lon="-72.401495">
        <ele>351.00</ele>
        <time>2021-10-07T17:38:56Z</time>
      </trkpt>
      <trkpt lat="5.354148" lon="-72.401507">
        <ele>351.00</ele>
        <time>2021-10-07T17:38:57Z</time>
      </trkpt>
      <trkpt lat="5.354159" lon="-72.401520">
        <ele>351.00</ele>
        <time>2021-10-07T17:38:58Z</time>
      </trkpt>
      <trkpt lat="5.354164" lon="-72.401528">
        <ele>351.20</ele>
        <time>2021-10-07T17:38:59Z</time>
      </trkpt>
      <trkpt lat="5.354168" lon="-72.401544">
        <ele>351.40</ele>
        <time>2021-10-07T17:39:00Z</time>
      </trkpt>
      <trkpt lat="5.354167" lon="-72.401583">
        <ele>351.60</ele>
        <time>2021-10-07T17:39:02Z</time>
      </trkpt>
      <trkpt lat="5.354164" lon="-72.401603">
        <ele>351.60</ele>
        <time>2021-10-07T17:39:03Z</time>
      </trkpt>
      <trkpt lat="5.354155" lon="-72.401634">
        <ele>351.60</ele>
        <time>2021-10-07T17:39:05Z</time>
      </trkpt>
      <trkpt lat="5.354148" lon="-72.401651">
        <ele>351.60</ele>
        <time>2021-10-07T17:39:06Z</time>
      </trkpt>
      <trkpt lat="5.354138" lon="-72.401676">
        <ele>352.00</ele>
        <time>2021-10-07T17:39:08Z</time>
      </trkpt>
      <trkpt lat="5.354135" lon="-72.401709">
        <ele>352.30</ele>
        <time>2021-10-07T17:39:10Z</time>
      </trkpt>
      <trkpt lat="5.354128" lon="-72.401755">
        <ele>352.70</ele>
        <time>2021-10-07T17:39:12Z</time>
      </trkpt>
      <trkpt lat="5.354125" lon="-72.401780">
        <ele>352.70</ele>
        <time>2021-10-07T17:39:13Z</time>
      </trkpt>
      <trkpt lat="5.354121" lon="-72.401842">
        <ele>353.10</ele>
        <time>2021-10-07T17:39:15Z</time>
      </trkpt>
      <trkpt lat="5.354120" lon="-72.401879">
        <ele>353.10</ele>
        <time>2021-10-07T17:39:16Z</time>
      </trkpt>
      <trkpt lat="5.354121" lon="-72.401949">
        <ele>353.00</ele>
        <time>2021-10-07T17:39:18Z</time>
      </trkpt>
      <trkpt lat="5.354139" lon="-72.402025">
        <ele>352.30</ele>
        <time>2021-10-07T17:39:20Z</time>
      </trkpt>
      <trkpt lat="5.354153" lon="-72.402068">
        <ele>351.90</ele>
        <time>2021-10-07T17:39:21Z</time>
      </trkpt>
      <trkpt lat="5.354171" lon="-72.402125">
        <ele>351.70</ele>
        <time>2021-10-07T17:39:22Z</time>
      </trkpt>
      <trkpt lat="5.354215" lon="-72.402239">
        <ele>350.80</ele>
        <time>2021-10-07T17:39:24Z</time>
      </trkpt>
      <trkpt lat="5.354231" lon="-72.402295">
        <ele>350.70</ele>
        <time>2021-10-07T17:39:25Z</time>
      </trkpt>
      <trkpt lat="5.354255" lon="-72.402411">
        <ele>351.10</ele>
        <time>2021-10-07T17:39:27Z</time>
      </trkpt>
      <trkpt lat="5.354275" lon="-72.402531">
        <ele>351.90</ele>
        <time>2021-10-07T17:39:29Z</time>
      </trkpt>
      <trkpt lat="5.354281" lon="-72.402589">
        <ele>352.40</ele>
        <time>2021-10-07T17:39:30Z</time>
      </trkpt>
      <trkpt lat="5.354284" lon="-72.402707">
        <ele>353.90</ele>
        <time>2021-10-07T17:39:32Z</time>
      </trkpt>
      <trkpt lat="5.354292" lon="-72.402824">
        <ele>354.50</ele>
        <time>2021-10-07T17:39:34Z</time>
      </trkpt>
      <trkpt lat="5.354321" lon="-72.402902">
        <ele>354.60</ele>
        <time>2021-10-07T17:39:36Z</time>
      </trkpt>
      <trkpt lat="5.354332" lon="-72.402922">
        <ele>354.70</ele>
        <time>2021-10-07T17:39:37Z</time>
      </trkpt>
      <trkpt lat="5.354354" lon="-72.402967">
        <ele>354.30</ele>
        <time>2021-10-07T17:39:39Z</time>
      </trkpt>
      <trkpt lat="5.354367" lon="-72.402995">
        <ele>354.30</ele>
        <time>2021-10-07T17:39:40Z</time>
      </trkpt>
      <trkpt lat="5.354405" lon="-72.403072">
        <ele>353.80</ele>
        <time>2021-10-07T17:39:42Z</time>
      </trkpt>
      <trkpt lat="5.354421" lon="-72.403119">
        <ele>353.10</ele>
        <time>2021-10-07T17:39:44Z</time>
      </trkpt>
      <trkpt lat="5.354441" lon="-72.403214">
        <ele>352.20</ele>
        <time>2021-10-07T17:39:46Z</time>
      </trkpt>
      <trkpt lat="5.354450" lon="-72.403348">
        <ele>351.80</ele>
        <time>2021-10-07T17:39:48Z</time>
      </trkpt>
      <trkpt lat="5.354457" lon="-72.403511">
        <ele>353.20</ele>
        <time>2021-10-07T17:39:50Z</time>
      </trkpt>
      <trkpt lat="5.354458" lon="-72.403583">
        <ele>353.70</ele>
        <time>2021-10-07T17:39:51Z</time>
      </trkpt>
      <trkpt lat="5.354451" lon="-72.403650">
        <ele>354.50</ele>
        <time>2021-10-07T17:39:52Z</time>
      </trkpt>
      <trkpt lat="5.354438" lon="-72.403706">
        <ele>354.80</ele>
        <time>2021-10-07T17:39:53Z</time>
      </trkpt>
      <trkpt lat="5.354414" lon="-72.403767">
        <ele>354.90</ele>
        <time>2021-10-07T17:39:55Z</time>
      </trkpt>
      <trkpt lat="5.354400" lon="-72.403802">
        <ele>354.90</ele>
        <time>2021-10-07T17:39:56Z</time>
      </trkpt>
      <trkpt lat="5.354365" lon="-72.403824">
        <ele>355.00</ele>
        <time>2021-10-07T17:39:58Z</time>
      </trkpt>
    </trkseg>
  </trk>
</gpx>
